<?xml version="1.0" encoding="UTF-8"?>
<gpx version="1.1" creator="https://www.youtrack.es" xsi:schemaLocation="http://www.topografix.com/GPX/1/1 http://www.topografix.com/GPX/1/1/gpx.xsd http://www.garmin.com/xmlschemas/GpxExtensions/v3 http://www.garmin.com/xmlschemas/GpxExtensionsv3.xsd http://www.garmin.com/xmlschemas/TrackPointExtension/v1 http://www.garmin.com/xmlschemas/TrackPointExtensionv1.xsd" xmlns:gpxtpx="http://www.garmin.com/xmlschemas/TrackPointExtension/v1" xmlns:gpxx="http://www.garmin.com/xmlschemas/GpxExtensions/v3" xmlns:xsi="http://www.w3.org/2001/XMLSchema-instance">
  <metadata>
    <link href="https://www.youtrack.es">
      <text>YouTrack.es</text>
    </link>
    <time>2026-05-08T04:46:54Z</time>
  </metadata>
  <trk>
    <src>https://www.youtrack.es</src>
    <link href="https://www.youtrack.es/ruta/10162-15-19-en-ruta-cuenca">
      <text>YouTrack.es</text>
    </link>
    <trkseg>
      <trkpt lat="40.062780" lon="-2.125731">
        <ele>967.1</ele>
        <time>2019-12-29T08:10:50Z</time>
      </trkpt>
      <trkpt lat="40.062907" lon="-2.125848">
        <ele>948.0</ele>
        <time>2019-12-29T08:10:30Z</time>
      </trkpt>
      <trkpt lat="40.062907" lon="-2.125848">
        <ele>948.0</ele>
        <time>2019-12-29T08:10:30Z</time>
      </trkpt>
      <trkpt lat="40.062533" lon="-2.125621">
        <ele>967.0</ele>
        <time>2019-12-29T08:10:56Z</time>
      </trkpt>
      <trkpt lat="40.062196" lon="-2.125097">
        <ele>967.0</ele>
        <time>2019-12-29T08:11:00Z</time>
      </trkpt>
      <trkpt lat="40.062211" lon="-2.124876">
        <ele>967.5</ele>
        <time>2019-12-29T08:11:03Z</time>
      </trkpt>
      <trkpt lat="40.062265" lon="-2.124773">
        <ele>967.7</ele>
        <time>2019-12-29T08:11:05Z</time>
      </trkpt>
      <trkpt lat="40.062374" lon="-2.124660">
        <ele>967.9</ele>
        <time>2019-12-29T08:11:08Z</time>
      </trkpt>
      <trkpt lat="40.062424" lon="-2.124551">
        <ele>968.0</ele>
        <time>2019-12-29T08:11:10Z</time>
      </trkpt>
      <trkpt lat="40.062471" lon="-2.124441">
        <ele>968.7</ele>
        <time>2019-12-29T08:11:12Z</time>
      </trkpt>
      <trkpt lat="40.062526" lon="-2.124341">
        <ele>969.4</ele>
        <time>2019-12-29T08:11:14Z</time>
      </trkpt>
      <trkpt lat="40.062577" lon="-2.124241">
        <ele>970.0</ele>
        <time>2019-12-29T08:11:16Z</time>
      </trkpt>
      <trkpt lat="40.062628" lon="-2.124127">
        <ele>970.6</ele>
        <time>2019-12-29T08:11:18Z</time>
      </trkpt>
      <trkpt lat="40.062682" lon="-2.124010">
        <ele>971.0</ele>
        <time>2019-12-29T08:11:20Z</time>
      </trkpt>
      <trkpt lat="40.062732" lon="-2.123891">
        <ele>971.3</ele>
        <time>2019-12-29T08:11:22Z</time>
      </trkpt>
      <trkpt lat="40.062784" lon="-2.123775">
        <ele>971.5</ele>
        <time>2019-12-29T08:11:24Z</time>
      </trkpt>
      <trkpt lat="40.062837" lon="-2.123659">
        <ele>971.8</ele>
        <time>2019-12-29T08:11:26Z</time>
      </trkpt>
      <trkpt lat="40.062923" lon="-2.123456">
        <ele>972.0</ele>
        <time>2019-12-29T08:11:29Z</time>
      </trkpt>
      <trkpt lat="40.062974" lon="-2.123300">
        <ele>972.7</ele>
        <time>2019-12-29T08:11:32Z</time>
      </trkpt>
      <trkpt lat="40.062971" lon="-2.123165">
        <ele>973.0</ele>
        <time>2019-12-29T08:11:34Z</time>
      </trkpt>
      <trkpt lat="40.062967" lon="-2.122912">
        <ele>973.0</ele>
        <time>2019-12-29T08:11:37Z</time>
      </trkpt>
      <trkpt lat="40.063050" lon="-2.122799">
        <ele>973.8</ele>
        <time>2019-12-29T08:11:40Z</time>
      </trkpt>
      <trkpt lat="40.063141" lon="-2.122757">
        <ele>974.0</ele>
        <time>2019-12-29T08:11:42Z</time>
      </trkpt>
      <trkpt lat="40.063214" lon="-2.122677">
        <ele>974.2</ele>
        <time>2019-12-29T08:11:44Z</time>
      </trkpt>
      <trkpt lat="40.063262" lon="-2.122573">
        <ele>974.5</ele>
        <time>2019-12-29T08:11:46Z</time>
      </trkpt>
      <trkpt lat="40.063330" lon="-2.122429">
        <ele>975.1</ele>
        <time>2019-12-29T08:11:49Z</time>
      </trkpt>
      <trkpt lat="40.063392" lon="-2.122283">
        <ele>976.0</ele>
        <time>2019-12-29T08:11:52Z</time>
      </trkpt>
      <trkpt lat="40.063453" lon="-2.122148">
        <ele>976.7</ele>
        <time>2019-12-29T08:11:55Z</time>
      </trkpt>
      <trkpt lat="40.063480" lon="-2.121993">
        <ele>977.8</ele>
        <time>2019-12-29T08:11:58Z</time>
      </trkpt>
      <trkpt lat="40.063404" lon="-2.121885">
        <ele>978.5</ele>
        <time>2019-12-29T08:12:01Z</time>
      </trkpt>
      <trkpt lat="40.063263" lon="-2.121781">
        <ele>978.0</ele>
        <time>2019-12-29T08:12:04Z</time>
      </trkpt>
      <trkpt lat="40.063076" lon="-2.121643">
        <ele>979.0</ele>
        <time>2019-12-29T08:12:08Z</time>
      </trkpt>
      <trkpt lat="40.062901" lon="-2.121520">
        <ele>979.8</ele>
        <time>2019-12-29T08:12:11Z</time>
      </trkpt>
      <trkpt lat="40.062796" lon="-2.121439">
        <ele>979.9</ele>
        <time>2019-12-29T08:12:13Z</time>
      </trkpt>
      <trkpt lat="40.062695" lon="-2.121358">
        <ele>980.1</ele>
        <time>2019-12-29T08:12:15Z</time>
      </trkpt>
      <trkpt lat="40.062586" lon="-2.121282">
        <ele>980.2</ele>
        <time>2019-12-29T08:12:17Z</time>
      </trkpt>
      <trkpt lat="40.062481" lon="-2.121209">
        <ele>980.3</ele>
        <time>2019-12-29T08:12:19Z</time>
      </trkpt>
      <trkpt lat="40.062364" lon="-2.121122">
        <ele>980.0</ele>
        <time>2019-12-29T08:12:21Z</time>
      </trkpt>
      <trkpt lat="40.062249" lon="-2.121029">
        <ele>980.5</ele>
        <time>2019-12-29T08:12:24Z</time>
      </trkpt>
      <trkpt lat="40.062159" lon="-2.120940">
        <ele>980.6</ele>
        <time>2019-12-29T08:12:26Z</time>
      </trkpt>
      <trkpt lat="40.062068" lon="-2.120863">
        <ele>980.8</ele>
        <time>2019-12-29T08:12:28Z</time>
      </trkpt>
      <trkpt lat="40.061966" lon="-2.120800">
        <ele>981.0</ele>
        <time>2019-12-29T08:12:30Z</time>
      </trkpt>
      <trkpt lat="40.061868" lon="-2.120739">
        <ele>981.2</ele>
        <time>2019-12-29T08:12:32Z</time>
      </trkpt>
      <trkpt lat="40.061767" lon="-2.120663">
        <ele>981.4</ele>
        <time>2019-12-29T08:12:34Z</time>
      </trkpt>
      <trkpt lat="40.061683" lon="-2.120572">
        <ele>981.5</ele>
        <time>2019-12-29T08:12:36Z</time>
      </trkpt>
      <trkpt lat="40.061588" lon="-2.120506">
        <ele>981.7</ele>
        <time>2019-12-29T08:12:38Z</time>
      </trkpt>
      <trkpt lat="40.061507" lon="-2.120448">
        <ele>982.0</ele>
        <time>2019-12-29T08:12:40Z</time>
      </trkpt>
      <trkpt lat="40.061397" lon="-2.120366">
        <ele>982.3</ele>
        <time>2019-12-29T08:12:43Z</time>
      </trkpt>
      <trkpt lat="40.061312" lon="-2.120300">
        <ele>982.3</ele>
        <time>2019-12-29T08:12:45Z</time>
      </trkpt>
      <trkpt lat="40.061222" lon="-2.120232">
        <ele>982.3</ele>
        <time>2019-12-29T08:12:47Z</time>
      </trkpt>
      <trkpt lat="40.061116" lon="-2.120121">
        <ele>982.4</ele>
        <time>2019-12-29T08:12:50Z</time>
      </trkpt>
      <trkpt lat="40.061037" lon="-2.120051">
        <ele>982.6</ele>
        <time>2019-12-29T08:12:52Z</time>
      </trkpt>
      <trkpt lat="40.060947" lon="-2.119980">
        <ele>982.8</ele>
        <time>2019-12-29T08:12:54Z</time>
      </trkpt>
      <trkpt lat="40.060859" lon="-2.119902">
        <ele>983.0</ele>
        <time>2019-12-29T08:12:56Z</time>
      </trkpt>
      <trkpt lat="40.060763" lon="-2.119810">
        <ele>983.2</ele>
        <time>2019-12-29T08:12:58Z</time>
      </trkpt>
      <trkpt lat="40.060660" lon="-2.119732">
        <ele>983.3</ele>
        <time>2019-12-29T08:13:00Z</time>
      </trkpt>
      <trkpt lat="40.060559" lon="-2.119647">
        <ele>983.3</ele>
        <time>2019-12-29T08:13:02Z</time>
      </trkpt>
      <trkpt lat="40.060457" lon="-2.119563">
        <ele>983.2</ele>
        <time>2019-12-29T08:13:04Z</time>
      </trkpt>
      <trkpt lat="40.060346" lon="-2.119472">
        <ele>983.1</ele>
        <time>2019-12-29T08:13:06Z</time>
      </trkpt>
      <trkpt lat="40.060238" lon="-2.119377">
        <ele>983.0</ele>
        <time>2019-12-29T08:13:08Z</time>
      </trkpt>
      <trkpt lat="40.060126" lon="-2.119292">
        <ele>982.9</ele>
        <time>2019-12-29T08:13:10Z</time>
      </trkpt>
      <trkpt lat="40.060019" lon="-2.119207">
        <ele>982.7</ele>
        <time>2019-12-29T08:13:12Z</time>
      </trkpt>
      <trkpt lat="40.059917" lon="-2.119129">
        <ele>982.5</ele>
        <time>2019-12-29T08:13:14Z</time>
      </trkpt>
      <trkpt lat="40.059814" lon="-2.119047">
        <ele>982.2</ele>
        <time>2019-12-29T08:13:16Z</time>
      </trkpt>
      <trkpt lat="40.059704" lon="-2.118962">
        <ele>982.0</ele>
        <time>2019-12-29T08:13:18Z</time>
      </trkpt>
      <trkpt lat="40.059592" lon="-2.118876">
        <ele>981.8</ele>
        <time>2019-12-29T08:13:20Z</time>
      </trkpt>
      <trkpt lat="40.059480" lon="-2.118786">
        <ele>981.7</ele>
        <time>2019-12-29T08:13:22Z</time>
      </trkpt>
      <trkpt lat="40.059356" lon="-2.118697">
        <ele>981.7</ele>
        <time>2019-12-29T08:13:24Z</time>
      </trkpt>
      <trkpt lat="40.059241" lon="-2.118588">
        <ele>981.4</ele>
        <time>2019-12-29T08:13:26Z</time>
      </trkpt>
      <trkpt lat="40.059121" lon="-2.118494">
        <ele>980.9</ele>
        <time>2019-12-29T08:13:28Z</time>
      </trkpt>
      <trkpt lat="40.059013" lon="-2.118397">
        <ele>980.5</ele>
        <time>2019-12-29T08:13:30Z</time>
      </trkpt>
      <trkpt lat="40.058911" lon="-2.118300">
        <ele>980.1</ele>
        <time>2019-12-29T08:13:32Z</time>
      </trkpt>
      <trkpt lat="40.058810" lon="-2.118221">
        <ele>979.8</ele>
        <time>2019-12-29T08:13:34Z</time>
      </trkpt>
      <trkpt lat="40.058705" lon="-2.118156">
        <ele>979.5</ele>
        <time>2019-12-29T08:13:36Z</time>
      </trkpt>
      <trkpt lat="40.058606" lon="-2.118088">
        <ele>979.4</ele>
        <time>2019-12-29T08:13:38Z</time>
      </trkpt>
      <trkpt lat="40.058508" lon="-2.118010">
        <ele>979.3</ele>
        <time>2019-12-29T08:13:40Z</time>
      </trkpt>
      <trkpt lat="40.058418" lon="-2.117943">
        <ele>979.0</ele>
        <time>2019-12-29T08:13:42Z</time>
      </trkpt>
      <trkpt lat="40.058327" lon="-2.117883">
        <ele>978.5</ele>
        <time>2019-12-29T08:13:45Z</time>
      </trkpt>
      <trkpt lat="40.058232" lon="-2.117803">
        <ele>978.2</ele>
        <time>2019-12-29T08:13:48Z</time>
      </trkpt>
      <trkpt lat="40.058131" lon="-2.117718">
        <ele>978.0</ele>
        <time>2019-12-29T08:13:51Z</time>
      </trkpt>
      <trkpt lat="40.058031" lon="-2.117648">
        <ele>978.0</ele>
        <time>2019-12-29T08:13:54Z</time>
      </trkpt>
      <trkpt lat="40.057930" lon="-2.117573">
        <ele>978.0</ele>
        <time>2019-12-29T08:13:57Z</time>
      </trkpt>
      <trkpt lat="40.057842" lon="-2.117489">
        <ele>978.4</ele>
        <time>2019-12-29T08:14:00Z</time>
      </trkpt>
      <trkpt lat="40.057738" lon="-2.117413">
        <ele>978.7</ele>
        <time>2019-12-29T08:14:03Z</time>
      </trkpt>
      <trkpt lat="40.057629" lon="-2.117337">
        <ele>979.2</ele>
        <time>2019-12-29T08:14:06Z</time>
      </trkpt>
      <trkpt lat="40.057525" lon="-2.117257">
        <ele>979.7</ele>
        <time>2019-12-29T08:14:09Z</time>
      </trkpt>
      <trkpt lat="40.057427" lon="-2.117170">
        <ele>980.3</ele>
        <time>2019-12-29T08:14:12Z</time>
      </trkpt>
      <trkpt lat="40.057331" lon="-2.117103">
        <ele>980.7</ele>
        <time>2019-12-29T08:14:15Z</time>
      </trkpt>
      <trkpt lat="40.057233" lon="-2.117025">
        <ele>981.6</ele>
        <time>2019-12-29T08:14:19Z</time>
      </trkpt>
      <trkpt lat="40.057148" lon="-2.116948">
        <ele>982.2</ele>
        <time>2019-12-29T08:14:23Z</time>
      </trkpt>
      <trkpt lat="40.057056" lon="-2.116885">
        <ele>982.8</ele>
        <time>2019-12-29T08:14:28Z</time>
      </trkpt>
      <trkpt lat="40.056980" lon="-2.116814">
        <ele>984.0</ele>
        <time>2019-12-29T08:15:32Z</time>
      </trkpt>
      <trkpt lat="40.057061" lon="-2.116890">
        <ele>984.4</ele>
        <time>2019-12-29T08:21:04Z</time>
      </trkpt>
      <trkpt lat="40.057147" lon="-2.116961">
        <ele>984.4</ele>
        <time>2019-12-29T08:21:10Z</time>
      </trkpt>
      <trkpt lat="40.057229" lon="-2.117031">
        <ele>983.9</ele>
        <time>2019-12-29T08:21:17Z</time>
      </trkpt>
      <trkpt lat="40.057315" lon="-2.117087">
        <ele>983.6</ele>
        <time>2019-12-29T08:21:23Z</time>
      </trkpt>
      <trkpt lat="40.057390" lon="-2.117153">
        <ele>983.1</ele>
        <time>2019-12-29T08:21:29Z</time>
      </trkpt>
      <trkpt lat="40.057469" lon="-2.117210">
        <ele>982.7</ele>
        <time>2019-12-29T08:21:34Z</time>
      </trkpt>
      <trkpt lat="40.057547" lon="-2.117271">
        <ele>982.2</ele>
        <time>2019-12-29T08:21:40Z</time>
      </trkpt>
      <trkpt lat="40.057640" lon="-2.117344">
        <ele>982.2</ele>
        <time>2019-12-29T08:21:47Z</time>
      </trkpt>
      <trkpt lat="40.057725" lon="-2.117423">
        <ele>981.8</ele>
        <time>2019-12-29T08:21:53Z</time>
      </trkpt>
      <trkpt lat="40.057818" lon="-2.117483">
        <ele>981.5</ele>
        <time>2019-12-29T08:21:59Z</time>
      </trkpt>
      <trkpt lat="40.057900" lon="-2.117557">
        <ele>981.0</ele>
        <time>2019-12-29T08:22:05Z</time>
      </trkpt>
      <trkpt lat="40.057990" lon="-2.117614">
        <ele>980.2</ele>
        <time>2019-12-29T08:22:12Z</time>
      </trkpt>
      <trkpt lat="40.058062" lon="-2.117690">
        <ele>979.5</ele>
        <time>2019-12-29T08:22:18Z</time>
      </trkpt>
      <trkpt lat="40.058145" lon="-2.117739">
        <ele>979.0</ele>
        <time>2019-12-29T08:22:26Z</time>
      </trkpt>
      <trkpt lat="40.058055" lon="-2.117700">
        <ele>978.7</ele>
        <time>2019-12-29T08:23:24Z</time>
      </trkpt>
      <trkpt lat="40.057966" lon="-2.117620">
        <ele>979.0</ele>
        <time>2019-12-29T08:23:31Z</time>
      </trkpt>
      <trkpt lat="40.057889" lon="-2.117544">
        <ele>979.3</ele>
        <time>2019-12-29T08:23:35Z</time>
      </trkpt>
      <trkpt lat="40.057806" lon="-2.117481">
        <ele>979.8</ele>
        <time>2019-12-29T08:23:38Z</time>
      </trkpt>
      <trkpt lat="40.057713" lon="-2.117418">
        <ele>980.1</ele>
        <time>2019-12-29T08:23:41Z</time>
      </trkpt>
      <trkpt lat="40.057618" lon="-2.117342">
        <ele>980.5</ele>
        <time>2019-12-29T08:23:44Z</time>
      </trkpt>
      <trkpt lat="40.057530" lon="-2.117276">
        <ele>980.9</ele>
        <time>2019-12-29T08:23:47Z</time>
      </trkpt>
      <trkpt lat="40.057449" lon="-2.117200">
        <ele>981.2</ele>
        <time>2019-12-29T08:23:50Z</time>
      </trkpt>
      <trkpt lat="40.057358" lon="-2.117125">
        <ele>981.3</ele>
        <time>2019-12-29T08:23:53Z</time>
      </trkpt>
      <trkpt lat="40.057271" lon="-2.117056">
        <ele>981.8</ele>
        <time>2019-12-29T08:23:56Z</time>
      </trkpt>
      <trkpt lat="40.057187" lon="-2.116982">
        <ele>982.4</ele>
        <time>2019-12-29T08:23:59Z</time>
      </trkpt>
      <trkpt lat="40.057101" lon="-2.116919">
        <ele>982.7</ele>
        <time>2019-12-29T08:24:02Z</time>
      </trkpt>
      <trkpt lat="40.057015" lon="-2.116852">
        <ele>983.2</ele>
        <time>2019-12-29T08:24:05Z</time>
      </trkpt>
      <trkpt lat="40.056937" lon="-2.116785">
        <ele>983.6</ele>
        <time>2019-12-29T08:24:08Z</time>
      </trkpt>
      <trkpt lat="40.056852" lon="-2.116718">
        <ele>984.0</ele>
        <time>2019-12-29T08:24:11Z</time>
      </trkpt>
      <trkpt lat="40.056749" lon="-2.116632">
        <ele>984.4</ele>
        <time>2019-12-29T08:24:15Z</time>
      </trkpt>
      <trkpt lat="40.056669" lon="-2.116564">
        <ele>984.7</ele>
        <time>2019-12-29T08:24:18Z</time>
      </trkpt>
      <trkpt lat="40.056588" lon="-2.116499">
        <ele>985.2</ele>
        <time>2019-12-29T08:24:21Z</time>
      </trkpt>
      <trkpt lat="40.056509" lon="-2.116436">
        <ele>985.6</ele>
        <time>2019-12-29T08:24:24Z</time>
      </trkpt>
      <trkpt lat="40.056405" lon="-2.116357">
        <ele>986.3</ele>
        <time>2019-12-29T08:24:28Z</time>
      </trkpt>
      <trkpt lat="40.056330" lon="-2.116289">
        <ele>986.7</ele>
        <time>2019-12-29T08:24:31Z</time>
      </trkpt>
      <trkpt lat="40.056232" lon="-2.116220">
        <ele>987.5</ele>
        <time>2019-12-29T08:24:35Z</time>
      </trkpt>
      <trkpt lat="40.056151" lon="-2.116150">
        <ele>988.3</ele>
        <time>2019-12-29T08:24:39Z</time>
      </trkpt>
      <trkpt lat="40.056077" lon="-2.116072">
        <ele>988.6</ele>
        <time>2019-12-29T08:24:43Z</time>
      </trkpt>
      <trkpt lat="40.055992" lon="-2.116022">
        <ele>988.9</ele>
        <time>2019-12-29T08:24:46Z</time>
      </trkpt>
      <trkpt lat="40.055904" lon="-2.115955">
        <ele>989.3</ele>
        <time>2019-12-29T08:24:49Z</time>
      </trkpt>
      <trkpt lat="40.055824" lon="-2.115892">
        <ele>989.9</ele>
        <time>2019-12-29T08:24:52Z</time>
      </trkpt>
      <trkpt lat="40.055801" lon="-2.115777">
        <ele>990.5</ele>
        <time>2019-12-29T08:24:57Z</time>
      </trkpt>
      <trkpt lat="40.055893" lon="-2.115689">
        <ele>991.0</ele>
        <time>2019-12-29T08:25:02Z</time>
      </trkpt>
      <trkpt lat="40.055983" lon="-2.115601">
        <ele>991.7</ele>
        <time>2019-12-29T08:25:06Z</time>
      </trkpt>
      <trkpt lat="40.056029" lon="-2.115459">
        <ele>992.1</ele>
        <time>2019-12-29T08:25:10Z</time>
      </trkpt>
      <trkpt lat="40.056056" lon="-2.115341">
        <ele>992.3</ele>
        <time>2019-12-29T08:25:13Z</time>
      </trkpt>
      <trkpt lat="40.056080" lon="-2.115184">
        <ele>992.5</ele>
        <time>2019-12-29T08:25:17Z</time>
      </trkpt>
      <trkpt lat="40.056052" lon="-2.115055">
        <ele>992.7</ele>
        <time>2019-12-29T08:25:20Z</time>
      </trkpt>
      <trkpt lat="40.056002" lon="-2.114953">
        <ele>992.8</ele>
        <time>2019-12-29T08:25:23Z</time>
      </trkpt>
      <trkpt lat="40.055945" lon="-2.114827">
        <ele>992.8</ele>
        <time>2019-12-29T08:25:26Z</time>
      </trkpt>
      <trkpt lat="40.055920" lon="-2.114655">
        <ele>992.6</ele>
        <time>2019-12-29T08:25:29Z</time>
      </trkpt>
      <trkpt lat="40.055909" lon="-2.114535">
        <ele>992.4</ele>
        <time>2019-12-29T08:25:31Z</time>
      </trkpt>
      <trkpt lat="40.055889" lon="-2.114420">
        <ele>992.3</ele>
        <time>2019-12-29T08:25:33Z</time>
      </trkpt>
      <trkpt lat="40.055879" lon="-2.114300">
        <ele>992.1</ele>
        <time>2019-12-29T08:25:35Z</time>
      </trkpt>
      <trkpt lat="40.055870" lon="-2.114176">
        <ele>991.7</ele>
        <time>2019-12-29T08:25:37Z</time>
      </trkpt>
      <trkpt lat="40.055852" lon="-2.114005">
        <ele>991.1</ele>
        <time>2019-12-29T08:25:40Z</time>
      </trkpt>
      <trkpt lat="40.055850" lon="-2.113881">
        <ele>990.8</ele>
        <time>2019-12-29T08:25:42Z</time>
      </trkpt>
      <trkpt lat="40.055840" lon="-2.113747">
        <ele>990.5</ele>
        <time>2019-12-29T08:25:44Z</time>
      </trkpt>
      <trkpt lat="40.055832" lon="-2.113606">
        <ele>990.2</ele>
        <time>2019-12-29T08:25:46Z</time>
      </trkpt>
      <trkpt lat="40.055816" lon="-2.113479">
        <ele>989.9</ele>
        <time>2019-12-29T08:25:48Z</time>
      </trkpt>
      <trkpt lat="40.055808" lon="-2.113316">
        <ele>989.6</ele>
        <time>2019-12-29T08:25:51Z</time>
      </trkpt>
      <trkpt lat="40.055794" lon="-2.113173">
        <ele>989.4</ele>
        <time>2019-12-29T08:25:54Z</time>
      </trkpt>
      <trkpt lat="40.055785" lon="-2.113031">
        <ele>989.4</ele>
        <time>2019-12-29T08:25:57Z</time>
      </trkpt>
      <trkpt lat="40.055778" lon="-2.112899">
        <ele>989.6</ele>
        <time>2019-12-29T08:26:00Z</time>
      </trkpt>
      <trkpt lat="40.055731" lon="-2.112760">
        <ele>990.4</ele>
        <time>2019-12-29T08:26:04Z</time>
      </trkpt>
      <trkpt lat="40.055678" lon="-2.112635">
        <ele>991.5</ele>
        <time>2019-12-29T08:26:08Z</time>
      </trkpt>
      <trkpt lat="40.055628" lon="-2.112511">
        <ele>992.3</ele>
        <time>2019-12-29T08:26:12Z</time>
      </trkpt>
      <trkpt lat="40.055573" lon="-2.112390">
        <ele>993.5</ele>
        <time>2019-12-29T08:26:16Z</time>
      </trkpt>
      <trkpt lat="40.055516" lon="-2.112286">
        <ele>994.6</ele>
        <time>2019-12-29T08:26:20Z</time>
      </trkpt>
      <trkpt lat="40.055451" lon="-2.112178">
        <ele>995.7</ele>
        <time>2019-12-29T08:26:24Z</time>
      </trkpt>
      <trkpt lat="40.055386" lon="-2.112072">
        <ele>997.0</ele>
        <time>2019-12-29T08:26:28Z</time>
      </trkpt>
      <trkpt lat="40.055314" lon="-2.111958">
        <ele>998.3</ele>
        <time>2019-12-29T08:26:32Z</time>
      </trkpt>
      <trkpt lat="40.055246" lon="-2.111836">
        <ele>999.3</ele>
        <time>2019-12-29T08:26:36Z</time>
      </trkpt>
      <trkpt lat="40.055177" lon="-2.111718">
        <ele>1000.0</ele>
        <time>2019-12-29T08:26:40Z</time>
      </trkpt>
      <trkpt lat="40.055134" lon="-2.111612">
        <ele>1000.7</ele>
        <time>2019-12-29T08:26:43Z</time>
      </trkpt>
      <trkpt lat="40.055071" lon="-2.111473">
        <ele>1001.1</ele>
        <time>2019-12-29T08:26:46Z</time>
      </trkpt>
      <trkpt lat="40.055027" lon="-2.111321">
        <ele>1001.1</ele>
        <time>2019-12-29T08:26:48Z</time>
      </trkpt>
      <trkpt lat="40.055009" lon="-2.111125">
        <ele>1000.5</ele>
        <time>2019-12-29T08:26:50Z</time>
      </trkpt>
      <trkpt lat="40.054993" lon="-2.110910">
        <ele>999.6</ele>
        <time>2019-12-29T08:26:52Z</time>
      </trkpt>
      <trkpt lat="40.054989" lon="-2.110690">
        <ele>998.6</ele>
        <time>2019-12-29T08:26:54Z</time>
      </trkpt>
      <trkpt lat="40.054998" lon="-2.110471">
        <ele>997.6</ele>
        <time>2019-12-29T08:26:56Z</time>
      </trkpt>
      <trkpt lat="40.054996" lon="-2.110257">
        <ele>996.8</ele>
        <time>2019-12-29T08:26:58Z</time>
      </trkpt>
      <trkpt lat="40.054981" lon="-2.110068">
        <ele>996.1</ele>
        <time>2019-12-29T08:27:00Z</time>
      </trkpt>
      <trkpt lat="40.054936" lon="-2.109901">
        <ele>995.4</ele>
        <time>2019-12-29T08:27:02Z</time>
      </trkpt>
      <trkpt lat="40.054884" lon="-2.109760">
        <ele>994.9</ele>
        <time>2019-12-29T08:27:04Z</time>
      </trkpt>
      <trkpt lat="40.054824" lon="-2.109664">
        <ele>994.6</ele>
        <time>2019-12-29T08:27:06Z</time>
      </trkpt>
      <trkpt lat="40.054741" lon="-2.109555">
        <ele>994.6</ele>
        <time>2019-12-29T08:27:09Z</time>
      </trkpt>
      <trkpt lat="40.054672" lon="-2.109465">
        <ele>994.7</ele>
        <time>2019-12-29T08:27:12Z</time>
      </trkpt>
      <trkpt lat="40.054588" lon="-2.109365">
        <ele>995.1</ele>
        <time>2019-12-29T08:27:16Z</time>
      </trkpt>
      <trkpt lat="40.054529" lon="-2.109244">
        <ele>996.1</ele>
        <time>2019-12-29T08:27:20Z</time>
      </trkpt>
      <trkpt lat="40.054482" lon="-2.109125">
        <ele>996.8</ele>
        <time>2019-12-29T08:27:24Z</time>
      </trkpt>
      <trkpt lat="40.054427" lon="-2.109009">
        <ele>998.5</ele>
        <time>2019-12-29T08:27:29Z</time>
      </trkpt>
      <trkpt lat="40.054369" lon="-2.108881">
        <ele>1000.2</ele>
        <time>2019-12-29T08:27:34Z</time>
      </trkpt>
      <trkpt lat="40.054325" lon="-2.108772">
        <ele>1001.8</ele>
        <time>2019-12-29T08:27:38Z</time>
      </trkpt>
      <trkpt lat="40.054258" lon="-2.108672">
        <ele>1002.6</ele>
        <time>2019-12-29T08:27:42Z</time>
      </trkpt>
      <trkpt lat="40.054175" lon="-2.108542">
        <ele>1003.0</ele>
        <time>2019-12-29T08:27:45Z</time>
      </trkpt>
      <trkpt lat="40.054112" lon="-2.108406">
        <ele>1003.1</ele>
        <time>2019-12-29T08:27:47Z</time>
      </trkpt>
      <trkpt lat="40.054058" lon="-2.108214">
        <ele>1002.6</ele>
        <time>2019-12-29T08:27:49Z</time>
      </trkpt>
      <trkpt lat="40.054028" lon="-2.108103">
        <ele>1002.2</ele>
        <time>2019-12-29T08:27:50Z</time>
      </trkpt>
      <trkpt lat="40.053998" lon="-2.107987">
        <ele>1001.8</ele>
        <time>2019-12-29T08:27:51Z</time>
      </trkpt>
      <trkpt lat="40.053931" lon="-2.107767">
        <ele>1000.2</ele>
        <time>2019-12-29T08:27:53Z</time>
      </trkpt>
      <trkpt lat="40.053847" lon="-2.107587">
        <ele>998.4</ele>
        <time>2019-12-29T08:27:55Z</time>
      </trkpt>
      <trkpt lat="40.053751" lon="-2.107479">
        <ele>996.7</ele>
        <time>2019-12-29T08:27:57Z</time>
      </trkpt>
      <trkpt lat="40.053647" lon="-2.107411">
        <ele>995.5</ele>
        <time>2019-12-29T08:27:59Z</time>
      </trkpt>
      <trkpt lat="40.053555" lon="-2.107363">
        <ele>994.7</ele>
        <time>2019-12-29T08:28:01Z</time>
      </trkpt>
      <trkpt lat="40.053475" lon="-2.107281">
        <ele>994.4</ele>
        <time>2019-12-29T08:28:04Z</time>
      </trkpt>
      <trkpt lat="40.053415" lon="-2.107188">
        <ele>994.9</ele>
        <time>2019-12-29T08:28:07Z</time>
      </trkpt>
      <trkpt lat="40.053366" lon="-2.107079">
        <ele>995.8</ele>
        <time>2019-12-29T08:28:11Z</time>
      </trkpt>
      <trkpt lat="40.053308" lon="-2.106978">
        <ele>996.6</ele>
        <time>2019-12-29T08:28:15Z</time>
      </trkpt>
      <trkpt lat="40.053252" lon="-2.106880">
        <ele>997.5</ele>
        <time>2019-12-29T08:28:19Z</time>
      </trkpt>
      <trkpt lat="40.053196" lon="-2.106766">
        <ele>998.4</ele>
        <time>2019-12-29T08:28:23Z</time>
      </trkpt>
      <trkpt lat="40.053149" lon="-2.106657">
        <ele>999.7</ele>
        <time>2019-12-29T08:28:27Z</time>
      </trkpt>
      <trkpt lat="40.053093" lon="-2.106529">
        <ele>1001.3</ele>
        <time>2019-12-29T08:28:32Z</time>
      </trkpt>
      <trkpt lat="40.053036" lon="-2.106412">
        <ele>1003.0</ele>
        <time>2019-12-29T08:28:37Z</time>
      </trkpt>
      <trkpt lat="40.052979" lon="-2.106293">
        <ele>1003.9</ele>
        <time>2019-12-29T08:28:42Z</time>
      </trkpt>
      <trkpt lat="40.052930" lon="-2.106191">
        <ele>1005.1</ele>
        <time>2019-12-29T08:28:46Z</time>
      </trkpt>
      <trkpt lat="40.052878" lon="-2.106091">
        <ele>1006.1</ele>
        <time>2019-12-29T08:28:50Z</time>
      </trkpt>
      <trkpt lat="40.052824" lon="-2.105994">
        <ele>1007.0</ele>
        <time>2019-12-29T08:28:54Z</time>
      </trkpt>
      <trkpt lat="40.052769" lon="-2.105869">
        <ele>1008.0</ele>
        <time>2019-12-29T08:28:59Z</time>
      </trkpt>
      <trkpt lat="40.052715" lon="-2.105772">
        <ele>1008.6</ele>
        <time>2019-12-29T08:29:02Z</time>
      </trkpt>
      <trkpt lat="40.052687" lon="-2.105618">
        <ele>1008.7</ele>
        <time>2019-12-29T08:29:05Z</time>
      </trkpt>
      <trkpt lat="40.052665" lon="-2.105474">
        <ele>1008.3</ele>
        <time>2019-12-29T08:29:07Z</time>
      </trkpt>
      <trkpt lat="40.052631" lon="-2.105304">
        <ele>1007.9</ele>
        <time>2019-12-29T08:29:09Z</time>
      </trkpt>
      <trkpt lat="40.052582" lon="-2.105127">
        <ele>1007.0</ele>
        <time>2019-12-29T08:29:11Z</time>
      </trkpt>
      <trkpt lat="40.052531" lon="-2.104947">
        <ele>1006.3</ele>
        <time>2019-12-29T08:29:13Z</time>
      </trkpt>
      <trkpt lat="40.052472" lon="-2.104773">
        <ele>1005.1</ele>
        <time>2019-12-29T08:29:15Z</time>
      </trkpt>
      <trkpt lat="40.052392" lon="-2.104594">
        <ele>1003.8</ele>
        <time>2019-12-29T08:29:17Z</time>
      </trkpt>
      <trkpt lat="40.052304" lon="-2.104409">
        <ele>1002.5</ele>
        <time>2019-12-29T08:29:19Z</time>
      </trkpt>
      <trkpt lat="40.052216" lon="-2.104231">
        <ele>1001.6</ele>
        <time>2019-12-29T08:29:21Z</time>
      </trkpt>
      <trkpt lat="40.052129" lon="-2.104055">
        <ele>1000.6</ele>
        <time>2019-12-29T08:29:23Z</time>
      </trkpt>
      <trkpt lat="40.052039" lon="-2.103900">
        <ele>999.9</ele>
        <time>2019-12-29T08:29:25Z</time>
      </trkpt>
      <trkpt lat="40.051948" lon="-2.103773">
        <ele>999.4</ele>
        <time>2019-12-29T08:29:27Z</time>
      </trkpt>
      <trkpt lat="40.051860" lon="-2.103669">
        <ele>999.0</ele>
        <time>2019-12-29T08:29:29Z</time>
      </trkpt>
      <trkpt lat="40.051797" lon="-2.103576">
        <ele>998.7</ele>
        <time>2019-12-29T08:29:31Z</time>
      </trkpt>
      <trkpt lat="40.051710" lon="-2.103451">
        <ele>998.8</ele>
        <time>2019-12-29T08:29:34Z</time>
      </trkpt>
      <trkpt lat="40.051623" lon="-2.103338">
        <ele>999.0</ele>
        <time>2019-12-29T08:29:37Z</time>
      </trkpt>
      <trkpt lat="40.051551" lon="-2.103225">
        <ele>999.8</ele>
        <time>2019-12-29T08:29:40Z</time>
      </trkpt>
      <trkpt lat="40.051475" lon="-2.103103">
        <ele>1000.5</ele>
        <time>2019-12-29T08:29:43Z</time>
      </trkpt>
      <trkpt lat="40.051419" lon="-2.102967">
        <ele>1000.9</ele>
        <time>2019-12-29T08:29:46Z</time>
      </trkpt>
      <trkpt lat="40.051398" lon="-2.102805">
        <ele>1001.2</ele>
        <time>2019-12-29T08:29:49Z</time>
      </trkpt>
      <trkpt lat="40.051391" lon="-2.102650">
        <ele>1001.6</ele>
        <time>2019-12-29T08:29:52Z</time>
      </trkpt>
      <trkpt lat="40.051384" lon="-2.102501">
        <ele>1001.8</ele>
        <time>2019-12-29T08:29:55Z</time>
      </trkpt>
      <trkpt lat="40.051386" lon="-2.102344">
        <ele>1001.7</ele>
        <time>2019-12-29T08:29:58Z</time>
      </trkpt>
      <trkpt lat="40.051369" lon="-2.102187">
        <ele>1001.6</ele>
        <time>2019-12-29T08:30:01Z</time>
      </trkpt>
      <trkpt lat="40.051351" lon="-2.102039">
        <ele>1001.9</ele>
        <time>2019-12-29T08:30:04Z</time>
      </trkpt>
      <trkpt lat="40.051328" lon="-2.101886">
        <ele>1002.1</ele>
        <time>2019-12-29T08:30:07Z</time>
      </trkpt>
      <trkpt lat="40.051315" lon="-2.101739">
        <ele>1002.2</ele>
        <time>2019-12-29T08:30:10Z</time>
      </trkpt>
      <trkpt lat="40.051300" lon="-2.101592">
        <ele>1002.3</ele>
        <time>2019-12-29T08:30:13Z</time>
      </trkpt>
      <trkpt lat="40.051288" lon="-2.101446">
        <ele>1002.4</ele>
        <time>2019-12-29T08:30:16Z</time>
      </trkpt>
      <trkpt lat="40.051277" lon="-2.101292">
        <ele>1002.5</ele>
        <time>2019-12-29T08:30:19Z</time>
      </trkpt>
      <trkpt lat="40.051272" lon="-2.101146">
        <ele>1002.6</ele>
        <time>2019-12-29T08:30:22Z</time>
      </trkpt>
      <trkpt lat="40.051276" lon="-2.100996">
        <ele>1002.9</ele>
        <time>2019-12-29T08:30:25Z</time>
      </trkpt>
      <trkpt lat="40.051275" lon="-2.100853">
        <ele>1003.5</ele>
        <time>2019-12-29T08:30:28Z</time>
      </trkpt>
      <trkpt lat="40.051271" lon="-2.100712">
        <ele>1003.8</ele>
        <time>2019-12-29T08:30:31Z</time>
      </trkpt>
      <trkpt lat="40.051269" lon="-2.100576">
        <ele>1004.3</ele>
        <time>2019-12-29T08:30:34Z</time>
      </trkpt>
      <trkpt lat="40.051262" lon="-2.100438">
        <ele>1004.5</ele>
        <time>2019-12-29T08:30:37Z</time>
      </trkpt>
      <trkpt lat="40.051254" lon="-2.100307">
        <ele>1004.9</ele>
        <time>2019-12-29T08:30:40Z</time>
      </trkpt>
      <trkpt lat="40.051251" lon="-2.100169">
        <ele>1005.6</ele>
        <time>2019-12-29T08:30:43Z</time>
      </trkpt>
      <trkpt lat="40.051248" lon="-2.100040">
        <ele>1006.1</ele>
        <time>2019-12-29T08:30:46Z</time>
      </trkpt>
      <trkpt lat="40.051240" lon="-2.099923">
        <ele>1006.8</ele>
        <time>2019-12-29T08:30:49Z</time>
      </trkpt>
      <trkpt lat="40.051227" lon="-2.099805">
        <ele>1007.4</ele>
        <time>2019-12-29T08:30:52Z</time>
      </trkpt>
      <trkpt lat="40.051218" lon="-2.099662">
        <ele>1008.5</ele>
        <time>2019-12-29T08:30:56Z</time>
      </trkpt>
      <trkpt lat="40.051208" lon="-2.099525">
        <ele>1009.8</ele>
        <time>2019-12-29T08:31:00Z</time>
      </trkpt>
      <trkpt lat="40.051203" lon="-2.099387">
        <ele>1010.7</ele>
        <time>2019-12-29T08:31:04Z</time>
      </trkpt>
      <trkpt lat="40.051192" lon="-2.099253">
        <ele>1011.6</ele>
        <time>2019-12-29T08:31:08Z</time>
      </trkpt>
      <trkpt lat="40.051186" lon="-2.099131">
        <ele>1012.6</ele>
        <time>2019-12-29T08:31:12Z</time>
      </trkpt>
      <trkpt lat="40.051163" lon="-2.099016">
        <ele>1013.5</ele>
        <time>2019-12-29T08:31:16Z</time>
      </trkpt>
      <trkpt lat="40.051117" lon="-2.098891">
        <ele>1014.8</ele>
        <time>2019-12-29T08:31:20Z</time>
      </trkpt>
      <trkpt lat="40.051113" lon="-2.098767">
        <ele>1015.9</ele>
        <time>2019-12-29T08:31:24Z</time>
      </trkpt>
      <trkpt lat="40.051205" lon="-2.098706">
        <ele>1016.9</ele>
        <time>2019-12-29T08:31:29Z</time>
      </trkpt>
      <trkpt lat="40.051306" lon="-2.098712">
        <ele>1018.5</ele>
        <time>2019-12-29T08:31:34Z</time>
      </trkpt>
      <trkpt lat="40.051411" lon="-2.098670">
        <ele>1020.2</ele>
        <time>2019-12-29T08:31:40Z</time>
      </trkpt>
      <trkpt lat="40.051498" lon="-2.098634">
        <ele>1021.0</ele>
        <time>2019-12-29T08:31:45Z</time>
      </trkpt>
      <trkpt lat="40.051546" lon="-2.098518">
        <ele>1022.8</ele>
        <time>2019-12-29T08:31:52Z</time>
      </trkpt>
      <trkpt lat="40.051546" lon="-2.098379">
        <ele>1024.4</ele>
        <time>2019-12-29T08:31:58Z</time>
      </trkpt>
      <trkpt lat="40.051561" lon="-2.098255">
        <ele>1025.2</ele>
        <time>2019-12-29T08:32:03Z</time>
      </trkpt>
      <trkpt lat="40.051594" lon="-2.098120">
        <ele>1025.8</ele>
        <time>2019-12-29T08:32:08Z</time>
      </trkpt>
      <trkpt lat="40.051670" lon="-2.098042">
        <ele>1026.0</ele>
        <time>2019-12-29T08:32:12Z</time>
      </trkpt>
      <trkpt lat="40.051768" lon="-2.097970">
        <ele>1026.4</ele>
        <time>2019-12-29T08:32:16Z</time>
      </trkpt>
      <trkpt lat="40.051856" lon="-2.097906">
        <ele>1026.7</ele>
        <time>2019-12-29T08:32:19Z</time>
      </trkpt>
      <trkpt lat="40.051947" lon="-2.097844">
        <ele>1026.8</ele>
        <time>2019-12-29T08:32:21Z</time>
      </trkpt>
      <trkpt lat="40.052054" lon="-2.097742">
        <ele>1026.5</ele>
        <time>2019-12-29T08:32:23Z</time>
      </trkpt>
      <trkpt lat="40.052172" lon="-2.097657">
        <ele>1025.7</ele>
        <time>2019-12-29T08:32:25Z</time>
      </trkpt>
      <trkpt lat="40.052292" lon="-2.097626">
        <ele>1024.9</ele>
        <time>2019-12-29T08:32:27Z</time>
      </trkpt>
      <trkpt lat="40.052395" lon="-2.097585">
        <ele>1024.2</ele>
        <time>2019-12-29T08:32:30Z</time>
      </trkpt>
      <trkpt lat="40.052494" lon="-2.097501">
        <ele>1023.9</ele>
        <time>2019-12-29T08:32:34Z</time>
      </trkpt>
      <trkpt lat="40.052575" lon="-2.097420">
        <ele>1024.2</ele>
        <time>2019-12-29T08:32:37Z</time>
      </trkpt>
      <trkpt lat="40.052668" lon="-2.097349">
        <ele>1024.5</ele>
        <time>2019-12-29T08:32:41Z</time>
      </trkpt>
      <trkpt lat="40.052748" lon="-2.097289">
        <ele>1025.0</ele>
        <time>2019-12-29T08:32:45Z</time>
      </trkpt>
      <trkpt lat="40.052830" lon="-2.097214">
        <ele>1025.8</ele>
        <time>2019-12-29T08:32:49Z</time>
      </trkpt>
      <trkpt lat="40.052916" lon="-2.097141">
        <ele>1026.7</ele>
        <time>2019-12-29T08:32:53Z</time>
      </trkpt>
      <trkpt lat="40.053002" lon="-2.097077">
        <ele>1027.4</ele>
        <time>2019-12-29T08:32:57Z</time>
      </trkpt>
      <trkpt lat="40.053084" lon="-2.096991">
        <ele>1028.0</ele>
        <time>2019-12-29T08:33:01Z</time>
      </trkpt>
      <trkpt lat="40.053177" lon="-2.096930">
        <ele>1028.5</ele>
        <time>2019-12-29T08:33:05Z</time>
      </trkpt>
      <trkpt lat="40.053267" lon="-2.096872">
        <ele>1029.3</ele>
        <time>2019-12-29T08:33:09Z</time>
      </trkpt>
      <trkpt lat="40.053356" lon="-2.096822">
        <ele>1030.2</ele>
        <time>2019-12-29T08:33:13Z</time>
      </trkpt>
      <trkpt lat="40.053441" lon="-2.096782">
        <ele>1031.3</ele>
        <time>2019-12-29T08:33:17Z</time>
      </trkpt>
      <trkpt lat="40.053524" lon="-2.096731">
        <ele>1032.3</ele>
        <time>2019-12-29T08:33:21Z</time>
      </trkpt>
      <trkpt lat="40.053618" lon="-2.096687">
        <ele>1033.1</ele>
        <time>2019-12-29T08:33:25Z</time>
      </trkpt>
      <trkpt lat="40.053707" lon="-2.096618">
        <ele>1034.0</ele>
        <time>2019-12-29T08:33:29Z</time>
      </trkpt>
      <trkpt lat="40.053802" lon="-2.096532">
        <ele>1034.5</ele>
        <time>2019-12-29T08:33:33Z</time>
      </trkpt>
      <trkpt lat="40.053889" lon="-2.096481">
        <ele>1034.8</ele>
        <time>2019-12-29T08:33:37Z</time>
      </trkpt>
      <trkpt lat="40.053990" lon="-2.096466">
        <ele>1035.1</ele>
        <time>2019-12-29T08:33:42Z</time>
      </trkpt>
      <trkpt lat="40.054087" lon="-2.096420">
        <ele>1036.0</ele>
        <time>2019-12-29T08:33:47Z</time>
      </trkpt>
      <trkpt lat="40.054184" lon="-2.096389">
        <ele>1037.1</ele>
        <time>2019-12-29T08:33:52Z</time>
      </trkpt>
      <trkpt lat="40.054278" lon="-2.096375">
        <ele>1038.1</ele>
        <time>2019-12-29T08:33:57Z</time>
      </trkpt>
      <trkpt lat="40.054376" lon="-2.096382">
        <ele>1039.2</ele>
        <time>2019-12-29T08:34:03Z</time>
      </trkpt>
      <trkpt lat="40.054468" lon="-2.096377">
        <ele>1041.1</ele>
        <time>2019-12-29T08:34:09Z</time>
      </trkpt>
      <trkpt lat="40.054567" lon="-2.096353">
        <ele>1042.6</ele>
        <time>2019-12-29T08:34:16Z</time>
      </trkpt>
      <trkpt lat="40.054656" lon="-2.096339">
        <ele>1043.9</ele>
        <time>2019-12-29T08:34:22Z</time>
      </trkpt>
      <trkpt lat="40.054693" lon="-2.096220">
        <ele>1046.1</ele>
        <time>2019-12-29T08:34:29Z</time>
      </trkpt>
      <trkpt lat="40.054699" lon="-2.096095">
        <ele>1046.7</ele>
        <time>2019-12-29T08:34:35Z</time>
      </trkpt>
      <trkpt lat="40.054636" lon="-2.095979">
        <ele>1046.8</ele>
        <time>2019-12-29T08:34:40Z</time>
      </trkpt>
      <trkpt lat="40.054587" lon="-2.095860">
        <ele>1047.3</ele>
        <time>2019-12-29T08:34:46Z</time>
      </trkpt>
      <trkpt lat="40.054541" lon="-2.095751">
        <ele>1048.2</ele>
        <time>2019-12-29T08:34:52Z</time>
      </trkpt>
      <trkpt lat="40.054482" lon="-2.095651">
        <ele>1049.2</ele>
        <time>2019-12-29T08:34:58Z</time>
      </trkpt>
      <trkpt lat="40.054407" lon="-2.095542">
        <ele>1050.5</ele>
        <time>2019-12-29T08:35:04Z</time>
      </trkpt>
      <trkpt lat="40.054363" lon="-2.095438">
        <ele>1051.1</ele>
        <time>2019-12-29T08:35:08Z</time>
      </trkpt>
      <trkpt lat="40.054335" lon="-2.095309">
        <ele>1051.3</ele>
        <time>2019-12-29T08:35:12Z</time>
      </trkpt>
      <trkpt lat="40.054284" lon="-2.095190">
        <ele>1051.3</ele>
        <time>2019-12-29T08:35:15Z</time>
      </trkpt>
      <trkpt lat="40.054242" lon="-2.095045">
        <ele>1050.8</ele>
        <time>2019-12-29T08:35:18Z</time>
      </trkpt>
      <trkpt lat="40.054232" lon="-2.094926">
        <ele>1050.2</ele>
        <time>2019-12-29T08:35:20Z</time>
      </trkpt>
      <trkpt lat="40.054264" lon="-2.094815">
        <ele>1049.6</ele>
        <time>2019-12-29T08:35:22Z</time>
      </trkpt>
      <trkpt lat="40.054317" lon="-2.094685">
        <ele>1049.0</ele>
        <time>2019-12-29T08:35:25Z</time>
      </trkpt>
      <trkpt lat="40.054380" lon="-2.094559">
        <ele>1048.5</ele>
        <time>2019-12-29T08:35:28Z</time>
      </trkpt>
      <trkpt lat="40.054469" lon="-2.094460">
        <ele>1048.2</ele>
        <time>2019-12-29T08:35:31Z</time>
      </trkpt>
      <trkpt lat="40.054561" lon="-2.094383">
        <ele>1048.4</ele>
        <time>2019-12-29T08:35:34Z</time>
      </trkpt>
      <trkpt lat="40.054669" lon="-2.094295">
        <ele>1048.4</ele>
        <time>2019-12-29T08:35:37Z</time>
      </trkpt>
      <trkpt lat="40.054770" lon="-2.094254">
        <ele>1048.1</ele>
        <time>2019-12-29T08:35:40Z</time>
      </trkpt>
      <trkpt lat="40.054861" lon="-2.094220">
        <ele>1048.2</ele>
        <time>2019-12-29T08:35:43Z</time>
      </trkpt>
      <trkpt lat="40.054963" lon="-2.094167">
        <ele>1049.0</ele>
        <time>2019-12-29T08:35:47Z</time>
      </trkpt>
      <trkpt lat="40.055054" lon="-2.094099">
        <ele>1049.6</ele>
        <time>2019-12-29T08:35:51Z</time>
      </trkpt>
      <trkpt lat="40.055119" lon="-2.093995">
        <ele>1050.0</ele>
        <time>2019-12-29T08:35:55Z</time>
      </trkpt>
      <trkpt lat="40.055183" lon="-2.093880">
        <ele>1050.8</ele>
        <time>2019-12-29T08:35:59Z</time>
      </trkpt>
      <trkpt lat="40.055237" lon="-2.093761">
        <ele>1051.2</ele>
        <time>2019-12-29T08:36:02Z</time>
      </trkpt>
      <trkpt lat="40.055292" lon="-2.093643">
        <ele>1051.6</ele>
        <time>2019-12-29T08:36:05Z</time>
      </trkpt>
      <trkpt lat="40.055327" lon="-2.093518">
        <ele>1051.8</ele>
        <time>2019-12-29T08:36:08Z</time>
      </trkpt>
      <trkpt lat="40.055367" lon="-2.093374">
        <ele>1052.0</ele>
        <time>2019-12-29T08:36:12Z</time>
      </trkpt>
      <trkpt lat="40.055343" lon="-2.093229">
        <ele>1052.4</ele>
        <time>2019-12-29T08:36:16Z</time>
      </trkpt>
      <trkpt lat="40.055340" lon="-2.093100">
        <ele>1053.0</ele>
        <time>2019-12-29T08:36:19Z</time>
      </trkpt>
      <trkpt lat="40.055321" lon="-2.092951">
        <ele>1053.6</ele>
        <time>2019-12-29T08:36:23Z</time>
      </trkpt>
      <trkpt lat="40.055270" lon="-2.092816">
        <ele>1054.0</ele>
        <time>2019-12-29T08:36:27Z</time>
      </trkpt>
      <trkpt lat="40.055230" lon="-2.092705">
        <ele>1054.1</ele>
        <time>2019-12-29T08:36:30Z</time>
      </trkpt>
      <trkpt lat="40.055192" lon="-2.092595">
        <ele>1054.2</ele>
        <time>2019-12-29T08:36:33Z</time>
      </trkpt>
      <trkpt lat="40.055203" lon="-2.092446">
        <ele>1054.7</ele>
        <time>2019-12-29T08:36:37Z</time>
      </trkpt>
      <trkpt lat="40.055236" lon="-2.092303">
        <ele>1055.5</ele>
        <time>2019-12-29T08:36:41Z</time>
      </trkpt>
      <trkpt lat="40.055269" lon="-2.092175">
        <ele>1056.6</ele>
        <time>2019-12-29T08:36:45Z</time>
      </trkpt>
      <trkpt lat="40.055237" lon="-2.092064">
        <ele>1057.3</ele>
        <time>2019-12-29T08:36:49Z</time>
      </trkpt>
      <trkpt lat="40.055313" lon="-2.091955">
        <ele>1058.5</ele>
        <time>2019-12-29T08:36:54Z</time>
      </trkpt>
      <trkpt lat="40.055345" lon="-2.091813">
        <ele>1059.2</ele>
        <time>2019-12-29T08:36:59Z</time>
      </trkpt>
      <trkpt lat="40.055390" lon="-2.091673">
        <ele>1059.6</ele>
        <time>2019-12-29T08:37:03Z</time>
      </trkpt>
      <trkpt lat="40.055420" lon="-2.091539">
        <ele>1060.2</ele>
        <time>2019-12-29T08:37:07Z</time>
      </trkpt>
      <trkpt lat="40.055439" lon="-2.091421">
        <ele>1060.6</ele>
        <time>2019-12-29T08:37:11Z</time>
      </trkpt>
      <trkpt lat="40.055423" lon="-2.091305">
        <ele>1061.4</ele>
        <time>2019-12-29T08:37:15Z</time>
      </trkpt>
      <trkpt lat="40.055412" lon="-2.091156">
        <ele>1062.1</ele>
        <time>2019-12-29T08:37:19Z</time>
      </trkpt>
      <trkpt lat="40.055380" lon="-2.091040">
        <ele>1062.7</ele>
        <time>2019-12-29T08:37:23Z</time>
      </trkpt>
      <trkpt lat="40.055368" lon="-2.090917">
        <ele>1063.5</ele>
        <time>2019-12-29T08:37:28Z</time>
      </trkpt>
      <trkpt lat="40.055400" lon="-2.090781">
        <ele>1064.4</ele>
        <time>2019-12-29T08:37:33Z</time>
      </trkpt>
      <trkpt lat="40.055431" lon="-2.090659">
        <ele>1065.5</ele>
        <time>2019-12-29T08:37:38Z</time>
      </trkpt>
      <trkpt lat="40.055450" lon="-2.090536">
        <ele>1066.2</ele>
        <time>2019-12-29T08:37:43Z</time>
      </trkpt>
      <trkpt lat="40.055452" lon="-2.090417">
        <ele>1066.9</ele>
        <time>2019-12-29T08:37:48Z</time>
      </trkpt>
      <trkpt lat="40.055425" lon="-2.090286">
        <ele>1068.1</ele>
        <time>2019-12-29T08:37:54Z</time>
      </trkpt>
      <trkpt lat="40.055381" lon="-2.090167">
        <ele>1069.6</ele>
        <time>2019-12-29T08:37:59Z</time>
      </trkpt>
      <trkpt lat="40.055341" lon="-2.090034">
        <ele>1070.3</ele>
        <time>2019-12-29T08:38:04Z</time>
      </trkpt>
      <trkpt lat="40.055315" lon="-2.089900">
        <ele>1071.3</ele>
        <time>2019-12-29T08:38:10Z</time>
      </trkpt>
      <trkpt lat="40.055269" lon="-2.089784">
        <ele>1071.8</ele>
        <time>2019-12-29T08:38:16Z</time>
      </trkpt>
      <trkpt lat="40.055240" lon="-2.089660">
        <ele>1073.0</ele>
        <time>2019-12-29T08:38:22Z</time>
      </trkpt>
      <trkpt lat="40.055210" lon="-2.089548">
        <ele>1073.7</ele>
        <time>2019-12-29T08:38:27Z</time>
      </trkpt>
      <trkpt lat="40.055211" lon="-2.089404">
        <ele>1074.7</ele>
        <time>2019-12-29T08:38:33Z</time>
      </trkpt>
      <trkpt lat="40.055173" lon="-2.089279">
        <ele>1075.7</ele>
        <time>2019-12-29T08:38:39Z</time>
      </trkpt>
      <trkpt lat="40.055173" lon="-2.089144">
        <ele>1076.4</ele>
        <time>2019-12-29T08:38:45Z</time>
      </trkpt>
      <trkpt lat="40.055206" lon="-2.089015">
        <ele>1077.0</ele>
        <time>2019-12-29T08:38:52Z</time>
      </trkpt>
      <trkpt lat="40.055205" lon="-2.088881">
        <ele>1077.9</ele>
        <time>2019-12-29T08:38:59Z</time>
      </trkpt>
      <trkpt lat="40.055238" lon="-2.088766">
        <ele>1078.9</ele>
        <time>2019-12-29T08:39:05Z</time>
      </trkpt>
      <trkpt lat="40.055306" lon="-2.088688">
        <ele>1079.8</ele>
        <time>2019-12-29T08:39:11Z</time>
      </trkpt>
      <trkpt lat="40.055398" lon="-2.088650">
        <ele>1080.3</ele>
        <time>2019-12-29T08:39:17Z</time>
      </trkpt>
      <trkpt lat="40.055502" lon="-2.088653">
        <ele>1081.4</ele>
        <time>2019-12-29T08:39:23Z</time>
      </trkpt>
      <trkpt lat="40.055596" lon="-2.088659">
        <ele>1082.2</ele>
        <time>2019-12-29T08:39:29Z</time>
      </trkpt>
      <trkpt lat="40.055700" lon="-2.088659">
        <ele>1082.8</ele>
        <time>2019-12-29T08:39:35Z</time>
      </trkpt>
      <trkpt lat="40.055795" lon="-2.088673">
        <ele>1083.9</ele>
        <time>2019-12-29T08:39:40Z</time>
      </trkpt>
      <trkpt lat="40.055885" lon="-2.088648">
        <ele>1084.5</ele>
        <time>2019-12-29T08:39:46Z</time>
      </trkpt>
      <trkpt lat="40.055977" lon="-2.088616">
        <ele>1085.2</ele>
        <time>2019-12-29T08:39:51Z</time>
      </trkpt>
      <trkpt lat="40.056076" lon="-2.088571">
        <ele>1086.1</ele>
        <time>2019-12-29T08:39:57Z</time>
      </trkpt>
      <trkpt lat="40.056165" lon="-2.088520">
        <ele>1087.6</ele>
        <time>2019-12-29T08:40:03Z</time>
      </trkpt>
      <trkpt lat="40.056229" lon="-2.088434">
        <ele>1088.6</ele>
        <time>2019-12-29T08:40:09Z</time>
      </trkpt>
      <trkpt lat="40.056286" lon="-2.088337">
        <ele>1089.3</ele>
        <time>2019-12-29T08:40:15Z</time>
      </trkpt>
      <trkpt lat="40.056367" lon="-2.088257">
        <ele>1090.3</ele>
        <time>2019-12-29T08:40:21Z</time>
      </trkpt>
      <trkpt lat="40.056434" lon="-2.088174">
        <ele>1091.1</ele>
        <time>2019-12-29T08:40:26Z</time>
      </trkpt>
      <trkpt lat="40.056495" lon="-2.088053">
        <ele>1091.8</ele>
        <time>2019-12-29T08:40:32Z</time>
      </trkpt>
      <trkpt lat="40.056545" lon="-2.087952">
        <ele>1092.7</ele>
        <time>2019-12-29T08:40:37Z</time>
      </trkpt>
      <trkpt lat="40.056604" lon="-2.087855">
        <ele>1093.7</ele>
        <time>2019-12-29T08:40:43Z</time>
      </trkpt>
      <trkpt lat="40.056677" lon="-2.087751">
        <ele>1095.2</ele>
        <time>2019-12-29T08:40:49Z</time>
      </trkpt>
      <trkpt lat="40.056731" lon="-2.087642">
        <ele>1095.9</ele>
        <time>2019-12-29T08:40:55Z</time>
      </trkpt>
      <trkpt lat="40.056743" lon="-2.087522">
        <ele>1097.0</ele>
        <time>2019-12-29T08:41:01Z</time>
      </trkpt>
      <trkpt lat="40.056743" lon="-2.087388">
        <ele>1098.1</ele>
        <time>2019-12-29T08:41:08Z</time>
      </trkpt>
      <trkpt lat="40.056723" lon="-2.087259">
        <ele>1099.5</ele>
        <time>2019-12-29T08:41:15Z</time>
      </trkpt>
      <trkpt lat="40.056698" lon="-2.087130">
        <ele>1100.8</ele>
        <time>2019-12-29T08:41:21Z</time>
      </trkpt>
      <trkpt lat="40.056662" lon="-2.087000">
        <ele>1101.6</ele>
        <time>2019-12-29T08:41:28Z</time>
      </trkpt>
      <trkpt lat="40.056650" lon="-2.086871">
        <ele>1102.6</ele>
        <time>2019-12-29T08:41:35Z</time>
      </trkpt>
      <trkpt lat="40.056645" lon="-2.086751">
        <ele>1103.7</ele>
        <time>2019-12-29T08:41:42Z</time>
      </trkpt>
      <trkpt lat="40.056642" lon="-2.086630">
        <ele>1104.5</ele>
        <time>2019-12-29T08:41:47Z</time>
      </trkpt>
      <trkpt lat="40.056658" lon="-2.086501">
        <ele>1105.8</ele>
        <time>2019-12-29T08:41:54Z</time>
      </trkpt>
      <trkpt lat="40.056682" lon="-2.086369">
        <ele>1106.7</ele>
        <time>2019-12-29T08:42:02Z</time>
      </trkpt>
      <trkpt lat="40.056749" lon="-2.086260">
        <ele>1107.3</ele>
        <time>2019-12-29T08:42:07Z</time>
      </trkpt>
      <trkpt lat="40.056826" lon="-2.086184">
        <ele>1108.1</ele>
        <time>2019-12-29T08:42:12Z</time>
      </trkpt>
      <trkpt lat="40.056892" lon="-2.086099">
        <ele>1109.1</ele>
        <time>2019-12-29T08:42:18Z</time>
      </trkpt>
      <trkpt lat="40.056951" lon="-2.086002">
        <ele>1109.7</ele>
        <time>2019-12-29T08:42:23Z</time>
      </trkpt>
      <trkpt lat="40.057014" lon="-2.085898">
        <ele>1110.9</ele>
        <time>2019-12-29T08:42:29Z</time>
      </trkpt>
      <trkpt lat="40.057098" lon="-2.085853">
        <ele>1112.3</ele>
        <time>2019-12-29T08:42:34Z</time>
      </trkpt>
      <trkpt lat="40.057177" lon="-2.085768">
        <ele>1113.2</ele>
        <time>2019-12-29T08:42:41Z</time>
      </trkpt>
      <trkpt lat="40.057214" lon="-2.085641">
        <ele>1114.0</ele>
        <time>2019-12-29T08:42:48Z</time>
      </trkpt>
      <trkpt lat="40.057242" lon="-2.085509">
        <ele>1115.6</ele>
        <time>2019-12-29T08:42:55Z</time>
      </trkpt>
      <trkpt lat="40.057320" lon="-2.085415">
        <ele>1117.4</ele>
        <time>2019-12-29T08:43:04Z</time>
      </trkpt>
      <trkpt lat="40.057383" lon="-2.085308">
        <ele>1117.8</ele>
        <time>2019-12-29T08:43:10Z</time>
      </trkpt>
      <trkpt lat="40.057426" lon="-2.085205">
        <ele>1118.5</ele>
        <time>2019-12-29T08:43:17Z</time>
      </trkpt>
      <trkpt lat="40.057510" lon="-2.085158">
        <ele>1119.2</ele>
        <time>2019-12-29T08:43:22Z</time>
      </trkpt>
      <trkpt lat="40.057604" lon="-2.085129">
        <ele>1120.0</ele>
        <time>2019-12-29T08:43:28Z</time>
      </trkpt>
      <trkpt lat="40.057668" lon="-2.085043">
        <ele>1120.6</ele>
        <time>2019-12-29T08:43:34Z</time>
      </trkpt>
      <trkpt lat="40.057759" lon="-2.085022">
        <ele>1121.8</ele>
        <time>2019-12-29T08:43:41Z</time>
      </trkpt>
      <trkpt lat="40.057852" lon="-2.084999">
        <ele>1123.2</ele>
        <time>2019-12-29T08:43:48Z</time>
      </trkpt>
      <trkpt lat="40.057943" lon="-2.084967">
        <ele>1124.3</ele>
        <time>2019-12-29T08:43:54Z</time>
      </trkpt>
      <trkpt lat="40.058043" lon="-2.084929">
        <ele>1125.1</ele>
        <time>2019-12-29T08:44:00Z</time>
      </trkpt>
      <trkpt lat="40.058137" lon="-2.084870">
        <ele>1125.9</ele>
        <time>2019-12-29T08:44:07Z</time>
      </trkpt>
      <trkpt lat="40.058230" lon="-2.084845">
        <ele>1127.2</ele>
        <time>2019-12-29T08:44:13Z</time>
      </trkpt>
      <trkpt lat="40.058322" lon="-2.084854">
        <ele>1127.8</ele>
        <time>2019-12-29T08:44:19Z</time>
      </trkpt>
      <trkpt lat="40.058420" lon="-2.084808">
        <ele>1128.7</ele>
        <time>2019-12-29T08:44:25Z</time>
      </trkpt>
      <trkpt lat="40.058502" lon="-2.084754">
        <ele>1129.6</ele>
        <time>2019-12-29T08:44:31Z</time>
      </trkpt>
      <trkpt lat="40.058567" lon="-2.084841">
        <ele>1130.6</ele>
        <time>2019-12-29T08:44:36Z</time>
      </trkpt>
      <trkpt lat="40.058658" lon="-2.084761">
        <ele>1132.1</ele>
        <time>2019-12-29T08:44:43Z</time>
      </trkpt>
      <trkpt lat="40.058708" lon="-2.084662">
        <ele>1133.1</ele>
        <time>2019-12-29T08:44:48Z</time>
      </trkpt>
      <trkpt lat="40.058767" lon="-2.084556">
        <ele>1133.7</ele>
        <time>2019-12-29T08:44:53Z</time>
      </trkpt>
      <trkpt lat="40.058818" lon="-2.084443">
        <ele>1134.5</ele>
        <time>2019-12-29T08:44:59Z</time>
      </trkpt>
      <trkpt lat="40.058863" lon="-2.084336">
        <ele>1135.0</ele>
        <time>2019-12-29T08:45:05Z</time>
      </trkpt>
      <trkpt lat="40.058924" lon="-2.084245">
        <ele>1136.0</ele>
        <time>2019-12-29T08:45:11Z</time>
      </trkpt>
      <trkpt lat="40.058983" lon="-2.084147">
        <ele>1136.9</ele>
        <time>2019-12-29T08:45:18Z</time>
      </trkpt>
      <trkpt lat="40.059069" lon="-2.084069">
        <ele>1137.8</ele>
        <time>2019-12-29T08:45:25Z</time>
      </trkpt>
      <trkpt lat="40.059145" lon="-2.083972">
        <ele>1138.4</ele>
        <time>2019-12-29T08:45:31Z</time>
      </trkpt>
      <trkpt lat="40.059210" lon="-2.083871">
        <ele>1139.4</ele>
        <time>2019-12-29T08:45:37Z</time>
      </trkpt>
      <trkpt lat="40.059283" lon="-2.083782">
        <ele>1140.3</ele>
        <time>2019-12-29T08:45:43Z</time>
      </trkpt>
      <trkpt lat="40.059359" lon="-2.083692">
        <ele>1140.9</ele>
        <time>2019-12-29T08:45:50Z</time>
      </trkpt>
      <trkpt lat="40.059453" lon="-2.083647">
        <ele>1141.9</ele>
        <time>2019-12-29T08:45:57Z</time>
      </trkpt>
      <trkpt lat="40.059531" lon="-2.083571">
        <ele>1143.3</ele>
        <time>2019-12-29T08:46:04Z</time>
      </trkpt>
      <trkpt lat="40.059622" lon="-2.083511">
        <ele>1144.7</ele>
        <time>2019-12-29T08:46:12Z</time>
      </trkpt>
      <trkpt lat="40.059703" lon="-2.083446">
        <ele>1145.6</ele>
        <time>2019-12-29T08:46:19Z</time>
      </trkpt>
      <trkpt lat="40.059781" lon="-2.083362">
        <ele>1146.7</ele>
        <time>2019-12-29T08:46:26Z</time>
      </trkpt>
      <trkpt lat="40.059853" lon="-2.083289">
        <ele>1148.4</ele>
        <time>2019-12-29T08:46:33Z</time>
      </trkpt>
      <trkpt lat="40.059895" lon="-2.083171">
        <ele>1149.9</ele>
        <time>2019-12-29T08:46:41Z</time>
      </trkpt>
      <trkpt lat="40.059939" lon="-2.083050">
        <ele>1151.0</ele>
        <time>2019-12-29T08:46:49Z</time>
      </trkpt>
      <trkpt lat="40.059973" lon="-2.082940">
        <ele>1152.1</ele>
        <time>2019-12-29T08:46:56Z</time>
      </trkpt>
      <trkpt lat="40.060028" lon="-2.082836">
        <ele>1152.9</ele>
        <time>2019-12-29T08:47:03Z</time>
      </trkpt>
      <trkpt lat="40.060049" lon="-2.082716">
        <ele>1154.1</ele>
        <time>2019-12-29T08:47:10Z</time>
      </trkpt>
      <trkpt lat="40.060071" lon="-2.082593">
        <ele>1154.9</ele>
        <time>2019-12-29T08:47:17Z</time>
      </trkpt>
      <trkpt lat="40.060102" lon="-2.082465">
        <ele>1156.2</ele>
        <time>2019-12-29T08:47:25Z</time>
      </trkpt>
      <trkpt lat="40.060154" lon="-2.082353">
        <ele>1157.1</ele>
        <time>2019-12-29T08:47:32Z</time>
      </trkpt>
      <trkpt lat="40.060197" lon="-2.082231">
        <ele>1158.0</ele>
        <time>2019-12-29T08:47:40Z</time>
      </trkpt>
      <trkpt lat="40.060254" lon="-2.082137">
        <ele>1159.0</ele>
        <time>2019-12-29T08:47:47Z</time>
      </trkpt>
      <trkpt lat="40.060325" lon="-2.082048">
        <ele>1160.2</ele>
        <time>2019-12-29T08:47:54Z</time>
      </trkpt>
      <trkpt lat="40.060411" lon="-2.081994">
        <ele>1161.1</ele>
        <time>2019-12-29T08:48:01Z</time>
      </trkpt>
      <trkpt lat="40.060492" lon="-2.081922">
        <ele>1162.1</ele>
        <time>2019-12-29T08:48:08Z</time>
      </trkpt>
      <trkpt lat="40.060561" lon="-2.081833">
        <ele>1163.2</ele>
        <time>2019-12-29T08:48:15Z</time>
      </trkpt>
      <trkpt lat="40.060651" lon="-2.081771">
        <ele>1165.1</ele>
        <time>2019-12-29T08:48:22Z</time>
      </trkpt>
      <trkpt lat="40.060709" lon="-2.081678">
        <ele>1166.6</ele>
        <time>2019-12-29T08:48:29Z</time>
      </trkpt>
      <trkpt lat="40.060787" lon="-2.081583">
        <ele>1168.2</ele>
        <time>2019-12-29T08:48:37Z</time>
      </trkpt>
      <trkpt lat="40.060862" lon="-2.081487">
        <ele>1169.5</ele>
        <time>2019-12-29T08:48:44Z</time>
      </trkpt>
      <trkpt lat="40.060928" lon="-2.081398">
        <ele>1171.1</ele>
        <time>2019-12-29T08:49:40Z</time>
      </trkpt>
      <trkpt lat="40.061007" lon="-2.081318">
        <ele>1172.3</ele>
        <time>2019-12-29T08:49:48Z</time>
      </trkpt>
      <trkpt lat="40.061070" lon="-2.081224">
        <ele>1174.3</ele>
        <time>2019-12-29T08:49:58Z</time>
      </trkpt>
      <trkpt lat="40.061124" lon="-2.081113">
        <ele>1174.8</ele>
        <time>2019-12-29T08:50:05Z</time>
      </trkpt>
      <trkpt lat="40.061154" lon="-2.080998">
        <ele>1176.2</ele>
        <time>2019-12-29T08:50:12Z</time>
      </trkpt>
      <trkpt lat="40.061197" lon="-2.080879">
        <ele>1177.2</ele>
        <time>2019-12-29T08:50:19Z</time>
      </trkpt>
      <trkpt lat="40.061243" lon="-2.080772">
        <ele>1177.9</ele>
        <time>2019-12-29T08:50:25Z</time>
      </trkpt>
      <trkpt lat="40.061266" lon="-2.080653">
        <ele>1179.0</ele>
        <time>2019-12-29T08:50:33Z</time>
      </trkpt>
      <trkpt lat="40.061286" lon="-2.080537">
        <ele>1180.2</ele>
        <time>2019-12-29T08:50:40Z</time>
      </trkpt>
      <trkpt lat="40.061250" lon="-2.080413">
        <ele>1182.1</ele>
        <time>2019-12-29T08:50:48Z</time>
      </trkpt>
      <trkpt lat="40.061310" lon="-2.080323">
        <ele>1183.0</ele>
        <time>2019-12-29T08:50:57Z</time>
      </trkpt>
      <trkpt lat="40.061361" lon="-2.080226">
        <ele>1183.5</ele>
        <time>2019-12-29T08:51:04Z</time>
      </trkpt>
      <trkpt lat="40.061406" lon="-2.080121">
        <ele>1185.1</ele>
        <time>2019-12-29T08:51:12Z</time>
      </trkpt>
      <trkpt lat="40.061484" lon="-2.080037">
        <ele>1186.3</ele>
        <time>2019-12-29T08:51:21Z</time>
      </trkpt>
      <trkpt lat="40.061535" lon="-2.079935">
        <ele>1187.8</ele>
        <time>2019-12-29T08:51:29Z</time>
      </trkpt>
      <trkpt lat="40.061608" lon="-2.079844">
        <ele>1188.8</ele>
        <time>2019-12-29T08:51:37Z</time>
      </trkpt>
      <trkpt lat="40.061651" lon="-2.079736">
        <ele>1189.8</ele>
        <time>2019-12-29T08:51:45Z</time>
      </trkpt>
      <trkpt lat="40.061693" lon="-2.079631">
        <ele>1190.9</ele>
        <time>2019-12-29T08:51:52Z</time>
      </trkpt>
      <trkpt lat="40.061743" lon="-2.079526">
        <ele>1192.2</ele>
        <time>2019-12-29T08:52:00Z</time>
      </trkpt>
      <trkpt lat="40.061780" lon="-2.079412">
        <ele>1193.1</ele>
        <time>2019-12-29T08:52:07Z</time>
      </trkpt>
      <trkpt lat="40.061828" lon="-2.079308">
        <ele>1195.0</ele>
        <time>2019-12-29T08:52:15Z</time>
      </trkpt>
      <trkpt lat="40.061831" lon="-2.079187">
        <ele>1196.3</ele>
        <time>2019-12-29T08:52:22Z</time>
      </trkpt>
      <trkpt lat="40.061853" lon="-2.079058">
        <ele>1197.4</ele>
        <time>2019-12-29T08:52:30Z</time>
      </trkpt>
      <trkpt lat="40.061879" lon="-2.078938">
        <ele>1198.3</ele>
        <time>2019-12-29T08:52:38Z</time>
      </trkpt>
      <trkpt lat="40.061896" lon="-2.078819">
        <ele>1199.3</ele>
        <time>2019-12-29T08:52:46Z</time>
      </trkpt>
      <trkpt lat="40.061895" lon="-2.078691">
        <ele>1200.2</ele>
        <time>2019-12-29T08:52:54Z</time>
      </trkpt>
      <trkpt lat="40.061947" lon="-2.078574">
        <ele>1201.7</ele>
        <time>2019-12-29T08:53:02Z</time>
      </trkpt>
      <trkpt lat="40.061978" lon="-2.078452">
        <ele>1203.1</ele>
        <time>2019-12-29T08:53:10Z</time>
      </trkpt>
      <trkpt lat="40.062023" lon="-2.078347">
        <ele>1203.6</ele>
        <time>2019-12-29T08:53:17Z</time>
      </trkpt>
      <trkpt lat="40.062079" lon="-2.078241">
        <ele>1204.5</ele>
        <time>2019-12-29T08:53:25Z</time>
      </trkpt>
      <trkpt lat="40.062142" lon="-2.078152">
        <ele>1206.5</ele>
        <time>2019-12-29T08:53:33Z</time>
      </trkpt>
      <trkpt lat="40.062212" lon="-2.078054">
        <ele>1207.9</ele>
        <time>2019-12-29T08:53:41Z</time>
      </trkpt>
      <trkpt lat="40.062262" lon="-2.077947">
        <ele>1208.9</ele>
        <time>2019-12-29T08:53:48Z</time>
      </trkpt>
      <trkpt lat="40.062339" lon="-2.077877">
        <ele>1209.9</ele>
        <time>2019-12-29T08:53:55Z</time>
      </trkpt>
      <trkpt lat="40.062422" lon="-2.077831">
        <ele>1210.3</ele>
        <time>2019-12-29T08:54:01Z</time>
      </trkpt>
      <trkpt lat="40.062472" lon="-2.077718">
        <ele>1211.6</ele>
        <time>2019-12-29T08:54:09Z</time>
      </trkpt>
      <trkpt lat="40.062538" lon="-2.077619">
        <ele>1212.7</ele>
        <time>2019-12-29T08:54:17Z</time>
      </trkpt>
      <trkpt lat="40.062587" lon="-2.077519">
        <ele>1213.1</ele>
        <time>2019-12-29T08:54:24Z</time>
      </trkpt>
      <trkpt lat="40.062633" lon="-2.077417">
        <ele>1214.4</ele>
        <time>2019-12-29T08:54:31Z</time>
      </trkpt>
      <trkpt lat="40.062696" lon="-2.077327">
        <ele>1215.4</ele>
        <time>2019-12-29T08:54:38Z</time>
      </trkpt>
      <trkpt lat="40.062752" lon="-2.077222">
        <ele>1217.0</ele>
        <time>2019-12-29T08:54:46Z</time>
      </trkpt>
      <trkpt lat="40.062805" lon="-2.077107">
        <ele>1218.2</ele>
        <time>2019-12-29T08:54:54Z</time>
      </trkpt>
      <trkpt lat="40.062873" lon="-2.077014">
        <ele>1219.4</ele>
        <time>2019-12-29T08:55:02Z</time>
      </trkpt>
      <trkpt lat="40.062930" lon="-2.076903">
        <ele>1220.6</ele>
        <time>2019-12-29T08:55:09Z</time>
      </trkpt>
      <trkpt lat="40.062977" lon="-2.076799">
        <ele>1222.1</ele>
        <time>2019-12-29T08:55:17Z</time>
      </trkpt>
      <trkpt lat="40.063023" lon="-2.076686">
        <ele>1223.7</ele>
        <time>2019-12-29T08:55:25Z</time>
      </trkpt>
      <trkpt lat="40.063089" lon="-2.076586">
        <ele>1225.2</ele>
        <time>2019-12-29T08:55:33Z</time>
      </trkpt>
      <trkpt lat="40.063153" lon="-2.076489">
        <ele>1225.9</ele>
        <time>2019-12-29T08:55:41Z</time>
      </trkpt>
      <trkpt lat="40.063211" lon="-2.076387">
        <ele>1226.7</ele>
        <time>2019-12-29T08:55:49Z</time>
      </trkpt>
      <trkpt lat="40.063294" lon="-2.076306">
        <ele>1227.6</ele>
        <time>2019-12-29T08:55:57Z</time>
      </trkpt>
      <trkpt lat="40.063361" lon="-2.076212">
        <ele>1228.9</ele>
        <time>2019-12-29T08:56:04Z</time>
      </trkpt>
      <trkpt lat="40.063426" lon="-2.076116">
        <ele>1230.5</ele>
        <time>2019-12-29T08:56:12Z</time>
      </trkpt>
      <trkpt lat="40.063499" lon="-2.076041">
        <ele>1231.4</ele>
        <time>2019-12-29T08:56:20Z</time>
      </trkpt>
      <trkpt lat="40.063568" lon="-2.075955">
        <ele>1232.9</ele>
        <time>2019-12-29T08:56:27Z</time>
      </trkpt>
      <trkpt lat="40.063623" lon="-2.075855">
        <ele>1234.1</ele>
        <time>2019-12-29T08:56:35Z</time>
      </trkpt>
      <trkpt lat="40.063700" lon="-2.075783">
        <ele>1235.2</ele>
        <time>2019-12-29T08:56:42Z</time>
      </trkpt>
      <trkpt lat="40.063762" lon="-2.075690">
        <ele>1236.6</ele>
        <time>2019-12-29T08:56:50Z</time>
      </trkpt>
      <trkpt lat="40.063781" lon="-2.075573">
        <ele>1238.7</ele>
        <time>2019-12-29T08:56:58Z</time>
      </trkpt>
      <trkpt lat="40.063789" lon="-2.075449">
        <ele>1240.3</ele>
        <time>2019-12-29T08:57:05Z</time>
      </trkpt>
      <trkpt lat="40.063826" lon="-2.075328">
        <ele>1242.1</ele>
        <time>2019-12-29T08:57:13Z</time>
      </trkpt>
      <trkpt lat="40.063867" lon="-2.075212">
        <ele>1244.0</ele>
        <time>2019-12-29T08:57:21Z</time>
      </trkpt>
      <trkpt lat="40.063874" lon="-2.075085">
        <ele>1245.5</ele>
        <time>2019-12-29T08:57:29Z</time>
      </trkpt>
      <trkpt lat="40.063922" lon="-2.074971">
        <ele>1246.7</ele>
        <time>2019-12-29T08:57:37Z</time>
      </trkpt>
      <trkpt lat="40.063958" lon="-2.074856">
        <ele>1249.6</ele>
        <time>2019-12-29T08:58:00Z</time>
      </trkpt>
      <trkpt lat="40.063989" lon="-2.074741">
        <ele>1252.0</ele>
        <time>2019-12-29T08:58:12Z</time>
      </trkpt>
      <trkpt lat="40.064033" lon="-2.074628">
        <ele>1253.8</ele>
        <time>2019-12-29T08:58:23Z</time>
      </trkpt>
      <trkpt lat="40.064061" lon="-2.074504">
        <ele>1256.0</ele>
        <time>2019-12-29T08:58:40Z</time>
      </trkpt>
      <trkpt lat="40.064109" lon="-2.074403">
        <ele>1256.9</ele>
        <time>2019-12-29T08:58:51Z</time>
      </trkpt>
      <trkpt lat="40.064180" lon="-2.074320">
        <ele>1258.5</ele>
        <time>2019-12-29T08:59:02Z</time>
      </trkpt>
      <trkpt lat="40.064261" lon="-2.074265">
        <ele>1259.9</ele>
        <time>2019-12-29T08:59:14Z</time>
      </trkpt>
      <trkpt lat="40.064342" lon="-2.074208">
        <ele>1260.3</ele>
        <time>2019-12-29T08:59:31Z</time>
      </trkpt>
      <trkpt lat="40.064439" lon="-2.074177">
        <ele>1261.7</ele>
        <time>2019-12-29T08:59:37Z</time>
      </trkpt>
      <trkpt lat="40.064523" lon="-2.074137">
        <ele>1263.3</ele>
        <time>2019-12-29T08:59:42Z</time>
      </trkpt>
      <trkpt lat="40.064605" lon="-2.074082">
        <ele>1264.5</ele>
        <time>2019-12-29T08:59:47Z</time>
      </trkpt>
      <trkpt lat="40.064688" lon="-2.074034">
        <ele>1265.4</ele>
        <time>2019-12-29T08:59:52Z</time>
      </trkpt>
      <trkpt lat="40.064777" lon="-2.074009">
        <ele>1265.9</ele>
        <time>2019-12-29T08:59:58Z</time>
      </trkpt>
      <trkpt lat="40.064814" lon="-2.073901">
        <ele>1266.5</ele>
        <time>2019-12-29T09:00:12Z</time>
      </trkpt>
      <trkpt lat="40.064800" lon="-2.073773">
        <ele>1267.0</ele>
        <time>2019-12-29T09:00:43Z</time>
      </trkpt>
      <trkpt lat="40.064753" lon="-2.073671">
        <ele>1267.0</ele>
        <time>2019-12-29T09:00:47Z</time>
      </trkpt>
      <trkpt lat="40.064744" lon="-2.073546">
        <ele>1267.0</ele>
        <time>2019-12-29T09:00:50Z</time>
      </trkpt>
      <trkpt lat="40.064721" lon="-2.073409">
        <ele>1266.9</ele>
        <time>2019-12-29T09:00:53Z</time>
      </trkpt>
      <trkpt lat="40.064685" lon="-2.073272">
        <ele>1266.8</ele>
        <time>2019-12-29T09:00:56Z</time>
      </trkpt>
      <trkpt lat="40.064661" lon="-2.073131">
        <ele>1266.8</ele>
        <time>2019-12-29T09:00:59Z</time>
      </trkpt>
      <trkpt lat="40.064646" lon="-2.072984">
        <ele>1266.8</ele>
        <time>2019-12-29T09:01:02Z</time>
      </trkpt>
      <trkpt lat="40.064615" lon="-2.072848">
        <ele>1266.9</ele>
        <time>2019-12-29T09:01:05Z</time>
      </trkpt>
      <trkpt lat="40.064587" lon="-2.072725">
        <ele>1267.2</ele>
        <time>2019-12-29T09:01:08Z</time>
      </trkpt>
      <trkpt lat="40.064564" lon="-2.072598">
        <ele>1267.5</ele>
        <time>2019-12-29T09:01:11Z</time>
      </trkpt>
      <trkpt lat="40.064540" lon="-2.072474">
        <ele>1267.7</ele>
        <time>2019-12-29T09:01:14Z</time>
      </trkpt>
      <trkpt lat="40.064507" lon="-2.072351">
        <ele>1267.8</ele>
        <time>2019-12-29T09:01:17Z</time>
      </trkpt>
      <trkpt lat="40.064478" lon="-2.072216">
        <ele>1267.8</ele>
        <time>2019-12-29T09:01:20Z</time>
      </trkpt>
      <trkpt lat="40.064454" lon="-2.072090">
        <ele>1267.8</ele>
        <time>2019-12-29T09:01:23Z</time>
      </trkpt>
      <trkpt lat="40.064419" lon="-2.071952">
        <ele>1268.1</ele>
        <time>2019-12-29T09:01:26Z</time>
      </trkpt>
      <trkpt lat="40.064382" lon="-2.071817">
        <ele>1268.4</ele>
        <time>2019-12-29T09:01:29Z</time>
      </trkpt>
      <trkpt lat="40.064331" lon="-2.071688">
        <ele>1268.3</ele>
        <time>2019-12-29T09:01:32Z</time>
      </trkpt>
      <trkpt lat="40.064263" lon="-2.071556">
        <ele>1268.2</ele>
        <time>2019-12-29T09:01:35Z</time>
      </trkpt>
      <trkpt lat="40.064182" lon="-2.071426">
        <ele>1268.2</ele>
        <time>2019-12-29T09:01:38Z</time>
      </trkpt>
      <trkpt lat="40.064106" lon="-2.071306">
        <ele>1268.4</ele>
        <time>2019-12-29T09:01:41Z</time>
      </trkpt>
      <trkpt lat="40.064036" lon="-2.071191">
        <ele>1268.4</ele>
        <time>2019-12-29T09:01:44Z</time>
      </trkpt>
      <trkpt lat="40.063964" lon="-2.071073">
        <ele>1268.5</ele>
        <time>2019-12-29T09:01:47Z</time>
      </trkpt>
      <trkpt lat="40.063899" lon="-2.070959">
        <ele>1268.7</ele>
        <time>2019-12-29T09:01:50Z</time>
      </trkpt>
      <trkpt lat="40.063832" lon="-2.070846">
        <ele>1268.9</ele>
        <time>2019-12-29T09:01:53Z</time>
      </trkpt>
      <trkpt lat="40.063760" lon="-2.070728">
        <ele>1269.4</ele>
        <time>2019-12-29T09:01:56Z</time>
      </trkpt>
      <trkpt lat="40.063689" lon="-2.070608">
        <ele>1269.8</ele>
        <time>2019-12-29T09:01:59Z</time>
      </trkpt>
      <trkpt lat="40.063616" lon="-2.070485">
        <ele>1270.0</ele>
        <time>2019-12-29T09:02:02Z</time>
      </trkpt>
      <trkpt lat="40.063536" lon="-2.070349">
        <ele>1270.0</ele>
        <time>2019-12-29T09:02:05Z</time>
      </trkpt>
      <trkpt lat="40.063456" lon="-2.070215">
        <ele>1269.8</ele>
        <time>2019-12-29T09:02:08Z</time>
      </trkpt>
      <trkpt lat="40.063384" lon="-2.070085">
        <ele>1269.7</ele>
        <time>2019-12-29T09:02:11Z</time>
      </trkpt>
      <trkpt lat="40.063322" lon="-2.069957">
        <ele>1269.6</ele>
        <time>2019-12-29T09:02:14Z</time>
      </trkpt>
      <trkpt lat="40.063273" lon="-2.069856">
        <ele>1269.5</ele>
        <time>2019-12-29T09:02:17Z</time>
      </trkpt>
      <trkpt lat="40.063232" lon="-2.069748">
        <ele>1269.3</ele>
        <time>2019-12-29T09:02:21Z</time>
      </trkpt>
      <trkpt lat="40.063143" lon="-2.069672">
        <ele>1267.2</ele>
        <time>2019-12-29T09:14:52Z</time>
      </trkpt>
      <trkpt lat="40.063086" lon="-2.069567">
        <ele>1267.1</ele>
        <time>2019-12-29T09:14:56Z</time>
      </trkpt>
      <trkpt lat="40.063016" lon="-2.069442">
        <ele>1267.1</ele>
        <time>2019-12-29T09:15:00Z</time>
      </trkpt>
      <trkpt lat="40.062951" lon="-2.069336">
        <ele>1267.2</ele>
        <time>2019-12-29T09:15:03Z</time>
      </trkpt>
      <trkpt lat="40.062892" lon="-2.069225">
        <ele>1267.2</ele>
        <time>2019-12-29T09:15:06Z</time>
      </trkpt>
      <trkpt lat="40.062822" lon="-2.069107">
        <ele>1266.9</ele>
        <time>2019-12-29T09:15:09Z</time>
      </trkpt>
      <trkpt lat="40.062745" lon="-2.068981">
        <ele>1266.3</ele>
        <time>2019-12-29T09:15:12Z</time>
      </trkpt>
      <trkpt lat="40.062663" lon="-2.068839">
        <ele>1265.9</ele>
        <time>2019-12-29T09:15:15Z</time>
      </trkpt>
      <trkpt lat="40.062603" lon="-2.068740">
        <ele>1265.7</ele>
        <time>2019-12-29T09:15:17Z</time>
      </trkpt>
      <trkpt lat="40.062514" lon="-2.068606">
        <ele>1265.7</ele>
        <time>2019-12-29T09:15:20Z</time>
      </trkpt>
      <trkpt lat="40.062455" lon="-2.068515">
        <ele>1266.0</ele>
        <time>2019-12-29T09:15:22Z</time>
      </trkpt>
      <trkpt lat="40.062371" lon="-2.068380">
        <ele>1266.2</ele>
        <time>2019-12-29T09:15:25Z</time>
      </trkpt>
      <trkpt lat="40.062287" lon="-2.068251">
        <ele>1266.4</ele>
        <time>2019-12-29T09:15:28Z</time>
      </trkpt>
      <trkpt lat="40.062214" lon="-2.068120">
        <ele>1266.6</ele>
        <time>2019-12-29T09:15:31Z</time>
      </trkpt>
      <trkpt lat="40.062142" lon="-2.067987">
        <ele>1266.7</ele>
        <time>2019-12-29T09:15:34Z</time>
      </trkpt>
      <trkpt lat="40.062071" lon="-2.067849">
        <ele>1266.8</ele>
        <time>2019-12-29T09:15:37Z</time>
      </trkpt>
      <trkpt lat="40.062002" lon="-2.067719">
        <ele>1266.9</ele>
        <time>2019-12-29T09:15:40Z</time>
      </trkpt>
      <trkpt lat="40.061939" lon="-2.067588">
        <ele>1267.4</ele>
        <time>2019-12-29T09:15:43Z</time>
      </trkpt>
      <trkpt lat="40.061875" lon="-2.067462">
        <ele>1267.6</ele>
        <time>2019-12-29T09:15:46Z</time>
      </trkpt>
      <trkpt lat="40.061815" lon="-2.067337">
        <ele>1267.5</ele>
        <time>2019-12-29T09:15:49Z</time>
      </trkpt>
      <trkpt lat="40.061756" lon="-2.067216">
        <ele>1267.9</ele>
        <time>2019-12-29T09:15:52Z</time>
      </trkpt>
      <trkpt lat="40.061701" lon="-2.067100">
        <ele>1268.5</ele>
        <time>2019-12-29T09:15:55Z</time>
      </trkpt>
      <trkpt lat="40.061648" lon="-2.066991">
        <ele>1268.9</ele>
        <time>2019-12-29T09:15:58Z</time>
      </trkpt>
      <trkpt lat="40.061595" lon="-2.066884">
        <ele>1269.2</ele>
        <time>2019-12-29T09:16:01Z</time>
      </trkpt>
      <trkpt lat="40.061545" lon="-2.066783">
        <ele>1269.5</ele>
        <time>2019-12-29T09:16:04Z</time>
      </trkpt>
      <trkpt lat="40.061498" lon="-2.066682">
        <ele>1270.1</ele>
        <time>2019-12-29T09:16:07Z</time>
      </trkpt>
      <trkpt lat="40.061443" lon="-2.066586">
        <ele>1270.8</ele>
        <time>2019-12-29T09:16:10Z</time>
      </trkpt>
      <trkpt lat="40.061388" lon="-2.066487">
        <ele>1271.6</ele>
        <time>2019-12-29T09:16:13Z</time>
      </trkpt>
      <trkpt lat="40.061334" lon="-2.066373">
        <ele>1272.1</ele>
        <time>2019-12-29T09:16:16Z</time>
      </trkpt>
      <trkpt lat="40.061280" lon="-2.066257">
        <ele>1272.4</ele>
        <time>2019-12-29T09:16:19Z</time>
      </trkpt>
      <trkpt lat="40.061224" lon="-2.066128">
        <ele>1272.6</ele>
        <time>2019-12-29T09:16:22Z</time>
      </trkpt>
      <trkpt lat="40.061165" lon="-2.065988">
        <ele>1272.7</ele>
        <time>2019-12-29T09:16:25Z</time>
      </trkpt>
      <trkpt lat="40.061105" lon="-2.065829">
        <ele>1272.7</ele>
        <time>2019-12-29T09:16:28Z</time>
      </trkpt>
      <trkpt lat="40.061062" lon="-2.065719">
        <ele>1272.4</ele>
        <time>2019-12-29T09:16:30Z</time>
      </trkpt>
      <trkpt lat="40.061017" lon="-2.065600">
        <ele>1272.0</ele>
        <time>2019-12-29T09:16:32Z</time>
      </trkpt>
      <trkpt lat="40.060970" lon="-2.065477">
        <ele>1271.6</ele>
        <time>2019-12-29T09:16:34Z</time>
      </trkpt>
      <trkpt lat="40.060913" lon="-2.065341">
        <ele>1271.3</ele>
        <time>2019-12-29T09:16:36Z</time>
      </trkpt>
      <trkpt lat="40.060856" lon="-2.065196">
        <ele>1271.0</ele>
        <time>2019-12-29T09:16:38Z</time>
      </trkpt>
      <trkpt lat="40.060798" lon="-2.065047">
        <ele>1270.5</ele>
        <time>2019-12-29T09:16:40Z</time>
      </trkpt>
      <trkpt lat="40.060737" lon="-2.064891">
        <ele>1270.1</ele>
        <time>2019-12-29T09:16:42Z</time>
      </trkpt>
      <trkpt lat="40.060675" lon="-2.064731">
        <ele>1269.5</ele>
        <time>2019-12-29T09:16:44Z</time>
      </trkpt>
      <trkpt lat="40.060609" lon="-2.064568">
        <ele>1268.8</ele>
        <time>2019-12-29T09:16:46Z</time>
      </trkpt>
      <trkpt lat="40.060543" lon="-2.064395">
        <ele>1268.4</ele>
        <time>2019-12-29T09:16:48Z</time>
      </trkpt>
      <trkpt lat="40.060476" lon="-2.064225">
        <ele>1267.9</ele>
        <time>2019-12-29T09:16:50Z</time>
      </trkpt>
      <trkpt lat="40.060409" lon="-2.064054">
        <ele>1267.3</ele>
        <time>2019-12-29T09:16:52Z</time>
      </trkpt>
      <trkpt lat="40.060342" lon="-2.063883">
        <ele>1266.8</ele>
        <time>2019-12-29T09:16:54Z</time>
      </trkpt>
      <trkpt lat="40.060282" lon="-2.063718">
        <ele>1266.3</ele>
        <time>2019-12-29T09:16:56Z</time>
      </trkpt>
      <trkpt lat="40.060223" lon="-2.063564">
        <ele>1265.9</ele>
        <time>2019-12-29T09:16:58Z</time>
      </trkpt>
      <trkpt lat="40.060164" lon="-2.063414">
        <ele>1265.7</ele>
        <time>2019-12-29T09:17:00Z</time>
      </trkpt>
      <trkpt lat="40.060110" lon="-2.063279">
        <ele>1265.4</ele>
        <time>2019-12-29T09:17:02Z</time>
      </trkpt>
      <trkpt lat="40.060059" lon="-2.063146">
        <ele>1265.1</ele>
        <time>2019-12-29T09:17:04Z</time>
      </trkpt>
      <trkpt lat="40.060008" lon="-2.063006">
        <ele>1265.0</ele>
        <time>2019-12-29T09:17:06Z</time>
      </trkpt>
      <trkpt lat="40.059957" lon="-2.062874">
        <ele>1264.9</ele>
        <time>2019-12-29T09:17:08Z</time>
      </trkpt>
      <trkpt lat="40.059911" lon="-2.062748">
        <ele>1264.8</ele>
        <time>2019-12-29T09:17:10Z</time>
      </trkpt>
      <trkpt lat="40.059865" lon="-2.062633">
        <ele>1264.7</ele>
        <time>2019-12-29T09:17:12Z</time>
      </trkpt>
      <trkpt lat="40.059817" lon="-2.062515">
        <ele>1264.6</ele>
        <time>2019-12-29T09:17:14Z</time>
      </trkpt>
      <trkpt lat="40.059773" lon="-2.062392">
        <ele>1264.8</ele>
        <time>2019-12-29T09:17:16Z</time>
      </trkpt>
      <trkpt lat="40.059722" lon="-2.062271">
        <ele>1265.1</ele>
        <time>2019-12-29T09:17:18Z</time>
      </trkpt>
      <trkpt lat="40.059680" lon="-2.062155">
        <ele>1265.3</ele>
        <time>2019-12-29T09:17:20Z</time>
      </trkpt>
      <trkpt lat="40.059637" lon="-2.062040">
        <ele>1265.5</ele>
        <time>2019-12-29T09:17:22Z</time>
      </trkpt>
      <trkpt lat="40.059596" lon="-2.061930">
        <ele>1265.7</ele>
        <time>2019-12-29T09:17:24Z</time>
      </trkpt>
      <trkpt lat="40.059552" lon="-2.061814">
        <ele>1266.0</ele>
        <time>2019-12-29T09:17:26Z</time>
      </trkpt>
      <trkpt lat="40.059507" lon="-2.061700">
        <ele>1266.3</ele>
        <time>2019-12-29T09:17:28Z</time>
      </trkpt>
      <trkpt lat="40.059464" lon="-2.061583">
        <ele>1266.5</ele>
        <time>2019-12-29T09:17:30Z</time>
      </trkpt>
      <trkpt lat="40.059416" lon="-2.061469">
        <ele>1266.7</ele>
        <time>2019-12-29T09:17:32Z</time>
      </trkpt>
      <trkpt lat="40.059369" lon="-2.061356">
        <ele>1267.0</ele>
        <time>2019-12-29T09:17:34Z</time>
      </trkpt>
      <trkpt lat="40.059324" lon="-2.061240">
        <ele>1267.2</ele>
        <time>2019-12-29T09:17:36Z</time>
      </trkpt>
      <trkpt lat="40.059278" lon="-2.061123">
        <ele>1267.3</ele>
        <time>2019-12-29T09:17:38Z</time>
      </trkpt>
      <trkpt lat="40.059234" lon="-2.061011">
        <ele>1267.4</ele>
        <time>2019-12-29T09:17:40Z</time>
      </trkpt>
      <trkpt lat="40.059192" lon="-2.060894">
        <ele>1267.5</ele>
        <time>2019-12-29T09:17:42Z</time>
      </trkpt>
      <trkpt lat="40.059149" lon="-2.060780">
        <ele>1267.5</ele>
        <time>2019-12-29T09:17:44Z</time>
      </trkpt>
      <trkpt lat="40.059088" lon="-2.060625">
        <ele>1267.5</ele>
        <time>2019-12-29T09:17:47Z</time>
      </trkpt>
      <trkpt lat="40.059028" lon="-2.060469">
        <ele>1267.7</ele>
        <time>2019-12-29T09:17:50Z</time>
      </trkpt>
      <trkpt lat="40.058984" lon="-2.060365">
        <ele>1267.9</ele>
        <time>2019-12-29T09:17:52Z</time>
      </trkpt>
      <trkpt lat="40.058939" lon="-2.060253">
        <ele>1268.2</ele>
        <time>2019-12-29T09:17:54Z</time>
      </trkpt>
      <trkpt lat="40.058895" lon="-2.060141">
        <ele>1268.3</ele>
        <time>2019-12-29T09:17:56Z</time>
      </trkpt>
      <trkpt lat="40.058852" lon="-2.060030">
        <ele>1268.4</ele>
        <time>2019-12-29T09:17:58Z</time>
      </trkpt>
      <trkpt lat="40.058804" lon="-2.059915">
        <ele>1268.5</ele>
        <time>2019-12-29T09:18:00Z</time>
      </trkpt>
      <trkpt lat="40.058757" lon="-2.059800">
        <ele>1268.5</ele>
        <time>2019-12-29T09:18:02Z</time>
      </trkpt>
      <trkpt lat="40.058705" lon="-2.059673">
        <ele>1268.6</ele>
        <time>2019-12-29T09:18:04Z</time>
      </trkpt>
      <trkpt lat="40.058655" lon="-2.059546">
        <ele>1268.6</ele>
        <time>2019-12-29T09:18:06Z</time>
      </trkpt>
      <trkpt lat="40.058606" lon="-2.059419">
        <ele>1268.6</ele>
        <time>2019-12-29T09:18:08Z</time>
      </trkpt>
      <trkpt lat="40.058555" lon="-2.059297">
        <ele>1268.7</ele>
        <time>2019-12-29T09:18:10Z</time>
      </trkpt>
      <trkpt lat="40.058510" lon="-2.059180">
        <ele>1268.7</ele>
        <time>2019-12-29T09:18:12Z</time>
      </trkpt>
      <trkpt lat="40.058464" lon="-2.059068">
        <ele>1268.7</ele>
        <time>2019-12-29T09:18:14Z</time>
      </trkpt>
      <trkpt lat="40.058425" lon="-2.058960">
        <ele>1269.0</ele>
        <time>2019-12-29T09:18:16Z</time>
      </trkpt>
      <trkpt lat="40.058370" lon="-2.058823">
        <ele>1269.4</ele>
        <time>2019-12-29T09:18:19Z</time>
      </trkpt>
      <trkpt lat="40.058324" lon="-2.058690">
        <ele>1270.1</ele>
        <time>2019-12-29T09:18:22Z</time>
      </trkpt>
      <trkpt lat="40.058282" lon="-2.058552">
        <ele>1270.9</ele>
        <time>2019-12-29T09:18:25Z</time>
      </trkpt>
      <trkpt lat="40.058236" lon="-2.058411">
        <ele>1271.7</ele>
        <time>2019-12-29T09:18:28Z</time>
      </trkpt>
      <trkpt lat="40.058202" lon="-2.058258">
        <ele>1272.3</ele>
        <time>2019-12-29T09:18:31Z</time>
      </trkpt>
      <trkpt lat="40.058184" lon="-2.058100">
        <ele>1272.6</ele>
        <time>2019-12-29T09:18:34Z</time>
      </trkpt>
      <trkpt lat="40.058179" lon="-2.057933">
        <ele>1272.8</ele>
        <time>2019-12-29T09:18:37Z</time>
      </trkpt>
      <trkpt lat="40.058178" lon="-2.057815">
        <ele>1272.9</ele>
        <time>2019-12-29T09:18:39Z</time>
      </trkpt>
      <trkpt lat="40.058181" lon="-2.057696">
        <ele>1273.0</ele>
        <time>2019-12-29T09:18:41Z</time>
      </trkpt>
      <trkpt lat="40.058184" lon="-2.057578">
        <ele>1273.1</ele>
        <time>2019-12-29T09:18:43Z</time>
      </trkpt>
      <trkpt lat="40.058187" lon="-2.057460">
        <ele>1273.2</ele>
        <time>2019-12-29T09:18:45Z</time>
      </trkpt>
      <trkpt lat="40.058192" lon="-2.057340">
        <ele>1273.2</ele>
        <time>2019-12-29T09:18:47Z</time>
      </trkpt>
      <trkpt lat="40.058194" lon="-2.057212">
        <ele>1273.2</ele>
        <time>2019-12-29T09:18:49Z</time>
      </trkpt>
      <trkpt lat="40.058197" lon="-2.057082">
        <ele>1273.2</ele>
        <time>2019-12-29T09:18:51Z</time>
      </trkpt>
      <trkpt lat="40.058201" lon="-2.056947">
        <ele>1273.1</ele>
        <time>2019-12-29T09:18:53Z</time>
      </trkpt>
      <trkpt lat="40.058205" lon="-2.056807">
        <ele>1272.9</ele>
        <time>2019-12-29T09:18:55Z</time>
      </trkpt>
      <trkpt lat="40.058210" lon="-2.056666">
        <ele>1272.8</ele>
        <time>2019-12-29T09:18:57Z</time>
      </trkpt>
      <trkpt lat="40.058213" lon="-2.056533">
        <ele>1272.7</ele>
        <time>2019-12-29T09:18:59Z</time>
      </trkpt>
      <trkpt lat="40.058215" lon="-2.056386">
        <ele>1272.7</ele>
        <time>2019-12-29T09:19:01Z</time>
      </trkpt>
      <trkpt lat="40.058216" lon="-2.056237">
        <ele>1272.6</ele>
        <time>2019-12-29T09:19:03Z</time>
      </trkpt>
      <trkpt lat="40.058220" lon="-2.056092">
        <ele>1272.6</ele>
        <time>2019-12-29T09:19:05Z</time>
      </trkpt>
      <trkpt lat="40.058225" lon="-2.055944">
        <ele>1272.5</ele>
        <time>2019-12-29T09:19:07Z</time>
      </trkpt>
      <trkpt lat="40.058229" lon="-2.055787">
        <ele>1272.3</ele>
        <time>2019-12-29T09:19:09Z</time>
      </trkpt>
      <trkpt lat="40.058235" lon="-2.055629">
        <ele>1271.8</ele>
        <time>2019-12-29T09:19:11Z</time>
      </trkpt>
      <trkpt lat="40.058240" lon="-2.055471">
        <ele>1271.6</ele>
        <time>2019-12-29T09:19:13Z</time>
      </trkpt>
      <trkpt lat="40.058243" lon="-2.055322">
        <ele>1271.4</ele>
        <time>2019-12-29T09:19:15Z</time>
      </trkpt>
      <trkpt lat="40.058242" lon="-2.055167">
        <ele>1271.3</ele>
        <time>2019-12-29T09:19:17Z</time>
      </trkpt>
      <trkpt lat="40.058246" lon="-2.055009">
        <ele>1271.1</ele>
        <time>2019-12-29T09:19:19Z</time>
      </trkpt>
      <trkpt lat="40.058253" lon="-2.054866">
        <ele>1270.9</ele>
        <time>2019-12-29T09:19:21Z</time>
      </trkpt>
      <trkpt lat="40.058254" lon="-2.054733">
        <ele>1270.7</ele>
        <time>2019-12-29T09:19:23Z</time>
      </trkpt>
      <trkpt lat="40.058255" lon="-2.054604">
        <ele>1270.5</ele>
        <time>2019-12-29T09:19:25Z</time>
      </trkpt>
      <trkpt lat="40.058255" lon="-2.054477">
        <ele>1270.6</ele>
        <time>2019-12-29T09:19:27Z</time>
      </trkpt>
      <trkpt lat="40.058261" lon="-2.054355">
        <ele>1270.8</ele>
        <time>2019-12-29T09:19:29Z</time>
      </trkpt>
      <trkpt lat="40.058263" lon="-2.054229">
        <ele>1270.8</ele>
        <time>2019-12-29T09:19:31Z</time>
      </trkpt>
      <trkpt lat="40.058265" lon="-2.054107">
        <ele>1270.9</ele>
        <time>2019-12-29T09:19:33Z</time>
      </trkpt>
      <trkpt lat="40.058268" lon="-2.053987">
        <ele>1270.9</ele>
        <time>2019-12-29T09:19:35Z</time>
      </trkpt>
      <trkpt lat="40.058269" lon="-2.053866">
        <ele>1271.0</ele>
        <time>2019-12-29T09:19:37Z</time>
      </trkpt>
      <trkpt lat="40.058273" lon="-2.053739">
        <ele>1271.4</ele>
        <time>2019-12-29T09:19:39Z</time>
      </trkpt>
      <trkpt lat="40.058278" lon="-2.053618">
        <ele>1271.7</ele>
        <time>2019-12-29T09:19:41Z</time>
      </trkpt>
      <trkpt lat="40.058284" lon="-2.053500">
        <ele>1272.1</ele>
        <time>2019-12-29T09:19:43Z</time>
      </trkpt>
      <trkpt lat="40.058291" lon="-2.053380">
        <ele>1272.4</ele>
        <time>2019-12-29T09:19:45Z</time>
      </trkpt>
      <trkpt lat="40.058293" lon="-2.053257">
        <ele>1272.5</ele>
        <time>2019-12-29T09:19:47Z</time>
      </trkpt>
      <trkpt lat="40.058296" lon="-2.053133">
        <ele>1272.7</ele>
        <time>2019-12-29T09:19:49Z</time>
      </trkpt>
      <trkpt lat="40.058299" lon="-2.053010">
        <ele>1272.8</ele>
        <time>2019-12-29T09:19:51Z</time>
      </trkpt>
      <trkpt lat="40.058305" lon="-2.052887">
        <ele>1272.9</ele>
        <time>2019-12-29T09:19:53Z</time>
      </trkpt>
      <trkpt lat="40.058307" lon="-2.052769">
        <ele>1273.0</ele>
        <time>2019-12-29T09:19:55Z</time>
      </trkpt>
      <trkpt lat="40.058310" lon="-2.052593">
        <ele>1273.3</ele>
        <time>2019-12-29T09:19:58Z</time>
      </trkpt>
      <trkpt lat="40.058317" lon="-2.052417">
        <ele>1273.7</ele>
        <time>2019-12-29T09:20:01Z</time>
      </trkpt>
      <trkpt lat="40.058313" lon="-2.052295">
        <ele>1273.8</ele>
        <time>2019-12-29T09:20:03Z</time>
      </trkpt>
      <trkpt lat="40.058308" lon="-2.052166">
        <ele>1273.8</ele>
        <time>2019-12-29T09:20:05Z</time>
      </trkpt>
      <trkpt lat="40.058291" lon="-2.052040">
        <ele>1273.7</ele>
        <time>2019-12-29T09:20:07Z</time>
      </trkpt>
      <trkpt lat="40.058261" lon="-2.051917">
        <ele>1273.7</ele>
        <time>2019-12-29T09:20:09Z</time>
      </trkpt>
      <trkpt lat="40.058220" lon="-2.051800">
        <ele>1273.4</ele>
        <time>2019-12-29T09:20:11Z</time>
      </trkpt>
      <trkpt lat="40.058173" lon="-2.051677">
        <ele>1273.3</ele>
        <time>2019-12-29T09:20:13Z</time>
      </trkpt>
      <trkpt lat="40.058132" lon="-2.051556">
        <ele>1273.2</ele>
        <time>2019-12-29T09:20:15Z</time>
      </trkpt>
      <trkpt lat="40.058086" lon="-2.051433">
        <ele>1273.1</ele>
        <time>2019-12-29T09:20:17Z</time>
      </trkpt>
      <trkpt lat="40.058034" lon="-2.051299">
        <ele>1273.0</ele>
        <time>2019-12-29T09:20:19Z</time>
      </trkpt>
      <trkpt lat="40.057978" lon="-2.051156">
        <ele>1272.7</ele>
        <time>2019-12-29T09:20:21Z</time>
      </trkpt>
      <trkpt lat="40.057923" lon="-2.051015">
        <ele>1272.4</ele>
        <time>2019-12-29T09:20:23Z</time>
      </trkpt>
      <trkpt lat="40.057875" lon="-2.050876">
        <ele>1272.2</ele>
        <time>2019-12-29T09:20:25Z</time>
      </trkpt>
      <trkpt lat="40.057821" lon="-2.050743">
        <ele>1272.1</ele>
        <time>2019-12-29T09:20:27Z</time>
      </trkpt>
      <trkpt lat="40.057773" lon="-2.050608">
        <ele>1271.8</ele>
        <time>2019-12-29T09:20:29Z</time>
      </trkpt>
      <trkpt lat="40.057721" lon="-2.050482">
        <ele>1271.6</ele>
        <time>2019-12-29T09:20:31Z</time>
      </trkpt>
      <trkpt lat="40.057669" lon="-2.050352">
        <ele>1271.5</ele>
        <time>2019-12-29T09:20:33Z</time>
      </trkpt>
      <trkpt lat="40.057620" lon="-2.050217">
        <ele>1271.4</ele>
        <time>2019-12-29T09:20:35Z</time>
      </trkpt>
      <trkpt lat="40.057574" lon="-2.050076">
        <ele>1271.3</ele>
        <time>2019-12-29T09:20:37Z</time>
      </trkpt>
      <trkpt lat="40.057536" lon="-2.049930">
        <ele>1271.2</ele>
        <time>2019-12-29T09:20:39Z</time>
      </trkpt>
      <trkpt lat="40.057506" lon="-2.049792">
        <ele>1271.1</ele>
        <time>2019-12-29T09:20:41Z</time>
      </trkpt>
      <trkpt lat="40.057482" lon="-2.049662">
        <ele>1271.0</ele>
        <time>2019-12-29T09:20:43Z</time>
      </trkpt>
      <trkpt lat="40.057467" lon="-2.049538">
        <ele>1271.0</ele>
        <time>2019-12-29T09:20:45Z</time>
      </trkpt>
      <trkpt lat="40.057450" lon="-2.049420">
        <ele>1271.0</ele>
        <time>2019-12-29T09:20:47Z</time>
      </trkpt>
      <trkpt lat="40.057435" lon="-2.049302">
        <ele>1271.3</ele>
        <time>2019-12-29T09:20:49Z</time>
      </trkpt>
      <trkpt lat="40.057422" lon="-2.049180">
        <ele>1271.6</ele>
        <time>2019-12-29T09:20:51Z</time>
      </trkpt>
      <trkpt lat="40.057409" lon="-2.049055">
        <ele>1271.8</ele>
        <time>2019-12-29T09:20:53Z</time>
      </trkpt>
      <trkpt lat="40.057396" lon="-2.048930">
        <ele>1272.0</ele>
        <time>2019-12-29T09:20:55Z</time>
      </trkpt>
      <trkpt lat="40.057385" lon="-2.048806">
        <ele>1272.1</ele>
        <time>2019-12-29T09:20:57Z</time>
      </trkpt>
      <trkpt lat="40.057374" lon="-2.048683">
        <ele>1272.1</ele>
        <time>2019-12-29T09:20:59Z</time>
      </trkpt>
      <trkpt lat="40.057360" lon="-2.048558">
        <ele>1272.1</ele>
        <time>2019-12-29T09:21:01Z</time>
      </trkpt>
      <trkpt lat="40.057347" lon="-2.048428">
        <ele>1272.2</ele>
        <time>2019-12-29T09:21:03Z</time>
      </trkpt>
      <trkpt lat="40.057329" lon="-2.048295">
        <ele>1272.3</ele>
        <time>2019-12-29T09:21:05Z</time>
      </trkpt>
      <trkpt lat="40.057315" lon="-2.048163">
        <ele>1272.3</ele>
        <time>2019-12-29T09:21:07Z</time>
      </trkpt>
      <trkpt lat="40.057302" lon="-2.048028">
        <ele>1272.6</ele>
        <time>2019-12-29T09:21:09Z</time>
      </trkpt>
      <trkpt lat="40.057286" lon="-2.047902">
        <ele>1272.8</ele>
        <time>2019-12-29T09:21:11Z</time>
      </trkpt>
      <trkpt lat="40.057275" lon="-2.047773">
        <ele>1272.7</ele>
        <time>2019-12-29T09:21:13Z</time>
      </trkpt>
      <trkpt lat="40.057259" lon="-2.047648">
        <ele>1272.6</ele>
        <time>2019-12-29T09:21:15Z</time>
      </trkpt>
      <trkpt lat="40.057244" lon="-2.047519">
        <ele>1272.6</ele>
        <time>2019-12-29T09:21:17Z</time>
      </trkpt>
      <trkpt lat="40.057233" lon="-2.047393">
        <ele>1272.7</ele>
        <time>2019-12-29T09:21:19Z</time>
      </trkpt>
      <trkpt lat="40.057219" lon="-2.047272">
        <ele>1272.8</ele>
        <time>2019-12-29T09:21:21Z</time>
      </trkpt>
      <trkpt lat="40.057206" lon="-2.047143">
        <ele>1272.8</ele>
        <time>2019-12-29T09:21:23Z</time>
      </trkpt>
      <trkpt lat="40.057192" lon="-2.047007">
        <ele>1273.0</ele>
        <time>2019-12-29T09:21:25Z</time>
      </trkpt>
      <trkpt lat="40.057178" lon="-2.046869">
        <ele>1273.1</ele>
        <time>2019-12-29T09:21:27Z</time>
      </trkpt>
      <trkpt lat="40.057163" lon="-2.046726">
        <ele>1272.9</ele>
        <time>2019-12-29T09:21:29Z</time>
      </trkpt>
      <trkpt lat="40.057148" lon="-2.046584">
        <ele>1272.2</ele>
        <time>2019-12-29T09:21:31Z</time>
      </trkpt>
      <trkpt lat="40.057128" lon="-2.046432">
        <ele>1271.8</ele>
        <time>2019-12-29T09:21:33Z</time>
      </trkpt>
      <trkpt lat="40.057112" lon="-2.046276">
        <ele>1271.5</ele>
        <time>2019-12-29T09:21:35Z</time>
      </trkpt>
      <trkpt lat="40.057096" lon="-2.046115">
        <ele>1271.2</ele>
        <time>2019-12-29T09:21:37Z</time>
      </trkpt>
      <trkpt lat="40.057079" lon="-2.045941">
        <ele>1270.8</ele>
        <time>2019-12-29T09:21:39Z</time>
      </trkpt>
      <trkpt lat="40.057056" lon="-2.045760">
        <ele>1270.5</ele>
        <time>2019-12-29T09:21:41Z</time>
      </trkpt>
      <trkpt lat="40.057036" lon="-2.045578">
        <ele>1269.8</ele>
        <time>2019-12-29T09:21:43Z</time>
      </trkpt>
      <trkpt lat="40.057014" lon="-2.045386">
        <ele>1269.2</ele>
        <time>2019-12-29T09:21:45Z</time>
      </trkpt>
      <trkpt lat="40.056990" lon="-2.045185">
        <ele>1268.6</ele>
        <time>2019-12-29T09:21:47Z</time>
      </trkpt>
      <trkpt lat="40.056967" lon="-2.044974">
        <ele>1268.1</ele>
        <time>2019-12-29T09:21:49Z</time>
      </trkpt>
      <trkpt lat="40.056940" lon="-2.044759">
        <ele>1266.9</ele>
        <time>2019-12-29T09:21:51Z</time>
      </trkpt>
      <trkpt lat="40.056913" lon="-2.044538">
        <ele>1266.1</ele>
        <time>2019-12-29T09:21:53Z</time>
      </trkpt>
      <trkpt lat="40.056891" lon="-2.044324">
        <ele>1265.6</ele>
        <time>2019-12-29T09:21:55Z</time>
      </trkpt>
      <trkpt lat="40.056867" lon="-2.044111">
        <ele>1265.1</ele>
        <time>2019-12-29T09:21:57Z</time>
      </trkpt>
      <trkpt lat="40.056842" lon="-2.043900">
        <ele>1264.4</ele>
        <time>2019-12-29T09:21:59Z</time>
      </trkpt>
      <trkpt lat="40.056818" lon="-2.043695">
        <ele>1263.8</ele>
        <time>2019-12-29T09:22:01Z</time>
      </trkpt>
      <trkpt lat="40.056792" lon="-2.043485">
        <ele>1263.4</ele>
        <time>2019-12-29T09:22:03Z</time>
      </trkpt>
      <trkpt lat="40.056765" lon="-2.043278">
        <ele>1262.7</ele>
        <time>2019-12-29T09:22:05Z</time>
      </trkpt>
      <trkpt lat="40.056745" lon="-2.043077">
        <ele>1262.0</ele>
        <time>2019-12-29T09:22:07Z</time>
      </trkpt>
      <trkpt lat="40.056728" lon="-2.042887">
        <ele>1261.4</ele>
        <time>2019-12-29T09:22:09Z</time>
      </trkpt>
      <trkpt lat="40.056725" lon="-2.042711">
        <ele>1261.1</ele>
        <time>2019-12-29T09:22:11Z</time>
      </trkpt>
      <trkpt lat="40.056744" lon="-2.042541">
        <ele>1260.8</ele>
        <time>2019-12-29T09:22:13Z</time>
      </trkpt>
      <trkpt lat="40.056780" lon="-2.042378">
        <ele>1260.7</ele>
        <time>2019-12-29T09:22:15Z</time>
      </trkpt>
      <trkpt lat="40.056828" lon="-2.042224">
        <ele>1260.8</ele>
        <time>2019-12-29T09:22:17Z</time>
      </trkpt>
      <trkpt lat="40.056882" lon="-2.042075">
        <ele>1260.9</ele>
        <time>2019-12-29T09:22:19Z</time>
      </trkpt>
      <trkpt lat="40.056939" lon="-2.041935">
        <ele>1261.0</ele>
        <time>2019-12-29T09:22:21Z</time>
      </trkpt>
      <trkpt lat="40.056996" lon="-2.041803">
        <ele>1261.2</ele>
        <time>2019-12-29T09:22:23Z</time>
      </trkpt>
      <trkpt lat="40.057053" lon="-2.041666">
        <ele>1261.4</ele>
        <time>2019-12-29T09:22:25Z</time>
      </trkpt>
      <trkpt lat="40.057113" lon="-2.041530">
        <ele>1261.6</ele>
        <time>2019-12-29T09:22:27Z</time>
      </trkpt>
      <trkpt lat="40.057176" lon="-2.041388">
        <ele>1261.7</ele>
        <time>2019-12-29T09:22:29Z</time>
      </trkpt>
      <trkpt lat="40.057237" lon="-2.041244">
        <ele>1261.8</ele>
        <time>2019-12-29T09:22:31Z</time>
      </trkpt>
      <trkpt lat="40.057299" lon="-2.041098">
        <ele>1261.8</ele>
        <time>2019-12-29T09:22:33Z</time>
      </trkpt>
      <trkpt lat="40.057360" lon="-2.040950">
        <ele>1261.7</ele>
        <time>2019-12-29T09:22:35Z</time>
      </trkpt>
      <trkpt lat="40.057419" lon="-2.040796">
        <ele>1261.5</ele>
        <time>2019-12-29T09:22:37Z</time>
      </trkpt>
      <trkpt lat="40.057478" lon="-2.040636">
        <ele>1261.2</ele>
        <time>2019-12-29T09:22:39Z</time>
      </trkpt>
      <trkpt lat="40.057541" lon="-2.040475">
        <ele>1260.9</ele>
        <time>2019-12-29T09:22:41Z</time>
      </trkpt>
      <trkpt lat="40.057607" lon="-2.040310">
        <ele>1260.7</ele>
        <time>2019-12-29T09:22:43Z</time>
      </trkpt>
      <trkpt lat="40.057680" lon="-2.040143">
        <ele>1260.2</ele>
        <time>2019-12-29T09:22:45Z</time>
      </trkpt>
      <trkpt lat="40.057757" lon="-2.039972">
        <ele>1259.7</ele>
        <time>2019-12-29T09:22:47Z</time>
      </trkpt>
      <trkpt lat="40.057831" lon="-2.039799">
        <ele>1259.2</ele>
        <time>2019-12-29T09:22:49Z</time>
      </trkpt>
      <trkpt lat="40.057903" lon="-2.039628">
        <ele>1258.9</ele>
        <time>2019-12-29T09:22:51Z</time>
      </trkpt>
      <trkpt lat="40.057974" lon="-2.039458">
        <ele>1258.6</ele>
        <time>2019-12-29T09:22:53Z</time>
      </trkpt>
      <trkpt lat="40.058039" lon="-2.039295">
        <ele>1258.3</ele>
        <time>2019-12-29T09:22:55Z</time>
      </trkpt>
      <trkpt lat="40.058099" lon="-2.039128">
        <ele>1258.1</ele>
        <time>2019-12-29T09:22:57Z</time>
      </trkpt>
      <trkpt lat="40.058148" lon="-2.038963">
        <ele>1257.9</ele>
        <time>2019-12-29T09:22:59Z</time>
      </trkpt>
      <trkpt lat="40.058184" lon="-2.038794">
        <ele>1257.6</ele>
        <time>2019-12-29T09:23:01Z</time>
      </trkpt>
      <trkpt lat="40.058194" lon="-2.038622">
        <ele>1257.3</ele>
        <time>2019-12-29T09:23:03Z</time>
      </trkpt>
      <trkpt lat="40.058193" lon="-2.038444">
        <ele>1257.1</ele>
        <time>2019-12-29T09:23:05Z</time>
      </trkpt>
      <trkpt lat="40.058186" lon="-2.038277">
        <ele>1256.9</ele>
        <time>2019-12-29T09:23:07Z</time>
      </trkpt>
      <trkpt lat="40.058180" lon="-2.038108">
        <ele>1257.0</ele>
        <time>2019-12-29T09:23:09Z</time>
      </trkpt>
      <trkpt lat="40.058171" lon="-2.037944">
        <ele>1257.0</ele>
        <time>2019-12-29T09:23:11Z</time>
      </trkpt>
      <trkpt lat="40.058167" lon="-2.037780">
        <ele>1257.1</ele>
        <time>2019-12-29T09:23:13Z</time>
      </trkpt>
      <trkpt lat="40.058157" lon="-2.037622">
        <ele>1257.1</ele>
        <time>2019-12-29T09:23:15Z</time>
      </trkpt>
      <trkpt lat="40.058150" lon="-2.037466">
        <ele>1257.2</ele>
        <time>2019-12-29T09:23:17Z</time>
      </trkpt>
      <trkpt lat="40.058143" lon="-2.037310">
        <ele>1257.2</ele>
        <time>2019-12-29T09:23:19Z</time>
      </trkpt>
      <trkpt lat="40.058137" lon="-2.037153">
        <ele>1257.0</ele>
        <time>2019-12-29T09:23:21Z</time>
      </trkpt>
      <trkpt lat="40.058131" lon="-2.036996">
        <ele>1257.1</ele>
        <time>2019-12-29T09:23:23Z</time>
      </trkpt>
      <trkpt lat="40.058122" lon="-2.036841">
        <ele>1257.1</ele>
        <time>2019-12-29T09:23:25Z</time>
      </trkpt>
      <trkpt lat="40.058116" lon="-2.036695">
        <ele>1257.2</ele>
        <time>2019-12-29T09:23:27Z</time>
      </trkpt>
      <trkpt lat="40.058108" lon="-2.036545">
        <ele>1257.4</ele>
        <time>2019-12-29T09:23:29Z</time>
      </trkpt>
      <trkpt lat="40.058101" lon="-2.036399">
        <ele>1257.6</ele>
        <time>2019-12-29T09:23:31Z</time>
      </trkpt>
      <trkpt lat="40.058093" lon="-2.036261">
        <ele>1258.0</ele>
        <time>2019-12-29T09:23:33Z</time>
      </trkpt>
      <trkpt lat="40.058088" lon="-2.036129">
        <ele>1258.3</ele>
        <time>2019-12-29T09:23:35Z</time>
      </trkpt>
      <trkpt lat="40.058080" lon="-2.036000">
        <ele>1258.6</ele>
        <time>2019-12-29T09:23:37Z</time>
      </trkpt>
      <trkpt lat="40.058073" lon="-2.035871">
        <ele>1258.8</ele>
        <time>2019-12-29T09:23:39Z</time>
      </trkpt>
      <trkpt lat="40.058066" lon="-2.035739">
        <ele>1258.9</ele>
        <time>2019-12-29T09:23:41Z</time>
      </trkpt>
      <trkpt lat="40.058061" lon="-2.035610">
        <ele>1259.0</ele>
        <time>2019-12-29T09:23:43Z</time>
      </trkpt>
      <trkpt lat="40.058058" lon="-2.035481">
        <ele>1259.1</ele>
        <time>2019-12-29T09:23:45Z</time>
      </trkpt>
      <trkpt lat="40.058053" lon="-2.035354">
        <ele>1259.3</ele>
        <time>2019-12-29T09:23:47Z</time>
      </trkpt>
      <trkpt lat="40.058048" lon="-2.035235">
        <ele>1259.7</ele>
        <time>2019-12-29T09:23:49Z</time>
      </trkpt>
      <trkpt lat="40.058038" lon="-2.035064">
        <ele>1260.3</ele>
        <time>2019-12-29T09:23:52Z</time>
      </trkpt>
      <trkpt lat="40.058028" lon="-2.034897">
        <ele>1260.8</ele>
        <time>2019-12-29T09:23:55Z</time>
      </trkpt>
      <trkpt lat="40.058017" lon="-2.034731">
        <ele>1261.2</ele>
        <time>2019-12-29T09:23:58Z</time>
      </trkpt>
      <trkpt lat="40.058007" lon="-2.034573">
        <ele>1261.5</ele>
        <time>2019-12-29T09:24:01Z</time>
      </trkpt>
      <trkpt lat="40.057999" lon="-2.034408">
        <ele>1261.6</ele>
        <time>2019-12-29T09:24:04Z</time>
      </trkpt>
      <trkpt lat="40.057990" lon="-2.034250">
        <ele>1261.7</ele>
        <time>2019-12-29T09:24:07Z</time>
      </trkpt>
      <trkpt lat="40.057984" lon="-2.034093">
        <ele>1262.1</ele>
        <time>2019-12-29T09:24:10Z</time>
      </trkpt>
      <trkpt lat="40.057978" lon="-2.033935">
        <ele>1262.4</ele>
        <time>2019-12-29T09:24:13Z</time>
      </trkpt>
      <trkpt lat="40.057967" lon="-2.033759">
        <ele>1262.5</ele>
        <time>2019-12-29T09:24:16Z</time>
      </trkpt>
      <trkpt lat="40.057955" lon="-2.033585">
        <ele>1262.5</ele>
        <time>2019-12-29T09:24:19Z</time>
      </trkpt>
      <trkpt lat="40.057952" lon="-2.033413">
        <ele>1262.4</ele>
        <time>2019-12-29T09:24:22Z</time>
      </trkpt>
      <trkpt lat="40.057948" lon="-2.033290">
        <ele>1262.2</ele>
        <time>2019-12-29T09:24:24Z</time>
      </trkpt>
      <trkpt lat="40.057942" lon="-2.033157">
        <ele>1262.0</ele>
        <time>2019-12-29T09:24:26Z</time>
      </trkpt>
      <trkpt lat="40.057931" lon="-2.033009">
        <ele>1261.8</ele>
        <time>2019-12-29T09:24:28Z</time>
      </trkpt>
      <trkpt lat="40.057924" lon="-2.032858">
        <ele>1261.5</ele>
        <time>2019-12-29T09:24:30Z</time>
      </trkpt>
      <trkpt lat="40.057914" lon="-2.032690">
        <ele>1261.2</ele>
        <time>2019-12-29T09:24:32Z</time>
      </trkpt>
      <trkpt lat="40.057906" lon="-2.032519">
        <ele>1260.6</ele>
        <time>2019-12-29T09:24:34Z</time>
      </trkpt>
      <trkpt lat="40.057900" lon="-2.032345">
        <ele>1260.0</ele>
        <time>2019-12-29T09:24:36Z</time>
      </trkpt>
      <trkpt lat="40.057889" lon="-2.032167">
        <ele>1259.5</ele>
        <time>2019-12-29T09:24:38Z</time>
      </trkpt>
      <trkpt lat="40.057880" lon="-2.031990">
        <ele>1259.2</ele>
        <time>2019-12-29T09:24:40Z</time>
      </trkpt>
      <trkpt lat="40.057873" lon="-2.031816">
        <ele>1258.9</ele>
        <time>2019-12-29T09:24:42Z</time>
      </trkpt>
      <trkpt lat="40.057865" lon="-2.031642">
        <ele>1258.6</ele>
        <time>2019-12-29T09:24:44Z</time>
      </trkpt>
      <trkpt lat="40.057859" lon="-2.031469">
        <ele>1258.3</ele>
        <time>2019-12-29T09:24:46Z</time>
      </trkpt>
      <trkpt lat="40.057855" lon="-2.031296">
        <ele>1258.0</ele>
        <time>2019-12-29T09:24:48Z</time>
      </trkpt>
      <trkpt lat="40.057850" lon="-2.031120">
        <ele>1257.5</ele>
        <time>2019-12-29T09:24:50Z</time>
      </trkpt>
      <trkpt lat="40.057851" lon="-2.030934">
        <ele>1256.9</ele>
        <time>2019-12-29T09:24:52Z</time>
      </trkpt>
      <trkpt lat="40.057861" lon="-2.030733">
        <ele>1256.4</ele>
        <time>2019-12-29T09:24:54Z</time>
      </trkpt>
      <trkpt lat="40.057879" lon="-2.030522">
        <ele>1255.9</ele>
        <time>2019-12-29T09:24:56Z</time>
      </trkpt>
      <trkpt lat="40.057900" lon="-2.030302">
        <ele>1255.1</ele>
        <time>2019-12-29T09:24:58Z</time>
      </trkpt>
      <trkpt lat="40.057924" lon="-2.030086">
        <ele>1254.3</ele>
        <time>2019-12-29T09:25:00Z</time>
      </trkpt>
      <trkpt lat="40.057947" lon="-2.029876">
        <ele>1253.4</ele>
        <time>2019-12-29T09:25:02Z</time>
      </trkpt>
      <trkpt lat="40.057963" lon="-2.029680">
        <ele>1252.8</ele>
        <time>2019-12-29T09:25:04Z</time>
      </trkpt>
      <trkpt lat="40.057981" lon="-2.029485">
        <ele>1252.1</ele>
        <time>2019-12-29T09:25:06Z</time>
      </trkpt>
      <trkpt lat="40.057999" lon="-2.029282">
        <ele>1251.5</ele>
        <time>2019-12-29T09:25:08Z</time>
      </trkpt>
      <trkpt lat="40.058018" lon="-2.029082">
        <ele>1251.1</ele>
        <time>2019-12-29T09:25:10Z</time>
      </trkpt>
      <trkpt lat="40.058042" lon="-2.028892">
        <ele>1250.8</ele>
        <time>2019-12-29T09:25:12Z</time>
      </trkpt>
      <trkpt lat="40.058068" lon="-2.028713">
        <ele>1250.6</ele>
        <time>2019-12-29T09:25:14Z</time>
      </trkpt>
      <trkpt lat="40.058101" lon="-2.028526">
        <ele>1250.3</ele>
        <time>2019-12-29T09:25:16Z</time>
      </trkpt>
      <trkpt lat="40.058138" lon="-2.028330">
        <ele>1250.0</ele>
        <time>2019-12-29T09:25:18Z</time>
      </trkpt>
      <trkpt lat="40.058168" lon="-2.028128">
        <ele>1249.8</ele>
        <time>2019-12-29T09:25:20Z</time>
      </trkpt>
      <trkpt lat="40.058195" lon="-2.027915">
        <ele>1249.4</ele>
        <time>2019-12-29T09:25:22Z</time>
      </trkpt>
      <trkpt lat="40.058212" lon="-2.027799">
        <ele>1249.2</ele>
        <time>2019-12-29T09:25:23Z</time>
      </trkpt>
      <trkpt lat="40.058229" lon="-2.027678">
        <ele>1248.7</ele>
        <time>2019-12-29T09:25:24Z</time>
      </trkpt>
      <trkpt lat="40.058246" lon="-2.027558">
        <ele>1248.4</ele>
        <time>2019-12-29T09:25:25Z</time>
      </trkpt>
      <trkpt lat="40.058263" lon="-2.027438">
        <ele>1248.0</ele>
        <time>2019-12-29T09:25:26Z</time>
      </trkpt>
      <trkpt lat="40.058281" lon="-2.027321">
        <ele>1247.6</ele>
        <time>2019-12-29T09:25:27Z</time>
      </trkpt>
      <trkpt lat="40.058299" lon="-2.027206">
        <ele>1247.2</ele>
        <time>2019-12-29T09:25:28Z</time>
      </trkpt>
      <trkpt lat="40.058341" lon="-2.026986">
        <ele>1246.7</ele>
        <time>2019-12-29T09:25:30Z</time>
      </trkpt>
      <trkpt lat="40.058383" lon="-2.026785">
        <ele>1246.2</ele>
        <time>2019-12-29T09:25:32Z</time>
      </trkpt>
      <trkpt lat="40.058419" lon="-2.026602">
        <ele>1245.8</ele>
        <time>2019-12-29T09:25:34Z</time>
      </trkpt>
      <trkpt lat="40.058453" lon="-2.026430">
        <ele>1245.5</ele>
        <time>2019-12-29T09:25:36Z</time>
      </trkpt>
      <trkpt lat="40.058485" lon="-2.026263">
        <ele>1245.4</ele>
        <time>2019-12-29T09:25:38Z</time>
      </trkpt>
      <trkpt lat="40.058511" lon="-2.026117">
        <ele>1245.2</ele>
        <time>2019-12-29T09:25:40Z</time>
      </trkpt>
      <trkpt lat="40.058533" lon="-2.025984">
        <ele>1245.0</ele>
        <time>2019-12-29T09:25:42Z</time>
      </trkpt>
      <trkpt lat="40.058551" lon="-2.025867">
        <ele>1245.2</ele>
        <time>2019-12-29T09:25:44Z</time>
      </trkpt>
      <trkpt lat="40.058574" lon="-2.025707">
        <ele>1246.0</ele>
        <time>2019-12-29T09:25:47Z</time>
      </trkpt>
      <trkpt lat="40.058587" lon="-2.025554">
        <ele>1247.0</ele>
        <time>2019-12-29T09:25:50Z</time>
      </trkpt>
      <trkpt lat="40.058598" lon="-2.025411">
        <ele>1248.2</ele>
        <time>2019-12-29T09:25:53Z</time>
      </trkpt>
      <trkpt lat="40.058606" lon="-2.025252">
        <ele>1249.0</ele>
        <time>2019-12-29T09:25:56Z</time>
      </trkpt>
      <trkpt lat="40.058614" lon="-2.025098">
        <ele>1250.5</ele>
        <time>2019-12-29T09:25:59Z</time>
      </trkpt>
      <trkpt lat="40.058618" lon="-2.024951">
        <ele>1251.5</ele>
        <time>2019-12-29T09:26:02Z</time>
      </trkpt>
      <trkpt lat="40.058626" lon="-2.024798">
        <ele>1252.2</ele>
        <time>2019-12-29T09:26:05Z</time>
      </trkpt>
      <trkpt lat="40.058634" lon="-2.024640">
        <ele>1253.3</ele>
        <time>2019-12-29T09:26:08Z</time>
      </trkpt>
      <trkpt lat="40.058637" lon="-2.024478">
        <ele>1254.4</ele>
        <time>2019-12-29T09:26:11Z</time>
      </trkpt>
      <trkpt lat="40.058632" lon="-2.024327">
        <ele>1255.3</ele>
        <time>2019-12-29T09:26:14Z</time>
      </trkpt>
      <trkpt lat="40.058613" lon="-2.024154">
        <ele>1255.7</ele>
        <time>2019-12-29T09:26:17Z</time>
      </trkpt>
      <trkpt lat="40.058591" lon="-2.024031">
        <ele>1255.9</ele>
        <time>2019-12-29T09:26:19Z</time>
      </trkpt>
      <trkpt lat="40.058562" lon="-2.023908">
        <ele>1256.0</ele>
        <time>2019-12-29T09:26:21Z</time>
      </trkpt>
      <trkpt lat="40.058529" lon="-2.023790">
        <ele>1256.0</ele>
        <time>2019-12-29T09:26:23Z</time>
      </trkpt>
      <trkpt lat="40.058499" lon="-2.023670">
        <ele>1256.1</ele>
        <time>2019-12-29T09:26:25Z</time>
      </trkpt>
      <trkpt lat="40.058464" lon="-2.023548">
        <ele>1256.1</ele>
        <time>2019-12-29T09:26:27Z</time>
      </trkpt>
      <trkpt lat="40.058438" lon="-2.023431">
        <ele>1256.1</ele>
        <time>2019-12-29T09:26:29Z</time>
      </trkpt>
      <trkpt lat="40.058416" lon="-2.023316">
        <ele>1256.3</ele>
        <time>2019-12-29T09:26:31Z</time>
      </trkpt>
      <trkpt lat="40.058394" lon="-2.023146">
        <ele>1256.4</ele>
        <time>2019-12-29T09:26:34Z</time>
      </trkpt>
      <trkpt lat="40.058380" lon="-2.022981">
        <ele>1256.6</ele>
        <time>2019-12-29T09:26:37Z</time>
      </trkpt>
      <trkpt lat="40.058368" lon="-2.022821">
        <ele>1256.8</ele>
        <time>2019-12-29T09:26:40Z</time>
      </trkpt>
      <trkpt lat="40.058364" lon="-2.022666">
        <ele>1257.4</ele>
        <time>2019-12-29T09:26:43Z</time>
      </trkpt>
      <trkpt lat="40.058356" lon="-2.022513">
        <ele>1258.4</ele>
        <time>2019-12-29T09:26:46Z</time>
      </trkpt>
      <trkpt lat="40.058352" lon="-2.022368">
        <ele>1259.5</ele>
        <time>2019-12-29T09:26:49Z</time>
      </trkpt>
      <trkpt lat="40.058336" lon="-2.022217">
        <ele>1260.2</ele>
        <time>2019-12-29T09:26:52Z</time>
      </trkpt>
      <trkpt lat="40.058325" lon="-2.022061">
        <ele>1260.8</ele>
        <time>2019-12-29T09:26:55Z</time>
      </trkpt>
      <trkpt lat="40.058309" lon="-2.021899">
        <ele>1261.5</ele>
        <time>2019-12-29T09:26:58Z</time>
      </trkpt>
      <trkpt lat="40.058289" lon="-2.021731">
        <ele>1261.9</ele>
        <time>2019-12-29T09:27:01Z</time>
      </trkpt>
      <trkpt lat="40.058249" lon="-2.021561">
        <ele>1262.1</ele>
        <time>2019-12-29T09:27:04Z</time>
      </trkpt>
      <trkpt lat="40.058223" lon="-2.021445">
        <ele>1262.2</ele>
        <time>2019-12-29T09:27:06Z</time>
      </trkpt>
      <trkpt lat="40.058179" lon="-2.021278">
        <ele>1262.3</ele>
        <time>2019-12-29T09:27:09Z</time>
      </trkpt>
      <trkpt lat="40.058150" lon="-2.021165">
        <ele>1262.3</ele>
        <time>2019-12-29T09:27:11Z</time>
      </trkpt>
      <trkpt lat="40.058109" lon="-2.021010">
        <ele>1262.5</ele>
        <time>2019-12-29T09:27:14Z</time>
      </trkpt>
      <trkpt lat="40.058066" lon="-2.020860">
        <ele>1262.9</ele>
        <time>2019-12-29T09:27:17Z</time>
      </trkpt>
      <trkpt lat="40.058028" lon="-2.020710">
        <ele>1263.4</ele>
        <time>2019-12-29T09:27:20Z</time>
      </trkpt>
      <trkpt lat="40.057986" lon="-2.020574">
        <ele>1263.9</ele>
        <time>2019-12-29T09:27:23Z</time>
      </trkpt>
      <trkpt lat="40.057946" lon="-2.020436">
        <ele>1264.5</ele>
        <time>2019-12-29T09:27:26Z</time>
      </trkpt>
      <trkpt lat="40.057908" lon="-2.020305">
        <ele>1265.2</ele>
        <time>2019-12-29T09:27:29Z</time>
      </trkpt>
      <trkpt lat="40.057873" lon="-2.020181">
        <ele>1265.8</ele>
        <time>2019-12-29T09:27:32Z</time>
      </trkpt>
      <trkpt lat="40.057846" lon="-2.020057">
        <ele>1266.6</ele>
        <time>2019-12-29T09:27:35Z</time>
      </trkpt>
      <trkpt lat="40.057820" lon="-2.019938">
        <ele>1267.3</ele>
        <time>2019-12-29T09:27:38Z</time>
      </trkpt>
      <trkpt lat="40.057796" lon="-2.019817">
        <ele>1267.8</ele>
        <time>2019-12-29T09:27:41Z</time>
      </trkpt>
      <trkpt lat="40.057774" lon="-2.019663">
        <ele>1268.3</ele>
        <time>2019-12-29T09:27:45Z</time>
      </trkpt>
      <trkpt lat="40.057762" lon="-2.019508">
        <ele>1269.2</ele>
        <time>2019-12-29T09:27:49Z</time>
      </trkpt>
      <trkpt lat="40.057751" lon="-2.019386">
        <ele>1269.7</ele>
        <time>2019-12-29T09:27:52Z</time>
      </trkpt>
      <trkpt lat="40.057736" lon="-2.019260">
        <ele>1270.3</ele>
        <time>2019-12-29T09:27:55Z</time>
      </trkpt>
      <trkpt lat="40.057726" lon="-2.019130">
        <ele>1270.6</ele>
        <time>2019-12-29T09:27:58Z</time>
      </trkpt>
      <trkpt lat="40.057716" lon="-2.019000">
        <ele>1270.8</ele>
        <time>2019-12-29T09:28:01Z</time>
      </trkpt>
      <trkpt lat="40.057694" lon="-2.018859">
        <ele>1271.1</ele>
        <time>2019-12-29T09:28:04Z</time>
      </trkpt>
      <trkpt lat="40.057676" lon="-2.018717">
        <ele>1271.4</ele>
        <time>2019-12-29T09:28:07Z</time>
      </trkpt>
      <trkpt lat="40.057661" lon="-2.018578">
        <ele>1271.9</ele>
        <time>2019-12-29T09:28:10Z</time>
      </trkpt>
      <trkpt lat="40.057649" lon="-2.018437">
        <ele>1272.1</ele>
        <time>2019-12-29T09:28:13Z</time>
      </trkpt>
      <trkpt lat="40.057637" lon="-2.018282">
        <ele>1272.1</ele>
        <time>2019-12-29T09:28:16Z</time>
      </trkpt>
      <trkpt lat="40.057636" lon="-2.018124">
        <ele>1272.2</ele>
        <time>2019-12-29T09:28:19Z</time>
      </trkpt>
      <trkpt lat="40.057636" lon="-2.017970">
        <ele>1272.5</ele>
        <time>2019-12-29T09:28:22Z</time>
      </trkpt>
      <trkpt lat="40.057642" lon="-2.017826">
        <ele>1272.7</ele>
        <time>2019-12-29T09:28:25Z</time>
      </trkpt>
      <trkpt lat="40.057648" lon="-2.017680">
        <ele>1272.8</ele>
        <time>2019-12-29T09:28:28Z</time>
      </trkpt>
      <trkpt lat="40.057656" lon="-2.017542">
        <ele>1272.9</ele>
        <time>2019-12-29T09:28:31Z</time>
      </trkpt>
      <trkpt lat="40.057667" lon="-2.017399">
        <ele>1273.1</ele>
        <time>2019-12-29T09:28:34Z</time>
      </trkpt>
      <trkpt lat="40.057685" lon="-2.017255">
        <ele>1273.3</ele>
        <time>2019-12-29T09:28:37Z</time>
      </trkpt>
      <trkpt lat="40.057706" lon="-2.017116">
        <ele>1273.6</ele>
        <time>2019-12-29T09:28:40Z</time>
      </trkpt>
      <trkpt lat="40.057728" lon="-2.016975">
        <ele>1273.9</ele>
        <time>2019-12-29T09:28:43Z</time>
      </trkpt>
      <trkpt lat="40.057749" lon="-2.016835">
        <ele>1274.3</ele>
        <time>2019-12-29T09:28:46Z</time>
      </trkpt>
      <trkpt lat="40.057772" lon="-2.016690">
        <ele>1274.8</ele>
        <time>2019-12-29T09:28:49Z</time>
      </trkpt>
      <trkpt lat="40.057800" lon="-2.016538">
        <ele>1275.3</ele>
        <time>2019-12-29T09:28:52Z</time>
      </trkpt>
      <trkpt lat="40.057818" lon="-2.016382">
        <ele>1275.5</ele>
        <time>2019-12-29T09:28:55Z</time>
      </trkpt>
      <trkpt lat="40.057836" lon="-2.016221">
        <ele>1275.5</ele>
        <time>2019-12-29T09:28:58Z</time>
      </trkpt>
      <trkpt lat="40.057845" lon="-2.016050">
        <ele>1275.4</ele>
        <time>2019-12-29T09:29:01Z</time>
      </trkpt>
      <trkpt lat="40.057842" lon="-2.015880">
        <ele>1275.4</ele>
        <time>2019-12-29T09:29:04Z</time>
      </trkpt>
      <trkpt lat="40.057839" lon="-2.015762">
        <ele>1275.5</ele>
        <time>2019-12-29T09:29:06Z</time>
      </trkpt>
      <trkpt lat="40.057834" lon="-2.015641">
        <ele>1275.5</ele>
        <time>2019-12-29T09:29:08Z</time>
      </trkpt>
      <trkpt lat="40.057831" lon="-2.015521">
        <ele>1275.5</ele>
        <time>2019-12-29T09:29:10Z</time>
      </trkpt>
      <trkpt lat="40.057829" lon="-2.015393">
        <ele>1275.4</ele>
        <time>2019-12-29T09:29:12Z</time>
      </trkpt>
      <trkpt lat="40.057835" lon="-2.015264">
        <ele>1275.3</ele>
        <time>2019-12-29T09:29:14Z</time>
      </trkpt>
      <trkpt lat="40.057844" lon="-2.015131">
        <ele>1275.2</ele>
        <time>2019-12-29T09:29:16Z</time>
      </trkpt>
      <trkpt lat="40.057857" lon="-2.014994">
        <ele>1275.2</ele>
        <time>2019-12-29T09:29:18Z</time>
      </trkpt>
      <trkpt lat="40.057879" lon="-2.014863">
        <ele>1275.1</ele>
        <time>2019-12-29T09:29:20Z</time>
      </trkpt>
      <trkpt lat="40.057909" lon="-2.014739">
        <ele>1275.1</ele>
        <time>2019-12-29T09:29:22Z</time>
      </trkpt>
      <trkpt lat="40.057948" lon="-2.014617">
        <ele>1275.0</ele>
        <time>2019-12-29T09:29:24Z</time>
      </trkpt>
      <trkpt lat="40.057990" lon="-2.014497">
        <ele>1275.0</ele>
        <time>2019-12-29T09:29:26Z</time>
      </trkpt>
      <trkpt lat="40.058036" lon="-2.014379">
        <ele>1275.1</ele>
        <time>2019-12-29T09:29:28Z</time>
      </trkpt>
      <trkpt lat="40.058083" lon="-2.014262">
        <ele>1275.1</ele>
        <time>2019-12-29T09:29:30Z</time>
      </trkpt>
      <trkpt lat="40.058129" lon="-2.014148">
        <ele>1275.1</ele>
        <time>2019-12-29T09:29:32Z</time>
      </trkpt>
      <trkpt lat="40.058177" lon="-2.014032">
        <ele>1275.1</ele>
        <time>2019-12-29T09:29:34Z</time>
      </trkpt>
      <trkpt lat="40.058224" lon="-2.013918">
        <ele>1275.3</ele>
        <time>2019-12-29T09:29:36Z</time>
      </trkpt>
      <trkpt lat="40.058263" lon="-2.013805">
        <ele>1275.4</ele>
        <time>2019-12-29T09:29:38Z</time>
      </trkpt>
      <trkpt lat="40.058301" lon="-2.013693">
        <ele>1275.6</ele>
        <time>2019-12-29T09:29:40Z</time>
      </trkpt>
      <trkpt lat="40.058356" lon="-2.013530">
        <ele>1275.8</ele>
        <time>2019-12-29T09:29:43Z</time>
      </trkpt>
      <trkpt lat="40.058398" lon="-2.013422">
        <ele>1276.0</ele>
        <time>2019-12-29T09:29:45Z</time>
      </trkpt>
      <trkpt lat="40.058441" lon="-2.013316">
        <ele>1276.1</ele>
        <time>2019-12-29T09:29:47Z</time>
      </trkpt>
      <trkpt lat="40.058500" lon="-2.013161">
        <ele>1276.5</ele>
        <time>2019-12-29T09:29:50Z</time>
      </trkpt>
      <trkpt lat="40.058557" lon="-2.013015">
        <ele>1277.0</ele>
        <time>2019-12-29T09:29:53Z</time>
      </trkpt>
      <trkpt lat="40.058618" lon="-2.012858">
        <ele>1277.5</ele>
        <time>2019-12-29T09:29:56Z</time>
      </trkpt>
      <trkpt lat="40.058693" lon="-2.012722">
        <ele>1278.0</ele>
        <time>2019-12-29T09:29:59Z</time>
      </trkpt>
      <trkpt lat="40.058746" lon="-2.012627">
        <ele>1278.5</ele>
        <time>2019-12-29T09:30:01Z</time>
      </trkpt>
      <trkpt lat="40.058826" lon="-2.012492">
        <ele>1278.9</ele>
        <time>2019-12-29T09:30:04Z</time>
      </trkpt>
      <trkpt lat="40.058901" lon="-2.012354">
        <ele>1279.4</ele>
        <time>2019-12-29T09:30:07Z</time>
      </trkpt>
      <trkpt lat="40.058982" lon="-2.012227">
        <ele>1279.9</ele>
        <time>2019-12-29T09:30:10Z</time>
      </trkpt>
      <trkpt lat="40.059053" lon="-2.012100">
        <ele>1280.4</ele>
        <time>2019-12-29T09:30:13Z</time>
      </trkpt>
      <trkpt lat="40.059115" lon="-2.011975">
        <ele>1281.4</ele>
        <time>2019-12-29T09:30:16Z</time>
      </trkpt>
      <trkpt lat="40.059177" lon="-2.011848">
        <ele>1281.9</ele>
        <time>2019-12-29T09:30:19Z</time>
      </trkpt>
      <trkpt lat="40.059233" lon="-2.011726">
        <ele>1282.3</ele>
        <time>2019-12-29T09:30:22Z</time>
      </trkpt>
      <trkpt lat="40.059292" lon="-2.011607">
        <ele>1282.9</ele>
        <time>2019-12-29T09:30:25Z</time>
      </trkpt>
      <trkpt lat="40.059347" lon="-2.011485">
        <ele>1284.0</ele>
        <time>2019-12-29T09:30:28Z</time>
      </trkpt>
      <trkpt lat="40.059403" lon="-2.011371">
        <ele>1284.7</ele>
        <time>2019-12-29T09:30:31Z</time>
      </trkpt>
      <trkpt lat="40.059463" lon="-2.011258">
        <ele>1285.3</ele>
        <time>2019-12-29T09:30:34Z</time>
      </trkpt>
      <trkpt lat="40.059524" lon="-2.011141">
        <ele>1285.8</ele>
        <time>2019-12-29T09:30:37Z</time>
      </trkpt>
      <trkpt lat="40.059590" lon="-2.011025">
        <ele>1286.7</ele>
        <time>2019-12-29T09:30:40Z</time>
      </trkpt>
      <trkpt lat="40.059655" lon="-2.010913">
        <ele>1287.4</ele>
        <time>2019-12-29T09:30:43Z</time>
      </trkpt>
      <trkpt lat="40.059722" lon="-2.010790">
        <ele>1287.9</ele>
        <time>2019-12-29T09:30:46Z</time>
      </trkpt>
      <trkpt lat="40.059791" lon="-2.010669">
        <ele>1288.1</ele>
        <time>2019-12-29T09:30:49Z</time>
      </trkpt>
      <trkpt lat="40.059866" lon="-2.010549">
        <ele>1288.3</ele>
        <time>2019-12-29T09:30:52Z</time>
      </trkpt>
      <trkpt lat="40.059914" lon="-2.010409">
        <ele>1288.5</ele>
        <time>2019-12-29T09:30:55Z</time>
      </trkpt>
      <trkpt lat="40.059965" lon="-2.010255">
        <ele>1288.7</ele>
        <time>2019-12-29T09:30:58Z</time>
      </trkpt>
      <trkpt lat="40.059998" lon="-2.010145">
        <ele>1288.8</ele>
        <time>2019-12-29T09:31:00Z</time>
      </trkpt>
      <trkpt lat="40.060052" lon="-2.009986">
        <ele>1288.7</ele>
        <time>2019-12-29T09:31:03Z</time>
      </trkpt>
      <trkpt lat="40.060090" lon="-2.009879">
        <ele>1288.6</ele>
        <time>2019-12-29T09:31:05Z</time>
      </trkpt>
      <trkpt lat="40.060133" lon="-2.009768">
        <ele>1288.5</ele>
        <time>2019-12-29T09:31:07Z</time>
      </trkpt>
      <trkpt lat="40.060177" lon="-2.009646">
        <ele>1288.4</ele>
        <time>2019-12-29T09:31:09Z</time>
      </trkpt>
      <trkpt lat="40.060227" lon="-2.009521">
        <ele>1288.1</ele>
        <time>2019-12-29T09:31:11Z</time>
      </trkpt>
      <trkpt lat="40.060280" lon="-2.009393">
        <ele>1287.7</ele>
        <time>2019-12-29T09:31:13Z</time>
      </trkpt>
      <trkpt lat="40.060339" lon="-2.009273">
        <ele>1287.4</ele>
        <time>2019-12-29T09:31:15Z</time>
      </trkpt>
      <trkpt lat="40.060398" lon="-2.009150">
        <ele>1287.2</ele>
        <time>2019-12-29T09:31:17Z</time>
      </trkpt>
      <trkpt lat="40.060450" lon="-2.009037">
        <ele>1287.1</ele>
        <time>2019-12-29T09:31:19Z</time>
      </trkpt>
      <trkpt lat="40.060507" lon="-2.008928">
        <ele>1286.8</ele>
        <time>2019-12-29T09:31:21Z</time>
      </trkpt>
      <trkpt lat="40.060559" lon="-2.008814">
        <ele>1286.6</ele>
        <time>2019-12-29T09:31:23Z</time>
      </trkpt>
      <trkpt lat="40.060601" lon="-2.008693">
        <ele>1286.6</ele>
        <time>2019-12-29T09:31:25Z</time>
      </trkpt>
      <trkpt lat="40.060632" lon="-2.008568">
        <ele>1286.6</ele>
        <time>2019-12-29T09:31:27Z</time>
      </trkpt>
      <trkpt lat="40.060654" lon="-2.008444">
        <ele>1286.5</ele>
        <time>2019-12-29T09:31:29Z</time>
      </trkpt>
      <trkpt lat="40.060676" lon="-2.008320">
        <ele>1286.6</ele>
        <time>2019-12-29T09:31:31Z</time>
      </trkpt>
      <trkpt lat="40.060693" lon="-2.008198">
        <ele>1286.9</ele>
        <time>2019-12-29T09:31:33Z</time>
      </trkpt>
      <trkpt lat="40.060710" lon="-2.008082">
        <ele>1287.1</ele>
        <time>2019-12-29T09:31:35Z</time>
      </trkpt>
      <trkpt lat="40.060729" lon="-2.007964">
        <ele>1287.4</ele>
        <time>2019-12-29T09:31:37Z</time>
      </trkpt>
      <trkpt lat="40.060749" lon="-2.007843">
        <ele>1287.6</ele>
        <time>2019-12-29T09:31:39Z</time>
      </trkpt>
      <trkpt lat="40.060776" lon="-2.007713">
        <ele>1287.5</ele>
        <time>2019-12-29T09:31:41Z</time>
      </trkpt>
      <trkpt lat="40.060798" lon="-2.007582">
        <ele>1287.4</ele>
        <time>2019-12-29T09:31:43Z</time>
      </trkpt>
      <trkpt lat="40.060815" lon="-2.007454">
        <ele>1287.4</ele>
        <time>2019-12-29T09:31:45Z</time>
      </trkpt>
      <trkpt lat="40.060853" lon="-2.007298">
        <ele>1287.4</ele>
        <time>2019-12-29T09:31:48Z</time>
      </trkpt>
      <trkpt lat="40.060899" lon="-2.007159">
        <ele>1287.6</ele>
        <time>2019-12-29T09:31:51Z</time>
      </trkpt>
      <trkpt lat="40.060946" lon="-2.007007">
        <ele>1287.7</ele>
        <time>2019-12-29T09:31:54Z</time>
      </trkpt>
      <trkpt lat="40.061010" lon="-2.006860">
        <ele>1287.8</ele>
        <time>2019-12-29T09:31:57Z</time>
      </trkpt>
      <trkpt lat="40.061073" lon="-2.006708">
        <ele>1287.7</ele>
        <time>2019-12-29T09:32:00Z</time>
      </trkpt>
      <trkpt lat="40.061133" lon="-2.006560">
        <ele>1287.6</ele>
        <time>2019-12-29T09:32:03Z</time>
      </trkpt>
      <trkpt lat="40.061175" lon="-2.006452">
        <ele>1287.6</ele>
        <time>2019-12-29T09:32:05Z</time>
      </trkpt>
      <trkpt lat="40.061218" lon="-2.006338">
        <ele>1287.5</ele>
        <time>2019-12-29T09:32:07Z</time>
      </trkpt>
      <trkpt lat="40.061267" lon="-2.006210">
        <ele>1287.5</ele>
        <time>2019-12-29T09:32:09Z</time>
      </trkpt>
      <trkpt lat="40.061320" lon="-2.006083">
        <ele>1287.5</ele>
        <time>2019-12-29T09:32:11Z</time>
      </trkpt>
      <trkpt lat="40.061371" lon="-2.005951">
        <ele>1287.5</ele>
        <time>2019-12-29T09:32:13Z</time>
      </trkpt>
      <trkpt lat="40.061432" lon="-2.005825">
        <ele>1287.5</ele>
        <time>2019-12-29T09:32:15Z</time>
      </trkpt>
      <trkpt lat="40.061503" lon="-2.005705">
        <ele>1287.1</ele>
        <time>2019-12-29T09:32:17Z</time>
      </trkpt>
      <trkpt lat="40.061580" lon="-2.005588">
        <ele>1286.6</ele>
        <time>2019-12-29T09:32:19Z</time>
      </trkpt>
      <trkpt lat="40.061652" lon="-2.005497">
        <ele>1286.3</ele>
        <time>2019-12-29T09:32:21Z</time>
      </trkpt>
      <trkpt lat="40.061731" lon="-2.005367">
        <ele>1285.5</ele>
        <time>2019-12-29T09:32:24Z</time>
      </trkpt>
      <trkpt lat="40.061786" lon="-2.005263">
        <ele>1285.0</ele>
        <time>2019-12-29T09:32:26Z</time>
      </trkpt>
      <trkpt lat="40.061860" lon="-2.005133">
        <ele>1284.6</ele>
        <time>2019-12-29T09:32:29Z</time>
      </trkpt>
      <trkpt lat="40.061913" lon="-2.005031">
        <ele>1284.4</ele>
        <time>2019-12-29T09:32:31Z</time>
      </trkpt>
      <trkpt lat="40.061965" lon="-2.004919">
        <ele>1284.6</ele>
        <time>2019-12-29T09:32:33Z</time>
      </trkpt>
      <trkpt lat="40.062022" lon="-2.004799">
        <ele>1284.6</ele>
        <time>2019-12-29T09:32:35Z</time>
      </trkpt>
      <trkpt lat="40.062079" lon="-2.004679">
        <ele>1284.7</ele>
        <time>2019-12-29T09:32:37Z</time>
      </trkpt>
      <trkpt lat="40.062132" lon="-2.004558">
        <ele>1284.8</ele>
        <time>2019-12-29T09:32:39Z</time>
      </trkpt>
      <trkpt lat="40.062182" lon="-2.004441">
        <ele>1285.0</ele>
        <time>2019-12-29T09:32:41Z</time>
      </trkpt>
      <trkpt lat="40.062230" lon="-2.004322">
        <ele>1285.1</ele>
        <time>2019-12-29T09:32:43Z</time>
      </trkpt>
      <trkpt lat="40.062274" lon="-2.004198">
        <ele>1285.2</ele>
        <time>2019-12-29T09:32:45Z</time>
      </trkpt>
      <trkpt lat="40.062314" lon="-2.004076">
        <ele>1285.3</ele>
        <time>2019-12-29T09:32:47Z</time>
      </trkpt>
      <trkpt lat="40.062349" lon="-2.003955">
        <ele>1285.3</ele>
        <time>2019-12-29T09:32:49Z</time>
      </trkpt>
      <trkpt lat="40.062375" lon="-2.003835">
        <ele>1285.3</ele>
        <time>2019-12-29T09:32:51Z</time>
      </trkpt>
      <trkpt lat="40.062398" lon="-2.003718">
        <ele>1285.8</ele>
        <time>2019-12-29T09:32:53Z</time>
      </trkpt>
      <trkpt lat="40.062419" lon="-2.003596">
        <ele>1286.2</ele>
        <time>2019-12-29T09:32:55Z</time>
      </trkpt>
      <trkpt lat="40.062441" lon="-2.003475">
        <ele>1286.5</ele>
        <time>2019-12-29T09:32:57Z</time>
      </trkpt>
      <trkpt lat="40.062465" lon="-2.003358">
        <ele>1286.8</ele>
        <time>2019-12-29T09:32:59Z</time>
      </trkpt>
      <trkpt lat="40.062486" lon="-2.003240">
        <ele>1287.1</ele>
        <time>2019-12-29T09:33:01Z</time>
      </trkpt>
      <trkpt lat="40.062501" lon="-2.003119">
        <ele>1287.5</ele>
        <time>2019-12-29T09:33:03Z</time>
      </trkpt>
      <trkpt lat="40.062523" lon="-2.002997">
        <ele>1287.8</ele>
        <time>2019-12-29T09:33:05Z</time>
      </trkpt>
      <trkpt lat="40.062535" lon="-2.002875">
        <ele>1288.0</ele>
        <time>2019-12-29T09:33:07Z</time>
      </trkpt>
      <trkpt lat="40.062544" lon="-2.002750">
        <ele>1288.4</ele>
        <time>2019-12-29T09:33:09Z</time>
      </trkpt>
      <trkpt lat="40.062544" lon="-2.002622">
        <ele>1288.7</ele>
        <time>2019-12-29T09:33:11Z</time>
      </trkpt>
      <trkpt lat="40.062527" lon="-2.002497">
        <ele>1288.9</ele>
        <time>2019-12-29T09:33:13Z</time>
      </trkpt>
      <trkpt lat="40.062494" lon="-2.002381">
        <ele>1289.1</ele>
        <time>2019-12-29T09:33:15Z</time>
      </trkpt>
      <trkpt lat="40.062464" lon="-2.002265">
        <ele>1289.2</ele>
        <time>2019-12-29T09:33:17Z</time>
      </trkpt>
      <trkpt lat="40.062440" lon="-2.002148">
        <ele>1289.3</ele>
        <time>2019-12-29T09:33:19Z</time>
      </trkpt>
      <trkpt lat="40.062417" lon="-2.002033">
        <ele>1289.5</ele>
        <time>2019-12-29T09:33:21Z</time>
      </trkpt>
      <trkpt lat="40.062390" lon="-2.001912">
        <ele>1289.6</ele>
        <time>2019-12-29T09:33:23Z</time>
      </trkpt>
      <trkpt lat="40.062363" lon="-2.001786">
        <ele>1289.8</ele>
        <time>2019-12-29T09:33:25Z</time>
      </trkpt>
      <trkpt lat="40.062331" lon="-2.001661">
        <ele>1289.8</ele>
        <time>2019-12-29T09:33:27Z</time>
      </trkpt>
      <trkpt lat="40.062305" lon="-2.001535">
        <ele>1289.8</ele>
        <time>2019-12-29T09:33:29Z</time>
      </trkpt>
      <trkpt lat="40.062279" lon="-2.001409">
        <ele>1289.7</ele>
        <time>2019-12-29T09:33:31Z</time>
      </trkpt>
      <trkpt lat="40.062254" lon="-2.001280">
        <ele>1289.8</ele>
        <time>2019-12-29T09:33:33Z</time>
      </trkpt>
      <trkpt lat="40.062240" lon="-2.001137">
        <ele>1289.9</ele>
        <time>2019-12-29T09:33:35Z</time>
      </trkpt>
      <trkpt lat="40.062231" lon="-2.000987">
        <ele>1290.0</ele>
        <time>2019-12-29T09:33:37Z</time>
      </trkpt>
      <trkpt lat="40.062239" lon="-2.000825">
        <ele>1290.1</ele>
        <time>2019-12-29T09:33:39Z</time>
      </trkpt>
      <trkpt lat="40.062261" lon="-2.000668">
        <ele>1290.2</ele>
        <time>2019-12-29T09:33:41Z</time>
      </trkpt>
      <trkpt lat="40.062290" lon="-2.000515">
        <ele>1290.1</ele>
        <time>2019-12-29T09:33:43Z</time>
      </trkpt>
      <trkpt lat="40.062321" lon="-2.000363">
        <ele>1290.0</ele>
        <time>2019-12-29T09:33:45Z</time>
      </trkpt>
      <trkpt lat="40.062342" lon="-2.000223">
        <ele>1290.0</ele>
        <time>2019-12-29T09:33:47Z</time>
      </trkpt>
      <trkpt lat="40.062362" lon="-2.000088">
        <ele>1290.0</ele>
        <time>2019-12-29T09:33:49Z</time>
      </trkpt>
      <trkpt lat="40.062390" lon="-1.999959">
        <ele>1290.2</ele>
        <time>2019-12-29T09:33:51Z</time>
      </trkpt>
      <trkpt lat="40.062422" lon="-1.999840">
        <ele>1290.3</ele>
        <time>2019-12-29T09:33:53Z</time>
      </trkpt>
      <trkpt lat="40.062457" lon="-1.999725">
        <ele>1290.4</ele>
        <time>2019-12-29T09:33:55Z</time>
      </trkpt>
      <trkpt lat="40.062504" lon="-1.999618">
        <ele>1290.6</ele>
        <time>2019-12-29T09:33:57Z</time>
      </trkpt>
      <trkpt lat="40.062563" lon="-1.999510">
        <ele>1290.8</ele>
        <time>2019-12-29T09:33:59Z</time>
      </trkpt>
      <trkpt lat="40.062614" lon="-1.999397">
        <ele>1291.3</ele>
        <time>2019-12-29T09:34:01Z</time>
      </trkpt>
      <trkpt lat="40.062667" lon="-1.999296">
        <ele>1291.5</ele>
        <time>2019-12-29T09:34:03Z</time>
      </trkpt>
      <trkpt lat="40.062722" lon="-1.999200">
        <ele>1291.8</ele>
        <time>2019-12-29T09:34:05Z</time>
      </trkpt>
      <trkpt lat="40.062782" lon="-1.999051">
        <ele>1292.3</ele>
        <time>2019-12-29T09:34:08Z</time>
      </trkpt>
      <trkpt lat="40.062832" lon="-1.998949">
        <ele>1292.5</ele>
        <time>2019-12-29T09:34:10Z</time>
      </trkpt>
      <trkpt lat="40.062908" lon="-1.998813">
        <ele>1292.6</ele>
        <time>2019-12-29T09:34:13Z</time>
      </trkpt>
      <trkpt lat="40.062961" lon="-1.998695">
        <ele>1292.4</ele>
        <time>2019-12-29T09:34:16Z</time>
      </trkpt>
      <trkpt lat="40.063031" lon="-1.998578">
        <ele>1291.7</ele>
        <time>2019-12-29T09:34:20Z</time>
      </trkpt>
      <trkpt lat="40.063091" lon="-1.998482">
        <ele>1289.8</ele>
        <time>2019-12-29T09:35:25Z</time>
      </trkpt>
      <trkpt lat="40.063084" lon="-1.998357">
        <ele>1289.8</ele>
        <time>2019-12-29T09:35:29Z</time>
      </trkpt>
      <trkpt lat="40.063141" lon="-1.998233">
        <ele>1289.6</ele>
        <time>2019-12-29T09:35:33Z</time>
      </trkpt>
      <trkpt lat="40.063191" lon="-1.998132">
        <ele>1289.5</ele>
        <time>2019-12-29T09:35:36Z</time>
      </trkpt>
      <trkpt lat="40.063184" lon="-1.998009">
        <ele>1289.4</ele>
        <time>2019-12-29T09:35:39Z</time>
      </trkpt>
      <trkpt lat="40.063160" lon="-1.997890">
        <ele>1289.5</ele>
        <time>2019-12-29T09:35:42Z</time>
      </trkpt>
      <trkpt lat="40.063171" lon="-1.997772">
        <ele>1290.1</ele>
        <time>2019-12-29T09:35:46Z</time>
      </trkpt>
      <trkpt lat="40.063239" lon="-1.997666">
        <ele>1290.3</ele>
        <time>2019-12-29T09:35:49Z</time>
      </trkpt>
      <trkpt lat="40.063310" lon="-1.997570">
        <ele>1290.4</ele>
        <time>2019-12-29T09:35:52Z</time>
      </trkpt>
      <trkpt lat="40.063367" lon="-1.997450">
        <ele>1290.5</ele>
        <time>2019-12-29T09:35:55Z</time>
      </trkpt>
      <trkpt lat="40.063441" lon="-1.997336">
        <ele>1290.8</ele>
        <time>2019-12-29T09:35:58Z</time>
      </trkpt>
      <trkpt lat="40.063520" lon="-1.997268">
        <ele>1290.9</ele>
        <time>2019-12-29T09:36:00Z</time>
      </trkpt>
      <trkpt lat="40.063600" lon="-1.997211">
        <ele>1291.0</ele>
        <time>2019-12-29T09:36:02Z</time>
      </trkpt>
      <trkpt lat="40.063708" lon="-1.997134">
        <ele>1291.0</ele>
        <time>2019-12-29T09:36:05Z</time>
      </trkpt>
      <trkpt lat="40.063786" lon="-1.997071">
        <ele>1290.4</ele>
        <time>2019-12-29T09:36:07Z</time>
      </trkpt>
      <trkpt lat="40.063856" lon="-1.996992">
        <ele>1289.9</ele>
        <time>2019-12-29T09:36:09Z</time>
      </trkpt>
      <trkpt lat="40.063873" lon="-1.996852">
        <ele>1289.4</ele>
        <time>2019-12-29T09:36:13Z</time>
      </trkpt>
      <trkpt lat="40.063824" lon="-1.996721">
        <ele>1289.4</ele>
        <time>2019-12-29T09:36:16Z</time>
      </trkpt>
      <trkpt lat="40.063734" lon="-1.996644">
        <ele>1289.3</ele>
        <time>2019-12-29T09:36:19Z</time>
      </trkpt>
      <trkpt lat="40.063655" lon="-1.996582">
        <ele>1289.5</ele>
        <time>2019-12-29T09:36:22Z</time>
      </trkpt>
      <trkpt lat="40.063568" lon="-1.996497">
        <ele>1289.6</ele>
        <time>2019-12-29T09:36:26Z</time>
      </trkpt>
      <trkpt lat="40.063508" lon="-1.996387">
        <ele>1289.5</ele>
        <time>2019-12-29T09:36:29Z</time>
      </trkpt>
      <trkpt lat="40.063455" lon="-1.996286">
        <ele>1289.6</ele>
        <time>2019-12-29T09:36:32Z</time>
      </trkpt>
      <trkpt lat="40.063398" lon="-1.996161">
        <ele>1289.6</ele>
        <time>2019-12-29T09:36:35Z</time>
      </trkpt>
      <trkpt lat="40.063332" lon="-1.996063">
        <ele>1289.3</ele>
        <time>2019-12-29T09:36:38Z</time>
      </trkpt>
      <trkpt lat="40.063232" lon="-1.996009">
        <ele>1289.1</ele>
        <time>2019-12-29T09:36:41Z</time>
      </trkpt>
      <trkpt lat="40.063131" lon="-1.995927">
        <ele>1288.9</ele>
        <time>2019-12-29T09:36:44Z</time>
      </trkpt>
      <trkpt lat="40.063047" lon="-1.995834">
        <ele>1288.8</ele>
        <time>2019-12-29T09:36:47Z</time>
      </trkpt>
      <trkpt lat="40.062969" lon="-1.995738">
        <ele>1288.4</ele>
        <time>2019-12-29T09:36:50Z</time>
      </trkpt>
      <trkpt lat="40.062940" lon="-1.995608">
        <ele>1287.6</ele>
        <time>2019-12-29T09:36:53Z</time>
      </trkpt>
      <trkpt lat="40.062905" lon="-1.995499">
        <ele>1286.9</ele>
        <time>2019-12-29T09:36:55Z</time>
      </trkpt>
      <trkpt lat="40.062873" lon="-1.995386">
        <ele>1286.2</ele>
        <time>2019-12-29T09:36:57Z</time>
      </trkpt>
      <trkpt lat="40.062814" lon="-1.995229">
        <ele>1285.2</ele>
        <time>2019-12-29T09:37:00Z</time>
      </trkpt>
      <trkpt lat="40.062746" lon="-1.995084">
        <ele>1284.6</ele>
        <time>2019-12-29T09:37:03Z</time>
      </trkpt>
      <trkpt lat="40.062677" lon="-1.994970">
        <ele>1284.2</ele>
        <time>2019-12-29T09:37:06Z</time>
      </trkpt>
      <trkpt lat="40.062607" lon="-1.994856">
        <ele>1283.8</ele>
        <time>2019-12-29T09:37:10Z</time>
      </trkpt>
      <trkpt lat="40.062540" lon="-1.994743">
        <ele>1283.6</ele>
        <time>2019-12-29T09:37:14Z</time>
      </trkpt>
      <trkpt lat="40.062530" lon="-1.994599">
        <ele>1283.6</ele>
        <time>2019-12-29T09:37:18Z</time>
      </trkpt>
      <trkpt lat="40.062569" lon="-1.994493">
        <ele>1283.5</ele>
        <time>2019-12-29T09:37:21Z</time>
      </trkpt>
      <trkpt lat="40.062600" lon="-1.994380">
        <ele>1282.3</ele>
        <time>2019-12-29T09:37:24Z</time>
      </trkpt>
      <trkpt lat="40.062656" lon="-1.994282">
        <ele>1281.0</ele>
        <time>2019-12-29T09:37:28Z</time>
      </trkpt>
      <trkpt lat="40.062758" lon="-1.994231">
        <ele>1279.8</ele>
        <time>2019-12-29T09:37:32Z</time>
      </trkpt>
      <trkpt lat="40.062833" lon="-1.994148">
        <ele>1277.9</ele>
        <time>2019-12-29T09:37:36Z</time>
      </trkpt>
      <trkpt lat="40.062849" lon="-1.994017">
        <ele>1275.6</ele>
        <time>2019-12-29T09:37:41Z</time>
      </trkpt>
      <trkpt lat="40.062863" lon="-1.993898">
        <ele>1273.6</ele>
        <time>2019-12-29T09:37:44Z</time>
      </trkpt>
      <trkpt lat="40.062909" lon="-1.993793">
        <ele>1271.3</ele>
        <time>2019-12-29T09:37:47Z</time>
      </trkpt>
      <trkpt lat="40.063017" lon="-1.993742">
        <ele>1268.7</ele>
        <time>2019-12-29T09:37:50Z</time>
      </trkpt>
      <trkpt lat="40.063100" lon="-1.993621">
        <ele>1266.4</ele>
        <time>2019-12-29T09:37:53Z</time>
      </trkpt>
      <trkpt lat="40.063203" lon="-1.993556">
        <ele>1263.8</ele>
        <time>2019-12-29T09:37:57Z</time>
      </trkpt>
      <trkpt lat="40.063294" lon="-1.993473">
        <ele>1261.6</ele>
        <time>2019-12-29T09:38:00Z</time>
      </trkpt>
      <trkpt lat="40.063390" lon="-1.993435">
        <ele>1257.8</ele>
        <time>2019-12-29T09:38:05Z</time>
      </trkpt>
      <trkpt lat="40.063494" lon="-1.993415">
        <ele>1253.3</ele>
        <time>2019-12-29T09:38:13Z</time>
      </trkpt>
      <trkpt lat="40.063593" lon="-1.993357">
        <ele>1249.7</ele>
        <time>2019-12-29T09:38:19Z</time>
      </trkpt>
      <trkpt lat="40.063684" lon="-1.993348">
        <ele>1247.4</ele>
        <time>2019-12-29T09:38:23Z</time>
      </trkpt>
      <trkpt lat="40.063795" lon="-1.993384">
        <ele>1244.7</ele>
        <time>2019-12-29T09:38:27Z</time>
      </trkpt>
      <trkpt lat="40.063887" lon="-1.993387">
        <ele>1242.5</ele>
        <time>2019-12-29T09:38:30Z</time>
      </trkpt>
      <trkpt lat="40.063969" lon="-1.993320">
        <ele>1240.2</ele>
        <time>2019-12-29T09:38:34Z</time>
      </trkpt>
      <trkpt lat="40.064056" lon="-1.993219">
        <ele>1237.9</ele>
        <time>2019-12-29T09:38:38Z</time>
      </trkpt>
      <trkpt lat="40.064152" lon="-1.993184">
        <ele>1236.0</ele>
        <time>2019-12-29T09:38:41Z</time>
      </trkpt>
      <trkpt lat="40.064240" lon="-1.993140">
        <ele>1234.7</ele>
        <time>2019-12-29T09:38:43Z</time>
      </trkpt>
      <trkpt lat="40.064328" lon="-1.993098">
        <ele>1233.7</ele>
        <time>2019-12-29T09:38:45Z</time>
      </trkpt>
      <trkpt lat="40.064450" lon="-1.993038">
        <ele>1231.8</ele>
        <time>2019-12-29T09:38:48Z</time>
      </trkpt>
      <trkpt lat="40.064564" lon="-1.993026">
        <ele>1230.7</ele>
        <time>2019-12-29T09:38:50Z</time>
      </trkpt>
      <trkpt lat="40.064658" lon="-1.993060">
        <ele>1229.6</ele>
        <time>2019-12-29T09:38:52Z</time>
      </trkpt>
      <trkpt lat="40.064750" lon="-1.993116">
        <ele>1228.9</ele>
        <time>2019-12-29T09:38:54Z</time>
      </trkpt>
      <trkpt lat="40.064846" lon="-1.993171">
        <ele>1228.2</ele>
        <time>2019-12-29T09:38:56Z</time>
      </trkpt>
      <trkpt lat="40.064968" lon="-1.993203">
        <ele>1227.3</ele>
        <time>2019-12-29T09:38:59Z</time>
      </trkpt>
      <trkpt lat="40.065072" lon="-1.993215">
        <ele>1226.2</ele>
        <time>2019-12-29T09:39:03Z</time>
      </trkpt>
      <trkpt lat="40.065190" lon="-1.993247">
        <ele>1225.5</ele>
        <time>2019-12-29T09:39:07Z</time>
      </trkpt>
      <trkpt lat="40.065292" lon="-1.993284">
        <ele>1225.3</ele>
        <time>2019-12-29T09:39:10Z</time>
      </trkpt>
      <trkpt lat="40.065387" lon="-1.993344">
        <ele>1225.1</ele>
        <time>2019-12-29T09:39:13Z</time>
      </trkpt>
      <trkpt lat="40.065464" lon="-1.993435">
        <ele>1224.8</ele>
        <time>2019-12-29T09:39:16Z</time>
      </trkpt>
      <trkpt lat="40.065551" lon="-1.993540">
        <ele>1224.6</ele>
        <time>2019-12-29T09:39:19Z</time>
      </trkpt>
      <trkpt lat="40.065605" lon="-1.993648">
        <ele>1224.5</ele>
        <time>2019-12-29T09:39:21Z</time>
      </trkpt>
      <trkpt lat="40.065654" lon="-1.993749">
        <ele>1224.3</ele>
        <time>2019-12-29T09:39:23Z</time>
      </trkpt>
      <trkpt lat="40.065715" lon="-1.993846">
        <ele>1224.0</ele>
        <time>2019-12-29T09:39:25Z</time>
      </trkpt>
      <trkpt lat="40.065831" lon="-1.993921">
        <ele>1223.3</ele>
        <time>2019-12-29T09:39:28Z</time>
      </trkpt>
      <trkpt lat="40.065923" lon="-1.993930">
        <ele>1223.1</ele>
        <time>2019-12-29T09:39:30Z</time>
      </trkpt>
      <trkpt lat="40.066025" lon="-1.993932">
        <ele>1222.9</ele>
        <time>2019-12-29T09:39:32Z</time>
      </trkpt>
      <trkpt lat="40.066118" lon="-1.993944">
        <ele>1222.7</ele>
        <time>2019-12-29T09:39:34Z</time>
      </trkpt>
      <trkpt lat="40.066211" lon="-1.993973">
        <ele>1222.2</ele>
        <time>2019-12-29T09:39:36Z</time>
      </trkpt>
      <trkpt lat="40.066300" lon="-1.994015">
        <ele>1221.7</ele>
        <time>2019-12-29T09:39:38Z</time>
      </trkpt>
      <trkpt lat="40.066378" lon="-1.994079">
        <ele>1221.3</ele>
        <time>2019-12-29T09:39:40Z</time>
      </trkpt>
      <trkpt lat="40.066403" lon="-1.994249">
        <ele>1220.9</ele>
        <time>2019-12-29T09:39:43Z</time>
      </trkpt>
      <trkpt lat="40.066367" lon="-1.994398">
        <ele>1220.6</ele>
        <time>2019-12-29T09:39:45Z</time>
      </trkpt>
      <trkpt lat="40.066369" lon="-1.994546">
        <ele>1220.3</ele>
        <time>2019-12-29T09:39:47Z</time>
      </trkpt>
      <trkpt lat="40.066439" lon="-1.994636">
        <ele>1219.9</ele>
        <time>2019-12-29T09:39:49Z</time>
      </trkpt>
      <trkpt lat="40.066504" lon="-1.994728">
        <ele>1219.4</ele>
        <time>2019-12-29T09:39:51Z</time>
      </trkpt>
      <trkpt lat="40.066574" lon="-1.994820">
        <ele>1219.1</ele>
        <time>2019-12-29T09:39:53Z</time>
      </trkpt>
      <trkpt lat="40.066646" lon="-1.994914">
        <ele>1218.9</ele>
        <time>2019-12-29T09:39:55Z</time>
      </trkpt>
      <trkpt lat="40.066718" lon="-1.995007">
        <ele>1218.8</ele>
        <time>2019-12-29T09:39:57Z</time>
      </trkpt>
      <trkpt lat="40.066793" lon="-1.995097">
        <ele>1218.6</ele>
        <time>2019-12-29T09:39:59Z</time>
      </trkpt>
      <trkpt lat="40.066872" lon="-1.995181">
        <ele>1218.3</ele>
        <time>2019-12-29T09:40:01Z</time>
      </trkpt>
      <trkpt lat="40.066947" lon="-1.995266">
        <ele>1218.0</ele>
        <time>2019-12-29T09:40:03Z</time>
      </trkpt>
      <trkpt lat="40.067028" lon="-1.995342">
        <ele>1217.9</ele>
        <time>2019-12-29T09:40:05Z</time>
      </trkpt>
      <trkpt lat="40.067111" lon="-1.995393">
        <ele>1217.6</ele>
        <time>2019-12-29T09:40:07Z</time>
      </trkpt>
      <trkpt lat="40.067201" lon="-1.995426">
        <ele>1217.5</ele>
        <time>2019-12-29T09:40:09Z</time>
      </trkpt>
      <trkpt lat="40.067295" lon="-1.995445">
        <ele>1217.3</ele>
        <time>2019-12-29T09:40:11Z</time>
      </trkpt>
      <trkpt lat="40.067397" lon="-1.995415">
        <ele>1217.1</ele>
        <time>2019-12-29T09:40:13Z</time>
      </trkpt>
      <trkpt lat="40.067491" lon="-1.995388">
        <ele>1217.0</ele>
        <time>2019-12-29T09:40:15Z</time>
      </trkpt>
      <trkpt lat="40.067583" lon="-1.995360">
        <ele>1217.0</ele>
        <time>2019-12-29T09:40:17Z</time>
      </trkpt>
      <trkpt lat="40.067675" lon="-1.995310">
        <ele>1216.7</ele>
        <time>2019-12-29T09:40:19Z</time>
      </trkpt>
      <trkpt lat="40.067777" lon="-1.995250">
        <ele>1216.5</ele>
        <time>2019-12-29T09:40:21Z</time>
      </trkpt>
      <trkpt lat="40.067874" lon="-1.995178">
        <ele>1216.3</ele>
        <time>2019-12-29T09:40:23Z</time>
      </trkpt>
      <trkpt lat="40.067963" lon="-1.995097">
        <ele>1216.1</ele>
        <time>2019-12-29T09:40:25Z</time>
      </trkpt>
      <trkpt lat="40.068046" lon="-1.995027">
        <ele>1215.8</ele>
        <time>2019-12-29T09:40:27Z</time>
      </trkpt>
      <trkpt lat="40.068123" lon="-1.994953">
        <ele>1215.6</ele>
        <time>2019-12-29T09:40:29Z</time>
      </trkpt>
      <trkpt lat="40.068197" lon="-1.994885">
        <ele>1213.6</ele>
        <time>2019-12-29T09:41:00Z</time>
      </trkpt>
      <trkpt lat="40.068289" lon="-1.994907">
        <ele>1214.3</ele>
        <time>2019-12-29T09:43:08Z</time>
      </trkpt>
      <trkpt lat="40.068386" lon="-1.994924">
        <ele>1213.6</ele>
        <time>2019-12-29T09:43:16Z</time>
      </trkpt>
      <trkpt lat="40.068490" lon="-1.994921">
        <ele>1212.3</ele>
        <time>2019-12-29T09:43:21Z</time>
      </trkpt>
      <trkpt lat="40.068578" lon="-1.994979">
        <ele>1211.7</ele>
        <time>2019-12-29T09:43:24Z</time>
      </trkpt>
      <trkpt lat="40.068671" lon="-1.995069">
        <ele>1211.0</ele>
        <time>2019-12-29T09:43:27Z</time>
      </trkpt>
      <trkpt lat="40.068768" lon="-1.995172">
        <ele>1210.5</ele>
        <time>2019-12-29T09:43:30Z</time>
      </trkpt>
      <trkpt lat="40.068858" lon="-1.995233">
        <ele>1210.3</ele>
        <time>2019-12-29T09:43:33Z</time>
      </trkpt>
      <trkpt lat="40.068974" lon="-1.995224">
        <ele>1210.0</ele>
        <time>2019-12-29T09:43:36Z</time>
      </trkpt>
      <trkpt lat="40.069065" lon="-1.995237">
        <ele>1209.9</ele>
        <time>2019-12-29T09:43:38Z</time>
      </trkpt>
      <trkpt lat="40.069173" lon="-1.995305">
        <ele>1209.8</ele>
        <time>2019-12-29T09:43:41Z</time>
      </trkpt>
      <trkpt lat="40.069288" lon="-1.995396">
        <ele>1209.8</ele>
        <time>2019-12-29T09:43:44Z</time>
      </trkpt>
      <trkpt lat="40.069352" lon="-1.995505">
        <ele>1209.8</ele>
        <time>2019-12-29T09:43:46Z</time>
      </trkpt>
      <trkpt lat="40.069398" lon="-1.995619">
        <ele>1209.5</ele>
        <time>2019-12-29T09:43:48Z</time>
      </trkpt>
      <trkpt lat="40.069465" lon="-1.995740">
        <ele>1209.2</ele>
        <time>2019-12-29T09:43:50Z</time>
      </trkpt>
      <trkpt lat="40.069571" lon="-1.995776">
        <ele>1208.5</ele>
        <time>2019-12-29T09:43:52Z</time>
      </trkpt>
      <trkpt lat="40.069673" lon="-1.995720">
        <ele>1207.7</ele>
        <time>2019-12-29T09:43:54Z</time>
      </trkpt>
      <trkpt lat="40.069774" lon="-1.995680">
        <ele>1207.2</ele>
        <time>2019-12-29T09:43:56Z</time>
      </trkpt>
      <trkpt lat="40.069875" lon="-1.995646">
        <ele>1206.7</ele>
        <time>2019-12-29T09:43:58Z</time>
      </trkpt>
      <trkpt lat="40.069964" lon="-1.995621">
        <ele>1206.3</ele>
        <time>2019-12-29T09:44:00Z</time>
      </trkpt>
      <trkpt lat="40.070076" lon="-1.995633">
        <ele>1205.7</ele>
        <time>2019-12-29T09:44:03Z</time>
      </trkpt>
      <trkpt lat="40.070165" lon="-1.995584">
        <ele>1205.5</ele>
        <time>2019-12-29T09:44:06Z</time>
      </trkpt>
      <trkpt lat="40.070222" lon="-1.995489">
        <ele>1205.3</ele>
        <time>2019-12-29T09:44:08Z</time>
      </trkpt>
      <trkpt lat="40.070328" lon="-1.995476">
        <ele>1204.7</ele>
        <time>2019-12-29T09:44:11Z</time>
      </trkpt>
      <trkpt lat="40.070409" lon="-1.995557">
        <ele>1203.6</ele>
        <time>2019-12-29T09:44:14Z</time>
      </trkpt>
      <trkpt lat="40.070430" lon="-1.995683">
        <ele>1203.1</ele>
        <time>2019-12-29T09:44:17Z</time>
      </trkpt>
      <trkpt lat="40.070420" lon="-1.995802">
        <ele>1202.9</ele>
        <time>2019-12-29T09:44:19Z</time>
      </trkpt>
      <trkpt lat="40.070372" lon="-1.995955">
        <ele>1202.3</ele>
        <time>2019-12-29T09:44:22Z</time>
      </trkpt>
      <trkpt lat="40.070315" lon="-1.996056">
        <ele>1201.8</ele>
        <time>2019-12-29T09:44:24Z</time>
      </trkpt>
      <trkpt lat="40.070241" lon="-1.996130">
        <ele>1201.5</ele>
        <time>2019-12-29T09:44:26Z</time>
      </trkpt>
      <trkpt lat="40.070199" lon="-1.996275">
        <ele>1200.9</ele>
        <time>2019-12-29T09:44:29Z</time>
      </trkpt>
      <trkpt lat="40.070262" lon="-1.996375">
        <ele>1200.7</ele>
        <time>2019-12-29T09:44:32Z</time>
      </trkpt>
      <trkpt lat="40.070354" lon="-1.996474">
        <ele>1200.6</ele>
        <time>2019-12-29T09:44:35Z</time>
      </trkpt>
      <trkpt lat="40.070439" lon="-1.996590">
        <ele>1200.2</ele>
        <time>2019-12-29T09:44:38Z</time>
      </trkpt>
      <trkpt lat="40.070531" lon="-1.996679">
        <ele>1199.6</ele>
        <time>2019-12-29T09:44:41Z</time>
      </trkpt>
      <trkpt lat="40.070607" lon="-1.996749">
        <ele>1199.3</ele>
        <time>2019-12-29T09:44:43Z</time>
      </trkpt>
      <trkpt lat="40.070688" lon="-1.996816">
        <ele>1198.9</ele>
        <time>2019-12-29T09:44:45Z</time>
      </trkpt>
      <trkpt lat="40.070768" lon="-1.996892">
        <ele>1198.7</ele>
        <time>2019-12-29T09:44:47Z</time>
      </trkpt>
      <trkpt lat="40.070872" lon="-1.996988">
        <ele>1198.2</ele>
        <time>2019-12-29T09:44:50Z</time>
      </trkpt>
      <trkpt lat="40.070964" lon="-1.997060">
        <ele>1197.8</ele>
        <time>2019-12-29T09:44:53Z</time>
      </trkpt>
      <trkpt lat="40.071072" lon="-1.997111">
        <ele>1197.5</ele>
        <time>2019-12-29T09:44:56Z</time>
      </trkpt>
      <trkpt lat="40.071146" lon="-1.997179">
        <ele>1197.4</ele>
        <time>2019-12-29T09:44:58Z</time>
      </trkpt>
      <trkpt lat="40.071228" lon="-1.997254">
        <ele>1197.3</ele>
        <time>2019-12-29T09:45:00Z</time>
      </trkpt>
      <trkpt lat="40.071295" lon="-1.997336">
        <ele>1197.2</ele>
        <time>2019-12-29T09:45:02Z</time>
      </trkpt>
      <trkpt lat="40.071348" lon="-1.997433">
        <ele>1196.8</ele>
        <time>2019-12-29T09:45:04Z</time>
      </trkpt>
      <trkpt lat="40.071388" lon="-1.997587">
        <ele>1196.3</ele>
        <time>2019-12-29T09:45:07Z</time>
      </trkpt>
      <trkpt lat="40.071426" lon="-1.997751">
        <ele>1195.8</ele>
        <time>2019-12-29T09:45:10Z</time>
      </trkpt>
      <trkpt lat="40.071460" lon="-1.997887">
        <ele>1195.4</ele>
        <time>2019-12-29T09:45:12Z</time>
      </trkpt>
      <trkpt lat="40.071523" lon="-1.998020">
        <ele>1194.9</ele>
        <time>2019-12-29T09:45:14Z</time>
      </trkpt>
      <trkpt lat="40.071595" lon="-1.998120">
        <ele>1194.4</ele>
        <time>2019-12-29T09:45:16Z</time>
      </trkpt>
      <trkpt lat="40.071706" lon="-1.998225">
        <ele>1193.4</ele>
        <time>2019-12-29T09:45:19Z</time>
      </trkpt>
      <trkpt lat="40.071774" lon="-1.998309">
        <ele>1192.9</ele>
        <time>2019-12-29T09:45:21Z</time>
      </trkpt>
      <trkpt lat="40.071840" lon="-1.998398">
        <ele>1192.5</ele>
        <time>2019-12-29T09:45:23Z</time>
      </trkpt>
      <trkpt lat="40.071827" lon="-1.998562">
        <ele>1192.0</ele>
        <time>2019-12-29T09:45:26Z</time>
      </trkpt>
      <trkpt lat="40.071787" lon="-1.998671">
        <ele>1191.3</ele>
        <time>2019-12-29T09:45:28Z</time>
      </trkpt>
      <trkpt lat="40.071760" lon="-1.998791">
        <ele>1190.7</ele>
        <time>2019-12-29T09:45:30Z</time>
      </trkpt>
      <trkpt lat="40.071753" lon="-1.998948">
        <ele>1190.2</ele>
        <time>2019-12-29T09:45:33Z</time>
      </trkpt>
      <trkpt lat="40.071777" lon="-1.999108">
        <ele>1189.8</ele>
        <time>2019-12-29T09:45:36Z</time>
      </trkpt>
      <trkpt lat="40.071818" lon="-1.999258">
        <ele>1189.3</ele>
        <time>2019-12-29T09:45:39Z</time>
      </trkpt>
      <trkpt lat="40.071843" lon="-1.999387">
        <ele>1189.0</ele>
        <time>2019-12-29T09:45:41Z</time>
      </trkpt>
      <trkpt lat="40.071870" lon="-1.999514">
        <ele>1188.8</ele>
        <time>2019-12-29T09:45:43Z</time>
      </trkpt>
      <trkpt lat="40.071924" lon="-1.999641">
        <ele>1188.2</ele>
        <time>2019-12-29T09:45:46Z</time>
      </trkpt>
      <trkpt lat="40.071996" lon="-1.999736">
        <ele>1187.5</ele>
        <time>2019-12-29T09:45:50Z</time>
      </trkpt>
      <trkpt lat="40.072087" lon="-1.999845">
        <ele>1187.4</ele>
        <time>2019-12-29T09:45:54Z</time>
      </trkpt>
      <trkpt lat="40.072194" lon="-1.999952">
        <ele>1187.4</ele>
        <time>2019-12-29T09:45:57Z</time>
      </trkpt>
      <trkpt lat="40.072275" lon="-2.000063">
        <ele>1187.0</ele>
        <time>2019-12-29T09:46:00Z</time>
      </trkpt>
      <trkpt lat="40.072345" lon="-2.000177">
        <ele>1186.6</ele>
        <time>2019-12-29T09:46:03Z</time>
      </trkpt>
      <trkpt lat="40.072373" lon="-2.000301">
        <ele>1186.4</ele>
        <time>2019-12-29T09:46:05Z</time>
      </trkpt>
      <trkpt lat="40.072384" lon="-2.000432">
        <ele>1185.9</ele>
        <time>2019-12-29T09:46:07Z</time>
      </trkpt>
      <trkpt lat="40.072365" lon="-2.000552">
        <ele>1185.4</ele>
        <time>2019-12-29T09:46:09Z</time>
      </trkpt>
      <trkpt lat="40.072313" lon="-2.000669">
        <ele>1184.8</ele>
        <time>2019-12-29T09:46:11Z</time>
      </trkpt>
      <trkpt lat="40.072224" lon="-2.000766">
        <ele>1183.8</ele>
        <time>2019-12-29T09:46:14Z</time>
      </trkpt>
      <trkpt lat="40.072121" lon="-2.000805">
        <ele>1183.2</ele>
        <time>2019-12-29T09:46:17Z</time>
      </trkpt>
      <trkpt lat="40.072018" lon="-2.000889">
        <ele>1182.5</ele>
        <time>2019-12-29T09:46:20Z</time>
      </trkpt>
      <trkpt lat="40.071982" lon="-2.001027">
        <ele>1182.1</ele>
        <time>2019-12-29T09:46:23Z</time>
      </trkpt>
      <trkpt lat="40.072008" lon="-2.001156">
        <ele>1181.7</ele>
        <time>2019-12-29T09:46:26Z</time>
      </trkpt>
      <trkpt lat="40.072105" lon="-2.001221">
        <ele>1181.1</ele>
        <time>2019-12-29T09:46:29Z</time>
      </trkpt>
      <trkpt lat="40.072215" lon="-2.001304">
        <ele>1180.5</ele>
        <time>2019-12-29T09:46:32Z</time>
      </trkpt>
      <trkpt lat="40.072317" lon="-2.001388">
        <ele>1180.1</ele>
        <time>2019-12-29T09:46:35Z</time>
      </trkpt>
      <trkpt lat="40.072403" lon="-2.001438">
        <ele>1179.9</ele>
        <time>2019-12-29T09:46:37Z</time>
      </trkpt>
      <trkpt lat="40.072492" lon="-2.001507">
        <ele>1179.5</ele>
        <time>2019-12-29T09:46:40Z</time>
      </trkpt>
      <trkpt lat="40.072583" lon="-2.001616">
        <ele>1178.9</ele>
        <time>2019-12-29T09:46:44Z</time>
      </trkpt>
      <trkpt lat="40.072681" lon="-2.001699">
        <ele>1178.4</ele>
        <time>2019-12-29T09:46:47Z</time>
      </trkpt>
      <trkpt lat="40.072783" lon="-2.001720">
        <ele>1178.0</ele>
        <time>2019-12-29T09:46:50Z</time>
      </trkpt>
      <trkpt lat="40.072889" lon="-2.001644">
        <ele>1177.2</ele>
        <time>2019-12-29T09:46:54Z</time>
      </trkpt>
      <trkpt lat="40.072947" lon="-2.001549">
        <ele>1176.5</ele>
        <time>2019-12-29T09:46:56Z</time>
      </trkpt>
      <trkpt lat="40.073044" lon="-2.001469">
        <ele>1175.8</ele>
        <time>2019-12-29T09:46:58Z</time>
      </trkpt>
      <trkpt lat="40.073134" lon="-2.001384">
        <ele>1175.3</ele>
        <time>2019-12-29T09:47:00Z</time>
      </trkpt>
      <trkpt lat="40.073247" lon="-2.001326">
        <ele>1174.6</ele>
        <time>2019-12-29T09:47:03Z</time>
      </trkpt>
      <trkpt lat="40.073353" lon="-2.001358">
        <ele>1174.1</ele>
        <time>2019-12-29T09:47:06Z</time>
      </trkpt>
      <trkpt lat="40.073469" lon="-2.001316">
        <ele>1173.6</ele>
        <time>2019-12-29T09:47:09Z</time>
      </trkpt>
      <trkpt lat="40.073561" lon="-2.001304">
        <ele>1173.2</ele>
        <time>2019-12-29T09:47:13Z</time>
      </trkpt>
      <trkpt lat="40.073669" lon="-2.001276">
        <ele>1173.0</ele>
        <time>2019-12-29T09:47:17Z</time>
      </trkpt>
      <trkpt lat="40.073726" lon="-2.001122">
        <ele>1172.8</ele>
        <time>2019-12-29T09:47:20Z</time>
      </trkpt>
      <trkpt lat="40.073746" lon="-2.000951">
        <ele>1172.1</ele>
        <time>2019-12-29T09:47:23Z</time>
      </trkpt>
      <trkpt lat="40.073780" lon="-2.000801">
        <ele>1171.4</ele>
        <time>2019-12-29T09:47:26Z</time>
      </trkpt>
      <trkpt lat="40.073841" lon="-2.000682">
        <ele>1170.7</ele>
        <time>2019-12-29T09:47:29Z</time>
      </trkpt>
      <trkpt lat="40.073899" lon="-2.000584">
        <ele>1170.2</ele>
        <time>2019-12-29T09:47:31Z</time>
      </trkpt>
      <trkpt lat="40.073988" lon="-2.000451">
        <ele>1169.7</ele>
        <time>2019-12-29T09:47:34Z</time>
      </trkpt>
      <trkpt lat="40.074053" lon="-2.000355">
        <ele>1169.4</ele>
        <time>2019-12-29T09:47:36Z</time>
      </trkpt>
      <trkpt lat="40.074131" lon="-2.000256">
        <ele>1169.0</ele>
        <time>2019-12-29T09:47:38Z</time>
      </trkpt>
      <trkpt lat="40.074207" lon="-2.000180">
        <ele>1168.5</ele>
        <time>2019-12-29T09:47:40Z</time>
      </trkpt>
      <trkpt lat="40.074288" lon="-2.000101">
        <ele>1168.2</ele>
        <time>2019-12-29T09:47:42Z</time>
      </trkpt>
      <trkpt lat="40.074371" lon="-2.000027">
        <ele>1167.8</ele>
        <time>2019-12-29T09:47:44Z</time>
      </trkpt>
      <trkpt lat="40.074511" lon="-1.999977">
        <ele>1167.1</ele>
        <time>2019-12-29T09:47:47Z</time>
      </trkpt>
      <trkpt lat="40.074613" lon="-1.999937">
        <ele>1166.5</ele>
        <time>2019-12-29T09:47:49Z</time>
      </trkpt>
      <trkpt lat="40.074699" lon="-1.999886">
        <ele>1165.7</ele>
        <time>2019-12-29T09:47:51Z</time>
      </trkpt>
      <trkpt lat="40.074779" lon="-1.999812">
        <ele>1165.1</ele>
        <time>2019-12-29T09:47:53Z</time>
      </trkpt>
      <trkpt lat="40.074878" lon="-1.999714">
        <ele>1164.7</ele>
        <time>2019-12-29T09:47:55Z</time>
      </trkpt>
      <trkpt lat="40.074975" lon="-1.999607">
        <ele>1164.2</ele>
        <time>2019-12-29T09:47:57Z</time>
      </trkpt>
      <trkpt lat="40.075083" lon="-1.999518">
        <ele>1163.7</ele>
        <time>2019-12-29T09:47:59Z</time>
      </trkpt>
      <trkpt lat="40.075206" lon="-1.999472">
        <ele>1163.1</ele>
        <time>2019-12-29T09:48:01Z</time>
      </trkpt>
      <trkpt lat="40.075327" lon="-1.999418">
        <ele>1162.8</ele>
        <time>2019-12-29T09:48:03Z</time>
      </trkpt>
      <trkpt lat="40.075455" lon="-1.999370">
        <ele>1162.5</ele>
        <time>2019-12-29T09:48:05Z</time>
      </trkpt>
      <trkpt lat="40.075579" lon="-1.999338">
        <ele>1162.1</ele>
        <time>2019-12-29T09:48:07Z</time>
      </trkpt>
      <trkpt lat="40.075678" lon="-1.999319">
        <ele>1161.6</ele>
        <time>2019-12-29T09:48:09Z</time>
      </trkpt>
      <trkpt lat="40.075769" lon="-1.999330">
        <ele>1160.4</ele>
        <time>2019-12-29T09:48:15Z</time>
      </trkpt>
      <trkpt lat="40.075858" lon="-1.999363">
        <ele>1158.6</ele>
        <time>2019-12-29T09:49:03Z</time>
      </trkpt>
      <trkpt lat="40.075933" lon="-1.999281">
        <ele>1158.8</ele>
        <time>2019-12-29T09:49:09Z</time>
      </trkpt>
      <trkpt lat="40.076012" lon="-1.999208">
        <ele>1159.4</ele>
        <time>2019-12-29T09:49:15Z</time>
      </trkpt>
      <trkpt lat="40.076093" lon="-1.999129">
        <ele>1161.7</ele>
        <time>2019-12-29T09:49:22Z</time>
      </trkpt>
      <trkpt lat="40.076165" lon="-1.999056">
        <ele>1163.3</ele>
        <time>2019-12-29T09:49:28Z</time>
      </trkpt>
      <trkpt lat="40.076238" lon="-1.998983">
        <ele>1164.5</ele>
        <time>2019-12-29T09:49:34Z</time>
      </trkpt>
      <trkpt lat="40.076299" lon="-1.998892">
        <ele>1166.2</ele>
        <time>2019-12-29T09:49:40Z</time>
      </trkpt>
      <trkpt lat="40.076324" lon="-1.998769">
        <ele>1168.1</ele>
        <time>2019-12-29T09:49:46Z</time>
      </trkpt>
      <trkpt lat="40.076362" lon="-1.998651">
        <ele>1168.9</ele>
        <time>2019-12-29T09:49:52Z</time>
      </trkpt>
      <trkpt lat="40.076407" lon="-1.998537">
        <ele>1169.9</ele>
        <time>2019-12-29T09:49:58Z</time>
      </trkpt>
      <trkpt lat="40.076440" lon="-1.998407">
        <ele>1170.9</ele>
        <time>2019-12-29T09:50:04Z</time>
      </trkpt>
      <trkpt lat="40.076478" lon="-1.998297">
        <ele>1172.0</ele>
        <time>2019-12-29T09:50:11Z</time>
      </trkpt>
      <trkpt lat="40.076505" lon="-1.998169">
        <ele>1173.4</ele>
        <time>2019-12-29T09:50:17Z</time>
      </trkpt>
      <trkpt lat="40.076519" lon="-1.998043">
        <ele>1174.2</ele>
        <time>2019-12-29T09:50:22Z</time>
      </trkpt>
      <trkpt lat="40.076535" lon="-1.997925">
        <ele>1174.9</ele>
        <time>2019-12-29T09:50:28Z</time>
      </trkpt>
      <trkpt lat="40.076538" lon="-1.997798">
        <ele>1175.7</ele>
        <time>2019-12-29T09:50:34Z</time>
      </trkpt>
      <trkpt lat="40.076570" lon="-1.997659">
        <ele>1176.3</ele>
        <time>2019-12-29T09:50:40Z</time>
      </trkpt>
      <trkpt lat="40.076584" lon="-1.997538">
        <ele>1176.9</ele>
        <time>2019-12-29T09:50:45Z</time>
      </trkpt>
      <trkpt lat="40.076580" lon="-1.997397">
        <ele>1177.7</ele>
        <time>2019-12-29T09:50:52Z</time>
      </trkpt>
      <trkpt lat="40.076589" lon="-1.997275">
        <ele>1178.6</ele>
        <time>2019-12-29T09:50:57Z</time>
      </trkpt>
      <trkpt lat="40.076601" lon="-1.997158">
        <ele>1179.6</ele>
        <time>2019-12-29T09:51:03Z</time>
      </trkpt>
      <trkpt lat="40.076633" lon="-1.997033">
        <ele>1181.2</ele>
        <time>2019-12-29T09:51:11Z</time>
      </trkpt>
      <trkpt lat="40.076693" lon="-1.996929">
        <ele>1183.5</ele>
        <time>2019-12-29T09:51:20Z</time>
      </trkpt>
      <trkpt lat="40.076785" lon="-1.996870">
        <ele>1184.6</ele>
        <time>2019-12-29T09:51:27Z</time>
      </trkpt>
      <trkpt lat="40.076877" lon="-1.996890">
        <ele>1186.1</ele>
        <time>2019-12-29T09:51:33Z</time>
      </trkpt>
      <trkpt lat="40.076914" lon="-1.997003">
        <ele>1187.5</ele>
        <time>2019-12-29T09:51:40Z</time>
      </trkpt>
      <trkpt lat="40.076946" lon="-1.997133">
        <ele>1188.6</ele>
        <time>2019-12-29T09:51:47Z</time>
      </trkpt>
      <trkpt lat="40.076988" lon="-1.997246">
        <ele>1189.9</ele>
        <time>2019-12-29T09:51:54Z</time>
      </trkpt>
      <trkpt lat="40.077038" lon="-1.997359">
        <ele>1190.6</ele>
        <time>2019-12-29T09:52:00Z</time>
      </trkpt>
      <trkpt lat="40.077099" lon="-1.997446">
        <ele>1191.5</ele>
        <time>2019-12-29T09:52:06Z</time>
      </trkpt>
      <trkpt lat="40.077163" lon="-1.997530">
        <ele>1192.3</ele>
        <time>2019-12-29T09:52:12Z</time>
      </trkpt>
      <trkpt lat="40.077236" lon="-1.997602">
        <ele>1193.0</ele>
        <time>2019-12-29T09:52:18Z</time>
      </trkpt>
      <trkpt lat="40.077298" lon="-1.997690">
        <ele>1193.7</ele>
        <time>2019-12-29T09:52:24Z</time>
      </trkpt>
      <trkpt lat="40.077387" lon="-1.997772">
        <ele>1195.2</ele>
        <time>2019-12-29T09:52:31Z</time>
      </trkpt>
      <trkpt lat="40.077479" lon="-1.997838">
        <ele>1196.1</ele>
        <time>2019-12-29T09:52:37Z</time>
      </trkpt>
      <trkpt lat="40.077569" lon="-1.997908">
        <ele>1197.7</ele>
        <time>2019-12-29T09:52:44Z</time>
      </trkpt>
      <trkpt lat="40.077656" lon="-1.997987">
        <ele>1198.9</ele>
        <time>2019-12-29T09:52:51Z</time>
      </trkpt>
      <trkpt lat="40.077728" lon="-1.998071">
        <ele>1199.1</ele>
        <time>2019-12-29T09:52:57Z</time>
      </trkpt>
      <trkpt lat="40.077807" lon="-1.998135">
        <ele>1199.7</ele>
        <time>2019-12-29T09:53:02Z</time>
      </trkpt>
      <trkpt lat="40.077889" lon="-1.998222">
        <ele>1200.7</ele>
        <time>2019-12-29T09:53:08Z</time>
      </trkpt>
      <trkpt lat="40.077974" lon="-1.998268">
        <ele>1201.3</ele>
        <time>2019-12-29T09:53:13Z</time>
      </trkpt>
      <trkpt lat="40.078084" lon="-1.998239">
        <ele>1202.7</ele>
        <time>2019-12-29T09:53:19Z</time>
      </trkpt>
      <trkpt lat="40.078157" lon="-1.998138">
        <ele>1204.3</ele>
        <time>2019-12-29T09:53:25Z</time>
      </trkpt>
      <trkpt lat="40.078154" lon="-1.998019">
        <ele>1205.0</ele>
        <time>2019-12-29T09:53:30Z</time>
      </trkpt>
      <trkpt lat="40.078114" lon="-1.997903">
        <ele>1206.0</ele>
        <time>2019-12-29T09:53:35Z</time>
      </trkpt>
      <trkpt lat="40.078075" lon="-1.997795">
        <ele>1206.9</ele>
        <time>2019-12-29T09:53:40Z</time>
      </trkpt>
      <trkpt lat="40.078023" lon="-1.997679">
        <ele>1207.8</ele>
        <time>2019-12-29T09:53:46Z</time>
      </trkpt>
      <trkpt lat="40.077981" lon="-1.997569">
        <ele>1208.1</ele>
        <time>2019-12-29T09:53:51Z</time>
      </trkpt>
      <trkpt lat="40.077942" lon="-1.997443">
        <ele>1209.0</ele>
        <time>2019-12-29T09:53:57Z</time>
      </trkpt>
      <trkpt lat="40.077880" lon="-1.997323">
        <ele>1210.0</ele>
        <time>2019-12-29T09:54:03Z</time>
      </trkpt>
      <trkpt lat="40.077827" lon="-1.997220">
        <ele>1210.9</ele>
        <time>2019-12-29T09:54:08Z</time>
      </trkpt>
      <trkpt lat="40.077782" lon="-1.997114">
        <ele>1211.2</ele>
        <time>2019-12-29T09:54:12Z</time>
      </trkpt>
      <trkpt lat="40.077748" lon="-1.996988">
        <ele>1211.4</ele>
        <time>2019-12-29T09:54:17Z</time>
      </trkpt>
      <trkpt lat="40.077734" lon="-1.996864">
        <ele>1212.2</ele>
        <time>2019-12-29T09:54:22Z</time>
      </trkpt>
      <trkpt lat="40.077720" lon="-1.996724">
        <ele>1212.4</ele>
        <time>2019-12-29T09:54:27Z</time>
      </trkpt>
      <trkpt lat="40.077701" lon="-1.996581">
        <ele>1213.1</ele>
        <time>2019-12-29T09:54:32Z</time>
      </trkpt>
      <trkpt lat="40.077693" lon="-1.996460">
        <ele>1213.5</ele>
        <time>2019-12-29T09:54:36Z</time>
      </trkpt>
      <trkpt lat="40.077673" lon="-1.996326">
        <ele>1214.2</ele>
        <time>2019-12-29T09:54:41Z</time>
      </trkpt>
      <trkpt lat="40.077658" lon="-1.996189">
        <ele>1215.1</ele>
        <time>2019-12-29T09:54:46Z</time>
      </trkpt>
      <trkpt lat="40.077640" lon="-1.996059">
        <ele>1215.8</ele>
        <time>2019-12-29T09:54:51Z</time>
      </trkpt>
      <trkpt lat="40.077627" lon="-1.995924">
        <ele>1216.0</ele>
        <time>2019-12-29T09:54:57Z</time>
      </trkpt>
      <trkpt lat="40.077613" lon="-1.995798">
        <ele>1217.5</ele>
        <time>2019-12-29T09:55:03Z</time>
      </trkpt>
      <trkpt lat="40.077611" lon="-1.995681">
        <ele>1219.3</ele>
        <time>2019-12-29T09:55:10Z</time>
      </trkpt>
      <trkpt lat="40.077698" lon="-1.995588">
        <ele>1219.9</ele>
        <time>2019-12-29T09:57:08Z</time>
      </trkpt>
      <trkpt lat="40.077727" lon="-1.995451">
        <ele>1219.8</ele>
        <time>2019-12-29T09:57:12Z</time>
      </trkpt>
      <trkpt lat="40.077738" lon="-1.995328">
        <ele>1219.7</ele>
        <time>2019-12-29T09:57:15Z</time>
      </trkpt>
      <trkpt lat="40.077747" lon="-1.995194">
        <ele>1220.0</ele>
        <time>2019-12-29T09:57:19Z</time>
      </trkpt>
      <trkpt lat="40.077764" lon="-1.995046">
        <ele>1219.9</ele>
        <time>2019-12-29T09:57:23Z</time>
      </trkpt>
      <trkpt lat="40.077778" lon="-1.994909">
        <ele>1220.0</ele>
        <time>2019-12-29T09:57:26Z</time>
      </trkpt>
      <trkpt lat="40.077794" lon="-1.994781">
        <ele>1220.2</ele>
        <time>2019-12-29T09:57:29Z</time>
      </trkpt>
      <trkpt lat="40.077803" lon="-1.994643">
        <ele>1220.4</ele>
        <time>2019-12-29T09:57:32Z</time>
      </trkpt>
      <trkpt lat="40.077815" lon="-1.994503">
        <ele>1220.8</ele>
        <time>2019-12-29T09:57:35Z</time>
      </trkpt>
      <trkpt lat="40.077819" lon="-1.994359">
        <ele>1221.2</ele>
        <time>2019-12-29T09:57:38Z</time>
      </trkpt>
      <trkpt lat="40.077834" lon="-1.994216">
        <ele>1221.3</ele>
        <time>2019-12-29T09:57:41Z</time>
      </trkpt>
      <trkpt lat="40.077842" lon="-1.994057">
        <ele>1221.6</ele>
        <time>2019-12-29T09:57:44Z</time>
      </trkpt>
      <trkpt lat="40.077838" lon="-1.993901">
        <ele>1221.9</ele>
        <time>2019-12-29T09:57:47Z</time>
      </trkpt>
      <trkpt lat="40.077839" lon="-1.993732">
        <ele>1222.2</ele>
        <time>2019-12-29T09:57:50Z</time>
      </trkpt>
      <trkpt lat="40.077830" lon="-1.993559">
        <ele>1222.4</ele>
        <time>2019-12-29T09:57:53Z</time>
      </trkpt>
      <trkpt lat="40.077823" lon="-1.993390">
        <ele>1222.5</ele>
        <time>2019-12-29T09:57:56Z</time>
      </trkpt>
      <trkpt lat="40.077828" lon="-1.993273">
        <ele>1222.6</ele>
        <time>2019-12-29T09:57:58Z</time>
      </trkpt>
      <trkpt lat="40.077837" lon="-1.993145">
        <ele>1222.7</ele>
        <time>2019-12-29T09:58:00Z</time>
      </trkpt>
      <trkpt lat="40.077847" lon="-1.993014">
        <ele>1222.7</ele>
        <time>2019-12-29T09:58:02Z</time>
      </trkpt>
      <trkpt lat="40.077859" lon="-1.992879">
        <ele>1222.6</ele>
        <time>2019-12-29T09:58:04Z</time>
      </trkpt>
      <trkpt lat="40.077862" lon="-1.992745">
        <ele>1222.2</ele>
        <time>2019-12-29T09:58:06Z</time>
      </trkpt>
      <trkpt lat="40.077859" lon="-1.992620">
        <ele>1221.7</ele>
        <time>2019-12-29T09:58:08Z</time>
      </trkpt>
      <trkpt lat="40.077842" lon="-1.992503">
        <ele>1221.4</ele>
        <time>2019-12-29T09:58:10Z</time>
      </trkpt>
      <trkpt lat="40.077814" lon="-1.992348">
        <ele>1221.3</ele>
        <time>2019-12-29T09:58:13Z</time>
      </trkpt>
      <trkpt lat="40.077779" lon="-1.992201">
        <ele>1221.3</ele>
        <time>2019-12-29T09:58:16Z</time>
      </trkpt>
      <trkpt lat="40.077733" lon="-1.992077">
        <ele>1221.3</ele>
        <time>2019-12-29T09:58:19Z</time>
      </trkpt>
      <trkpt lat="40.077693" lon="-1.991964">
        <ele>1221.7</ele>
        <time>2019-12-29T09:58:22Z</time>
      </trkpt>
      <trkpt lat="40.077643" lon="-1.991854">
        <ele>1222.5</ele>
        <time>2019-12-29T09:58:25Z</time>
      </trkpt>
      <trkpt lat="40.077599" lon="-1.991743">
        <ele>1222.9</ele>
        <time>2019-12-29T09:58:28Z</time>
      </trkpt>
      <trkpt lat="40.077566" lon="-1.991619">
        <ele>1223.1</ele>
        <time>2019-12-29T09:58:31Z</time>
      </trkpt>
      <trkpt lat="40.077540" lon="-1.991477">
        <ele>1223.3</ele>
        <time>2019-12-29T09:58:35Z</time>
      </trkpt>
      <trkpt lat="40.077528" lon="-1.991323">
        <ele>1223.9</ele>
        <time>2019-12-29T09:58:39Z</time>
      </trkpt>
      <trkpt lat="40.077519" lon="-1.991202">
        <ele>1224.5</ele>
        <time>2019-12-29T09:58:42Z</time>
      </trkpt>
      <trkpt lat="40.077500" lon="-1.991057">
        <ele>1225.4</ele>
        <time>2019-12-29T09:58:46Z</time>
      </trkpt>
      <trkpt lat="40.077469" lon="-1.990939">
        <ele>1226.1</ele>
        <time>2019-12-29T09:58:49Z</time>
      </trkpt>
      <trkpt lat="40.077430" lon="-1.990828">
        <ele>1226.6</ele>
        <time>2019-12-29T09:58:52Z</time>
      </trkpt>
      <trkpt lat="40.077382" lon="-1.990715">
        <ele>1227.3</ele>
        <time>2019-12-29T09:58:55Z</time>
      </trkpt>
      <trkpt lat="40.077318" lon="-1.990609">
        <ele>1227.9</ele>
        <time>2019-12-29T09:58:58Z</time>
      </trkpt>
      <trkpt lat="40.077250" lon="-1.990526">
        <ele>1228.3</ele>
        <time>2019-12-29T09:59:01Z</time>
      </trkpt>
      <trkpt lat="40.077162" lon="-1.990440">
        <ele>1228.5</ele>
        <time>2019-12-29T09:59:04Z</time>
      </trkpt>
      <trkpt lat="40.077074" lon="-1.990363">
        <ele>1228.7</ele>
        <time>2019-12-29T09:59:07Z</time>
      </trkpt>
      <trkpt lat="40.076973" lon="-1.990286">
        <ele>1228.8</ele>
        <time>2019-12-29T09:59:10Z</time>
      </trkpt>
      <trkpt lat="40.076864" lon="-1.990206">
        <ele>1228.8</ele>
        <time>2019-12-29T09:59:13Z</time>
      </trkpt>
      <trkpt lat="40.076753" lon="-1.990103">
        <ele>1228.6</ele>
        <time>2019-12-29T09:59:16Z</time>
      </trkpt>
      <trkpt lat="40.076682" lon="-1.989973">
        <ele>1228.4</ele>
        <time>2019-12-29T09:59:18Z</time>
      </trkpt>
      <trkpt lat="40.076626" lon="-1.989796">
        <ele>1228.0</ele>
        <time>2019-12-29T09:59:20Z</time>
      </trkpt>
      <trkpt lat="40.076571" lon="-1.989586">
        <ele>1226.9</ele>
        <time>2019-12-29T09:59:22Z</time>
      </trkpt>
      <trkpt lat="40.076536" lon="-1.989476">
        <ele>1226.2</ele>
        <time>2019-12-29T09:59:23Z</time>
      </trkpt>
      <trkpt lat="40.076500" lon="-1.989358">
        <ele>1225.2</ele>
        <time>2019-12-29T09:59:24Z</time>
      </trkpt>
      <trkpt lat="40.076458" lon="-1.989241">
        <ele>1224.4</ele>
        <time>2019-12-29T09:59:25Z</time>
      </trkpt>
      <trkpt lat="40.076417" lon="-1.989119">
        <ele>1223.3</ele>
        <time>2019-12-29T09:59:26Z</time>
      </trkpt>
      <trkpt lat="40.076383" lon="-1.988990">
        <ele>1222.5</ele>
        <time>2019-12-29T09:59:27Z</time>
      </trkpt>
      <trkpt lat="40.076358" lon="-1.988857">
        <ele>1221.5</ele>
        <time>2019-12-29T09:59:28Z</time>
      </trkpt>
      <trkpt lat="40.076331" lon="-1.988716">
        <ele>1220.6</ele>
        <time>2019-12-29T09:59:29Z</time>
      </trkpt>
      <trkpt lat="40.076309" lon="-1.988583">
        <ele>1219.7</ele>
        <time>2019-12-29T09:59:30Z</time>
      </trkpt>
      <trkpt lat="40.076291" lon="-1.988468">
        <ele>1219.0</ele>
        <time>2019-12-29T09:59:31Z</time>
      </trkpt>
      <trkpt lat="40.076256" lon="-1.988249">
        <ele>1217.9</ele>
        <time>2019-12-29T09:59:33Z</time>
      </trkpt>
      <trkpt lat="40.076227" lon="-1.988057">
        <ele>1217.1</ele>
        <time>2019-12-29T09:59:35Z</time>
      </trkpt>
      <trkpt lat="40.076225" lon="-1.987900">
        <ele>1216.6</ele>
        <time>2019-12-29T09:59:37Z</time>
      </trkpt>
      <trkpt lat="40.076255" lon="-1.987754">
        <ele>1216.5</ele>
        <time>2019-12-29T09:59:39Z</time>
      </trkpt>
      <trkpt lat="40.076326" lon="-1.987611">
        <ele>1216.3</ele>
        <time>2019-12-29T09:59:41Z</time>
      </trkpt>
      <trkpt lat="40.076442" lon="-1.987490">
        <ele>1216.2</ele>
        <time>2019-12-29T09:59:43Z</time>
      </trkpt>
      <trkpt lat="40.076591" lon="-1.987408">
        <ele>1215.4</ele>
        <time>2019-12-29T09:59:45Z</time>
      </trkpt>
      <trkpt lat="40.076764" lon="-1.987371">
        <ele>1214.1</ele>
        <time>2019-12-29T09:59:47Z</time>
      </trkpt>
      <trkpt lat="40.076914" lon="-1.987344">
        <ele>1212.6</ele>
        <time>2019-12-29T09:59:49Z</time>
      </trkpt>
      <trkpt lat="40.077015" lon="-1.987284">
        <ele>1210.8</ele>
        <time>2019-12-29T09:59:51Z</time>
      </trkpt>
      <trkpt lat="40.077057" lon="-1.987155">
        <ele>1209.4</ele>
        <time>2019-12-29T09:59:53Z</time>
      </trkpt>
      <trkpt lat="40.077075" lon="-1.986966">
        <ele>1208.3</ele>
        <time>2019-12-29T09:59:55Z</time>
      </trkpt>
      <trkpt lat="40.077155" lon="-1.986758">
        <ele>1207.1</ele>
        <time>2019-12-29T09:59:57Z</time>
      </trkpt>
      <trkpt lat="40.077273" lon="-1.986593">
        <ele>1204.9</ele>
        <time>2019-12-29T09:59:59Z</time>
      </trkpt>
      <trkpt lat="40.077345" lon="-1.986522">
        <ele>1204.0</ele>
        <time>2019-12-29T10:00:00Z</time>
      </trkpt>
      <trkpt lat="40.077422" lon="-1.986457">
        <ele>1203.2</ele>
        <time>2019-12-29T10:00:01Z</time>
      </trkpt>
      <trkpt lat="40.077555" lon="-1.986353">
        <ele>1201.6</ele>
        <time>2019-12-29T10:00:03Z</time>
      </trkpt>
      <trkpt lat="40.077660" lon="-1.986265">
        <ele>1199.9</ele>
        <time>2019-12-29T10:00:05Z</time>
      </trkpt>
      <trkpt lat="40.077754" lon="-1.986186">
        <ele>1198.7</ele>
        <time>2019-12-29T10:00:07Z</time>
      </trkpt>
      <trkpt lat="40.077865" lon="-1.986107">
        <ele>1197.2</ele>
        <time>2019-12-29T10:00:09Z</time>
      </trkpt>
      <trkpt lat="40.077971" lon="-1.986042">
        <ele>1195.5</ele>
        <time>2019-12-29T10:00:11Z</time>
      </trkpt>
      <trkpt lat="40.078075" lon="-1.985946">
        <ele>1193.3</ele>
        <time>2019-12-29T10:00:13Z</time>
      </trkpt>
      <trkpt lat="40.078164" lon="-1.985816">
        <ele>1191.6</ele>
        <time>2019-12-29T10:00:15Z</time>
      </trkpt>
      <trkpt lat="40.078229" lon="-1.985663">
        <ele>1189.5</ele>
        <time>2019-12-29T10:00:17Z</time>
      </trkpt>
      <trkpt lat="40.078288" lon="-1.985493">
        <ele>1187.1</ele>
        <time>2019-12-29T10:00:19Z</time>
      </trkpt>
      <trkpt lat="40.078325" lon="-1.985317">
        <ele>1185.0</ele>
        <time>2019-12-29T10:00:21Z</time>
      </trkpt>
      <trkpt lat="40.078326" lon="-1.985125">
        <ele>1183.1</ele>
        <time>2019-12-29T10:00:23Z</time>
      </trkpt>
      <trkpt lat="40.078284" lon="-1.984923">
        <ele>1180.7</ele>
        <time>2019-12-29T10:00:25Z</time>
      </trkpt>
      <trkpt lat="40.078217" lon="-1.984746">
        <ele>1178.3</ele>
        <time>2019-12-29T10:00:27Z</time>
      </trkpt>
      <trkpt lat="40.078166" lon="-1.984614">
        <ele>1176.0</ele>
        <time>2019-12-29T10:00:29Z</time>
      </trkpt>
      <trkpt lat="40.078216" lon="-1.984511">
        <ele>1172.4</ele>
        <time>2019-12-29T10:00:32Z</time>
      </trkpt>
      <trkpt lat="40.078295" lon="-1.984590">
        <ele>1169.8</ele>
        <time>2019-12-29T10:00:35Z</time>
      </trkpt>
      <trkpt lat="40.078358" lon="-1.984715">
        <ele>1168.3</ele>
        <time>2019-12-29T10:00:38Z</time>
      </trkpt>
      <trkpt lat="40.078410" lon="-1.984834">
        <ele>1167.4</ele>
        <time>2019-12-29T10:00:41Z</time>
      </trkpt>
      <trkpt lat="40.078455" lon="-1.984951">
        <ele>1167.1</ele>
        <time>2019-12-29T10:00:44Z</time>
      </trkpt>
      <trkpt lat="40.078499" lon="-1.985076">
        <ele>1167.0</ele>
        <time>2019-12-29T10:00:47Z</time>
      </trkpt>
      <trkpt lat="40.078556" lon="-1.985207">
        <ele>1166.9</ele>
        <time>2019-12-29T10:00:50Z</time>
      </trkpt>
      <trkpt lat="40.078610" lon="-1.985357">
        <ele>1166.8</ele>
        <time>2019-12-29T10:00:53Z</time>
      </trkpt>
      <trkpt lat="40.078649" lon="-1.985468">
        <ele>1166.8</ele>
        <time>2019-12-29T10:00:55Z</time>
      </trkpt>
      <trkpt lat="40.078684" lon="-1.985590">
        <ele>1166.8</ele>
        <time>2019-12-29T10:00:57Z</time>
      </trkpt>
      <trkpt lat="40.078714" lon="-1.985715">
        <ele>1166.7</ele>
        <time>2019-12-29T10:00:59Z</time>
      </trkpt>
      <trkpt lat="40.078735" lon="-1.985845">
        <ele>1166.4</ele>
        <time>2019-12-29T10:01:01Z</time>
      </trkpt>
      <trkpt lat="40.078750" lon="-1.985976">
        <ele>1166.3</ele>
        <time>2019-12-29T10:01:03Z</time>
      </trkpt>
      <trkpt lat="40.078759" lon="-1.986113">
        <ele>1166.2</ele>
        <time>2019-12-29T10:01:05Z</time>
      </trkpt>
      <trkpt lat="40.078756" lon="-1.986247">
        <ele>1166.0</ele>
        <time>2019-12-29T10:01:07Z</time>
      </trkpt>
      <trkpt lat="40.078744" lon="-1.986392">
        <ele>1165.5</ele>
        <time>2019-12-29T10:01:09Z</time>
      </trkpt>
      <trkpt lat="40.078714" lon="-1.986531">
        <ele>1165.3</ele>
        <time>2019-12-29T10:01:11Z</time>
      </trkpt>
      <trkpt lat="40.078691" lon="-1.986653">
        <ele>1164.8</ele>
        <time>2019-12-29T10:01:13Z</time>
      </trkpt>
      <trkpt lat="40.078666" lon="-1.986787">
        <ele>1164.0</ele>
        <time>2019-12-29T10:01:18Z</time>
      </trkpt>
      <trkpt lat="40.078675" lon="-1.986921">
        <ele>1163.8</ele>
        <time>2019-12-29T10:01:23Z</time>
      </trkpt>
      <trkpt lat="40.078700" lon="-1.987054">
        <ele>1163.5</ele>
        <time>2019-12-29T10:01:28Z</time>
      </trkpt>
      <trkpt lat="40.078754" lon="-1.987193">
        <ele>1163.4</ele>
        <time>2019-12-29T10:01:32Z</time>
      </trkpt>
      <trkpt lat="40.078823" lon="-1.987286">
        <ele>1163.8</ele>
        <time>2019-12-29T10:01:35Z</time>
      </trkpt>
      <trkpt lat="40.078893" lon="-1.987380">
        <ele>1164.0</ele>
        <time>2019-12-29T10:01:38Z</time>
      </trkpt>
      <trkpt lat="40.078991" lon="-1.987458">
        <ele>1163.9</ele>
        <time>2019-12-29T10:01:41Z</time>
      </trkpt>
      <trkpt lat="40.079084" lon="-1.987524">
        <ele>1164.1</ele>
        <time>2019-12-29T10:01:44Z</time>
      </trkpt>
      <trkpt lat="40.079199" lon="-1.987584">
        <ele>1165.0</ele>
        <time>2019-12-29T10:01:48Z</time>
      </trkpt>
      <trkpt lat="40.079289" lon="-1.987627">
        <ele>1165.5</ele>
        <time>2019-12-29T10:01:51Z</time>
      </trkpt>
      <trkpt lat="40.079378" lon="-1.987682">
        <ele>1166.2</ele>
        <time>2019-12-29T10:01:54Z</time>
      </trkpt>
      <trkpt lat="40.079471" lon="-1.987738">
        <ele>1167.2</ele>
        <time>2019-12-29T10:01:57Z</time>
      </trkpt>
      <trkpt lat="40.079554" lon="-1.987815">
        <ele>1167.9</ele>
        <time>2019-12-29T10:02:00Z</time>
      </trkpt>
      <trkpt lat="40.079642" lon="-1.987925">
        <ele>1168.0</ele>
        <time>2019-12-29T10:02:03Z</time>
      </trkpt>
      <trkpt lat="40.079697" lon="-1.988019">
        <ele>1168.1</ele>
        <time>2019-12-29T10:02:05Z</time>
      </trkpt>
      <trkpt lat="40.079750" lon="-1.988145">
        <ele>1167.9</ele>
        <time>2019-12-29T10:02:07Z</time>
      </trkpt>
      <trkpt lat="40.079794" lon="-1.988302">
        <ele>1167.8</ele>
        <time>2019-12-29T10:02:09Z</time>
      </trkpt>
      <trkpt lat="40.079831" lon="-1.988494">
        <ele>1167.1</ele>
        <time>2019-12-29T10:02:11Z</time>
      </trkpt>
      <trkpt lat="40.079877" lon="-1.988694">
        <ele>1165.9</ele>
        <time>2019-12-29T10:02:13Z</time>
      </trkpt>
      <trkpt lat="40.079934" lon="-1.988883">
        <ele>1165.0</ele>
        <time>2019-12-29T10:02:15Z</time>
      </trkpt>
      <trkpt lat="40.079993" lon="-1.989068">
        <ele>1164.2</ele>
        <time>2019-12-29T10:02:17Z</time>
      </trkpt>
      <trkpt lat="40.080045" lon="-1.989245">
        <ele>1163.8</ele>
        <time>2019-12-29T10:02:19Z</time>
      </trkpt>
      <trkpt lat="40.080088" lon="-1.989414">
        <ele>1163.4</ele>
        <time>2019-12-29T10:02:21Z</time>
      </trkpt>
      <trkpt lat="40.080104" lon="-1.989586">
        <ele>1163.2</ele>
        <time>2019-12-29T10:02:23Z</time>
      </trkpt>
      <trkpt lat="40.080110" lon="-1.989759">
        <ele>1162.9</ele>
        <time>2019-12-29T10:02:25Z</time>
      </trkpt>
      <trkpt lat="40.080125" lon="-1.989926">
        <ele>1162.6</ele>
        <time>2019-12-29T10:02:27Z</time>
      </trkpt>
      <trkpt lat="40.080142" lon="-1.990081">
        <ele>1162.4</ele>
        <time>2019-12-29T10:02:29Z</time>
      </trkpt>
      <trkpt lat="40.080146" lon="-1.990225">
        <ele>1162.3</ele>
        <time>2019-12-29T10:02:31Z</time>
      </trkpt>
      <trkpt lat="40.080132" lon="-1.990350">
        <ele>1162.2</ele>
        <time>2019-12-29T10:02:33Z</time>
      </trkpt>
      <trkpt lat="40.080095" lon="-1.990463">
        <ele>1162.2</ele>
        <time>2019-12-29T10:02:35Z</time>
      </trkpt>
      <trkpt lat="40.080019" lon="-1.990596">
        <ele>1162.1</ele>
        <time>2019-12-29T10:02:38Z</time>
      </trkpt>
      <trkpt lat="40.079946" lon="-1.990687">
        <ele>1162.0</ele>
        <time>2019-12-29T10:02:40Z</time>
      </trkpt>
      <trkpt lat="40.079866" lon="-1.990776">
        <ele>1162.0</ele>
        <time>2019-12-29T10:02:42Z</time>
      </trkpt>
      <trkpt lat="40.079780" lon="-1.990867">
        <ele>1161.8</ele>
        <time>2019-12-29T10:02:44Z</time>
      </trkpt>
      <trkpt lat="40.079686" lon="-1.990963">
        <ele>1161.5</ele>
        <time>2019-12-29T10:02:46Z</time>
      </trkpt>
      <trkpt lat="40.079610" lon="-1.991082">
        <ele>1161.0</ele>
        <time>2019-12-29T10:02:48Z</time>
      </trkpt>
      <trkpt lat="40.079565" lon="-1.991227">
        <ele>1160.6</ele>
        <time>2019-12-29T10:02:50Z</time>
      </trkpt>
      <trkpt lat="40.079542" lon="-1.991375">
        <ele>1160.2</ele>
        <time>2019-12-29T10:02:52Z</time>
      </trkpt>
      <trkpt lat="40.079534" lon="-1.991519">
        <ele>1159.9</ele>
        <time>2019-12-29T10:02:54Z</time>
      </trkpt>
      <trkpt lat="40.079521" lon="-1.991641">
        <ele>1159.7</ele>
        <time>2019-12-29T10:02:56Z</time>
      </trkpt>
      <trkpt lat="40.079494" lon="-1.991770">
        <ele>1159.3</ele>
        <time>2019-12-29T10:02:58Z</time>
      </trkpt>
      <trkpt lat="40.079465" lon="-1.991899">
        <ele>1159.1</ele>
        <time>2019-12-29T10:03:00Z</time>
      </trkpt>
      <trkpt lat="40.079439" lon="-1.992043">
        <ele>1158.9</ele>
        <time>2019-12-29T10:03:02Z</time>
      </trkpt>
      <trkpt lat="40.079425" lon="-1.992184">
        <ele>1158.8</ele>
        <time>2019-12-29T10:03:04Z</time>
      </trkpt>
      <trkpt lat="40.079433" lon="-1.992322">
        <ele>1158.7</ele>
        <time>2019-12-29T10:03:06Z</time>
      </trkpt>
      <trkpt lat="40.079439" lon="-1.992455">
        <ele>1158.7</ele>
        <time>2019-12-29T10:03:08Z</time>
      </trkpt>
      <trkpt lat="40.079451" lon="-1.992581">
        <ele>1158.7</ele>
        <time>2019-12-29T10:03:10Z</time>
      </trkpt>
      <trkpt lat="40.079466" lon="-1.992747">
        <ele>1158.7</ele>
        <time>2019-12-29T10:03:13Z</time>
      </trkpt>
      <trkpt lat="40.079494" lon="-1.992904">
        <ele>1158.9</ele>
        <time>2019-12-29T10:03:16Z</time>
      </trkpt>
      <trkpt lat="40.079530" lon="-1.993018">
        <ele>1159.1</ele>
        <time>2019-12-29T10:03:19Z</time>
      </trkpt>
      <trkpt lat="40.079591" lon="-1.993118">
        <ele>1159.8</ele>
        <time>2019-12-29T10:03:23Z</time>
      </trkpt>
      <trkpt lat="40.079651" lon="-1.993227">
        <ele>1160.8</ele>
        <time>2019-12-29T10:03:27Z</time>
      </trkpt>
      <trkpt lat="40.079697" lon="-1.993330">
        <ele>1161.5</ele>
        <time>2019-12-29T10:03:30Z</time>
      </trkpt>
      <trkpt lat="40.079744" lon="-1.993457">
        <ele>1162.3</ele>
        <time>2019-12-29T10:03:34Z</time>
      </trkpt>
      <trkpt lat="40.079792" lon="-1.993576">
        <ele>1163.2</ele>
        <time>2019-12-29T10:03:38Z</time>
      </trkpt>
      <trkpt lat="40.079878" lon="-1.993648">
        <ele>1164.8</ele>
        <time>2019-12-29T10:03:43Z</time>
      </trkpt>
      <trkpt lat="40.079964" lon="-1.993602">
        <ele>1166.2</ele>
        <time>2019-12-29T10:03:49Z</time>
      </trkpt>
      <trkpt lat="40.079979" lon="-1.993485">
        <ele>1168.2</ele>
        <time>2019-12-29T10:03:54Z</time>
      </trkpt>
      <trkpt lat="40.079950" lon="-1.993353">
        <ele>1169.3</ele>
        <time>2019-12-29T10:04:00Z</time>
      </trkpt>
      <trkpt lat="40.079894" lon="-1.993245">
        <ele>1170.7</ele>
        <time>2019-12-29T10:04:05Z</time>
      </trkpt>
      <trkpt lat="40.079860" lon="-1.993125">
        <ele>1171.9</ele>
        <time>2019-12-29T10:04:10Z</time>
      </trkpt>
      <trkpt lat="40.079830" lon="-1.993009">
        <ele>1172.6</ele>
        <time>2019-12-29T10:04:14Z</time>
      </trkpt>
      <trkpt lat="40.079816" lon="-1.992877">
        <ele>1173.9</ele>
        <time>2019-12-29T10:04:19Z</time>
      </trkpt>
      <trkpt lat="40.079842" lon="-1.992756">
        <ele>1174.7</ele>
        <time>2019-12-29T10:04:24Z</time>
      </trkpt>
      <trkpt lat="40.079897" lon="-1.992642">
        <ele>1175.7</ele>
        <time>2019-12-29T10:04:30Z</time>
      </trkpt>
      <trkpt lat="40.079962" lon="-1.992555">
        <ele>1176.7</ele>
        <time>2019-12-29T10:04:36Z</time>
      </trkpt>
      <trkpt lat="40.080023" lon="-1.992445">
        <ele>1178.2</ele>
        <time>2019-12-29T10:04:42Z</time>
      </trkpt>
      <trkpt lat="40.080060" lon="-1.992336">
        <ele>1179.6</ele>
        <time>2019-12-29T10:04:48Z</time>
      </trkpt>
      <trkpt lat="40.080103" lon="-1.992225">
        <ele>1180.5</ele>
        <time>2019-12-29T10:04:53Z</time>
      </trkpt>
      <trkpt lat="40.080127" lon="-1.992093">
        <ele>1181.0</ele>
        <time>2019-12-29T10:04:58Z</time>
      </trkpt>
      <trkpt lat="40.080153" lon="-1.991980">
        <ele>1182.3</ele>
        <time>2019-12-29T10:05:03Z</time>
      </trkpt>
      <trkpt lat="40.080182" lon="-1.991862">
        <ele>1183.8</ele>
        <time>2019-12-29T10:05:09Z</time>
      </trkpt>
      <trkpt lat="40.080199" lon="-1.991722">
        <ele>1185.0</ele>
        <time>2019-12-29T10:05:14Z</time>
      </trkpt>
      <trkpt lat="40.080232" lon="-1.991600">
        <ele>1186.2</ele>
        <time>2019-12-29T10:05:19Z</time>
      </trkpt>
      <trkpt lat="40.080280" lon="-1.991476">
        <ele>1187.8</ele>
        <time>2019-12-29T10:05:25Z</time>
      </trkpt>
      <trkpt lat="40.080347" lon="-1.991396">
        <ele>1188.4</ele>
        <time>2019-12-29T10:05:30Z</time>
      </trkpt>
      <trkpt lat="40.080406" lon="-1.991306">
        <ele>1189.2</ele>
        <time>2019-12-29T10:05:35Z</time>
      </trkpt>
      <trkpt lat="40.080440" lon="-1.991195">
        <ele>1190.1</ele>
        <time>2019-12-29T10:05:40Z</time>
      </trkpt>
      <trkpt lat="40.080510" lon="-1.991084">
        <ele>1190.8</ele>
        <time>2019-12-29T10:05:46Z</time>
      </trkpt>
      <trkpt lat="40.080562" lon="-1.990985">
        <ele>1191.4</ele>
        <time>2019-12-29T10:05:51Z</time>
      </trkpt>
      <trkpt lat="40.080617" lon="-1.990891">
        <ele>1192.2</ele>
        <time>2019-12-29T10:05:56Z</time>
      </trkpt>
      <trkpt lat="40.080683" lon="-1.990787">
        <ele>1193.0</ele>
        <time>2019-12-29T10:06:01Z</time>
      </trkpt>
      <trkpt lat="40.080746" lon="-1.990684">
        <ele>1194.1</ele>
        <time>2019-12-29T10:06:06Z</time>
      </trkpt>
      <trkpt lat="40.080820" lon="-1.990601">
        <ele>1194.7</ele>
        <time>2019-12-29T10:06:11Z</time>
      </trkpt>
      <trkpt lat="40.080906" lon="-1.990538">
        <ele>1195.3</ele>
        <time>2019-12-29T10:06:16Z</time>
      </trkpt>
      <trkpt lat="40.080977" lon="-1.990453">
        <ele>1196.7</ele>
        <time>2019-12-29T10:06:22Z</time>
      </trkpt>
      <trkpt lat="40.081025" lon="-1.990334">
        <ele>1197.9</ele>
        <time>2019-12-29T10:06:28Z</time>
      </trkpt>
      <trkpt lat="40.081044" lon="-1.990214">
        <ele>1199.3</ele>
        <time>2019-12-29T10:06:33Z</time>
      </trkpt>
      <trkpt lat="40.081066" lon="-1.990090">
        <ele>1200.3</ele>
        <time>2019-12-29T10:06:38Z</time>
      </trkpt>
      <trkpt lat="40.081087" lon="-1.989965">
        <ele>1201.1</ele>
        <time>2019-12-29T10:06:43Z</time>
      </trkpt>
      <trkpt lat="40.081111" lon="-1.989838">
        <ele>1201.3</ele>
        <time>2019-12-29T10:06:49Z</time>
      </trkpt>
      <trkpt lat="40.081138" lon="-1.989726">
        <ele>1202.1</ele>
        <time>2019-12-29T10:06:54Z</time>
      </trkpt>
      <trkpt lat="40.081187" lon="-1.989620">
        <ele>1203.5</ele>
        <time>2019-12-29T10:07:00Z</time>
      </trkpt>
      <trkpt lat="40.081259" lon="-1.989548">
        <ele>1204.8</ele>
        <time>2019-12-29T10:07:06Z</time>
      </trkpt>
      <trkpt lat="40.081345" lon="-1.989468">
        <ele>1205.5</ele>
        <time>2019-12-29T10:07:13Z</time>
      </trkpt>
      <trkpt lat="40.081419" lon="-1.989393">
        <ele>1206.7</ele>
        <time>2019-12-29T10:07:19Z</time>
      </trkpt>
      <trkpt lat="40.081495" lon="-1.989301">
        <ele>1207.8</ele>
        <time>2019-12-29T10:07:25Z</time>
      </trkpt>
      <trkpt lat="40.081544" lon="-1.989200">
        <ele>1208.5</ele>
        <time>2019-12-29T10:07:31Z</time>
      </trkpt>
      <trkpt lat="40.081571" lon="-1.989078">
        <ele>1209.6</ele>
        <time>2019-12-29T10:07:37Z</time>
      </trkpt>
      <trkpt lat="40.081601" lon="-1.988946">
        <ele>1210.7</ele>
        <time>2019-12-29T10:07:43Z</time>
      </trkpt>
      <trkpt lat="40.081624" lon="-1.988830">
        <ele>1211.8</ele>
        <time>2019-12-29T10:07:48Z</time>
      </trkpt>
      <trkpt lat="40.081645" lon="-1.988709">
        <ele>1213.6</ele>
        <time>2019-12-29T10:07:54Z</time>
      </trkpt>
      <trkpt lat="40.081661" lon="-1.988577">
        <ele>1214.8</ele>
        <time>2019-12-29T10:08:00Z</time>
      </trkpt>
      <trkpt lat="40.081680" lon="-1.988444">
        <ele>1216.2</ele>
        <time>2019-12-29T10:08:07Z</time>
      </trkpt>
      <trkpt lat="40.081702" lon="-1.988310">
        <ele>1217.6</ele>
        <time>2019-12-29T10:08:14Z</time>
      </trkpt>
      <trkpt lat="40.081728" lon="-1.988179">
        <ele>1218.8</ele>
        <time>2019-12-29T10:08:21Z</time>
      </trkpt>
      <trkpt lat="40.081743" lon="-1.988060">
        <ele>1220.2</ele>
        <time>2019-12-29T10:08:28Z</time>
      </trkpt>
      <trkpt lat="40.081759" lon="-1.987944">
        <ele>1221.6</ele>
        <time>2019-12-29T10:08:35Z</time>
      </trkpt>
      <trkpt lat="40.081786" lon="-1.987818">
        <ele>1223.1</ele>
        <time>2019-12-29T10:08:42Z</time>
      </trkpt>
      <trkpt lat="40.081796" lon="-1.987693">
        <ele>1224.6</ele>
        <time>2019-12-29T10:08:49Z</time>
      </trkpt>
      <trkpt lat="40.081798" lon="-1.987569">
        <ele>1225.4</ele>
        <time>2019-12-29T10:08:56Z</time>
      </trkpt>
      <trkpt lat="40.081792" lon="-1.987446">
        <ele>1227.0</ele>
        <time>2019-12-29T10:09:03Z</time>
      </trkpt>
      <trkpt lat="40.081785" lon="-1.987322">
        <ele>1228.2</ele>
        <time>2019-12-29T10:09:10Z</time>
      </trkpt>
      <trkpt lat="40.081780" lon="-1.987193">
        <ele>1229.0</ele>
        <time>2019-12-29T10:09:17Z</time>
      </trkpt>
      <trkpt lat="40.081754" lon="-1.987061">
        <ele>1230.0</ele>
        <time>2019-12-29T10:09:23Z</time>
      </trkpt>
      <trkpt lat="40.081740" lon="-1.986928">
        <ele>1231.0</ele>
        <time>2019-12-29T10:09:29Z</time>
      </trkpt>
      <trkpt lat="40.081707" lon="-1.986799">
        <ele>1232.2</ele>
        <time>2019-12-29T10:09:35Z</time>
      </trkpt>
      <trkpt lat="40.081676" lon="-1.986685">
        <ele>1232.8</ele>
        <time>2019-12-29T10:09:40Z</time>
      </trkpt>
      <trkpt lat="40.081657" lon="-1.986562">
        <ele>1233.2</ele>
        <time>2019-12-29T10:09:45Z</time>
      </trkpt>
      <trkpt lat="40.081616" lon="-1.986430">
        <ele>1233.9</ele>
        <time>2019-12-29T10:09:50Z</time>
      </trkpt>
      <trkpt lat="40.081573" lon="-1.986322">
        <ele>1234.3</ele>
        <time>2019-12-29T10:09:54Z</time>
      </trkpt>
      <trkpt lat="40.081517" lon="-1.986208">
        <ele>1235.0</ele>
        <time>2019-12-29T10:09:59Z</time>
      </trkpt>
      <trkpt lat="40.081444" lon="-1.986117">
        <ele>1235.4</ele>
        <time>2019-12-29T10:10:03Z</time>
      </trkpt>
      <trkpt lat="40.081371" lon="-1.986022">
        <ele>1235.8</ele>
        <time>2019-12-29T10:10:07Z</time>
      </trkpt>
      <trkpt lat="40.081303" lon="-1.985907">
        <ele>1236.3</ele>
        <time>2019-12-29T10:10:11Z</time>
      </trkpt>
      <trkpt lat="40.081254" lon="-1.985784">
        <ele>1236.8</ele>
        <time>2019-12-29T10:10:15Z</time>
      </trkpt>
      <trkpt lat="40.081237" lon="-1.985668">
        <ele>1237.2</ele>
        <time>2019-12-29T10:10:19Z</time>
      </trkpt>
      <trkpt lat="40.081229" lon="-1.985543">
        <ele>1238.2</ele>
        <time>2019-12-29T10:10:24Z</time>
      </trkpt>
      <trkpt lat="40.081251" lon="-1.985422">
        <ele>1238.8</ele>
        <time>2019-12-29T10:10:29Z</time>
      </trkpt>
      <trkpt lat="40.081291" lon="-1.985308">
        <ele>1239.5</ele>
        <time>2019-12-29T10:10:34Z</time>
      </trkpt>
      <trkpt lat="40.081330" lon="-1.985177">
        <ele>1240.9</ele>
        <time>2019-12-29T10:10:40Z</time>
      </trkpt>
      <trkpt lat="40.081373" lon="-1.985071">
        <ele>1242.2</ele>
        <time>2019-12-29T10:10:45Z</time>
      </trkpt>
      <trkpt lat="40.081426" lon="-1.984968">
        <ele>1243.8</ele>
        <time>2019-12-29T10:10:51Z</time>
      </trkpt>
      <trkpt lat="40.081478" lon="-1.984869">
        <ele>1245.3</ele>
        <time>2019-12-29T10:10:57Z</time>
      </trkpt>
      <trkpt lat="40.081529" lon="-1.984767">
        <ele>1246.3</ele>
        <time>2019-12-29T10:11:03Z</time>
      </trkpt>
      <trkpt lat="40.081588" lon="-1.984672">
        <ele>1247.4</ele>
        <time>2019-12-29T10:11:09Z</time>
      </trkpt>
      <trkpt lat="40.081657" lon="-1.984571">
        <ele>1248.7</ele>
        <time>2019-12-29T10:11:16Z</time>
      </trkpt>
      <trkpt lat="40.081729" lon="-1.984494">
        <ele>1249.8</ele>
        <time>2019-12-29T10:11:22Z</time>
      </trkpt>
      <trkpt lat="40.081804" lon="-1.984421">
        <ele>1251.0</ele>
        <time>2019-12-29T10:11:28Z</time>
      </trkpt>
      <trkpt lat="40.081877" lon="-1.984348">
        <ele>1252.3</ele>
        <time>2019-12-29T10:11:34Z</time>
      </trkpt>
      <trkpt lat="40.081977" lon="-1.984299">
        <ele>1252.8</ele>
        <time>2019-12-29T10:11:40Z</time>
      </trkpt>
      <trkpt lat="40.082065" lon="-1.984260">
        <ele>1253.4</ele>
        <time>2019-12-29T10:11:46Z</time>
      </trkpt>
      <trkpt lat="40.082157" lon="-1.984218">
        <ele>1254.1</ele>
        <time>2019-12-29T10:11:52Z</time>
      </trkpt>
      <trkpt lat="40.082261" lon="-1.984197">
        <ele>1254.9</ele>
        <time>2019-12-29T10:11:57Z</time>
      </trkpt>
      <trkpt lat="40.082353" lon="-1.984165">
        <ele>1256.5</ele>
        <time>2019-12-29T10:12:03Z</time>
      </trkpt>
      <trkpt lat="40.082446" lon="-1.984144">
        <ele>1257.4</ele>
        <time>2019-12-29T10:12:09Z</time>
      </trkpt>
      <trkpt lat="40.082551" lon="-1.984123">
        <ele>1258.0</ele>
        <time>2019-12-29T10:12:15Z</time>
      </trkpt>
      <trkpt lat="40.082652" lon="-1.984109">
        <ele>1258.5</ele>
        <time>2019-12-29T10:12:21Z</time>
      </trkpt>
      <trkpt lat="40.082758" lon="-1.984097">
        <ele>1259.5</ele>
        <time>2019-12-29T10:12:27Z</time>
      </trkpt>
      <trkpt lat="40.082851" lon="-1.984099">
        <ele>1260.5</ele>
        <time>2019-12-29T10:12:32Z</time>
      </trkpt>
      <trkpt lat="40.082955" lon="-1.984084">
        <ele>1261.5</ele>
        <time>2019-12-29T10:12:38Z</time>
      </trkpt>
      <trkpt lat="40.083045" lon="-1.984081">
        <ele>1262.5</ele>
        <time>2019-12-29T10:12:43Z</time>
      </trkpt>
      <trkpt lat="40.083142" lon="-1.984085">
        <ele>1263.2</ele>
        <time>2019-12-29T10:12:49Z</time>
      </trkpt>
      <trkpt lat="40.083246" lon="-1.984100">
        <ele>1263.9</ele>
        <time>2019-12-29T10:12:55Z</time>
      </trkpt>
      <trkpt lat="40.083344" lon="-1.984125">
        <ele>1265.0</ele>
        <time>2019-12-29T10:13:01Z</time>
      </trkpt>
      <trkpt lat="40.083435" lon="-1.984122">
        <ele>1265.6</ele>
        <time>2019-12-29T10:13:59Z</time>
      </trkpt>
      <trkpt lat="40.083327" lon="-1.984097">
        <ele>1265.3</ele>
        <time>2019-12-29T10:14:42Z</time>
      </trkpt>
      <trkpt lat="40.083350" lon="-1.983973">
        <ele>1265.7</ele>
        <time>2019-12-29T10:14:48Z</time>
      </trkpt>
      <trkpt lat="40.083424" lon="-1.983870">
        <ele>1265.9</ele>
        <time>2019-12-29T10:14:52Z</time>
      </trkpt>
      <trkpt lat="40.083480" lon="-1.983770">
        <ele>1266.0</ele>
        <time>2019-12-29T10:14:55Z</time>
      </trkpt>
      <trkpt lat="40.083530" lon="-1.983671">
        <ele>1266.2</ele>
        <time>2019-12-29T10:14:58Z</time>
      </trkpt>
      <trkpt lat="40.083593" lon="-1.983558">
        <ele>1266.6</ele>
        <time>2019-12-29T10:15:02Z</time>
      </trkpt>
      <trkpt lat="40.083644" lon="-1.983449">
        <ele>1267.1</ele>
        <time>2019-12-29T10:15:06Z</time>
      </trkpt>
      <trkpt lat="40.083703" lon="-1.983334">
        <ele>1267.4</ele>
        <time>2019-12-29T10:15:11Z</time>
      </trkpt>
      <trkpt lat="40.083763" lon="-1.983233">
        <ele>1267.9</ele>
        <time>2019-12-29T10:15:15Z</time>
      </trkpt>
      <trkpt lat="40.083800" lon="-1.983125">
        <ele>1268.9</ele>
        <time>2019-12-29T10:15:19Z</time>
      </trkpt>
      <trkpt lat="40.083840" lon="-1.983011">
        <ele>1269.6</ele>
        <time>2019-12-29T10:15:23Z</time>
      </trkpt>
      <trkpt lat="40.083867" lon="-1.982875">
        <ele>1270.0</ele>
        <time>2019-12-29T10:15:27Z</time>
      </trkpt>
      <trkpt lat="40.083883" lon="-1.982735">
        <ele>1270.5</ele>
        <time>2019-12-29T10:15:31Z</time>
      </trkpt>
      <trkpt lat="40.083889" lon="-1.982594">
        <ele>1270.9</ele>
        <time>2019-12-29T10:15:35Z</time>
      </trkpt>
      <trkpt lat="40.083886" lon="-1.982465">
        <ele>1271.5</ele>
        <time>2019-12-29T10:15:39Z</time>
      </trkpt>
      <trkpt lat="40.083876" lon="-1.982332">
        <ele>1272.1</ele>
        <time>2019-12-29T10:15:43Z</time>
      </trkpt>
      <trkpt lat="40.083861" lon="-1.982197">
        <ele>1272.4</ele>
        <time>2019-12-29T10:15:47Z</time>
      </trkpt>
      <trkpt lat="40.083843" lon="-1.982049">
        <ele>1272.7</ele>
        <time>2019-12-29T10:15:51Z</time>
      </trkpt>
      <trkpt lat="40.083810" lon="-1.981911">
        <ele>1272.8</ele>
        <time>2019-12-29T10:15:55Z</time>
      </trkpt>
      <trkpt lat="40.083775" lon="-1.981777">
        <ele>1273.2</ele>
        <time>2019-12-29T10:15:59Z</time>
      </trkpt>
      <trkpt lat="40.083738" lon="-1.981640">
        <ele>1273.4</ele>
        <time>2019-12-29T10:16:03Z</time>
      </trkpt>
      <trkpt lat="40.083704" lon="-1.981516">
        <ele>1273.5</ele>
        <time>2019-12-29T10:16:07Z</time>
      </trkpt>
      <trkpt lat="40.083672" lon="-1.981394">
        <ele>1273.7</ele>
        <time>2019-12-29T10:16:11Z</time>
      </trkpt>
      <trkpt lat="40.083641" lon="-1.981282">
        <ele>1274.5</ele>
        <time>2019-12-29T10:16:15Z</time>
      </trkpt>
      <trkpt lat="40.083608" lon="-1.981153">
        <ele>1275.2</ele>
        <time>2019-12-29T10:16:20Z</time>
      </trkpt>
      <trkpt lat="40.083565" lon="-1.981042">
        <ele>1275.8</ele>
        <time>2019-12-29T10:16:24Z</time>
      </trkpt>
      <trkpt lat="40.083527" lon="-1.980920">
        <ele>1276.3</ele>
        <time>2019-12-29T10:16:28Z</time>
      </trkpt>
      <trkpt lat="40.083509" lon="-1.980779">
        <ele>1277.2</ele>
        <time>2019-12-29T10:16:32Z</time>
      </trkpt>
      <trkpt lat="40.083483" lon="-1.980660">
        <ele>1278.1</ele>
        <time>2019-12-29T10:16:36Z</time>
      </trkpt>
      <trkpt lat="40.083456" lon="-1.980532">
        <ele>1278.6</ele>
        <time>2019-12-29T10:16:40Z</time>
      </trkpt>
      <trkpt lat="40.083426" lon="-1.980396">
        <ele>1278.9</ele>
        <time>2019-12-29T10:16:44Z</time>
      </trkpt>
      <trkpt lat="40.083397" lon="-1.980261">
        <ele>1279.7</ele>
        <time>2019-12-29T10:16:48Z</time>
      </trkpt>
      <trkpt lat="40.083389" lon="-1.980118">
        <ele>1280.1</ele>
        <time>2019-12-29T10:16:52Z</time>
      </trkpt>
      <trkpt lat="40.083414" lon="-1.979979">
        <ele>1280.6</ele>
        <time>2019-12-29T10:16:56Z</time>
      </trkpt>
      <trkpt lat="40.083479" lon="-1.979889">
        <ele>1281.0</ele>
        <time>2019-12-29T10:17:00Z</time>
      </trkpt>
      <trkpt lat="40.083566" lon="-1.979842">
        <ele>1282.0</ele>
        <time>2019-12-29T10:17:04Z</time>
      </trkpt>
      <trkpt lat="40.083660" lon="-1.979830">
        <ele>1282.6</ele>
        <time>2019-12-29T10:17:08Z</time>
      </trkpt>
      <trkpt lat="40.083765" lon="-1.979815">
        <ele>1283.5</ele>
        <time>2019-12-29T10:17:13Z</time>
      </trkpt>
      <trkpt lat="40.083876" lon="-1.979810">
        <ele>1284.8</ele>
        <time>2019-12-29T10:17:18Z</time>
      </trkpt>
      <trkpt lat="40.083988" lon="-1.979798">
        <ele>1285.6</ele>
        <time>2019-12-29T10:17:23Z</time>
      </trkpt>
      <trkpt lat="40.084086" lon="-1.979784">
        <ele>1286.4</ele>
        <time>2019-12-29T10:17:28Z</time>
      </trkpt>
      <trkpt lat="40.084195" lon="-1.979777">
        <ele>1287.1</ele>
        <time>2019-12-29T10:17:33Z</time>
      </trkpt>
      <trkpt lat="40.084297" lon="-1.979761">
        <ele>1288.1</ele>
        <time>2019-12-29T10:17:38Z</time>
      </trkpt>
      <trkpt lat="40.084406" lon="-1.979752">
        <ele>1288.9</ele>
        <time>2019-12-29T10:17:43Z</time>
      </trkpt>
      <trkpt lat="40.084515" lon="-1.979743">
        <ele>1289.6</ele>
        <time>2019-12-29T10:17:48Z</time>
      </trkpt>
      <trkpt lat="40.084627" lon="-1.979726">
        <ele>1290.7</ele>
        <time>2019-12-29T10:17:53Z</time>
      </trkpt>
      <trkpt lat="40.084719" lon="-1.979710">
        <ele>1291.2</ele>
        <time>2019-12-29T10:17:57Z</time>
      </trkpt>
      <trkpt lat="40.084830" lon="-1.979703">
        <ele>1292.1</ele>
        <time>2019-12-29T10:18:02Z</time>
      </trkpt>
      <trkpt lat="40.084921" lon="-1.979686">
        <ele>1293.2</ele>
        <time>2019-12-29T10:18:06Z</time>
      </trkpt>
      <trkpt lat="40.085009" lon="-1.979663">
        <ele>1293.9</ele>
        <time>2019-12-29T10:18:10Z</time>
      </trkpt>
      <trkpt lat="40.085122" lon="-1.979650">
        <ele>1294.8</ele>
        <time>2019-12-29T10:18:15Z</time>
      </trkpt>
      <trkpt lat="40.085232" lon="-1.979631">
        <ele>1295.4</ele>
        <time>2019-12-29T10:18:20Z</time>
      </trkpt>
      <trkpt lat="40.085325" lon="-1.979634">
        <ele>1296.2</ele>
        <time>2019-12-29T10:18:24Z</time>
      </trkpt>
      <trkpt lat="40.085415" lon="-1.979617">
        <ele>1296.8</ele>
        <time>2019-12-29T10:18:28Z</time>
      </trkpt>
      <trkpt lat="40.085522" lon="-1.979604">
        <ele>1297.3</ele>
        <time>2019-12-29T10:18:33Z</time>
      </trkpt>
      <trkpt lat="40.085622" lon="-1.979591">
        <ele>1298.4</ele>
        <time>2019-12-29T10:18:38Z</time>
      </trkpt>
      <trkpt lat="40.085723" lon="-1.979569">
        <ele>1299.4</ele>
        <time>2019-12-29T10:18:43Z</time>
      </trkpt>
      <trkpt lat="40.085832" lon="-1.979541">
        <ele>1300.5</ele>
        <time>2019-12-29T10:18:48Z</time>
      </trkpt>
      <trkpt lat="40.085929" lon="-1.979514">
        <ele>1300.9</ele>
        <time>2019-12-29T10:18:52Z</time>
      </trkpt>
      <trkpt lat="40.086033" lon="-1.979506">
        <ele>1301.3</ele>
        <time>2019-12-29T10:18:56Z</time>
      </trkpt>
      <trkpt lat="40.086140" lon="-1.979500">
        <ele>1301.6</ele>
        <time>2019-12-29T10:19:00Z</time>
      </trkpt>
      <trkpt lat="40.086241" lon="-1.979507">
        <ele>1302.2</ele>
        <time>2019-12-29T10:19:04Z</time>
      </trkpt>
      <trkpt lat="40.086341" lon="-1.979530">
        <ele>1302.7</ele>
        <time>2019-12-29T10:19:08Z</time>
      </trkpt>
      <trkpt lat="40.086444" lon="-1.979550">
        <ele>1303.0</ele>
        <time>2019-12-29T10:19:12Z</time>
      </trkpt>
      <trkpt lat="40.086537" lon="-1.979553">
        <ele>1303.3</ele>
        <time>2019-12-29T10:19:15Z</time>
      </trkpt>
      <trkpt lat="40.086630" lon="-1.979532">
        <ele>1303.6</ele>
        <time>2019-12-29T10:19:18Z</time>
      </trkpt>
      <trkpt lat="40.086717" lon="-1.979483">
        <ele>1303.8</ele>
        <time>2019-12-29T10:19:21Z</time>
      </trkpt>
      <trkpt lat="40.086805" lon="-1.979420">
        <ele>1303.8</ele>
        <time>2019-12-29T10:19:24Z</time>
      </trkpt>
      <trkpt lat="40.086893" lon="-1.979356">
        <ele>1304.1</ele>
        <time>2019-12-29T10:19:27Z</time>
      </trkpt>
      <trkpt lat="40.086983" lon="-1.979281">
        <ele>1304.2</ele>
        <time>2019-12-29T10:19:30Z</time>
      </trkpt>
      <trkpt lat="40.087097" lon="-1.979187">
        <ele>1304.2</ele>
        <time>2019-12-29T10:19:33Z</time>
      </trkpt>
      <trkpt lat="40.087206" lon="-1.979066">
        <ele>1304.2</ele>
        <time>2019-12-29T10:19:36Z</time>
      </trkpt>
      <trkpt lat="40.087289" lon="-1.978965">
        <ele>1303.9</ele>
        <time>2019-12-29T10:19:38Z</time>
      </trkpt>
      <trkpt lat="40.087374" lon="-1.978859">
        <ele>1303.5</ele>
        <time>2019-12-29T10:19:40Z</time>
      </trkpt>
      <trkpt lat="40.087450" lon="-1.978766">
        <ele>1303.2</ele>
        <time>2019-12-29T10:19:42Z</time>
      </trkpt>
      <trkpt lat="40.087519" lon="-1.978685">
        <ele>1303.1</ele>
        <time>2019-12-29T10:19:44Z</time>
      </trkpt>
      <trkpt lat="40.087607" lon="-1.978574">
        <ele>1302.9</ele>
        <time>2019-12-29T10:19:47Z</time>
      </trkpt>
      <trkpt lat="40.087685" lon="-1.978474">
        <ele>1303.0</ele>
        <time>2019-12-29T10:19:50Z</time>
      </trkpt>
      <trkpt lat="40.087752" lon="-1.978377">
        <ele>1303.3</ele>
        <time>2019-12-29T10:19:53Z</time>
      </trkpt>
      <trkpt lat="40.087818" lon="-1.978278">
        <ele>1303.6</ele>
        <time>2019-12-29T10:19:56Z</time>
      </trkpt>
      <trkpt lat="40.087883" lon="-1.978183">
        <ele>1303.7</ele>
        <time>2019-12-29T10:19:59Z</time>
      </trkpt>
      <trkpt lat="40.087948" lon="-1.978094">
        <ele>1304.1</ele>
        <time>2019-12-29T10:20:02Z</time>
      </trkpt>
      <trkpt lat="40.088018" lon="-1.978010">
        <ele>1304.7</ele>
        <time>2019-12-29T10:20:05Z</time>
      </trkpt>
      <trkpt lat="40.088088" lon="-1.977935">
        <ele>1305.2</ele>
        <time>2019-12-29T10:20:08Z</time>
      </trkpt>
      <trkpt lat="40.088177" lon="-1.977848">
        <ele>1306.0</ele>
        <time>2019-12-29T10:20:12Z</time>
      </trkpt>
      <trkpt lat="40.088260" lon="-1.977765">
        <ele>1306.6</ele>
        <time>2019-12-29T10:20:16Z</time>
      </trkpt>
      <trkpt lat="40.088343" lon="-1.977679">
        <ele>1307.2</ele>
        <time>2019-12-29T10:20:20Z</time>
      </trkpt>
      <trkpt lat="40.088424" lon="-1.977603">
        <ele>1308.0</ele>
        <time>2019-12-29T10:20:24Z</time>
      </trkpt>
      <trkpt lat="40.088508" lon="-1.977541">
        <ele>1308.7</ele>
        <time>2019-12-29T10:20:28Z</time>
      </trkpt>
      <trkpt lat="40.088591" lon="-1.977478">
        <ele>1309.5</ele>
        <time>2019-12-29T10:20:32Z</time>
      </trkpt>
      <trkpt lat="40.088674" lon="-1.977411">
        <ele>1310.3</ele>
        <time>2019-12-29T10:20:36Z</time>
      </trkpt>
      <trkpt lat="40.088761" lon="-1.977358">
        <ele>1311.0</ele>
        <time>2019-12-29T10:20:40Z</time>
      </trkpt>
      <trkpt lat="40.088853" lon="-1.977304">
        <ele>1311.7</ele>
        <time>2019-12-29T10:20:44Z</time>
      </trkpt>
      <trkpt lat="40.088937" lon="-1.977239">
        <ele>1312.0</ele>
        <time>2019-12-29T10:20:48Z</time>
      </trkpt>
      <trkpt lat="40.089020" lon="-1.977178">
        <ele>1312.2</ele>
        <time>2019-12-29T10:20:52Z</time>
      </trkpt>
      <trkpt lat="40.089102" lon="-1.977117">
        <ele>1312.9</ele>
        <time>2019-12-29T10:20:56Z</time>
      </trkpt>
      <trkpt lat="40.089186" lon="-1.977063">
        <ele>1313.4</ele>
        <time>2019-12-29T10:21:00Z</time>
      </trkpt>
      <trkpt lat="40.089270" lon="-1.977003">
        <ele>1313.7</ele>
        <time>2019-12-29T10:21:04Z</time>
      </trkpt>
      <trkpt lat="40.089351" lon="-1.976937">
        <ele>1314.3</ele>
        <time>2019-12-29T10:21:08Z</time>
      </trkpt>
      <trkpt lat="40.089449" lon="-1.976868">
        <ele>1314.6</ele>
        <time>2019-12-29T10:21:13Z</time>
      </trkpt>
      <trkpt lat="40.089542" lon="-1.976805">
        <ele>1315.7</ele>
        <time>2019-12-29T10:21:18Z</time>
      </trkpt>
      <trkpt lat="40.089627" lon="-1.976741">
        <ele>1317.0</ele>
        <time>2019-12-29T10:21:23Z</time>
      </trkpt>
      <trkpt lat="40.089716" lon="-1.976664">
        <ele>1318.5</ele>
        <time>2019-12-29T10:21:29Z</time>
      </trkpt>
      <trkpt lat="40.089801" lon="-1.976609">
        <ele>1319.8</ele>
        <time>2019-12-29T10:21:34Z</time>
      </trkpt>
      <trkpt lat="40.089902" lon="-1.976570">
        <ele>1320.6</ele>
        <time>2019-12-29T10:21:39Z</time>
      </trkpt>
      <trkpt lat="40.090001" lon="-1.976557">
        <ele>1321.5</ele>
        <time>2019-12-29T10:21:44Z</time>
      </trkpt>
      <trkpt lat="40.090094" lon="-1.976495">
        <ele>1322.5</ele>
        <time>2019-12-29T10:21:50Z</time>
      </trkpt>
      <trkpt lat="40.090166" lon="-1.976401">
        <ele>1323.3</ele>
        <time>2019-12-29T10:21:56Z</time>
      </trkpt>
      <trkpt lat="40.090254" lon="-1.976358">
        <ele>1324.2</ele>
        <time>2019-12-29T10:22:02Z</time>
      </trkpt>
      <trkpt lat="40.090220" lon="-1.976487">
        <ele>1325.1</ele>
        <time>2019-12-29T10:25:44Z</time>
      </trkpt>
      <trkpt lat="40.090184" lon="-1.976601">
        <ele>1324.9</ele>
        <time>2019-12-29T10:25:49Z</time>
      </trkpt>
      <trkpt lat="40.090212" lon="-1.976746">
        <ele>1324.2</ele>
        <time>2019-12-29T10:25:54Z</time>
      </trkpt>
      <trkpt lat="40.090283" lon="-1.976833">
        <ele>1323.9</ele>
        <time>2019-12-29T10:25:57Z</time>
      </trkpt>
      <trkpt lat="40.090357" lon="-1.976905">
        <ele>1323.7</ele>
        <time>2019-12-29T10:25:59Z</time>
      </trkpt>
      <trkpt lat="40.090433" lon="-1.976987">
        <ele>1323.2</ele>
        <time>2019-12-29T10:26:01Z</time>
      </trkpt>
      <trkpt lat="40.090515" lon="-1.977072">
        <ele>1322.7</ele>
        <time>2019-12-29T10:26:03Z</time>
      </trkpt>
      <trkpt lat="40.090599" lon="-1.977147">
        <ele>1322.2</ele>
        <time>2019-12-29T10:26:05Z</time>
      </trkpt>
      <trkpt lat="40.090679" lon="-1.977222">
        <ele>1321.6</ele>
        <time>2019-12-29T10:26:07Z</time>
      </trkpt>
      <trkpt lat="40.090763" lon="-1.977302">
        <ele>1321.1</ele>
        <time>2019-12-29T10:26:09Z</time>
      </trkpt>
      <trkpt lat="40.090861" lon="-1.977370">
        <ele>1320.5</ele>
        <time>2019-12-29T10:26:11Z</time>
      </trkpt>
      <trkpt lat="40.090966" lon="-1.977439">
        <ele>1319.9</ele>
        <time>2019-12-29T10:26:13Z</time>
      </trkpt>
      <trkpt lat="40.091053" lon="-1.977549">
        <ele>1319.1</ele>
        <time>2019-12-29T10:26:15Z</time>
      </trkpt>
      <trkpt lat="40.091116" lon="-1.977699">
        <ele>1318.4</ele>
        <time>2019-12-29T10:26:17Z</time>
      </trkpt>
      <trkpt lat="40.091170" lon="-1.977838">
        <ele>1317.5</ele>
        <time>2019-12-29T10:26:19Z</time>
      </trkpt>
      <trkpt lat="40.091225" lon="-1.977964">
        <ele>1316.7</ele>
        <time>2019-12-29T10:26:21Z</time>
      </trkpt>
      <trkpt lat="40.091301" lon="-1.978062">
        <ele>1315.6</ele>
        <time>2019-12-29T10:26:23Z</time>
      </trkpt>
      <trkpt lat="40.091392" lon="-1.978120">
        <ele>1314.4</ele>
        <time>2019-12-29T10:26:25Z</time>
      </trkpt>
      <trkpt lat="40.091494" lon="-1.978161">
        <ele>1313.3</ele>
        <time>2019-12-29T10:26:27Z</time>
      </trkpt>
      <trkpt lat="40.091595" lon="-1.978229">
        <ele>1312.4</ele>
        <time>2019-12-29T10:26:29Z</time>
      </trkpt>
      <trkpt lat="40.091687" lon="-1.978321">
        <ele>1311.9</ele>
        <time>2019-12-29T10:26:31Z</time>
      </trkpt>
      <trkpt lat="40.091775" lon="-1.978428">
        <ele>1311.2</ele>
        <time>2019-12-29T10:26:33Z</time>
      </trkpt>
      <trkpt lat="40.091871" lon="-1.978511">
        <ele>1310.6</ele>
        <time>2019-12-29T10:26:35Z</time>
      </trkpt>
      <trkpt lat="40.091970" lon="-1.978588">
        <ele>1310.1</ele>
        <time>2019-12-29T10:26:37Z</time>
      </trkpt>
      <trkpt lat="40.092045" lon="-1.978655">
        <ele>1309.7</ele>
        <time>2019-12-29T10:26:39Z</time>
      </trkpt>
      <trkpt lat="40.092154" lon="-1.978699">
        <ele>1309.4</ele>
        <time>2019-12-29T10:26:43Z</time>
      </trkpt>
      <trkpt lat="40.092249" lon="-1.978735">
        <ele>1309.5</ele>
        <time>2019-12-29T10:26:46Z</time>
      </trkpt>
      <trkpt lat="40.092344" lon="-1.978759">
        <ele>1309.8</ele>
        <time>2019-12-29T10:26:49Z</time>
      </trkpt>
      <trkpt lat="40.092440" lon="-1.978761">
        <ele>1310.4</ele>
        <time>2019-12-29T10:26:52Z</time>
      </trkpt>
      <trkpt lat="40.092530" lon="-1.978781">
        <ele>1310.9</ele>
        <time>2019-12-29T10:26:55Z</time>
      </trkpt>
      <trkpt lat="40.092645" lon="-1.978838">
        <ele>1311.5</ele>
        <time>2019-12-29T10:26:59Z</time>
      </trkpt>
      <trkpt lat="40.092731" lon="-1.978904">
        <ele>1312.1</ele>
        <time>2019-12-29T10:27:02Z</time>
      </trkpt>
      <trkpt lat="40.092810" lon="-1.978976">
        <ele>1312.8</ele>
        <time>2019-12-29T10:27:05Z</time>
      </trkpt>
      <trkpt lat="40.092885" lon="-1.979053">
        <ele>1313.2</ele>
        <time>2019-12-29T10:27:08Z</time>
      </trkpt>
      <trkpt lat="40.092961" lon="-1.979123">
        <ele>1313.6</ele>
        <time>2019-12-29T10:27:11Z</time>
      </trkpt>
      <trkpt lat="40.093044" lon="-1.979211">
        <ele>1314.8</ele>
        <time>2019-12-29T10:27:15Z</time>
      </trkpt>
      <trkpt lat="40.093118" lon="-1.979283">
        <ele>1315.9</ele>
        <time>2019-12-29T10:27:19Z</time>
      </trkpt>
      <trkpt lat="40.093186" lon="-1.979391">
        <ele>1316.8</ele>
        <time>2019-12-29T10:27:23Z</time>
      </trkpt>
      <trkpt lat="40.093245" lon="-1.979513">
        <ele>1317.6</ele>
        <time>2019-12-29T10:27:27Z</time>
      </trkpt>
      <trkpt lat="40.093292" lon="-1.979644">
        <ele>1318.3</ele>
        <time>2019-12-29T10:27:31Z</time>
      </trkpt>
      <trkpt lat="40.093340" lon="-1.979788">
        <ele>1318.9</ele>
        <time>2019-12-29T10:27:35Z</time>
      </trkpt>
      <trkpt lat="40.093383" lon="-1.979895">
        <ele>1319.4</ele>
        <time>2019-12-29T10:27:38Z</time>
      </trkpt>
      <trkpt lat="40.093447" lon="-1.979985">
        <ele>1319.8</ele>
        <time>2019-12-29T10:27:41Z</time>
      </trkpt>
      <trkpt lat="40.093530" lon="-1.980067">
        <ele>1320.1</ele>
        <time>2019-12-29T10:27:44Z</time>
      </trkpt>
      <trkpt lat="40.093604" lon="-1.980158">
        <ele>1320.5</ele>
        <time>2019-12-29T10:27:47Z</time>
      </trkpt>
      <trkpt lat="40.093690" lon="-1.980229">
        <ele>1321.2</ele>
        <time>2019-12-29T10:27:50Z</time>
      </trkpt>
      <trkpt lat="40.093764" lon="-1.980321">
        <ele>1321.7</ele>
        <time>2019-12-29T10:27:53Z</time>
      </trkpt>
      <trkpt lat="40.093850" lon="-1.980421">
        <ele>1322.1</ele>
        <time>2019-12-29T10:27:56Z</time>
      </trkpt>
      <trkpt lat="40.093936" lon="-1.980527">
        <ele>1321.8</ele>
        <time>2019-12-29T10:27:59Z</time>
      </trkpt>
      <trkpt lat="40.094037" lon="-1.980645">
        <ele>1321.3</ele>
        <time>2019-12-29T10:28:02Z</time>
      </trkpt>
      <trkpt lat="40.094116" lon="-1.980735">
        <ele>1320.8</ele>
        <time>2019-12-29T10:28:04Z</time>
      </trkpt>
      <trkpt lat="40.094201" lon="-1.980832">
        <ele>1320.2</ele>
        <time>2019-12-29T10:28:06Z</time>
      </trkpt>
      <trkpt lat="40.094267" lon="-1.980973">
        <ele>1319.1</ele>
        <time>2019-12-29T10:28:08Z</time>
      </trkpt>
      <trkpt lat="40.094313" lon="-1.981134">
        <ele>1318.3</ele>
        <time>2019-12-29T10:28:10Z</time>
      </trkpt>
      <trkpt lat="40.094368" lon="-1.981299">
        <ele>1317.3</ele>
        <time>2019-12-29T10:28:12Z</time>
      </trkpt>
      <trkpt lat="40.094472" lon="-1.981446">
        <ele>1316.1</ele>
        <time>2019-12-29T10:28:14Z</time>
      </trkpt>
      <trkpt lat="40.094621" lon="-1.981551">
        <ele>1315.3</ele>
        <time>2019-12-29T10:28:16Z</time>
      </trkpt>
      <trkpt lat="40.094777" lon="-1.981653">
        <ele>1314.5</ele>
        <time>2019-12-29T10:28:18Z</time>
      </trkpt>
      <trkpt lat="40.094857" lon="-1.981709">
        <ele>1314.0</ele>
        <time>2019-12-29T10:28:19Z</time>
      </trkpt>
      <trkpt lat="40.094995" lon="-1.981839">
        <ele>1313.0</ele>
        <time>2019-12-29T10:28:21Z</time>
      </trkpt>
      <trkpt lat="40.095091" lon="-1.981982">
        <ele>1311.9</ele>
        <time>2019-12-29T10:28:23Z</time>
      </trkpt>
      <trkpt lat="40.095172" lon="-1.982132">
        <ele>1311.0</ele>
        <time>2019-12-29T10:28:25Z</time>
      </trkpt>
      <trkpt lat="40.095259" lon="-1.982277">
        <ele>1310.2</ele>
        <time>2019-12-29T10:28:27Z</time>
      </trkpt>
      <trkpt lat="40.095354" lon="-1.982408">
        <ele>1309.7</ele>
        <time>2019-12-29T10:28:29Z</time>
      </trkpt>
      <trkpt lat="40.095450" lon="-1.982532">
        <ele>1309.2</ele>
        <time>2019-12-29T10:28:31Z</time>
      </trkpt>
      <trkpt lat="40.095541" lon="-1.982646">
        <ele>1308.9</ele>
        <time>2019-12-29T10:28:33Z</time>
      </trkpt>
      <trkpt lat="40.095622" lon="-1.982770">
        <ele>1308.4</ele>
        <time>2019-12-29T10:28:35Z</time>
      </trkpt>
      <trkpt lat="40.095693" lon="-1.982905">
        <ele>1307.9</ele>
        <time>2019-12-29T10:28:37Z</time>
      </trkpt>
      <trkpt lat="40.095763" lon="-1.983048">
        <ele>1307.4</ele>
        <time>2019-12-29T10:28:39Z</time>
      </trkpt>
      <trkpt lat="40.095812" lon="-1.983178">
        <ele>1307.0</ele>
        <time>2019-12-29T10:28:41Z</time>
      </trkpt>
      <trkpt lat="40.095852" lon="-1.983283">
        <ele>1306.6</ele>
        <time>2019-12-29T10:28:43Z</time>
      </trkpt>
      <trkpt lat="40.095934" lon="-1.983397">
        <ele>1306.3</ele>
        <time>2019-12-29T10:28:46Z</time>
      </trkpt>
      <trkpt lat="40.096037" lon="-1.983457">
        <ele>1306.6</ele>
        <time>2019-12-29T10:28:49Z</time>
      </trkpt>
      <trkpt lat="40.096133" lon="-1.983512">
        <ele>1307.1</ele>
        <time>2019-12-29T10:28:52Z</time>
      </trkpt>
      <trkpt lat="40.096216" lon="-1.983575">
        <ele>1307.8</ele>
        <time>2019-12-29T10:28:55Z</time>
      </trkpt>
      <trkpt lat="40.096321" lon="-1.983646">
        <ele>1308.6</ele>
        <time>2019-12-29T10:28:59Z</time>
      </trkpt>
      <trkpt lat="40.096402" lon="-1.983702">
        <ele>1309.3</ele>
        <time>2019-12-29T10:29:02Z</time>
      </trkpt>
      <trkpt lat="40.096484" lon="-1.983758">
        <ele>1310.4</ele>
        <time>2019-12-29T10:29:05Z</time>
      </trkpt>
      <trkpt lat="40.096583" lon="-1.983826">
        <ele>1311.4</ele>
        <time>2019-12-29T10:29:09Z</time>
      </trkpt>
      <trkpt lat="40.096660" lon="-1.983897">
        <ele>1312.4</ele>
        <time>2019-12-29T10:29:13Z</time>
      </trkpt>
      <trkpt lat="40.096748" lon="-1.983954">
        <ele>1313.9</ele>
        <time>2019-12-29T10:29:17Z</time>
      </trkpt>
      <trkpt lat="40.096830" lon="-1.984026">
        <ele>1315.2</ele>
        <time>2019-12-29T10:29:21Z</time>
      </trkpt>
      <trkpt lat="40.096904" lon="-1.984112">
        <ele>1316.4</ele>
        <time>2019-12-29T10:29:25Z</time>
      </trkpt>
      <trkpt lat="40.096952" lon="-1.984233">
        <ele>1317.1</ele>
        <time>2019-12-29T10:29:29Z</time>
      </trkpt>
      <trkpt lat="40.096990" lon="-1.984375">
        <ele>1317.7</ele>
        <time>2019-12-29T10:29:33Z</time>
      </trkpt>
      <trkpt lat="40.097015" lon="-1.984512">
        <ele>1317.9</ele>
        <time>2019-12-29T10:29:37Z</time>
      </trkpt>
      <trkpt lat="40.097036" lon="-1.984630">
        <ele>1318.0</ele>
        <time>2019-12-29T10:29:40Z</time>
      </trkpt>
      <trkpt lat="40.097057" lon="-1.984751">
        <ele>1318.2</ele>
        <time>2019-12-29T10:29:43Z</time>
      </trkpt>
      <trkpt lat="40.097080" lon="-1.984868">
        <ele>1318.3</ele>
        <time>2019-12-29T10:29:46Z</time>
      </trkpt>
      <trkpt lat="40.097106" lon="-1.985020">
        <ele>1318.4</ele>
        <time>2019-12-29T10:29:50Z</time>
      </trkpt>
      <trkpt lat="40.097137" lon="-1.985164">
        <ele>1318.9</ele>
        <time>2019-12-29T10:29:54Z</time>
      </trkpt>
      <trkpt lat="40.097171" lon="-1.985274">
        <ele>1319.7</ele>
        <time>2019-12-29T10:29:58Z</time>
      </trkpt>
      <trkpt lat="40.097190" lon="-1.985409">
        <ele>1320.6</ele>
        <time>2019-12-29T10:30:03Z</time>
      </trkpt>
      <trkpt lat="40.097177" lon="-1.985533">
        <ele>1321.3</ele>
        <time>2019-12-29T10:30:08Z</time>
      </trkpt>
      <trkpt lat="40.097161" lon="-1.985666">
        <ele>1322.4</ele>
        <time>2019-12-29T10:30:13Z</time>
      </trkpt>
      <trkpt lat="40.097164" lon="-1.985813">
        <ele>1323.6</ele>
        <time>2019-12-29T10:30:18Z</time>
      </trkpt>
      <trkpt lat="40.097183" lon="-1.985948">
        <ele>1324.9</ele>
        <time>2019-12-29T10:30:23Z</time>
      </trkpt>
      <trkpt lat="40.097231" lon="-1.986056">
        <ele>1325.7</ele>
        <time>2019-12-29T10:30:27Z</time>
      </trkpt>
      <trkpt lat="40.097281" lon="-1.986169">
        <ele>1326.2</ele>
        <time>2019-12-29T10:30:31Z</time>
      </trkpt>
      <trkpt lat="40.097335" lon="-1.986266">
        <ele>1326.8</ele>
        <time>2019-12-29T10:30:35Z</time>
      </trkpt>
      <trkpt lat="40.097390" lon="-1.986366">
        <ele>1327.3</ele>
        <time>2019-12-29T10:30:39Z</time>
      </trkpt>
      <trkpt lat="40.097447" lon="-1.986483">
        <ele>1327.8</ele>
        <time>2019-12-29T10:30:43Z</time>
      </trkpt>
      <trkpt lat="40.097472" lon="-1.986622">
        <ele>1328.7</ele>
        <time>2019-12-29T10:30:47Z</time>
      </trkpt>
      <trkpt lat="40.097479" lon="-1.986778">
        <ele>1329.1</ele>
        <time>2019-12-29T10:30:51Z</time>
      </trkpt>
      <trkpt lat="40.097521" lon="-1.986898">
        <ele>1329.2</ele>
        <time>2019-12-29T10:30:54Z</time>
      </trkpt>
      <trkpt lat="40.097561" lon="-1.987027">
        <ele>1329.2</ele>
        <time>2019-12-29T10:30:57Z</time>
      </trkpt>
      <trkpt lat="40.097587" lon="-1.987162">
        <ele>1329.2</ele>
        <time>2019-12-29T10:31:00Z</time>
      </trkpt>
      <trkpt lat="40.097618" lon="-1.987295">
        <ele>1329.5</ele>
        <time>2019-12-29T10:31:03Z</time>
      </trkpt>
      <trkpt lat="40.097640" lon="-1.987427">
        <ele>1329.6</ele>
        <time>2019-12-29T10:31:06Z</time>
      </trkpt>
      <trkpt lat="40.097627" lon="-1.987566">
        <ele>1329.7</ele>
        <time>2019-12-29T10:31:09Z</time>
      </trkpt>
      <trkpt lat="40.097592" lon="-1.987684">
        <ele>1329.8</ele>
        <time>2019-12-29T10:31:12Z</time>
      </trkpt>
      <trkpt lat="40.097545" lon="-1.987789">
        <ele>1330.0</ele>
        <time>2019-12-29T10:31:15Z</time>
      </trkpt>
      <trkpt lat="40.097487" lon="-1.987883">
        <ele>1330.7</ele>
        <time>2019-12-29T10:31:18Z</time>
      </trkpt>
      <trkpt lat="40.097433" lon="-1.987998">
        <ele>1331.2</ele>
        <time>2019-12-29T10:31:21Z</time>
      </trkpt>
      <trkpt lat="40.097404" lon="-1.988124">
        <ele>1331.5</ele>
        <time>2019-12-29T10:31:24Z</time>
      </trkpt>
      <trkpt lat="40.097425" lon="-1.988250">
        <ele>1332.2</ele>
        <time>2019-12-29T10:31:27Z</time>
      </trkpt>
      <trkpt lat="40.097426" lon="-1.988394">
        <ele>1332.6</ele>
        <time>2019-12-29T10:31:32Z</time>
      </trkpt>
      <trkpt lat="40.097330" lon="-1.988411">
        <ele>1332.6</ele>
        <time>2019-12-29T10:31:36Z</time>
      </trkpt>
      <trkpt lat="40.097231" lon="-1.988368">
        <ele>1332.7</ele>
        <time>2019-12-29T10:31:39Z</time>
      </trkpt>
      <trkpt lat="40.097130" lon="-1.988318">
        <ele>1332.5</ele>
        <time>2019-12-29T10:31:42Z</time>
      </trkpt>
      <trkpt lat="40.097006" lon="-1.988291">
        <ele>1332.3</ele>
        <time>2019-12-29T10:31:45Z</time>
      </trkpt>
      <trkpt lat="40.096874" lon="-1.988249">
        <ele>1332.1</ele>
        <time>2019-12-29T10:31:48Z</time>
      </trkpt>
      <trkpt lat="40.096750" lon="-1.988198">
        <ele>1331.5</ele>
        <time>2019-12-29T10:31:51Z</time>
      </trkpt>
      <trkpt lat="40.096657" lon="-1.988160">
        <ele>1331.1</ele>
        <time>2019-12-29T10:31:53Z</time>
      </trkpt>
      <trkpt lat="40.096566" lon="-1.988137">
        <ele>1330.8</ele>
        <time>2019-12-29T10:31:55Z</time>
      </trkpt>
      <trkpt lat="40.096472" lon="-1.988088">
        <ele>1330.5</ele>
        <time>2019-12-29T10:31:57Z</time>
      </trkpt>
      <trkpt lat="40.096379" lon="-1.988030">
        <ele>1330.2</ele>
        <time>2019-12-29T10:31:59Z</time>
      </trkpt>
      <trkpt lat="40.096281" lon="-1.987971">
        <ele>1329.7</ele>
        <time>2019-12-29T10:32:01Z</time>
      </trkpt>
      <trkpt lat="40.096174" lon="-1.987937">
        <ele>1329.0</ele>
        <time>2019-12-29T10:32:03Z</time>
      </trkpt>
      <trkpt lat="40.096072" lon="-1.987922">
        <ele>1328.3</ele>
        <time>2019-12-29T10:32:05Z</time>
      </trkpt>
      <trkpt lat="40.095976" lon="-1.987941">
        <ele>1327.9</ele>
        <time>2019-12-29T10:32:07Z</time>
      </trkpt>
      <trkpt lat="40.095867" lon="-1.987954">
        <ele>1327.3</ele>
        <time>2019-12-29T10:32:09Z</time>
      </trkpt>
      <trkpt lat="40.095756" lon="-1.987922">
        <ele>1326.7</ele>
        <time>2019-12-29T10:32:11Z</time>
      </trkpt>
      <trkpt lat="40.095653" lon="-1.987873">
        <ele>1326.2</ele>
        <time>2019-12-29T10:32:13Z</time>
      </trkpt>
      <trkpt lat="40.095554" lon="-1.987854">
        <ele>1325.7</ele>
        <time>2019-12-29T10:32:15Z</time>
      </trkpt>
      <trkpt lat="40.095463" lon="-1.987895">
        <ele>1325.2</ele>
        <time>2019-12-29T10:32:17Z</time>
      </trkpt>
      <trkpt lat="40.095367" lon="-1.987945">
        <ele>1324.7</ele>
        <time>2019-12-29T10:32:19Z</time>
      </trkpt>
      <trkpt lat="40.095254" lon="-1.987950">
        <ele>1324.1</ele>
        <time>2019-12-29T10:32:21Z</time>
      </trkpt>
      <trkpt lat="40.095145" lon="-1.987933">
        <ele>1323.5</ele>
        <time>2019-12-29T10:32:23Z</time>
      </trkpt>
      <trkpt lat="40.095039" lon="-1.987925">
        <ele>1322.9</ele>
        <time>2019-12-29T10:32:25Z</time>
      </trkpt>
      <trkpt lat="40.094935" lon="-1.987933">
        <ele>1322.4</ele>
        <time>2019-12-29T10:32:28Z</time>
      </trkpt>
      <trkpt lat="40.094823" lon="-1.987962">
        <ele>1322.0</ele>
        <time>2019-12-29T10:32:31Z</time>
      </trkpt>
      <trkpt lat="40.094712" lon="-1.988007">
        <ele>1321.8</ele>
        <time>2019-12-29T10:32:34Z</time>
      </trkpt>
      <trkpt lat="40.094585" lon="-1.988049">
        <ele>1321.5</ele>
        <time>2019-12-29T10:32:37Z</time>
      </trkpt>
      <trkpt lat="40.094493" lon="-1.988074">
        <ele>1321.4</ele>
        <time>2019-12-29T10:32:39Z</time>
      </trkpt>
      <trkpt lat="40.094406" lon="-1.988122">
        <ele>1321.3</ele>
        <time>2019-12-29T10:32:41Z</time>
      </trkpt>
      <trkpt lat="40.094276" lon="-1.988151">
        <ele>1321.0</ele>
        <time>2019-12-29T10:32:44Z</time>
      </trkpt>
      <trkpt lat="40.094204" lon="-1.988077">
        <ele>1320.8</ele>
        <time>2019-12-29T10:32:46Z</time>
      </trkpt>
      <trkpt lat="40.094126" lon="-1.987945">
        <ele>1320.3</ele>
        <time>2019-12-29T10:32:49Z</time>
      </trkpt>
      <trkpt lat="40.094026" lon="-1.987837">
        <ele>1319.9</ele>
        <time>2019-12-29T10:32:52Z</time>
      </trkpt>
      <trkpt lat="40.093951" lon="-1.987772">
        <ele>1319.7</ele>
        <time>2019-12-29T10:32:54Z</time>
      </trkpt>
      <trkpt lat="40.093840" lon="-1.987672">
        <ele>1319.3</ele>
        <time>2019-12-29T10:32:57Z</time>
      </trkpt>
      <trkpt lat="40.093753" lon="-1.987623">
        <ele>1319.0</ele>
        <time>2019-12-29T10:32:59Z</time>
      </trkpt>
      <trkpt lat="40.093648" lon="-1.987585">
        <ele>1318.5</ele>
        <time>2019-12-29T10:33:01Z</time>
      </trkpt>
      <trkpt lat="40.093532" lon="-1.987556">
        <ele>1318.1</ele>
        <time>2019-12-29T10:33:03Z</time>
      </trkpt>
      <trkpt lat="40.093410" lon="-1.987533">
        <ele>1317.5</ele>
        <time>2019-12-29T10:33:05Z</time>
      </trkpt>
      <trkpt lat="40.093286" lon="-1.987508">
        <ele>1316.8</ele>
        <time>2019-12-29T10:33:07Z</time>
      </trkpt>
      <trkpt lat="40.093147" lon="-1.987516">
        <ele>1316.0</ele>
        <time>2019-12-29T10:33:09Z</time>
      </trkpt>
      <trkpt lat="40.093023" lon="-1.987535">
        <ele>1314.7</ele>
        <time>2019-12-29T10:33:11Z</time>
      </trkpt>
      <trkpt lat="40.092905" lon="-1.987545">
        <ele>1313.1</ele>
        <time>2019-12-29T10:33:13Z</time>
      </trkpt>
      <trkpt lat="40.092782" lon="-1.987551">
        <ele>1311.8</ele>
        <time>2019-12-29T10:33:15Z</time>
      </trkpt>
      <trkpt lat="40.092648" lon="-1.987541">
        <ele>1310.5</ele>
        <time>2019-12-29T10:33:17Z</time>
      </trkpt>
      <trkpt lat="40.092520" lon="-1.987514">
        <ele>1309.0</ele>
        <time>2019-12-29T10:33:19Z</time>
      </trkpt>
      <trkpt lat="40.092430" lon="-1.987513">
        <ele>1307.3</ele>
        <time>2019-12-29T10:33:21Z</time>
      </trkpt>
      <trkpt lat="40.092301" lon="-1.987504">
        <ele>1305.2</ele>
        <time>2019-12-29T10:33:24Z</time>
      </trkpt>
      <trkpt lat="40.092201" lon="-1.987465">
        <ele>1303.9</ele>
        <time>2019-12-29T10:33:26Z</time>
      </trkpt>
      <trkpt lat="40.092087" lon="-1.987439">
        <ele>1302.5</ele>
        <time>2019-12-29T10:33:28Z</time>
      </trkpt>
      <trkpt lat="40.091975" lon="-1.987442">
        <ele>1301.3</ele>
        <time>2019-12-29T10:33:30Z</time>
      </trkpt>
      <trkpt lat="40.091875" lon="-1.987449">
        <ele>1300.0</ele>
        <time>2019-12-29T10:33:32Z</time>
      </trkpt>
      <trkpt lat="40.091764" lon="-1.987457">
        <ele>1298.4</ele>
        <time>2019-12-29T10:33:34Z</time>
      </trkpt>
      <trkpt lat="40.091660" lon="-1.987475">
        <ele>1297.2</ele>
        <time>2019-12-29T10:33:36Z</time>
      </trkpt>
      <trkpt lat="40.091557" lon="-1.987513">
        <ele>1295.3</ele>
        <time>2019-12-29T10:33:38Z</time>
      </trkpt>
      <trkpt lat="40.091445" lon="-1.987545">
        <ele>1293.8</ele>
        <time>2019-12-29T10:33:40Z</time>
      </trkpt>
      <trkpt lat="40.091333" lon="-1.987574">
        <ele>1292.4</ele>
        <time>2019-12-29T10:33:42Z</time>
      </trkpt>
      <trkpt lat="40.091229" lon="-1.987597">
        <ele>1290.8</ele>
        <time>2019-12-29T10:33:44Z</time>
      </trkpt>
      <trkpt lat="40.091126" lon="-1.987621">
        <ele>1289.7</ele>
        <time>2019-12-29T10:33:46Z</time>
      </trkpt>
      <trkpt lat="40.091022" lon="-1.987643">
        <ele>1288.6</ele>
        <time>2019-12-29T10:33:48Z</time>
      </trkpt>
      <trkpt lat="40.090911" lon="-1.987641">
        <ele>1286.7</ele>
        <time>2019-12-29T10:33:50Z</time>
      </trkpt>
      <trkpt lat="40.090812" lon="-1.987667">
        <ele>1285.2</ele>
        <time>2019-12-29T10:33:52Z</time>
      </trkpt>
      <trkpt lat="40.090698" lon="-1.987696">
        <ele>1284.0</ele>
        <time>2019-12-29T10:33:54Z</time>
      </trkpt>
      <trkpt lat="40.090583" lon="-1.987742">
        <ele>1282.8</ele>
        <time>2019-12-29T10:33:56Z</time>
      </trkpt>
      <trkpt lat="40.090458" lon="-1.987787">
        <ele>1281.4</ele>
        <time>2019-12-29T10:33:58Z</time>
      </trkpt>
      <trkpt lat="40.090318" lon="-1.987828">
        <ele>1280.5</ele>
        <time>2019-12-29T10:34:00Z</time>
      </trkpt>
      <trkpt lat="40.090177" lon="-1.987863">
        <ele>1279.9</ele>
        <time>2019-12-29T10:34:02Z</time>
      </trkpt>
      <trkpt lat="40.090040" lon="-1.987906">
        <ele>1278.5</ele>
        <time>2019-12-29T10:34:04Z</time>
      </trkpt>
      <trkpt lat="40.089929" lon="-1.987950">
        <ele>1277.2</ele>
        <time>2019-12-29T10:34:06Z</time>
      </trkpt>
      <trkpt lat="40.089816" lon="-1.988010">
        <ele>1275.4</ele>
        <time>2019-12-29T10:34:08Z</time>
      </trkpt>
      <trkpt lat="40.089696" lon="-1.988086">
        <ele>1274.1</ele>
        <time>2019-12-29T10:34:10Z</time>
      </trkpt>
      <trkpt lat="40.089581" lon="-1.988179">
        <ele>1272.7</ele>
        <time>2019-12-29T10:34:12Z</time>
      </trkpt>
      <trkpt lat="40.089468" lon="-1.988265">
        <ele>1271.4</ele>
        <time>2019-12-29T10:34:14Z</time>
      </trkpt>
      <trkpt lat="40.089349" lon="-1.988357">
        <ele>1270.1</ele>
        <time>2019-12-29T10:34:16Z</time>
      </trkpt>
      <trkpt lat="40.089220" lon="-1.988438">
        <ele>1268.8</ele>
        <time>2019-12-29T10:34:18Z</time>
      </trkpt>
      <trkpt lat="40.089109" lon="-1.988507">
        <ele>1267.6</ele>
        <time>2019-12-29T10:34:20Z</time>
      </trkpt>
      <trkpt lat="40.088996" lon="-1.988557">
        <ele>1266.0</ele>
        <time>2019-12-29T10:34:22Z</time>
      </trkpt>
      <trkpt lat="40.088881" lon="-1.988639">
        <ele>1264.6</ele>
        <time>2019-12-29T10:34:24Z</time>
      </trkpt>
      <trkpt lat="40.088775" lon="-1.988723">
        <ele>1263.4</ele>
        <time>2019-12-29T10:34:26Z</time>
      </trkpt>
      <trkpt lat="40.088668" lon="-1.988800">
        <ele>1262.3</ele>
        <time>2019-12-29T10:34:28Z</time>
      </trkpt>
      <trkpt lat="40.088553" lon="-1.988853">
        <ele>1261.1</ele>
        <time>2019-12-29T10:34:30Z</time>
      </trkpt>
      <trkpt lat="40.088466" lon="-1.988916">
        <ele>1260.2</ele>
        <time>2019-12-29T10:34:32Z</time>
      </trkpt>
      <trkpt lat="40.088354" lon="-1.988969">
        <ele>1259.3</ele>
        <time>2019-12-29T10:34:35Z</time>
      </trkpt>
      <trkpt lat="40.088226" lon="-1.988994">
        <ele>1258.8</ele>
        <time>2019-12-29T10:34:38Z</time>
      </trkpt>
      <trkpt lat="40.088106" lon="-1.989061">
        <ele>1258.6</ele>
        <time>2019-12-29T10:34:41Z</time>
      </trkpt>
      <trkpt lat="40.088032" lon="-1.989129">
        <ele>1258.4</ele>
        <time>2019-12-29T10:34:43Z</time>
      </trkpt>
      <trkpt lat="40.087946" lon="-1.989203">
        <ele>1258.1</ele>
        <time>2019-12-29T10:34:45Z</time>
      </trkpt>
      <trkpt lat="40.087847" lon="-1.989291">
        <ele>1257.5</ele>
        <time>2019-12-29T10:34:47Z</time>
      </trkpt>
      <trkpt lat="40.087758" lon="-1.989383">
        <ele>1256.7</ele>
        <time>2019-12-29T10:34:49Z</time>
      </trkpt>
      <trkpt lat="40.087663" lon="-1.989468">
        <ele>1255.9</ele>
        <time>2019-12-29T10:34:51Z</time>
      </trkpt>
      <trkpt lat="40.087580" lon="-1.989572">
        <ele>1255.0</ele>
        <time>2019-12-29T10:34:53Z</time>
      </trkpt>
      <trkpt lat="40.087522" lon="-1.989687">
        <ele>1254.2</ele>
        <time>2019-12-29T10:34:55Z</time>
      </trkpt>
      <trkpt lat="40.087413" lon="-1.989783">
        <ele>1253.2</ele>
        <time>2019-12-29T10:34:58Z</time>
      </trkpt>
      <trkpt lat="40.087338" lon="-1.989848">
        <ele>1252.7</ele>
        <time>2019-12-29T10:35:00Z</time>
      </trkpt>
      <trkpt lat="40.087255" lon="-1.989944">
        <ele>1251.6</ele>
        <time>2019-12-29T10:35:02Z</time>
      </trkpt>
      <trkpt lat="40.087176" lon="-1.990051">
        <ele>1250.9</ele>
        <time>2019-12-29T10:35:04Z</time>
      </trkpt>
      <trkpt lat="40.087098" lon="-1.990170">
        <ele>1249.5</ele>
        <time>2019-12-29T10:35:06Z</time>
      </trkpt>
      <trkpt lat="40.087002" lon="-1.990270">
        <ele>1248.3</ele>
        <time>2019-12-29T10:35:08Z</time>
      </trkpt>
      <trkpt lat="40.086896" lon="-1.990382">
        <ele>1246.9</ele>
        <time>2019-12-29T10:35:10Z</time>
      </trkpt>
      <trkpt lat="40.086786" lon="-1.990487">
        <ele>1245.5</ele>
        <time>2019-12-29T10:35:12Z</time>
      </trkpt>
      <trkpt lat="40.086665" lon="-1.990586">
        <ele>1243.9</ele>
        <time>2019-12-29T10:35:14Z</time>
      </trkpt>
      <trkpt lat="40.086563" lon="-1.990654">
        <ele>1242.0</ele>
        <time>2019-12-29T10:35:16Z</time>
      </trkpt>
      <trkpt lat="40.086461" lon="-1.990691">
        <ele>1240.5</ele>
        <time>2019-12-29T10:35:18Z</time>
      </trkpt>
      <trkpt lat="40.086343" lon="-1.990667">
        <ele>1238.6</ele>
        <time>2019-12-29T10:35:21Z</time>
      </trkpt>
      <trkpt lat="40.086249" lon="-1.990645">
        <ele>1237.1</ele>
        <time>2019-12-29T10:35:24Z</time>
      </trkpt>
      <trkpt lat="40.086141" lon="-1.990626">
        <ele>1236.3</ele>
        <time>2019-12-29T10:35:28Z</time>
      </trkpt>
      <trkpt lat="40.086057" lon="-1.990560">
        <ele>1236.5</ele>
        <time>2019-12-29T10:35:32Z</time>
      </trkpt>
      <trkpt lat="40.085978" lon="-1.990456">
        <ele>1237.1</ele>
        <time>2019-12-29T10:35:36Z</time>
      </trkpt>
      <trkpt lat="40.085873" lon="-1.990378">
        <ele>1237.8</ele>
        <time>2019-12-29T10:35:40Z</time>
      </trkpt>
      <trkpt lat="40.085758" lon="-1.990342">
        <ele>1238.0</ele>
        <time>2019-12-29T10:35:43Z</time>
      </trkpt>
      <trkpt lat="40.085633" lon="-1.990320">
        <ele>1238.0</ele>
        <time>2019-12-29T10:35:46Z</time>
      </trkpt>
      <trkpt lat="40.085520" lon="-1.990303">
        <ele>1237.9</ele>
        <time>2019-12-29T10:35:49Z</time>
      </trkpt>
      <trkpt lat="40.085395" lon="-1.990304">
        <ele>1237.8</ele>
        <time>2019-12-29T10:35:52Z</time>
      </trkpt>
      <trkpt lat="40.085294" lon="-1.990325">
        <ele>1237.7</ele>
        <time>2019-12-29T10:35:54Z</time>
      </trkpt>
      <trkpt lat="40.085184" lon="-1.990372">
        <ele>1237.2</ele>
        <time>2019-12-29T10:35:56Z</time>
      </trkpt>
      <trkpt lat="40.085058" lon="-1.990433">
        <ele>1236.6</ele>
        <time>2019-12-29T10:35:58Z</time>
      </trkpt>
      <trkpt lat="40.084918" lon="-1.990512">
        <ele>1235.6</ele>
        <time>2019-12-29T10:36:00Z</time>
      </trkpt>
      <trkpt lat="40.084787" lon="-1.990623">
        <ele>1234.2</ele>
        <time>2019-12-29T10:36:02Z</time>
      </trkpt>
      <trkpt lat="40.084659" lon="-1.990712">
        <ele>1232.8</ele>
        <time>2019-12-29T10:36:04Z</time>
      </trkpt>
      <trkpt lat="40.084537" lon="-1.990782">
        <ele>1231.3</ele>
        <time>2019-12-29T10:36:06Z</time>
      </trkpt>
      <trkpt lat="40.084441" lon="-1.990836">
        <ele>1229.9</ele>
        <time>2019-12-29T10:36:08Z</time>
      </trkpt>
      <trkpt lat="40.084352" lon="-1.990896">
        <ele>1228.7</ele>
        <time>2019-12-29T10:36:10Z</time>
      </trkpt>
      <trkpt lat="40.084256" lon="-1.990952">
        <ele>1227.5</ele>
        <time>2019-12-29T10:36:12Z</time>
      </trkpt>
      <trkpt lat="40.084154" lon="-1.991019">
        <ele>1226.7</ele>
        <time>2019-12-29T10:36:14Z</time>
      </trkpt>
      <trkpt lat="40.084085" lon="-1.991099">
        <ele>1225.1</ele>
        <time>2019-12-29T10:36:16Z</time>
      </trkpt>
      <trkpt lat="40.084042" lon="-1.991212">
        <ele>1221.9</ele>
        <time>2019-12-29T10:36:20Z</time>
      </trkpt>
      <trkpt lat="40.083974" lon="-1.991356">
        <ele>1220.4</ele>
        <time>2019-12-29T10:36:23Z</time>
      </trkpt>
      <trkpt lat="40.083904" lon="-1.991437">
        <ele>1219.2</ele>
        <time>2019-12-29T10:36:26Z</time>
      </trkpt>
      <trkpt lat="40.083819" lon="-1.991554">
        <ele>1217.9</ele>
        <time>2019-12-29T10:36:30Z</time>
      </trkpt>
      <trkpt lat="40.083711" lon="-1.991625">
        <ele>1217.5</ele>
        <time>2019-12-29T10:36:33Z</time>
      </trkpt>
      <trkpt lat="40.083630" lon="-1.991676">
        <ele>1217.4</ele>
        <time>2019-12-29T10:36:35Z</time>
      </trkpt>
      <trkpt lat="40.083541" lon="-1.991766">
        <ele>1217.4</ele>
        <time>2019-12-29T10:36:38Z</time>
      </trkpt>
      <trkpt lat="40.083463" lon="-1.991839">
        <ele>1217.4</ele>
        <time>2019-12-29T10:36:40Z</time>
      </trkpt>
      <trkpt lat="40.083389" lon="-1.991922">
        <ele>1217.2</ele>
        <time>2019-12-29T10:36:42Z</time>
      </trkpt>
      <trkpt lat="40.083316" lon="-1.992052">
        <ele>1216.7</ele>
        <time>2019-12-29T10:36:45Z</time>
      </trkpt>
      <trkpt lat="40.083221" lon="-1.992157">
        <ele>1216.0</ele>
        <time>2019-12-29T10:36:48Z</time>
      </trkpt>
      <trkpt lat="40.083173" lon="-1.992279">
        <ele>1215.2</ele>
        <time>2019-12-29T10:36:51Z</time>
      </trkpt>
      <trkpt lat="40.083127" lon="-1.992383">
        <ele>1214.7</ele>
        <time>2019-12-29T10:36:53Z</time>
      </trkpt>
      <trkpt lat="40.083047" lon="-1.992473">
        <ele>1213.8</ele>
        <time>2019-12-29T10:36:55Z</time>
      </trkpt>
      <trkpt lat="40.082976" lon="-1.992548">
        <ele>1212.8</ele>
        <time>2019-12-29T10:36:57Z</time>
      </trkpt>
      <trkpt lat="40.082899" lon="-1.992620">
        <ele>1211.9</ele>
        <time>2019-12-29T10:37:00Z</time>
      </trkpt>
      <trkpt lat="40.082813" lon="-1.992711">
        <ele>1210.5</ele>
        <time>2019-12-29T10:37:05Z</time>
      </trkpt>
      <trkpt lat="40.082774" lon="-1.992830">
        <ele>1209.7</ele>
        <time>2019-12-29T10:37:09Z</time>
      </trkpt>
      <trkpt lat="40.082727" lon="-1.992953">
        <ele>1209.3</ele>
        <time>2019-12-29T10:37:12Z</time>
      </trkpt>
      <trkpt lat="40.082716" lon="-1.993088">
        <ele>1209.1</ele>
        <time>2019-12-29T10:37:15Z</time>
      </trkpt>
      <trkpt lat="40.082679" lon="-1.993251">
        <ele>1208.6</ele>
        <time>2019-12-29T10:37:18Z</time>
      </trkpt>
      <trkpt lat="40.082647" lon="-1.993395">
        <ele>1208.2</ele>
        <time>2019-12-29T10:37:21Z</time>
      </trkpt>
      <trkpt lat="40.082622" lon="-1.993543">
        <ele>1208.0</ele>
        <time>2019-12-29T10:37:24Z</time>
      </trkpt>
      <trkpt lat="40.082594" lon="-1.993676">
        <ele>1208.0</ele>
        <time>2019-12-29T10:37:29Z</time>
      </trkpt>
      <trkpt lat="40.082555" lon="-1.993783">
        <ele>1208.9</ele>
        <time>2019-12-29T10:37:37Z</time>
      </trkpt>
      <trkpt lat="40.082588" lon="-1.993649">
        <ele>1208.3</ele>
        <time>2019-12-29T10:37:57Z</time>
      </trkpt>
      <trkpt lat="40.082610" lon="-1.993511">
        <ele>1208.3</ele>
        <time>2019-12-29T10:38:01Z</time>
      </trkpt>
      <trkpt lat="40.082634" lon="-1.993388">
        <ele>1207.9</ele>
        <time>2019-12-29T10:38:12Z</time>
      </trkpt>
      <trkpt lat="40.082585" lon="-1.993498">
        <ele>1208.7</ele>
        <time>2019-12-29T10:45:52Z</time>
      </trkpt>
      <trkpt lat="40.082580" lon="-1.993622">
        <ele>1208.7</ele>
        <time>2019-12-29T10:45:59Z</time>
      </trkpt>
      <trkpt lat="40.082554" lon="-1.993760">
        <ele>1209.0</ele>
        <time>2019-12-29T10:46:04Z</time>
      </trkpt>
      <trkpt lat="40.082537" lon="-1.993890">
        <ele>1209.4</ele>
        <time>2019-12-29T10:46:08Z</time>
      </trkpt>
      <trkpt lat="40.082495" lon="-1.994001">
        <ele>1209.8</ele>
        <time>2019-12-29T10:46:15Z</time>
      </trkpt>
      <trkpt lat="40.082511" lon="-1.994120">
        <ele>1210.7</ele>
        <time>2019-12-29T10:46:27Z</time>
      </trkpt>
      <trkpt lat="40.082529" lon="-1.994248">
        <ele>1211.8</ele>
        <time>2019-12-29T10:46:38Z</time>
      </trkpt>
      <trkpt lat="40.082574" lon="-1.994365">
        <ele>1212.0</ele>
        <time>2019-12-29T10:46:47Z</time>
      </trkpt>
      <trkpt lat="40.082633" lon="-1.994454">
        <ele>1212.1</ele>
        <time>2019-12-29T10:46:58Z</time>
      </trkpt>
      <trkpt lat="40.082707" lon="-1.994553">
        <ele>1212.4</ele>
        <time>2019-12-29T10:47:07Z</time>
      </trkpt>
      <trkpt lat="40.082804" lon="-1.994613">
        <ele>1212.3</ele>
        <time>2019-12-29T10:47:10Z</time>
      </trkpt>
      <trkpt lat="40.082893" lon="-1.994690">
        <ele>1211.9</ele>
        <time>2019-12-29T10:47:13Z</time>
      </trkpt>
      <trkpt lat="40.082983" lon="-1.994764">
        <ele>1211.7</ele>
        <time>2019-12-29T10:47:16Z</time>
      </trkpt>
      <trkpt lat="40.083045" lon="-1.994891">
        <ele>1211.5</ele>
        <time>2019-12-29T10:47:19Z</time>
      </trkpt>
      <trkpt lat="40.083115" lon="-1.994985">
        <ele>1211.4</ele>
        <time>2019-12-29T10:47:22Z</time>
      </trkpt>
      <trkpt lat="40.083169" lon="-1.995104">
        <ele>1211.1</ele>
        <time>2019-12-29T10:47:25Z</time>
      </trkpt>
      <trkpt lat="40.083197" lon="-1.995253">
        <ele>1211.1</ele>
        <time>2019-12-29T10:47:28Z</time>
      </trkpt>
      <trkpt lat="40.083231" lon="-1.995416">
        <ele>1211.2</ele>
        <time>2019-12-29T10:47:31Z</time>
      </trkpt>
      <trkpt lat="40.083236" lon="-1.995587">
        <ele>1211.2</ele>
        <time>2019-12-29T10:47:34Z</time>
      </trkpt>
      <trkpt lat="40.083243" lon="-1.995758">
        <ele>1211.2</ele>
        <time>2019-12-29T10:47:37Z</time>
      </trkpt>
      <trkpt lat="40.083244" lon="-1.995886">
        <ele>1211.1</ele>
        <time>2019-12-29T10:47:40Z</time>
      </trkpt>
      <trkpt lat="40.083249" lon="-1.996007">
        <ele>1210.7</ele>
        <time>2019-12-29T10:47:44Z</time>
      </trkpt>
      <trkpt lat="40.083232" lon="-1.996148">
        <ele>1210.5</ele>
        <time>2019-12-29T10:47:47Z</time>
      </trkpt>
      <trkpt lat="40.083220" lon="-1.996270">
        <ele>1210.3</ele>
        <time>2019-12-29T10:47:50Z</time>
      </trkpt>
      <trkpt lat="40.083198" lon="-1.996393">
        <ele>1210.2</ele>
        <time>2019-12-29T10:47:53Z</time>
      </trkpt>
      <trkpt lat="40.083170" lon="-1.996517">
        <ele>1210.1</ele>
        <time>2019-12-29T10:47:56Z</time>
      </trkpt>
      <trkpt lat="40.083121" lon="-1.996647">
        <ele>1210.0</ele>
        <time>2019-12-29T10:48:00Z</time>
      </trkpt>
      <trkpt lat="40.083092" lon="-1.996761">
        <ele>1210.0</ele>
        <time>2019-12-29T10:48:03Z</time>
      </trkpt>
      <trkpt lat="40.083060" lon="-1.996878">
        <ele>1210.0</ele>
        <time>2019-12-29T10:48:07Z</time>
      </trkpt>
      <trkpt lat="40.082999" lon="-1.996984">
        <ele>1210.0</ele>
        <time>2019-12-29T10:48:10Z</time>
      </trkpt>
      <trkpt lat="40.082951" lon="-1.997085">
        <ele>1210.0</ele>
        <time>2019-12-29T10:48:13Z</time>
      </trkpt>
      <trkpt lat="40.082903" lon="-1.997240">
        <ele>1210.3</ele>
        <time>2019-12-29T10:48:16Z</time>
      </trkpt>
      <trkpt lat="40.082864" lon="-1.997381">
        <ele>1210.6</ele>
        <time>2019-12-29T10:48:19Z</time>
      </trkpt>
      <trkpt lat="40.082803" lon="-1.997521">
        <ele>1210.8</ele>
        <time>2019-12-29T10:48:22Z</time>
      </trkpt>
      <trkpt lat="40.082782" lon="-1.997643">
        <ele>1210.5</ele>
        <time>2019-12-29T10:48:24Z</time>
      </trkpt>
      <trkpt lat="40.082762" lon="-1.997759">
        <ele>1210.1</ele>
        <time>2019-12-29T10:48:26Z</time>
      </trkpt>
      <trkpt lat="40.082725" lon="-1.997927">
        <ele>1208.7</ele>
        <time>2019-12-29T10:48:29Z</time>
      </trkpt>
      <trkpt lat="40.082722" lon="-1.998099">
        <ele>1207.5</ele>
        <time>2019-12-29T10:48:32Z</time>
      </trkpt>
      <trkpt lat="40.082742" lon="-1.998221">
        <ele>1206.6</ele>
        <time>2019-12-29T10:48:35Z</time>
      </trkpt>
      <trkpt lat="40.082791" lon="-1.998325">
        <ele>1204.2</ele>
        <time>2019-12-29T10:48:42Z</time>
      </trkpt>
      <trkpt lat="40.082844" lon="-1.998440">
        <ele>1202.0</ele>
        <time>2019-12-29T10:48:48Z</time>
      </trkpt>
      <trkpt lat="40.082905" lon="-1.998536">
        <ele>1200.2</ele>
        <time>2019-12-29T10:48:54Z</time>
      </trkpt>
      <trkpt lat="40.082955" lon="-1.998634">
        <ele>1197.2</ele>
        <time>2019-12-29T10:49:00Z</time>
      </trkpt>
      <trkpt lat="40.083042" lon="-1.998754">
        <ele>1195.5</ele>
        <time>2019-12-29T10:49:04Z</time>
      </trkpt>
      <trkpt lat="40.083095" lon="-1.998879">
        <ele>1194.1</ele>
        <time>2019-12-29T10:49:08Z</time>
      </trkpt>
      <trkpt lat="40.083051" lon="-1.998981">
        <ele>1193.3</ele>
        <time>2019-12-29T10:49:11Z</time>
      </trkpt>
      <trkpt lat="40.082948" lon="-1.998989">
        <ele>1192.8</ele>
        <time>2019-12-29T10:49:15Z</time>
      </trkpt>
      <trkpt lat="40.082838" lon="-1.999020">
        <ele>1192.8</ele>
        <time>2019-12-29T10:49:19Z</time>
      </trkpt>
      <trkpt lat="40.082735" lon="-1.999045">
        <ele>1193.6</ele>
        <time>2019-12-29T10:49:23Z</time>
      </trkpt>
      <trkpt lat="40.082643" lon="-1.999056">
        <ele>1194.1</ele>
        <time>2019-12-29T10:49:26Z</time>
      </trkpt>
      <trkpt lat="40.082534" lon="-1.999071">
        <ele>1195.0</ele>
        <time>2019-12-29T10:49:30Z</time>
      </trkpt>
      <trkpt lat="40.082420" lon="-1.999060">
        <ele>1195.7</ele>
        <time>2019-12-29T10:49:34Z</time>
      </trkpt>
      <trkpt lat="40.082314" lon="-1.999067">
        <ele>1196.3</ele>
        <time>2019-12-29T10:49:38Z</time>
      </trkpt>
      <trkpt lat="40.082202" lon="-1.999035">
        <ele>1197.0</ele>
        <time>2019-12-29T10:49:42Z</time>
      </trkpt>
      <trkpt lat="40.082111" lon="-1.999014">
        <ele>1197.4</ele>
        <time>2019-12-29T10:49:46Z</time>
      </trkpt>
      <trkpt lat="40.082006" lon="-1.999013">
        <ele>1197.8</ele>
        <time>2019-12-29T10:49:50Z</time>
      </trkpt>
      <trkpt lat="40.081929" lon="-1.999118">
        <ele>1198.6</ele>
        <time>2019-12-29T10:49:55Z</time>
      </trkpt>
      <trkpt lat="40.081880" lon="-1.999253">
        <ele>1199.2</ele>
        <time>2019-12-29T10:49:59Z</time>
      </trkpt>
      <trkpt lat="40.081831" lon="-1.999358">
        <ele>1199.2</ele>
        <time>2019-12-29T10:50:02Z</time>
      </trkpt>
      <trkpt lat="40.081795" lon="-1.999473">
        <ele>1199.0</ele>
        <time>2019-12-29T10:50:05Z</time>
      </trkpt>
      <trkpt lat="40.081736" lon="-1.999587">
        <ele>1198.6</ele>
        <time>2019-12-29T10:50:08Z</time>
      </trkpt>
      <trkpt lat="40.081681" lon="-1.999696">
        <ele>1198.1</ele>
        <time>2019-12-29T10:50:11Z</time>
      </trkpt>
      <trkpt lat="40.081617" lon="-1.999815">
        <ele>1197.6</ele>
        <time>2019-12-29T10:50:14Z</time>
      </trkpt>
      <trkpt lat="40.081513" lon="-1.999929">
        <ele>1196.8</ele>
        <time>2019-12-29T10:50:17Z</time>
      </trkpt>
      <trkpt lat="40.081437" lon="-2.000006">
        <ele>1196.3</ele>
        <time>2019-12-29T10:50:19Z</time>
      </trkpt>
      <trkpt lat="40.081347" lon="-2.000057">
        <ele>1195.5</ele>
        <time>2019-12-29T10:50:22Z</time>
      </trkpt>
      <trkpt lat="40.081235" lon="-2.000114">
        <ele>1194.9</ele>
        <time>2019-12-29T10:50:25Z</time>
      </trkpt>
      <trkpt lat="40.081124" lon="-2.000197">
        <ele>1194.6</ele>
        <time>2019-12-29T10:50:28Z</time>
      </trkpt>
      <trkpt lat="40.081047" lon="-2.000323">
        <ele>1193.9</ele>
        <time>2019-12-29T10:50:31Z</time>
      </trkpt>
      <trkpt lat="40.081044" lon="-2.000445">
        <ele>1192.6</ele>
        <time>2019-12-29T10:50:34Z</time>
      </trkpt>
      <trkpt lat="40.081038" lon="-2.000604">
        <ele>1191.3</ele>
        <time>2019-12-29T10:50:38Z</time>
      </trkpt>
      <trkpt lat="40.081019" lon="-2.000740">
        <ele>1190.1</ele>
        <time>2019-12-29T10:50:42Z</time>
      </trkpt>
      <trkpt lat="40.081016" lon="-2.000857">
        <ele>1188.9</ele>
        <time>2019-12-29T10:50:45Z</time>
      </trkpt>
      <trkpt lat="40.081010" lon="-2.001015">
        <ele>1187.8</ele>
        <time>2019-12-29T10:50:48Z</time>
      </trkpt>
      <trkpt lat="40.080977" lon="-2.001151">
        <ele>1186.7</ele>
        <time>2019-12-29T10:50:51Z</time>
      </trkpt>
      <trkpt lat="40.080911" lon="-2.001238">
        <ele>1186.0</ele>
        <time>2019-12-29T10:50:53Z</time>
      </trkpt>
      <trkpt lat="40.080838" lon="-2.001324">
        <ele>1185.3</ele>
        <time>2019-12-29T10:50:55Z</time>
      </trkpt>
      <trkpt lat="40.080751" lon="-2.001409">
        <ele>1184.6</ele>
        <time>2019-12-29T10:50:57Z</time>
      </trkpt>
      <trkpt lat="40.080663" lon="-2.001475">
        <ele>1183.9</ele>
        <time>2019-12-29T10:50:59Z</time>
      </trkpt>
      <trkpt lat="40.080579" lon="-2.001541">
        <ele>1183.3</ele>
        <time>2019-12-29T10:51:01Z</time>
      </trkpt>
      <trkpt lat="40.080505" lon="-2.001610">
        <ele>1182.8</ele>
        <time>2019-12-29T10:51:03Z</time>
      </trkpt>
      <trkpt lat="40.080429" lon="-2.001727">
        <ele>1182.2</ele>
        <time>2019-12-29T10:51:06Z</time>
      </trkpt>
      <trkpt lat="40.080368" lon="-2.001833">
        <ele>1181.6</ele>
        <time>2019-12-29T10:51:10Z</time>
      </trkpt>
      <trkpt lat="40.080284" lon="-2.001911">
        <ele>1181.3</ele>
        <time>2019-12-29T10:51:14Z</time>
      </trkpt>
      <trkpt lat="40.080172" lon="-2.001962">
        <ele>1181.1</ele>
        <time>2019-12-29T10:51:18Z</time>
      </trkpt>
      <trkpt lat="40.080051" lon="-2.001996">
        <ele>1180.3</ele>
        <time>2019-12-29T10:51:21Z</time>
      </trkpt>
      <trkpt lat="40.079951" lon="-2.002038">
        <ele>1179.9</ele>
        <time>2019-12-29T10:51:23Z</time>
      </trkpt>
      <trkpt lat="40.079832" lon="-2.002094">
        <ele>1179.3</ele>
        <time>2019-12-29T10:51:26Z</time>
      </trkpt>
      <trkpt lat="40.079740" lon="-2.002110">
        <ele>1178.6</ele>
        <time>2019-12-29T10:51:29Z</time>
      </trkpt>
      <trkpt lat="40.079637" lon="-2.002137">
        <ele>1178.0</ele>
        <time>2019-12-29T10:51:32Z</time>
      </trkpt>
      <trkpt lat="40.079561" lon="-2.002234">
        <ele>1177.3</ele>
        <time>2019-12-29T10:51:35Z</time>
      </trkpt>
      <trkpt lat="40.079565" lon="-2.002395">
        <ele>1176.7</ele>
        <time>2019-12-29T10:51:38Z</time>
      </trkpt>
      <trkpt lat="40.079573" lon="-2.002522">
        <ele>1176.1</ele>
        <time>2019-12-29T10:51:41Z</time>
      </trkpt>
      <trkpt lat="40.079567" lon="-2.002657">
        <ele>1175.7</ele>
        <time>2019-12-29T10:51:44Z</time>
      </trkpt>
      <trkpt lat="40.079547" lon="-2.002780">
        <ele>1175.0</ele>
        <time>2019-12-29T10:51:47Z</time>
      </trkpt>
      <trkpt lat="40.079523" lon="-2.002918">
        <ele>1173.6</ele>
        <time>2019-12-29T10:51:52Z</time>
      </trkpt>
      <trkpt lat="40.079504" lon="-2.003037">
        <ele>1172.7</ele>
        <time>2019-12-29T10:51:55Z</time>
      </trkpt>
      <trkpt lat="40.079465" lon="-2.003178">
        <ele>1170.8</ele>
        <time>2019-12-29T10:52:00Z</time>
      </trkpt>
      <trkpt lat="40.079438" lon="-2.003322">
        <ele>1169.7</ele>
        <time>2019-12-29T10:52:03Z</time>
      </trkpt>
      <trkpt lat="40.079420" lon="-2.003441">
        <ele>1168.9</ele>
        <time>2019-12-29T10:52:05Z</time>
      </trkpt>
      <trkpt lat="40.079374" lon="-2.003613">
        <ele>1167.4</ele>
        <time>2019-12-29T10:52:08Z</time>
      </trkpt>
      <trkpt lat="40.079336" lon="-2.003730">
        <ele>1166.2</ele>
        <time>2019-12-29T10:52:10Z</time>
      </trkpt>
      <trkpt lat="40.079298" lon="-2.003844">
        <ele>1165.0</ele>
        <time>2019-12-29T10:52:12Z</time>
      </trkpt>
      <trkpt lat="40.079253" lon="-2.003967">
        <ele>1163.5</ele>
        <time>2019-12-29T10:52:15Z</time>
      </trkpt>
      <trkpt lat="40.079197" lon="-2.004079">
        <ele>1162.4</ele>
        <time>2019-12-29T10:52:18Z</time>
      </trkpt>
      <trkpt lat="40.079149" lon="-2.004232">
        <ele>1161.1</ele>
        <time>2019-12-29T10:52:21Z</time>
      </trkpt>
      <trkpt lat="40.079109" lon="-2.004384">
        <ele>1159.6</ele>
        <time>2019-12-29T10:52:24Z</time>
      </trkpt>
      <trkpt lat="40.079085" lon="-2.004532">
        <ele>1158.0</ele>
        <time>2019-12-29T10:52:27Z</time>
      </trkpt>
      <trkpt lat="40.079052" lon="-2.004673">
        <ele>1157.2</ele>
        <time>2019-12-29T10:52:30Z</time>
      </trkpt>
      <trkpt lat="40.079007" lon="-2.004784">
        <ele>1156.8</ele>
        <time>2019-12-29T10:52:32Z</time>
      </trkpt>
      <trkpt lat="40.078951" lon="-2.004912">
        <ele>1155.6</ele>
        <time>2019-12-29T10:52:35Z</time>
      </trkpt>
      <trkpt lat="40.078897" lon="-2.005022">
        <ele>1154.3</ele>
        <time>2019-12-29T10:52:38Z</time>
      </trkpt>
      <trkpt lat="40.078858" lon="-2.005135">
        <ele>1153.1</ele>
        <time>2019-12-29T10:52:41Z</time>
      </trkpt>
      <trkpt lat="40.078815" lon="-2.005283">
        <ele>1151.9</ele>
        <time>2019-12-29T10:52:44Z</time>
      </trkpt>
      <trkpt lat="40.078775" lon="-2.005434">
        <ele>1151.2</ele>
        <time>2019-12-29T10:52:47Z</time>
      </trkpt>
      <trkpt lat="40.078716" lon="-2.005562">
        <ele>1150.2</ele>
        <time>2019-12-29T10:52:50Z</time>
      </trkpt>
      <trkpt lat="40.078648" lon="-2.005673">
        <ele>1147.6</ele>
        <time>2019-12-29T10:52:55Z</time>
      </trkpt>
      <trkpt lat="40.078551" lon="-2.005739">
        <ele>1144.3</ele>
        <time>2019-12-29T10:53:01Z</time>
      </trkpt>
      <trkpt lat="40.078460" lon="-2.005806">
        <ele>1142.9</ele>
        <time>2019-12-29T10:53:05Z</time>
      </trkpt>
      <trkpt lat="40.078435" lon="-2.005963">
        <ele>1140.6</ele>
        <time>2019-12-29T10:53:09Z</time>
      </trkpt>
      <trkpt lat="40.078381" lon="-2.006063">
        <ele>1138.7</ele>
        <time>2019-12-29T10:53:15Z</time>
      </trkpt>
      <trkpt lat="40.078293" lon="-2.006106">
        <ele>1137.9</ele>
        <time>2019-12-29T10:53:29Z</time>
      </trkpt>
      <trkpt lat="40.078212" lon="-2.006180">
        <ele>1137.7</ele>
        <time>2019-12-29T10:53:32Z</time>
      </trkpt>
      <trkpt lat="40.078106" lon="-2.006217">
        <ele>1137.2</ele>
        <time>2019-12-29T10:53:35Z</time>
      </trkpt>
      <trkpt lat="40.078019" lon="-2.006261">
        <ele>1136.6</ele>
        <time>2019-12-29T10:53:38Z</time>
      </trkpt>
      <trkpt lat="40.077936" lon="-2.006327">
        <ele>1136.3</ele>
        <time>2019-12-29T10:53:41Z</time>
      </trkpt>
      <trkpt lat="40.077861" lon="-2.006398">
        <ele>1136.2</ele>
        <time>2019-12-29T10:53:44Z</time>
      </trkpt>
      <trkpt lat="40.077764" lon="-2.006443">
        <ele>1136.2</ele>
        <time>2019-12-29T10:53:47Z</time>
      </trkpt>
      <trkpt lat="40.077666" lon="-2.006474">
        <ele>1136.1</ele>
        <time>2019-12-29T10:53:50Z</time>
      </trkpt>
      <trkpt lat="40.077546" lon="-2.006491">
        <ele>1136.1</ele>
        <time>2019-12-29T10:53:53Z</time>
      </trkpt>
      <trkpt lat="40.077425" lon="-2.006531">
        <ele>1135.9</ele>
        <time>2019-12-29T10:53:56Z</time>
      </trkpt>
      <trkpt lat="40.077318" lon="-2.006606">
        <ele>1135.7</ele>
        <time>2019-12-29T10:53:59Z</time>
      </trkpt>
      <trkpt lat="40.077212" lon="-2.006653">
        <ele>1135.4</ele>
        <time>2019-12-29T10:54:02Z</time>
      </trkpt>
      <trkpt lat="40.077108" lon="-2.006664">
        <ele>1135.2</ele>
        <time>2019-12-29T10:54:05Z</time>
      </trkpt>
      <trkpt lat="40.077009" lon="-2.006638">
        <ele>1135.2</ele>
        <time>2019-12-29T10:54:08Z</time>
      </trkpt>
      <trkpt lat="40.076879" lon="-2.006578">
        <ele>1135.2</ele>
        <time>2019-12-29T10:54:11Z</time>
      </trkpt>
      <trkpt lat="40.076750" lon="-2.006570">
        <ele>1135.2</ele>
        <time>2019-12-29T10:54:14Z</time>
      </trkpt>
      <trkpt lat="40.076642" lon="-2.006530">
        <ele>1135.0</ele>
        <time>2019-12-29T10:54:17Z</time>
      </trkpt>
      <trkpt lat="40.076527" lon="-2.006486">
        <ele>1134.9</ele>
        <time>2019-12-29T10:54:20Z</time>
      </trkpt>
      <trkpt lat="40.076418" lon="-2.006460">
        <ele>1134.7</ele>
        <time>2019-12-29T10:54:23Z</time>
      </trkpt>
      <trkpt lat="40.076312" lon="-2.006433">
        <ele>1134.6</ele>
        <time>2019-12-29T10:54:26Z</time>
      </trkpt>
      <trkpt lat="40.076199" lon="-2.006464">
        <ele>1134.5</ele>
        <time>2019-12-29T10:54:29Z</time>
      </trkpt>
      <trkpt lat="40.076102" lon="-2.006496">
        <ele>1134.2</ele>
        <time>2019-12-29T10:54:32Z</time>
      </trkpt>
      <trkpt lat="40.076004" lon="-2.006534">
        <ele>1134.0</ele>
        <time>2019-12-29T10:54:36Z</time>
      </trkpt>
      <trkpt lat="40.075901" lon="-2.006600">
        <ele>1134.2</ele>
        <time>2019-12-29T10:54:40Z</time>
      </trkpt>
      <trkpt lat="40.075789" lon="-2.006625">
        <ele>1135.0</ele>
        <time>2019-12-29T10:54:44Z</time>
      </trkpt>
      <trkpt lat="40.075683" lon="-2.006602">
        <ele>1135.7</ele>
        <time>2019-12-29T10:54:48Z</time>
      </trkpt>
      <trkpt lat="40.075584" lon="-2.006530">
        <ele>1136.3</ele>
        <time>2019-12-29T10:54:52Z</time>
      </trkpt>
      <trkpt lat="40.075482" lon="-2.006483">
        <ele>1136.2</ele>
        <time>2019-12-29T10:54:55Z</time>
      </trkpt>
      <trkpt lat="40.075373" lon="-2.006411">
        <ele>1135.7</ele>
        <time>2019-12-29T10:54:58Z</time>
      </trkpt>
      <trkpt lat="40.075278" lon="-2.006370">
        <ele>1134.6</ele>
        <time>2019-12-29T10:55:01Z</time>
      </trkpt>
      <trkpt lat="40.075181" lon="-2.006332">
        <ele>1133.9</ele>
        <time>2019-12-29T10:55:04Z</time>
      </trkpt>
      <trkpt lat="40.075078" lon="-2.006300">
        <ele>1133.8</ele>
        <time>2019-12-29T10:55:07Z</time>
      </trkpt>
      <trkpt lat="40.074974" lon="-2.006260">
        <ele>1133.7</ele>
        <time>2019-12-29T10:55:10Z</time>
      </trkpt>
      <trkpt lat="40.074862" lon="-2.006235">
        <ele>1133.7</ele>
        <time>2019-12-29T10:55:14Z</time>
      </trkpt>
      <trkpt lat="40.074775" lon="-2.006158">
        <ele>1133.4</ele>
        <time>2019-12-29T10:55:17Z</time>
      </trkpt>
      <trkpt lat="40.074651" lon="-2.006123">
        <ele>1133.0</ele>
        <time>2019-12-29T10:55:20Z</time>
      </trkpt>
      <trkpt lat="40.074522" lon="-2.006102">
        <ele>1132.5</ele>
        <time>2019-12-29T10:55:23Z</time>
      </trkpt>
      <trkpt lat="40.074431" lon="-2.006111">
        <ele>1132.4</ele>
        <time>2019-12-29T10:55:25Z</time>
      </trkpt>
      <trkpt lat="40.074336" lon="-2.006123">
        <ele>1132.2</ele>
        <time>2019-12-29T10:55:27Z</time>
      </trkpt>
      <trkpt lat="40.074240" lon="-2.006132">
        <ele>1132.1</ele>
        <time>2019-12-29T10:55:29Z</time>
      </trkpt>
      <trkpt lat="40.074111" lon="-2.006169">
        <ele>1131.8</ele>
        <time>2019-12-29T10:55:32Z</time>
      </trkpt>
      <trkpt lat="40.073999" lon="-2.006210">
        <ele>1131.8</ele>
        <time>2019-12-29T10:55:35Z</time>
      </trkpt>
      <trkpt lat="40.073923" lon="-2.006300">
        <ele>1131.8</ele>
        <time>2019-12-29T10:55:38Z</time>
      </trkpt>
      <trkpt lat="40.073883" lon="-2.006443">
        <ele>1131.8</ele>
        <time>2019-12-29T10:55:41Z</time>
      </trkpt>
      <trkpt lat="40.073875" lon="-2.006596">
        <ele>1131.8</ele>
        <time>2019-12-29T10:55:44Z</time>
      </trkpt>
      <trkpt lat="40.073875" lon="-2.006741">
        <ele>1132.0</ele>
        <time>2019-12-29T10:55:47Z</time>
      </trkpt>
      <trkpt lat="40.073912" lon="-2.006880">
        <ele>1132.1</ele>
        <time>2019-12-29T10:55:50Z</time>
      </trkpt>
      <trkpt lat="40.073952" lon="-2.007003">
        <ele>1131.9</ele>
        <time>2019-12-29T10:55:53Z</time>
      </trkpt>
      <trkpt lat="40.073986" lon="-2.007156">
        <ele>1131.5</ele>
        <time>2019-12-29T10:55:57Z</time>
      </trkpt>
      <trkpt lat="40.074010" lon="-2.007309">
        <ele>1131.1</ele>
        <time>2019-12-29T10:56:00Z</time>
      </trkpt>
      <trkpt lat="40.074032" lon="-2.007459">
        <ele>1130.6</ele>
        <time>2019-12-29T10:56:03Z</time>
      </trkpt>
      <trkpt lat="40.074088" lon="-2.007585">
        <ele>1130.1</ele>
        <time>2019-12-29T10:56:06Z</time>
      </trkpt>
      <trkpt lat="40.074134" lon="-2.007711">
        <ele>1130.0</ele>
        <time>2019-12-29T10:56:09Z</time>
      </trkpt>
      <trkpt lat="40.074106" lon="-2.007863">
        <ele>1130.7</ele>
        <time>2019-12-29T10:56:13Z</time>
      </trkpt>
      <trkpt lat="40.074105" lon="-2.007995">
        <ele>1131.0</ele>
        <time>2019-12-29T10:56:16Z</time>
      </trkpt>
      <trkpt lat="40.074084" lon="-2.008111">
        <ele>1131.2</ele>
        <time>2019-12-29T10:56:18Z</time>
      </trkpt>
      <trkpt lat="40.074069" lon="-2.008251">
        <ele>1131.3</ele>
        <time>2019-12-29T10:56:20Z</time>
      </trkpt>
      <trkpt lat="40.074048" lon="-2.008423">
        <ele>1130.5</ele>
        <time>2019-12-29T10:56:23Z</time>
      </trkpt>
      <trkpt lat="40.074014" lon="-2.008540">
        <ele>1130.1</ele>
        <time>2019-12-29T10:56:25Z</time>
      </trkpt>
      <trkpt lat="40.074021" lon="-2.008665">
        <ele>1129.7</ele>
        <time>2019-12-29T10:56:27Z</time>
      </trkpt>
      <trkpt lat="40.073989" lon="-2.008788">
        <ele>1129.2</ele>
        <time>2019-12-29T10:56:29Z</time>
      </trkpt>
      <trkpt lat="40.073960" lon="-2.008913">
        <ele>1128.8</ele>
        <time>2019-12-29T10:56:31Z</time>
      </trkpt>
      <trkpt lat="40.073954" lon="-2.009036">
        <ele>1128.3</ele>
        <time>2019-12-29T10:56:33Z</time>
      </trkpt>
      <trkpt lat="40.073955" lon="-2.009195">
        <ele>1127.6</ele>
        <time>2019-12-29T10:56:36Z</time>
      </trkpt>
      <trkpt lat="40.073974" lon="-2.009355">
        <ele>1127.1</ele>
        <time>2019-12-29T10:56:39Z</time>
      </trkpt>
      <trkpt lat="40.073994" lon="-2.009496">
        <ele>1126.8</ele>
        <time>2019-12-29T10:56:42Z</time>
      </trkpt>
      <trkpt lat="40.074047" lon="-2.009635">
        <ele>1126.7</ele>
        <time>2019-12-29T10:56:45Z</time>
      </trkpt>
      <trkpt lat="40.074110" lon="-2.009785">
        <ele>1126.7</ele>
        <time>2019-12-29T10:56:48Z</time>
      </trkpt>
      <trkpt lat="40.074195" lon="-2.009905">
        <ele>1127.1</ele>
        <time>2019-12-29T10:56:51Z</time>
      </trkpt>
      <trkpt lat="40.074303" lon="-2.009994">
        <ele>1127.3</ele>
        <time>2019-12-29T10:56:54Z</time>
      </trkpt>
      <trkpt lat="40.074395" lon="-2.010046">
        <ele>1127.1</ele>
        <time>2019-12-29T10:56:56Z</time>
      </trkpt>
      <trkpt lat="40.074496" lon="-2.010089">
        <ele>1127.0</ele>
        <time>2019-12-29T10:56:58Z</time>
      </trkpt>
      <trkpt lat="40.074600" lon="-2.010139">
        <ele>1126.9</ele>
        <time>2019-12-29T10:57:00Z</time>
      </trkpt>
      <trkpt lat="40.074691" lon="-2.010193">
        <ele>1126.9</ele>
        <time>2019-12-29T10:57:02Z</time>
      </trkpt>
      <trkpt lat="40.074786" lon="-2.010249">
        <ele>1127.0</ele>
        <time>2019-12-29T10:57:04Z</time>
      </trkpt>
      <trkpt lat="40.074883" lon="-2.010303">
        <ele>1126.8</ele>
        <time>2019-12-29T10:57:06Z</time>
      </trkpt>
      <trkpt lat="40.074960" lon="-2.010369">
        <ele>1126.6</ele>
        <time>2019-12-29T10:57:08Z</time>
      </trkpt>
      <trkpt lat="40.075028" lon="-2.010468">
        <ele>1126.3</ele>
        <time>2019-12-29T10:57:10Z</time>
      </trkpt>
      <trkpt lat="40.075086" lon="-2.010573">
        <ele>1126.0</ele>
        <time>2019-12-29T10:57:12Z</time>
      </trkpt>
      <trkpt lat="40.075145" lon="-2.010677">
        <ele>1125.8</ele>
        <time>2019-12-29T10:57:14Z</time>
      </trkpt>
      <trkpt lat="40.075193" lon="-2.010787">
        <ele>1125.0</ele>
        <time>2019-12-29T10:57:19Z</time>
      </trkpt>
      <trkpt lat="40.075245" lon="-2.010888">
        <ele>1124.6</ele>
        <time>2019-12-29T10:57:24Z</time>
      </trkpt>
      <trkpt lat="40.075203" lon="-2.011021">
        <ele>1124.8</ele>
        <time>2019-12-29T10:57:29Z</time>
      </trkpt>
      <trkpt lat="40.075211" lon="-2.011173">
        <ele>1124.9</ele>
        <time>2019-12-29T10:57:33Z</time>
      </trkpt>
      <trkpt lat="40.075192" lon="-2.011295">
        <ele>1125.1</ele>
        <time>2019-12-29T10:57:36Z</time>
      </trkpt>
      <trkpt lat="40.075183" lon="-2.011421">
        <ele>1125.2</ele>
        <time>2019-12-29T10:57:39Z</time>
      </trkpt>
      <trkpt lat="40.075151" lon="-2.011558">
        <ele>1124.9</ele>
        <time>2019-12-29T10:57:42Z</time>
      </trkpt>
      <trkpt lat="40.075130" lon="-2.011696">
        <ele>1124.7</ele>
        <time>2019-12-29T10:57:45Z</time>
      </trkpt>
      <trkpt lat="40.075109" lon="-2.011851">
        <ele>1124.9</ele>
        <time>2019-12-29T10:57:48Z</time>
      </trkpt>
      <trkpt lat="40.075102" lon="-2.011995">
        <ele>1125.2</ele>
        <time>2019-12-29T10:57:51Z</time>
      </trkpt>
      <trkpt lat="40.075125" lon="-2.012152">
        <ele>1125.2</ele>
        <time>2019-12-29T10:57:54Z</time>
      </trkpt>
      <trkpt lat="40.075176" lon="-2.012263">
        <ele>1125.0</ele>
        <time>2019-12-29T10:57:56Z</time>
      </trkpt>
      <trkpt lat="40.075238" lon="-2.012363">
        <ele>1124.8</ele>
        <time>2019-12-29T10:57:58Z</time>
      </trkpt>
      <trkpt lat="40.075319" lon="-2.012425">
        <ele>1124.8</ele>
        <time>2019-12-29T10:58:00Z</time>
      </trkpt>
      <trkpt lat="40.075421" lon="-2.012426">
        <ele>1124.5</ele>
        <time>2019-12-29T10:58:02Z</time>
      </trkpt>
      <trkpt lat="40.075540" lon="-2.012426">
        <ele>1124.5</ele>
        <time>2019-12-29T10:58:05Z</time>
      </trkpt>
      <trkpt lat="40.075676" lon="-2.012427">
        <ele>1124.4</ele>
        <time>2019-12-29T10:58:08Z</time>
      </trkpt>
      <trkpt lat="40.075782" lon="-2.012392">
        <ele>1124.4</ele>
        <time>2019-12-29T10:58:10Z</time>
      </trkpt>
      <trkpt lat="40.075890" lon="-2.012351">
        <ele>1124.4</ele>
        <time>2019-12-29T10:58:12Z</time>
      </trkpt>
      <trkpt lat="40.076000" lon="-2.012316">
        <ele>1124.3</ele>
        <time>2019-12-29T10:58:14Z</time>
      </trkpt>
      <trkpt lat="40.076101" lon="-2.012311">
        <ele>1124.1</ele>
        <time>2019-12-29T10:58:16Z</time>
      </trkpt>
      <trkpt lat="40.076209" lon="-2.012320">
        <ele>1123.6</ele>
        <time>2019-12-29T10:58:19Z</time>
      </trkpt>
      <trkpt lat="40.076320" lon="-2.012297">
        <ele>1123.3</ele>
        <time>2019-12-29T10:58:22Z</time>
      </trkpt>
      <trkpt lat="40.076428" lon="-2.012313">
        <ele>1123.1</ele>
        <time>2019-12-29T10:58:25Z</time>
      </trkpt>
      <trkpt lat="40.076513" lon="-2.012394">
        <ele>1122.4</ele>
        <time>2019-12-29T10:58:36Z</time>
      </trkpt>
      <trkpt lat="40.076557" lon="-2.012500">
        <ele>1122.2</ele>
        <time>2019-12-29T10:58:45Z</time>
      </trkpt>
      <trkpt lat="40.076592" lon="-2.012643">
        <ele>1122.8</ele>
        <time>2019-12-29T10:58:51Z</time>
      </trkpt>
      <trkpt lat="40.076536" lon="-2.012779">
        <ele>1123.0</ele>
        <time>2019-12-29T10:58:55Z</time>
      </trkpt>
      <trkpt lat="40.076492" lon="-2.012887">
        <ele>1123.0</ele>
        <time>2019-12-29T10:58:58Z</time>
      </trkpt>
      <trkpt lat="40.076412" lon="-2.013004">
        <ele>1123.0</ele>
        <time>2019-12-29T10:59:02Z</time>
      </trkpt>
      <trkpt lat="40.076325" lon="-2.013098">
        <ele>1122.9</ele>
        <time>2019-12-29T10:59:05Z</time>
      </trkpt>
      <trkpt lat="40.076209" lon="-2.013173">
        <ele>1122.7</ele>
        <time>2019-12-29T10:59:08Z</time>
      </trkpt>
      <trkpt lat="40.076122" lon="-2.013222">
        <ele>1122.6</ele>
        <time>2019-12-29T10:59:10Z</time>
      </trkpt>
      <trkpt lat="40.076018" lon="-2.013315">
        <ele>1122.6</ele>
        <time>2019-12-29T10:59:13Z</time>
      </trkpt>
      <trkpt lat="40.075914" lon="-2.013429">
        <ele>1122.5</ele>
        <time>2019-12-29T10:59:16Z</time>
      </trkpt>
      <trkpt lat="40.075839" lon="-2.013501">
        <ele>1122.5</ele>
        <time>2019-12-29T10:59:18Z</time>
      </trkpt>
      <trkpt lat="40.075771" lon="-2.013590">
        <ele>1122.5</ele>
        <time>2019-12-29T10:59:20Z</time>
      </trkpt>
      <trkpt lat="40.075701" lon="-2.013679">
        <ele>1122.5</ele>
        <time>2019-12-29T10:59:22Z</time>
      </trkpt>
      <trkpt lat="40.075620" lon="-2.013773">
        <ele>1122.1</ele>
        <time>2019-12-29T10:59:24Z</time>
      </trkpt>
      <trkpt lat="40.075577" lon="-2.013887">
        <ele>1122.0</ele>
        <time>2019-12-29T10:59:26Z</time>
      </trkpt>
      <trkpt lat="40.075531" lon="-2.013998">
        <ele>1121.7</ele>
        <time>2019-12-29T10:59:28Z</time>
      </trkpt>
      <trkpt lat="40.075475" lon="-2.014146">
        <ele>1121.5</ele>
        <time>2019-12-29T10:59:31Z</time>
      </trkpt>
      <trkpt lat="40.075393" lon="-2.014279">
        <ele>1121.4</ele>
        <time>2019-12-29T10:59:34Z</time>
      </trkpt>
      <trkpt lat="40.075311" lon="-2.014403">
        <ele>1121.4</ele>
        <time>2019-12-29T10:59:37Z</time>
      </trkpt>
      <trkpt lat="40.075220" lon="-2.014512">
        <ele>1121.4</ele>
        <time>2019-12-29T10:59:40Z</time>
      </trkpt>
      <trkpt lat="40.075109" lon="-2.014596">
        <ele>1121.4</ele>
        <time>2019-12-29T10:59:43Z</time>
      </trkpt>
      <trkpt lat="40.074996" lon="-2.014636">
        <ele>1121.6</ele>
        <time>2019-12-29T10:59:46Z</time>
      </trkpt>
      <trkpt lat="40.074901" lon="-2.014683">
        <ele>1121.6</ele>
        <time>2019-12-29T10:59:49Z</time>
      </trkpt>
      <trkpt lat="40.074809" lon="-2.014693">
        <ele>1121.5</ele>
        <time>2019-12-29T10:59:52Z</time>
      </trkpt>
      <trkpt lat="40.074731" lon="-2.014759">
        <ele>1121.9</ele>
        <time>2019-12-29T10:59:56Z</time>
      </trkpt>
      <trkpt lat="40.074613" lon="-2.014789">
        <ele>1123.0</ele>
        <time>2019-12-29T11:00:01Z</time>
      </trkpt>
      <trkpt lat="40.074478" lon="-2.014778">
        <ele>1123.3</ele>
        <time>2019-12-29T11:00:04Z</time>
      </trkpt>
      <trkpt lat="40.074388" lon="-2.014762">
        <ele>1123.3</ele>
        <time>2019-12-29T11:00:06Z</time>
      </trkpt>
      <trkpt lat="40.074280" lon="-2.014702">
        <ele>1123.1</ele>
        <time>2019-12-29T11:00:09Z</time>
      </trkpt>
      <trkpt lat="40.074184" lon="-2.014691">
        <ele>1123.4</ele>
        <time>2019-12-29T11:00:12Z</time>
      </trkpt>
      <trkpt lat="40.074086" lon="-2.014764">
        <ele>1123.8</ele>
        <time>2019-12-29T11:00:15Z</time>
      </trkpt>
      <trkpt lat="40.074002" lon="-2.014905">
        <ele>1124.1</ele>
        <time>2019-12-29T11:00:18Z</time>
      </trkpt>
      <trkpt lat="40.073914" lon="-2.014999">
        <ele>1123.9</ele>
        <time>2019-12-29T11:00:20Z</time>
      </trkpt>
      <trkpt lat="40.073792" lon="-2.015081">
        <ele>1123.2</ele>
        <time>2019-12-29T11:00:22Z</time>
      </trkpt>
      <trkpt lat="40.073666" lon="-2.015163">
        <ele>1122.6</ele>
        <time>2019-12-29T11:00:24Z</time>
      </trkpt>
      <trkpt lat="40.073551" lon="-2.015267">
        <ele>1122.0</ele>
        <time>2019-12-29T11:00:26Z</time>
      </trkpt>
      <trkpt lat="40.073463" lon="-2.015398">
        <ele>1121.5</ele>
        <time>2019-12-29T11:00:28Z</time>
      </trkpt>
      <trkpt lat="40.073385" lon="-2.015524">
        <ele>1121.2</ele>
        <time>2019-12-29T11:00:30Z</time>
      </trkpt>
      <trkpt lat="40.073321" lon="-2.015663">
        <ele>1120.7</ele>
        <time>2019-12-29T11:00:32Z</time>
      </trkpt>
      <trkpt lat="40.073282" lon="-2.015806">
        <ele>1120.3</ele>
        <time>2019-12-29T11:00:34Z</time>
      </trkpt>
      <trkpt lat="40.073213" lon="-2.015908">
        <ele>1120.0</ele>
        <time>2019-12-29T11:00:36Z</time>
      </trkpt>
      <trkpt lat="40.073129" lon="-2.015996">
        <ele>1119.6</ele>
        <time>2019-12-29T11:00:39Z</time>
      </trkpt>
      <trkpt lat="40.073056" lon="-2.016083">
        <ele>1119.2</ele>
        <time>2019-12-29T11:00:44Z</time>
      </trkpt>
      <trkpt lat="40.072977" lon="-2.016163">
        <ele>1119.1</ele>
        <time>2019-12-29T11:00:48Z</time>
      </trkpt>
      <trkpt lat="40.072888" lon="-2.016220">
        <ele>1119.0</ele>
        <time>2019-12-29T11:00:51Z</time>
      </trkpt>
      <trkpt lat="40.072791" lon="-2.016274">
        <ele>1118.9</ele>
        <time>2019-12-29T11:00:54Z</time>
      </trkpt>
      <trkpt lat="40.072696" lon="-2.016306">
        <ele>1119.0</ele>
        <time>2019-12-29T11:00:58Z</time>
      </trkpt>
      <trkpt lat="40.072594" lon="-2.016322">
        <ele>1119.2</ele>
        <time>2019-12-29T11:01:01Z</time>
      </trkpt>
      <trkpt lat="40.072509" lon="-2.016361">
        <ele>1119.2</ele>
        <time>2019-12-29T11:01:04Z</time>
      </trkpt>
      <trkpt lat="40.072425" lon="-2.016413">
        <ele>1119.5</ele>
        <time>2019-12-29T11:01:07Z</time>
      </trkpt>
      <trkpt lat="40.072336" lon="-2.016453">
        <ele>1119.7</ele>
        <time>2019-12-29T11:01:11Z</time>
      </trkpt>
      <trkpt lat="40.072302" lon="-2.016574">
        <ele>1119.7</ele>
        <time>2019-12-29T11:01:16Z</time>
      </trkpt>
      <trkpt lat="40.072306" lon="-2.016707">
        <ele>1119.8</ele>
        <time>2019-12-29T11:01:20Z</time>
      </trkpt>
      <trkpt lat="40.072261" lon="-2.016817">
        <ele>1119.8</ele>
        <time>2019-12-29T11:01:26Z</time>
      </trkpt>
      <trkpt lat="40.072223" lon="-2.016926">
        <ele>1118.8</ele>
        <time>2019-12-29T11:01:33Z</time>
      </trkpt>
      <trkpt lat="40.072136" lon="-2.016982">
        <ele>1118.0</ele>
        <time>2019-12-29T11:01:54Z</time>
      </trkpt>
      <trkpt lat="40.072062" lon="-2.017065">
        <ele>1118.2</ele>
        <time>2019-12-29T11:01:59Z</time>
      </trkpt>
      <trkpt lat="40.072047" lon="-2.017208">
        <ele>1118.3</ele>
        <time>2019-12-29T11:02:02Z</time>
      </trkpt>
      <trkpt lat="40.072017" lon="-2.017362">
        <ele>1118.4</ele>
        <time>2019-12-29T11:02:05Z</time>
      </trkpt>
      <trkpt lat="40.071989" lon="-2.017473">
        <ele>1118.4</ele>
        <time>2019-12-29T11:02:07Z</time>
      </trkpt>
      <trkpt lat="40.071950" lon="-2.017586">
        <ele>1118.3</ele>
        <time>2019-12-29T11:02:09Z</time>
      </trkpt>
      <trkpt lat="40.071885" lon="-2.017732">
        <ele>1118.2</ele>
        <time>2019-12-29T11:02:12Z</time>
      </trkpt>
      <trkpt lat="40.071853" lon="-2.017903">
        <ele>1118.1</ele>
        <time>2019-12-29T11:02:15Z</time>
      </trkpt>
      <trkpt lat="40.071853" lon="-2.018067">
        <ele>1118.0</ele>
        <time>2019-12-29T11:02:18Z</time>
      </trkpt>
      <trkpt lat="40.071851" lon="-2.018222">
        <ele>1117.8</ele>
        <time>2019-12-29T11:02:21Z</time>
      </trkpt>
      <trkpt lat="40.071843" lon="-2.018355">
        <ele>1117.6</ele>
        <time>2019-12-29T11:02:24Z</time>
      </trkpt>
      <trkpt lat="40.071785" lon="-2.018455">
        <ele>1117.7</ele>
        <time>2019-12-29T11:02:27Z</time>
      </trkpt>
      <trkpt lat="40.071722" lon="-2.018576">
        <ele>1117.9</ele>
        <time>2019-12-29T11:02:30Z</time>
      </trkpt>
      <trkpt lat="40.071674" lon="-2.018703">
        <ele>1118.0</ele>
        <time>2019-12-29T11:02:33Z</time>
      </trkpt>
      <trkpt lat="40.071619" lon="-2.018817">
        <ele>1118.2</ele>
        <time>2019-12-29T11:02:36Z</time>
      </trkpt>
      <trkpt lat="40.071550" lon="-2.018921">
        <ele>1118.5</ele>
        <time>2019-12-29T11:02:40Z</time>
      </trkpt>
      <trkpt lat="40.071489" lon="-2.019023">
        <ele>1118.5</ele>
        <time>2019-12-29T11:02:44Z</time>
      </trkpt>
      <trkpt lat="40.071436" lon="-2.019134">
        <ele>1118.2</ele>
        <time>2019-12-29T11:02:48Z</time>
      </trkpt>
      <trkpt lat="40.071380" lon="-2.019230">
        <ele>1117.9</ele>
        <time>2019-12-29T11:02:51Z</time>
      </trkpt>
      <trkpt lat="40.071318" lon="-2.019345">
        <ele>1118.0</ele>
        <time>2019-12-29T11:02:55Z</time>
      </trkpt>
      <trkpt lat="40.071271" lon="-2.019489">
        <ele>1118.1</ele>
        <time>2019-12-29T11:02:59Z</time>
      </trkpt>
      <trkpt lat="40.071227" lon="-2.019592">
        <ele>1118.1</ele>
        <time>2019-12-29T11:03:02Z</time>
      </trkpt>
      <trkpt lat="40.071168" lon="-2.019722">
        <ele>1118.2</ele>
        <time>2019-12-29T11:03:06Z</time>
      </trkpt>
      <trkpt lat="40.071111" lon="-2.019845">
        <ele>1118.2</ele>
        <time>2019-12-29T11:03:09Z</time>
      </trkpt>
      <trkpt lat="40.071061" lon="-2.019948">
        <ele>1118.3</ele>
        <time>2019-12-29T11:03:12Z</time>
      </trkpt>
      <trkpt lat="40.071015" lon="-2.020061">
        <ele>1118.6</ele>
        <time>2019-12-29T11:03:15Z</time>
      </trkpt>
      <trkpt lat="40.070962" lon="-2.020205">
        <ele>1118.8</ele>
        <time>2019-12-29T11:03:18Z</time>
      </trkpt>
      <trkpt lat="40.070913" lon="-2.020357">
        <ele>1118.8</ele>
        <time>2019-12-29T11:03:21Z</time>
      </trkpt>
      <trkpt lat="40.070875" lon="-2.020502">
        <ele>1118.8</ele>
        <time>2019-12-29T11:03:24Z</time>
      </trkpt>
      <trkpt lat="40.070845" lon="-2.020669">
        <ele>1118.5</ele>
        <time>2019-12-29T11:03:27Z</time>
      </trkpt>
      <trkpt lat="40.070826" lon="-2.020824">
        <ele>1118.3</ele>
        <time>2019-12-29T11:03:30Z</time>
      </trkpt>
      <trkpt lat="40.070775" lon="-2.020946">
        <ele>1118.2</ele>
        <time>2019-12-29T11:03:33Z</time>
      </trkpt>
      <trkpt lat="40.070712" lon="-2.021053">
        <ele>1118.2</ele>
        <time>2019-12-29T11:03:36Z</time>
      </trkpt>
      <trkpt lat="40.070634" lon="-2.021161">
        <ele>1118.1</ele>
        <time>2019-12-29T11:03:39Z</time>
      </trkpt>
      <trkpt lat="40.070515" lon="-2.021216">
        <ele>1118.2</ele>
        <time>2019-12-29T11:03:42Z</time>
      </trkpt>
      <trkpt lat="40.070400" lon="-2.021258">
        <ele>1118.1</ele>
        <time>2019-12-29T11:03:45Z</time>
      </trkpt>
      <trkpt lat="40.070280" lon="-2.021339">
        <ele>1117.9</ele>
        <time>2019-12-29T11:03:48Z</time>
      </trkpt>
      <trkpt lat="40.070199" lon="-2.021427">
        <ele>1117.8</ele>
        <time>2019-12-29T11:03:50Z</time>
      </trkpt>
      <trkpt lat="40.070120" lon="-2.021514">
        <ele>1117.4</ele>
        <time>2019-12-29T11:03:52Z</time>
      </trkpt>
      <trkpt lat="40.070039" lon="-2.021589">
        <ele>1117.1</ele>
        <time>2019-12-29T11:03:54Z</time>
      </trkpt>
      <trkpt lat="40.069949" lon="-2.021657">
        <ele>1116.8</ele>
        <time>2019-12-29T11:03:56Z</time>
      </trkpt>
      <trkpt lat="40.069852" lon="-2.021715">
        <ele>1116.5</ele>
        <time>2019-12-29T11:03:58Z</time>
      </trkpt>
      <trkpt lat="40.069763" lon="-2.021762">
        <ele>1116.2</ele>
        <time>2019-12-29T11:04:00Z</time>
      </trkpt>
      <trkpt lat="40.069671" lon="-2.021785">
        <ele>1116.0</ele>
        <time>2019-12-29T11:04:02Z</time>
      </trkpt>
      <trkpt lat="40.069586" lon="-2.021833">
        <ele>1115.8</ele>
        <time>2019-12-29T11:04:04Z</time>
      </trkpt>
      <trkpt lat="40.069514" lon="-2.021970">
        <ele>1115.6</ele>
        <time>2019-12-29T11:04:07Z</time>
      </trkpt>
      <trkpt lat="40.069515" lon="-2.022088">
        <ele>1115.5</ele>
        <time>2019-12-29T11:04:09Z</time>
      </trkpt>
      <trkpt lat="40.069553" lon="-2.022230">
        <ele>1115.4</ele>
        <time>2019-12-29T11:04:12Z</time>
      </trkpt>
      <trkpt lat="40.069629" lon="-2.022379">
        <ele>1115.3</ele>
        <time>2019-12-29T11:04:15Z</time>
      </trkpt>
      <trkpt lat="40.069693" lon="-2.022467">
        <ele>1115.3</ele>
        <time>2019-12-29T11:04:17Z</time>
      </trkpt>
      <trkpt lat="40.069738" lon="-2.022576">
        <ele>1115.3</ele>
        <time>2019-12-29T11:04:19Z</time>
      </trkpt>
      <trkpt lat="40.069787" lon="-2.022740">
        <ele>1115.5</ele>
        <time>2019-12-29T11:04:22Z</time>
      </trkpt>
      <trkpt lat="40.069820" lon="-2.022852">
        <ele>1115.7</ele>
        <time>2019-12-29T11:04:24Z</time>
      </trkpt>
      <trkpt lat="40.069862" lon="-2.022959">
        <ele>1115.6</ele>
        <time>2019-12-29T11:04:26Z</time>
      </trkpt>
      <trkpt lat="40.069923" lon="-2.023116">
        <ele>1115.7</ele>
        <time>2019-12-29T11:04:29Z</time>
      </trkpt>
      <trkpt lat="40.069944" lon="-2.023242">
        <ele>1115.7</ele>
        <time>2019-12-29T11:04:31Z</time>
      </trkpt>
      <trkpt lat="40.069953" lon="-2.023385">
        <ele>1115.7</ele>
        <time>2019-12-29T11:04:33Z</time>
      </trkpt>
      <trkpt lat="40.069960" lon="-2.023525">
        <ele>1115.4</ele>
        <time>2019-12-29T11:04:35Z</time>
      </trkpt>
      <trkpt lat="40.069959" lon="-2.023662">
        <ele>1115.2</ele>
        <time>2019-12-29T11:04:37Z</time>
      </trkpt>
      <trkpt lat="40.069949" lon="-2.023805">
        <ele>1114.9</ele>
        <time>2019-12-29T11:04:39Z</time>
      </trkpt>
      <trkpt lat="40.069918" lon="-2.023941">
        <ele>1114.7</ele>
        <time>2019-12-29T11:04:41Z</time>
      </trkpt>
      <trkpt lat="40.069873" lon="-2.024070">
        <ele>1114.6</ele>
        <time>2019-12-29T11:04:43Z</time>
      </trkpt>
      <trkpt lat="40.069845" lon="-2.024195">
        <ele>1114.4</ele>
        <time>2019-12-29T11:04:45Z</time>
      </trkpt>
      <trkpt lat="40.069816" lon="-2.024326">
        <ele>1114.2</ele>
        <time>2019-12-29T11:04:47Z</time>
      </trkpt>
      <trkpt lat="40.069789" lon="-2.024456">
        <ele>1114.0</ele>
        <time>2019-12-29T11:04:49Z</time>
      </trkpt>
      <trkpt lat="40.069745" lon="-2.024573">
        <ele>1113.8</ele>
        <time>2019-12-29T11:04:51Z</time>
      </trkpt>
      <trkpt lat="40.069670" lon="-2.024681">
        <ele>1113.7</ele>
        <time>2019-12-29T11:04:53Z</time>
      </trkpt>
      <trkpt lat="40.069586" lon="-2.024784">
        <ele>1113.6</ele>
        <time>2019-12-29T11:04:55Z</time>
      </trkpt>
      <trkpt lat="40.069507" lon="-2.024881">
        <ele>1113.4</ele>
        <time>2019-12-29T11:04:57Z</time>
      </trkpt>
      <trkpt lat="40.069421" lon="-2.024956">
        <ele>1113.1</ele>
        <time>2019-12-29T11:04:59Z</time>
      </trkpt>
      <trkpt lat="40.069328" lon="-2.025023">
        <ele>1112.8</ele>
        <time>2019-12-29T11:05:01Z</time>
      </trkpt>
      <trkpt lat="40.069244" lon="-2.025100">
        <ele>1112.6</ele>
        <time>2019-12-29T11:05:03Z</time>
      </trkpt>
      <trkpt lat="40.069163" lon="-2.025180">
        <ele>1112.3</ele>
        <time>2019-12-29T11:05:05Z</time>
      </trkpt>
      <trkpt lat="40.069080" lon="-2.025264">
        <ele>1112.2</ele>
        <time>2019-12-29T11:05:07Z</time>
      </trkpt>
      <trkpt lat="40.069008" lon="-2.025346">
        <ele>1112.1</ele>
        <time>2019-12-29T11:05:09Z</time>
      </trkpt>
      <trkpt lat="40.068937" lon="-2.025426">
        <ele>1112.2</ele>
        <time>2019-12-29T11:05:11Z</time>
      </trkpt>
      <trkpt lat="40.068869" lon="-2.025510">
        <ele>1112.3</ele>
        <time>2019-12-29T11:05:13Z</time>
      </trkpt>
      <trkpt lat="40.068807" lon="-2.025605">
        <ele>1112.5</ele>
        <time>2019-12-29T11:05:15Z</time>
      </trkpt>
      <trkpt lat="40.068712" lon="-2.025721">
        <ele>1112.7</ele>
        <time>2019-12-29T11:05:18Z</time>
      </trkpt>
      <trkpt lat="40.068622" lon="-2.025826">
        <ele>1113.1</ele>
        <time>2019-12-29T11:05:21Z</time>
      </trkpt>
      <trkpt lat="40.068550" lon="-2.025930">
        <ele>1113.6</ele>
        <time>2019-12-29T11:05:24Z</time>
      </trkpt>
      <trkpt lat="40.068508" lon="-2.026037">
        <ele>1114.4</ele>
        <time>2019-12-29T11:05:28Z</time>
      </trkpt>
      <trkpt lat="40.068527" lon="-2.026157">
        <ele>1115.9</ele>
        <time>2019-12-29T11:05:39Z</time>
      </trkpt>
      <trkpt lat="40.068595" lon="-2.026269">
        <ele>1116.7</ele>
        <time>2019-12-29T11:07:08Z</time>
      </trkpt>
      <trkpt lat="40.068664" lon="-2.026383">
        <ele>1117.0</ele>
        <time>2019-12-29T11:07:13Z</time>
      </trkpt>
      <trkpt lat="40.068726" lon="-2.026478">
        <ele>1118.1</ele>
        <time>2019-12-29T11:07:19Z</time>
      </trkpt>
      <trkpt lat="40.068766" lon="-2.026588">
        <ele>1118.5</ele>
        <time>2019-12-29T11:07:24Z</time>
      </trkpt>
      <trkpt lat="40.068818" lon="-2.026727">
        <ele>1118.5</ele>
        <time>2019-12-29T11:07:28Z</time>
      </trkpt>
      <trkpt lat="40.068862" lon="-2.026853">
        <ele>1118.4</ele>
        <time>2019-12-29T11:07:31Z</time>
      </trkpt>
      <trkpt lat="40.068888" lon="-2.026983">
        <ele>1118.4</ele>
        <time>2019-12-29T11:07:34Z</time>
      </trkpt>
      <trkpt lat="40.068924" lon="-2.027139">
        <ele>1118.2</ele>
        <time>2019-12-29T11:07:37Z</time>
      </trkpt>
      <trkpt lat="40.068943" lon="-2.027254">
        <ele>1118.1</ele>
        <time>2019-12-29T11:07:39Z</time>
      </trkpt>
      <trkpt lat="40.068959" lon="-2.027370">
        <ele>1118.0</ele>
        <time>2019-12-29T11:07:41Z</time>
      </trkpt>
      <trkpt lat="40.068985" lon="-2.027528">
        <ele>1117.9</ele>
        <time>2019-12-29T11:07:44Z</time>
      </trkpt>
      <trkpt lat="40.069021" lon="-2.027683">
        <ele>1117.9</ele>
        <time>2019-12-29T11:07:47Z</time>
      </trkpt>
      <trkpt lat="40.069055" lon="-2.027837">
        <ele>1117.9</ele>
        <time>2019-12-29T11:07:50Z</time>
      </trkpt>
      <trkpt lat="40.069075" lon="-2.027995">
        <ele>1118.0</ele>
        <time>2019-12-29T11:07:53Z</time>
      </trkpt>
      <trkpt lat="40.069085" lon="-2.028141">
        <ele>1118.0</ele>
        <time>2019-12-29T11:07:56Z</time>
      </trkpt>
      <trkpt lat="40.069087" lon="-2.028298">
        <ele>1118.0</ele>
        <time>2019-12-29T11:07:59Z</time>
      </trkpt>
      <trkpt lat="40.069067" lon="-2.028457">
        <ele>1118.1</ele>
        <time>2019-12-29T11:08:02Z</time>
      </trkpt>
      <trkpt lat="40.069037" lon="-2.028615">
        <ele>1118.2</ele>
        <time>2019-12-29T11:08:05Z</time>
      </trkpt>
      <trkpt lat="40.068993" lon="-2.028781">
        <ele>1118.2</ele>
        <time>2019-12-29T11:08:08Z</time>
      </trkpt>
      <trkpt lat="40.068949" lon="-2.028936">
        <ele>1118.2</ele>
        <time>2019-12-29T11:08:11Z</time>
      </trkpt>
      <trkpt lat="40.068907" lon="-2.029082">
        <ele>1118.2</ele>
        <time>2019-12-29T11:08:14Z</time>
      </trkpt>
      <trkpt lat="40.068867" lon="-2.029230">
        <ele>1118.2</ele>
        <time>2019-12-29T11:08:17Z</time>
      </trkpt>
      <trkpt lat="40.068817" lon="-2.029374">
        <ele>1118.5</ele>
        <time>2019-12-29T11:08:20Z</time>
      </trkpt>
      <trkpt lat="40.068765" lon="-2.029508">
        <ele>1118.7</ele>
        <time>2019-12-29T11:08:23Z</time>
      </trkpt>
      <trkpt lat="40.068699" lon="-2.029650">
        <ele>1118.8</ele>
        <time>2019-12-29T11:08:26Z</time>
      </trkpt>
      <trkpt lat="40.068618" lon="-2.029779">
        <ele>1118.8</ele>
        <time>2019-12-29T11:08:29Z</time>
      </trkpt>
      <trkpt lat="40.068535" lon="-2.029896">
        <ele>1118.8</ele>
        <time>2019-12-29T11:08:32Z</time>
      </trkpt>
      <trkpt lat="40.068450" lon="-2.030004">
        <ele>1118.8</ele>
        <time>2019-12-29T11:08:35Z</time>
      </trkpt>
      <trkpt lat="40.068372" lon="-2.030100">
        <ele>1119.1</ele>
        <time>2019-12-29T11:08:38Z</time>
      </trkpt>
      <trkpt lat="40.068326" lon="-2.030203">
        <ele>1119.3</ele>
        <time>2019-12-29T11:08:41Z</time>
      </trkpt>
      <trkpt lat="40.068279" lon="-2.030303">
        <ele>1119.8</ele>
        <time>2019-12-29T11:08:46Z</time>
      </trkpt>
      <trkpt lat="40.068251" lon="-2.030447">
        <ele>1120.0</ele>
        <time>2019-12-29T11:08:50Z</time>
      </trkpt>
      <trkpt lat="40.068272" lon="-2.030595">
        <ele>1119.9</ele>
        <time>2019-12-29T11:08:53Z</time>
      </trkpt>
      <trkpt lat="40.068338" lon="-2.030683">
        <ele>1119.5</ele>
        <time>2019-12-29T11:08:55Z</time>
      </trkpt>
      <trkpt lat="40.068407" lon="-2.030774">
        <ele>1118.8</ele>
        <time>2019-12-29T11:08:57Z</time>
      </trkpt>
      <trkpt lat="40.068471" lon="-2.030863">
        <ele>1118.3</ele>
        <time>2019-12-29T11:08:59Z</time>
      </trkpt>
      <trkpt lat="40.068548" lon="-2.030957">
        <ele>1117.6</ele>
        <time>2019-12-29T11:09:02Z</time>
      </trkpt>
      <trkpt lat="40.068619" lon="-2.031074">
        <ele>1117.0</ele>
        <time>2019-12-29T11:09:05Z</time>
      </trkpt>
      <trkpt lat="40.068684" lon="-2.031177">
        <ele>1116.5</ele>
        <time>2019-12-29T11:09:07Z</time>
      </trkpt>
      <trkpt lat="40.068737" lon="-2.031277">
        <ele>1115.9</ele>
        <time>2019-12-29T11:09:09Z</time>
      </trkpt>
      <trkpt lat="40.068800" lon="-2.031366">
        <ele>1115.0</ele>
        <time>2019-12-29T11:09:11Z</time>
      </trkpt>
      <trkpt lat="40.068911" lon="-2.031444">
        <ele>1113.9</ele>
        <time>2019-12-29T11:09:14Z</time>
      </trkpt>
      <trkpt lat="40.069001" lon="-2.031503">
        <ele>1113.3</ele>
        <time>2019-12-29T11:09:17Z</time>
      </trkpt>
      <trkpt lat="40.069087" lon="-2.031582">
        <ele>1112.9</ele>
        <time>2019-12-29T11:09:20Z</time>
      </trkpt>
      <trkpt lat="40.069169" lon="-2.031651">
        <ele>1112.5</ele>
        <time>2019-12-29T11:09:22Z</time>
      </trkpt>
      <trkpt lat="40.069246" lon="-2.031738">
        <ele>1111.7</ele>
        <time>2019-12-29T11:09:24Z</time>
      </trkpt>
      <trkpt lat="40.069302" lon="-2.031857">
        <ele>1111.0</ele>
        <time>2019-12-29T11:09:26Z</time>
      </trkpt>
      <trkpt lat="40.069364" lon="-2.031999">
        <ele>1110.5</ele>
        <time>2019-12-29T11:09:28Z</time>
      </trkpt>
      <trkpt lat="40.069407" lon="-2.032131">
        <ele>1109.6</ele>
        <time>2019-12-29T11:09:30Z</time>
      </trkpt>
      <trkpt lat="40.069484" lon="-2.032213">
        <ele>1108.6</ele>
        <time>2019-12-29T11:09:32Z</time>
      </trkpt>
      <trkpt lat="40.069564" lon="-2.032276">
        <ele>1107.8</ele>
        <time>2019-12-29T11:09:34Z</time>
      </trkpt>
      <trkpt lat="40.069631" lon="-2.032360">
        <ele>1106.8</ele>
        <time>2019-12-29T11:09:37Z</time>
      </trkpt>
      <trkpt lat="40.069590" lon="-2.032492">
        <ele>1106.3</ele>
        <time>2019-12-29T11:09:40Z</time>
      </trkpt>
      <trkpt lat="40.069575" lon="-2.032649">
        <ele>1106.0</ele>
        <time>2019-12-29T11:09:43Z</time>
      </trkpt>
      <trkpt lat="40.069568" lon="-2.032795">
        <ele>1105.6</ele>
        <time>2019-12-29T11:09:46Z</time>
      </trkpt>
      <trkpt lat="40.069535" lon="-2.032947">
        <ele>1105.4</ele>
        <time>2019-12-29T11:09:49Z</time>
      </trkpt>
      <trkpt lat="40.069447" lon="-2.033071">
        <ele>1105.4</ele>
        <time>2019-12-29T11:09:52Z</time>
      </trkpt>
      <trkpt lat="40.069352" lon="-2.033182">
        <ele>1105.5</ele>
        <time>2019-12-29T11:09:55Z</time>
      </trkpt>
      <trkpt lat="40.069280" lon="-2.033262">
        <ele>1105.5</ele>
        <time>2019-12-29T11:09:57Z</time>
      </trkpt>
      <trkpt lat="40.069167" lon="-2.033356">
        <ele>1105.5</ele>
        <time>2019-12-29T11:10:00Z</time>
      </trkpt>
      <trkpt lat="40.069100" lon="-2.033437">
        <ele>1105.5</ele>
        <time>2019-12-29T11:10:02Z</time>
      </trkpt>
      <trkpt lat="40.069022" lon="-2.033569">
        <ele>1105.4</ele>
        <time>2019-12-29T11:10:05Z</time>
      </trkpt>
      <trkpt lat="40.068972" lon="-2.033706">
        <ele>1105.0</ele>
        <time>2019-12-29T11:10:08Z</time>
      </trkpt>
      <trkpt lat="40.068927" lon="-2.033858">
        <ele>1104.6</ele>
        <time>2019-12-29T11:10:11Z</time>
      </trkpt>
      <trkpt lat="40.068863" lon="-2.033943">
        <ele>1104.3</ele>
        <time>2019-12-29T11:10:13Z</time>
      </trkpt>
      <trkpt lat="40.068753" lon="-2.034035">
        <ele>1103.7</ele>
        <time>2019-12-29T11:10:16Z</time>
      </trkpt>
      <trkpt lat="40.068656" lon="-2.034083">
        <ele>1103.2</ele>
        <time>2019-12-29T11:10:19Z</time>
      </trkpt>
      <trkpt lat="40.068558" lon="-2.034086">
        <ele>1103.0</ele>
        <time>2019-12-29T11:10:22Z</time>
      </trkpt>
      <trkpt lat="40.068461" lon="-2.034095">
        <ele>1102.9</ele>
        <time>2019-12-29T11:10:25Z</time>
      </trkpt>
      <trkpt lat="40.068361" lon="-2.034146">
        <ele>1102.9</ele>
        <time>2019-12-29T11:10:28Z</time>
      </trkpt>
      <trkpt lat="40.068275" lon="-2.034216">
        <ele>1102.9</ele>
        <time>2019-12-29T11:10:31Z</time>
      </trkpt>
      <trkpt lat="40.068186" lon="-2.034316">
        <ele>1102.9</ele>
        <time>2019-12-29T11:10:34Z</time>
      </trkpt>
      <trkpt lat="40.068057" lon="-2.034390">
        <ele>1102.8</ele>
        <time>2019-12-29T11:10:37Z</time>
      </trkpt>
      <trkpt lat="40.067961" lon="-2.034434">
        <ele>1102.5</ele>
        <time>2019-12-29T11:10:39Z</time>
      </trkpt>
      <trkpt lat="40.067869" lon="-2.034449">
        <ele>1102.2</ele>
        <time>2019-12-29T11:10:41Z</time>
      </trkpt>
      <trkpt lat="40.067766" lon="-2.034502">
        <ele>1101.6</ele>
        <time>2019-12-29T11:10:44Z</time>
      </trkpt>
      <trkpt lat="40.067693" lon="-2.034570">
        <ele>1101.3</ele>
        <time>2019-12-29T11:10:46Z</time>
      </trkpt>
      <trkpt lat="40.067649" lon="-2.034681">
        <ele>1101.0</ele>
        <time>2019-12-29T11:10:48Z</time>
      </trkpt>
      <trkpt lat="40.067583" lon="-2.034795">
        <ele>1100.6</ele>
        <time>2019-12-29T11:10:50Z</time>
      </trkpt>
      <trkpt lat="40.067492" lon="-2.034887">
        <ele>1100.1</ele>
        <time>2019-12-29T11:10:52Z</time>
      </trkpt>
      <trkpt lat="40.067402" lon="-2.034974">
        <ele>1099.5</ele>
        <time>2019-12-29T11:10:54Z</time>
      </trkpt>
      <trkpt lat="40.067323" lon="-2.035077">
        <ele>1098.9</ele>
        <time>2019-12-29T11:10:56Z</time>
      </trkpt>
      <trkpt lat="40.067235" lon="-2.035161">
        <ele>1098.5</ele>
        <time>2019-12-29T11:10:58Z</time>
      </trkpt>
      <trkpt lat="40.067151" lon="-2.035221">
        <ele>1098.1</ele>
        <time>2019-12-29T11:11:00Z</time>
      </trkpt>
      <trkpt lat="40.067069" lon="-2.035280">
        <ele>1097.7</ele>
        <time>2019-12-29T11:11:02Z</time>
      </trkpt>
      <trkpt lat="40.066979" lon="-2.035332">
        <ele>1097.5</ele>
        <time>2019-12-29T11:11:04Z</time>
      </trkpt>
      <trkpt lat="40.066886" lon="-2.035375">
        <ele>1097.3</ele>
        <time>2019-12-29T11:11:06Z</time>
      </trkpt>
      <trkpt lat="40.066780" lon="-2.035403">
        <ele>1097.2</ele>
        <time>2019-12-29T11:11:08Z</time>
      </trkpt>
      <trkpt lat="40.066676" lon="-2.035429">
        <ele>1097.2</ele>
        <time>2019-12-29T11:11:10Z</time>
      </trkpt>
      <trkpt lat="40.066566" lon="-2.035427">
        <ele>1097.1</ele>
        <time>2019-12-29T11:11:12Z</time>
      </trkpt>
      <trkpt lat="40.066440" lon="-2.035419">
        <ele>1097.0</ele>
        <time>2019-12-29T11:11:15Z</time>
      </trkpt>
      <trkpt lat="40.066350" lon="-2.035405">
        <ele>1096.9</ele>
        <time>2019-12-29T11:11:17Z</time>
      </trkpt>
      <trkpt lat="40.066217" lon="-2.035382">
        <ele>1096.6</ele>
        <time>2019-12-29T11:11:20Z</time>
      </trkpt>
      <trkpt lat="40.066103" lon="-2.035337">
        <ele>1096.6</ele>
        <time>2019-12-29T11:11:23Z</time>
      </trkpt>
      <trkpt lat="40.066000" lon="-2.035412">
        <ele>1096.7</ele>
        <time>2019-12-29T11:11:27Z</time>
      </trkpt>
      <trkpt lat="40.065925" lon="-2.035544">
        <ele>1096.7</ele>
        <time>2019-12-29T11:11:30Z</time>
      </trkpt>
      <trkpt lat="40.065871" lon="-2.035654">
        <ele>1096.5</ele>
        <time>2019-12-29T11:11:32Z</time>
      </trkpt>
      <trkpt lat="40.065811" lon="-2.035756">
        <ele>1096.0</ele>
        <time>2019-12-29T11:11:34Z</time>
      </trkpt>
      <trkpt lat="40.065745" lon="-2.035860">
        <ele>1095.5</ele>
        <time>2019-12-29T11:11:36Z</time>
      </trkpt>
      <trkpt lat="40.065648" lon="-2.035965">
        <ele>1095.0</ele>
        <time>2019-12-29T11:11:39Z</time>
      </trkpt>
      <trkpt lat="40.065543" lon="-2.036047">
        <ele>1094.8</ele>
        <time>2019-12-29T11:11:42Z</time>
      </trkpt>
      <trkpt lat="40.065444" lon="-2.036096">
        <ele>1094.6</ele>
        <time>2019-12-29T11:11:44Z</time>
      </trkpt>
      <trkpt lat="40.065357" lon="-2.036144">
        <ele>1094.2</ele>
        <time>2019-12-29T11:11:46Z</time>
      </trkpt>
      <trkpt lat="40.065275" lon="-2.036253">
        <ele>1093.2</ele>
        <time>2019-12-29T11:11:49Z</time>
      </trkpt>
      <trkpt lat="40.065268" lon="-2.036381">
        <ele>1092.6</ele>
        <time>2019-12-29T11:11:52Z</time>
      </trkpt>
      <trkpt lat="40.065258" lon="-2.036522">
        <ele>1092.5</ele>
        <time>2019-12-29T11:11:55Z</time>
      </trkpt>
      <trkpt lat="40.065220" lon="-2.036658">
        <ele>1092.5</ele>
        <time>2019-12-29T11:11:58Z</time>
      </trkpt>
      <trkpt lat="40.065237" lon="-2.036786">
        <ele>1092.8</ele>
        <time>2019-12-29T11:12:01Z</time>
      </trkpt>
      <trkpt lat="40.065306" lon="-2.036864">
        <ele>1093.1</ele>
        <time>2019-12-29T11:12:03Z</time>
      </trkpt>
      <trkpt lat="40.065403" lon="-2.036929">
        <ele>1093.3</ele>
        <time>2019-12-29T11:12:05Z</time>
      </trkpt>
      <trkpt lat="40.065503" lon="-2.036987">
        <ele>1093.2</ele>
        <time>2019-12-29T11:12:07Z</time>
      </trkpt>
      <trkpt lat="40.065601" lon="-2.037060">
        <ele>1093.1</ele>
        <time>2019-12-29T11:12:09Z</time>
      </trkpt>
      <trkpt lat="40.065686" lon="-2.037142">
        <ele>1093.0</ele>
        <time>2019-12-29T11:12:11Z</time>
      </trkpt>
      <trkpt lat="40.065764" lon="-2.037227">
        <ele>1092.9</ele>
        <time>2019-12-29T11:12:13Z</time>
      </trkpt>
      <trkpt lat="40.065841" lon="-2.037338">
        <ele>1093.0</ele>
        <time>2019-12-29T11:12:16Z</time>
      </trkpt>
      <trkpt lat="40.065903" lon="-2.037464">
        <ele>1093.2</ele>
        <time>2019-12-29T11:12:19Z</time>
      </trkpt>
      <trkpt lat="40.065956" lon="-2.037570">
        <ele>1093.4</ele>
        <time>2019-12-29T11:12:21Z</time>
      </trkpt>
      <trkpt lat="40.066012" lon="-2.037695">
        <ele>1093.7</ele>
        <time>2019-12-29T11:12:23Z</time>
      </trkpt>
      <trkpt lat="40.066072" lon="-2.037822">
        <ele>1093.8</ele>
        <time>2019-12-29T11:12:25Z</time>
      </trkpt>
      <trkpt lat="40.066128" lon="-2.037940">
        <ele>1093.9</ele>
        <time>2019-12-29T11:12:27Z</time>
      </trkpt>
      <trkpt lat="40.066193" lon="-2.038053">
        <ele>1093.9</ele>
        <time>2019-12-29T11:12:29Z</time>
      </trkpt>
      <trkpt lat="40.066256" lon="-2.038149">
        <ele>1093.7</ele>
        <time>2019-12-29T11:12:31Z</time>
      </trkpt>
      <trkpt lat="40.066316" lon="-2.038244">
        <ele>1093.6</ele>
        <time>2019-12-29T11:12:33Z</time>
      </trkpt>
      <trkpt lat="40.066403" lon="-2.038355">
        <ele>1093.5</ele>
        <time>2019-12-29T11:12:36Z</time>
      </trkpt>
      <trkpt lat="40.066484" lon="-2.038459">
        <ele>1093.3</ele>
        <time>2019-12-29T11:12:40Z</time>
      </trkpt>
      <trkpt lat="40.066559" lon="-2.038545">
        <ele>1093.2</ele>
        <time>2019-12-29T11:12:43Z</time>
      </trkpt>
      <trkpt lat="40.066638" lon="-2.038638">
        <ele>1093.3</ele>
        <time>2019-12-29T11:12:46Z</time>
      </trkpt>
      <trkpt lat="40.066726" lon="-2.038727">
        <ele>1093.4</ele>
        <time>2019-12-29T11:12:49Z</time>
      </trkpt>
      <trkpt lat="40.066819" lon="-2.038827">
        <ele>1093.6</ele>
        <time>2019-12-29T11:12:52Z</time>
      </trkpt>
      <trkpt lat="40.066925" lon="-2.038939">
        <ele>1093.7</ele>
        <time>2019-12-29T11:12:55Z</time>
      </trkpt>
      <trkpt lat="40.066993" lon="-2.039017">
        <ele>1093.8</ele>
        <time>2019-12-29T11:12:57Z</time>
      </trkpt>
      <trkpt lat="40.067059" lon="-2.039097">
        <ele>1093.7</ele>
        <time>2019-12-29T11:12:59Z</time>
      </trkpt>
      <trkpt lat="40.067112" lon="-2.039198">
        <ele>1093.7</ele>
        <time>2019-12-29T11:13:01Z</time>
      </trkpt>
      <trkpt lat="40.067140" lon="-2.039319">
        <ele>1093.8</ele>
        <time>2019-12-29T11:13:03Z</time>
      </trkpt>
      <trkpt lat="40.067139" lon="-2.039442">
        <ele>1093.8</ele>
        <time>2019-12-29T11:13:05Z</time>
      </trkpt>
      <trkpt lat="40.067104" lon="-2.039611">
        <ele>1093.8</ele>
        <time>2019-12-29T11:13:08Z</time>
      </trkpt>
      <trkpt lat="40.067061" lon="-2.039715">
        <ele>1093.5</ele>
        <time>2019-12-29T11:13:10Z</time>
      </trkpt>
      <trkpt lat="40.066966" lon="-2.039822">
        <ele>1093.3</ele>
        <time>2019-12-29T11:13:13Z</time>
      </trkpt>
      <trkpt lat="40.066850" lon="-2.039893">
        <ele>1093.1</ele>
        <time>2019-12-29T11:13:16Z</time>
      </trkpt>
      <trkpt lat="40.066777" lon="-2.039971">
        <ele>1092.7</ele>
        <time>2019-12-29T11:13:18Z</time>
      </trkpt>
      <trkpt lat="40.066726" lon="-2.040078">
        <ele>1092.2</ele>
        <time>2019-12-29T11:13:20Z</time>
      </trkpt>
      <trkpt lat="40.066685" lon="-2.040185">
        <ele>1091.8</ele>
        <time>2019-12-29T11:13:22Z</time>
      </trkpt>
      <trkpt lat="40.066631" lon="-2.040287">
        <ele>1091.1</ele>
        <time>2019-12-29T11:13:24Z</time>
      </trkpt>
      <trkpt lat="40.066606" lon="-2.040439">
        <ele>1090.5</ele>
        <time>2019-12-29T11:13:27Z</time>
      </trkpt>
      <trkpt lat="40.066652" lon="-2.040603">
        <ele>1090.0</ele>
        <time>2019-12-29T11:13:30Z</time>
      </trkpt>
      <trkpt lat="40.066677" lon="-2.040720">
        <ele>1089.8</ele>
        <time>2019-12-29T11:13:32Z</time>
      </trkpt>
      <trkpt lat="40.066684" lon="-2.040894">
        <ele>1089.6</ele>
        <time>2019-12-29T11:13:35Z</time>
      </trkpt>
      <trkpt lat="40.066634" lon="-2.041060">
        <ele>1089.7</ele>
        <time>2019-12-29T11:13:38Z</time>
      </trkpt>
      <trkpt lat="40.066607" lon="-2.041217">
        <ele>1089.9</ele>
        <time>2019-12-29T11:13:41Z</time>
      </trkpt>
      <trkpt lat="40.066606" lon="-2.041369">
        <ele>1090.1</ele>
        <time>2019-12-29T11:13:44Z</time>
      </trkpt>
      <trkpt lat="40.066610" lon="-2.041521">
        <ele>1090.7</ele>
        <time>2019-12-29T11:13:47Z</time>
      </trkpt>
      <trkpt lat="40.066613" lon="-2.041666">
        <ele>1090.9</ele>
        <time>2019-12-29T11:13:50Z</time>
      </trkpt>
      <trkpt lat="40.066627" lon="-2.041799">
        <ele>1091.1</ele>
        <time>2019-12-29T11:13:53Z</time>
      </trkpt>
      <trkpt lat="40.066653" lon="-2.041921">
        <ele>1091.3</ele>
        <time>2019-12-29T11:13:56Z</time>
      </trkpt>
      <trkpt lat="40.066665" lon="-2.042058">
        <ele>1091.3</ele>
        <time>2019-12-29T11:13:59Z</time>
      </trkpt>
      <trkpt lat="40.066653" lon="-2.042202">
        <ele>1091.2</ele>
        <time>2019-12-29T11:14:02Z</time>
      </trkpt>
      <trkpt lat="40.066639" lon="-2.042351">
        <ele>1091.2</ele>
        <time>2019-12-29T11:14:05Z</time>
      </trkpt>
      <trkpt lat="40.066654" lon="-2.042521">
        <ele>1091.0</ele>
        <time>2019-12-29T11:14:08Z</time>
      </trkpt>
      <trkpt lat="40.066676" lon="-2.042645">
        <ele>1090.7</ele>
        <time>2019-12-29T11:14:10Z</time>
      </trkpt>
      <trkpt lat="40.066707" lon="-2.042764">
        <ele>1090.6</ele>
        <time>2019-12-29T11:14:12Z</time>
      </trkpt>
      <trkpt lat="40.066704" lon="-2.042916">
        <ele>1090.4</ele>
        <time>2019-12-29T11:14:15Z</time>
      </trkpt>
      <trkpt lat="40.066659" lon="-2.043040">
        <ele>1090.1</ele>
        <time>2019-12-29T11:14:18Z</time>
      </trkpt>
      <trkpt lat="40.066629" lon="-2.043192">
        <ele>1089.7</ele>
        <time>2019-12-29T11:14:22Z</time>
      </trkpt>
      <trkpt lat="40.066643" lon="-2.043335">
        <ele>1089.6</ele>
        <time>2019-12-29T11:14:26Z</time>
      </trkpt>
      <trkpt lat="40.066672" lon="-2.043460">
        <ele>1089.6</ele>
        <time>2019-12-29T11:14:30Z</time>
      </trkpt>
      <trkpt lat="40.066706" lon="-2.043576">
        <ele>1089.7</ele>
        <time>2019-12-29T11:14:34Z</time>
      </trkpt>
      <trkpt lat="40.066735" lon="-2.043708">
        <ele>1090.2</ele>
        <time>2019-12-29T11:14:39Z</time>
      </trkpt>
      <trkpt lat="40.066764" lon="-2.043832">
        <ele>1091.5</ele>
        <time>2019-12-29T11:14:44Z</time>
      </trkpt>
      <trkpt lat="40.066802" lon="-2.043949">
        <ele>1092.7</ele>
        <time>2019-12-29T11:14:49Z</time>
      </trkpt>
      <trkpt lat="40.066844" lon="-2.044053">
        <ele>1093.5</ele>
        <time>2019-12-29T11:14:53Z</time>
      </trkpt>
      <trkpt lat="40.066887" lon="-2.044171">
        <ele>1093.9</ele>
        <time>2019-12-29T11:14:57Z</time>
      </trkpt>
      <trkpt lat="40.066960" lon="-2.044291">
        <ele>1094.0</ele>
        <time>2019-12-29T11:15:01Z</time>
      </trkpt>
      <trkpt lat="40.066979" lon="-2.044428">
        <ele>1093.6</ele>
        <time>2019-12-29T11:15:04Z</time>
      </trkpt>
      <trkpt lat="40.066969" lon="-2.044570">
        <ele>1093.4</ele>
        <time>2019-12-29T11:15:07Z</time>
      </trkpt>
      <trkpt lat="40.066963" lon="-2.044702">
        <ele>1093.2</ele>
        <time>2019-12-29T11:15:10Z</time>
      </trkpt>
      <trkpt lat="40.066962" lon="-2.044846">
        <ele>1092.9</ele>
        <time>2019-12-29T11:15:13Z</time>
      </trkpt>
      <trkpt lat="40.066971" lon="-2.045012">
        <ele>1092.6</ele>
        <time>2019-12-29T11:15:16Z</time>
      </trkpt>
      <trkpt lat="40.066969" lon="-2.045141">
        <ele>1092.4</ele>
        <time>2019-12-29T11:15:18Z</time>
      </trkpt>
      <trkpt lat="40.066966" lon="-2.045315">
        <ele>1092.2</ele>
        <time>2019-12-29T11:15:21Z</time>
      </trkpt>
      <trkpt lat="40.066973" lon="-2.045482">
        <ele>1091.8</ele>
        <time>2019-12-29T11:15:24Z</time>
      </trkpt>
      <trkpt lat="40.066979" lon="-2.045650">
        <ele>1091.5</ele>
        <time>2019-12-29T11:15:27Z</time>
      </trkpt>
      <trkpt lat="40.066959" lon="-2.045765">
        <ele>1091.3</ele>
        <time>2019-12-29T11:15:29Z</time>
      </trkpt>
      <trkpt lat="40.066943" lon="-2.045882">
        <ele>1091.1</ele>
        <time>2019-12-29T11:15:31Z</time>
      </trkpt>
      <trkpt lat="40.066924" lon="-2.046004">
        <ele>1090.8</ele>
        <time>2019-12-29T11:15:33Z</time>
      </trkpt>
      <trkpt lat="40.066888" lon="-2.046146">
        <ele>1090.4</ele>
        <time>2019-12-29T11:15:35Z</time>
      </trkpt>
      <trkpt lat="40.066848" lon="-2.046272">
        <ele>1090.1</ele>
        <time>2019-12-29T11:15:37Z</time>
      </trkpt>
      <trkpt lat="40.066813" lon="-2.046390">
        <ele>1088.9</ele>
        <time>2019-12-29T11:15:42Z</time>
      </trkpt>
      <trkpt lat="40.066796" lon="-2.046530">
        <ele>1088.4</ele>
        <time>2019-12-29T11:15:46Z</time>
      </trkpt>
      <trkpt lat="40.066759" lon="-2.046677">
        <ele>1088.2</ele>
        <time>2019-12-29T11:15:49Z</time>
      </trkpt>
      <trkpt lat="40.066719" lon="-2.046820">
        <ele>1088.1</ele>
        <time>2019-12-29T11:15:52Z</time>
      </trkpt>
      <trkpt lat="40.066691" lon="-2.046955">
        <ele>1087.7</ele>
        <time>2019-12-29T11:15:55Z</time>
      </trkpt>
      <trkpt lat="40.066690" lon="-2.047084">
        <ele>1086.9</ele>
        <time>2019-12-29T11:16:03Z</time>
      </trkpt>
      <trkpt lat="40.066672" lon="-2.047202">
        <ele>1086.3</ele>
        <time>2019-12-29T11:16:08Z</time>
      </trkpt>
      <trkpt lat="40.066644" lon="-2.047364">
        <ele>1085.8</ele>
        <time>2019-12-29T11:16:12Z</time>
      </trkpt>
      <trkpt lat="40.066631" lon="-2.047489">
        <ele>1085.5</ele>
        <time>2019-12-29T11:16:14Z</time>
      </trkpt>
      <trkpt lat="40.066611" lon="-2.047615">
        <ele>1084.9</ele>
        <time>2019-12-29T11:16:16Z</time>
      </trkpt>
      <trkpt lat="40.066637" lon="-2.047757">
        <ele>1084.1</ele>
        <time>2019-12-29T11:16:19Z</time>
      </trkpt>
      <trkpt lat="40.066735" lon="-2.047826">
        <ele>1083.4</ele>
        <time>2019-12-29T11:16:24Z</time>
      </trkpt>
      <trkpt lat="40.066816" lon="-2.047892">
        <ele>1083.0</ele>
        <time>2019-12-29T11:16:29Z</time>
      </trkpt>
      <trkpt lat="40.066888" lon="-2.047992">
        <ele>1083.2</ele>
        <time>2019-12-29T11:18:29Z</time>
      </trkpt>
      <trkpt lat="40.066953" lon="-2.048093">
        <ele>1083.0</ele>
        <time>2019-12-29T11:18:34Z</time>
      </trkpt>
      <trkpt lat="40.067000" lon="-2.048209">
        <ele>1082.9</ele>
        <time>2019-12-29T11:18:39Z</time>
      </trkpt>
      <trkpt lat="40.066931" lon="-2.048320">
        <ele>1082.8</ele>
        <time>2019-12-29T11:18:44Z</time>
      </trkpt>
      <trkpt lat="40.066897" lon="-2.048444">
        <ele>1082.6</ele>
        <time>2019-12-29T11:18:48Z</time>
      </trkpt>
      <trkpt lat="40.066864" lon="-2.048563">
        <ele>1082.0</ele>
        <time>2019-12-29T11:18:54Z</time>
      </trkpt>
      <trkpt lat="40.066858" lon="-2.048714">
        <ele>1082.1</ele>
        <time>2019-12-29T11:19:00Z</time>
      </trkpt>
      <trkpt lat="40.066853" lon="-2.048832">
        <ele>1081.4</ele>
        <time>2019-12-29T11:20:01Z</time>
      </trkpt>
      <trkpt lat="40.066922" lon="-2.048916">
        <ele>1082.4</ele>
        <time>2019-12-29T11:20:11Z</time>
      </trkpt>
      <trkpt lat="40.067005" lon="-2.048965">
        <ele>1083.7</ele>
        <time>2019-12-29T11:20:41Z</time>
      </trkpt>
      <trkpt lat="40.067022" lon="-2.048957">
        <ele>1083.3</ele>
        <time>2019-12-29T11:20:58Z</time>
      </trkpt>
      <trkpt lat="40.066957" lon="-2.048940">
        <ele>1076.2</ele>
        <time>2019-12-29T12:17:52Z</time>
      </trkpt>
      <trkpt lat="40.066949" lon="-2.048937">
        <ele>1076.0</ele>
        <time>2019-12-29T12:17:50Z</time>
      </trkpt>
      <trkpt lat="40.066994" lon="-2.048835">
        <ele>1075.4</ele>
        <time>2019-12-29T12:18:19Z</time>
      </trkpt>
      <trkpt lat="40.066902" lon="-2.048859">
        <ele>1073.8</ele>
        <time>2019-12-29T12:18:44Z</time>
      </trkpt>
      <trkpt lat="40.066911" lon="-2.048988">
        <ele>1073.6</ele>
        <time>2019-12-29T12:18:53Z</time>
      </trkpt>
      <trkpt lat="40.066928" lon="-2.049117">
        <ele>1073.5</ele>
        <time>2019-12-29T12:18:57Z</time>
      </trkpt>
      <trkpt lat="40.066963" lon="-2.049270">
        <ele>1073.4</ele>
        <time>2019-12-29T12:19:00Z</time>
      </trkpt>
      <trkpt lat="40.066991" lon="-2.049393">
        <ele>1073.3</ele>
        <time>2019-12-29T12:19:02Z</time>
      </trkpt>
      <trkpt lat="40.067021" lon="-2.049546">
        <ele>1072.9</ele>
        <time>2019-12-29T12:19:04Z</time>
      </trkpt>
      <trkpt lat="40.067041" lon="-2.049702">
        <ele>1072.7</ele>
        <time>2019-12-29T12:19:06Z</time>
      </trkpt>
      <trkpt lat="40.067008" lon="-2.049852">
        <ele>1072.5</ele>
        <time>2019-12-29T12:19:08Z</time>
      </trkpt>
      <trkpt lat="40.066941" lon="-2.049995">
        <ele>1072.4</ele>
        <time>2019-12-29T12:19:10Z</time>
      </trkpt>
      <trkpt lat="40.066885" lon="-2.050117">
        <ele>1072.3</ele>
        <time>2019-12-29T12:19:12Z</time>
      </trkpt>
      <trkpt lat="40.066873" lon="-2.050263">
        <ele>1072.2</ele>
        <time>2019-12-29T12:19:14Z</time>
      </trkpt>
      <trkpt lat="40.066877" lon="-2.050413">
        <ele>1072.1</ele>
        <time>2019-12-29T12:19:16Z</time>
      </trkpt>
      <trkpt lat="40.066881" lon="-2.050564">
        <ele>1072.1</ele>
        <time>2019-12-29T12:19:18Z</time>
      </trkpt>
      <trkpt lat="40.066911" lon="-2.050698">
        <ele>1071.8</ele>
        <time>2019-12-29T12:19:20Z</time>
      </trkpt>
      <trkpt lat="40.066992" lon="-2.050810">
        <ele>1071.5</ele>
        <time>2019-12-29T12:19:22Z</time>
      </trkpt>
      <trkpt lat="40.067042" lon="-2.050909">
        <ele>1071.2</ele>
        <time>2019-12-29T12:19:24Z</time>
      </trkpt>
      <trkpt lat="40.067140" lon="-2.051011">
        <ele>1070.8</ele>
        <time>2019-12-29T12:19:27Z</time>
      </trkpt>
      <trkpt lat="40.067212" lon="-2.051091">
        <ele>1070.6</ele>
        <time>2019-12-29T12:19:31Z</time>
      </trkpt>
      <trkpt lat="40.067289" lon="-2.051030">
        <ele>1071.2</ele>
        <time>2019-12-29T12:19:36Z</time>
      </trkpt>
      <trkpt lat="40.067356" lon="-2.050925">
        <ele>1071.7</ele>
        <time>2019-12-29T12:19:39Z</time>
      </trkpt>
      <trkpt lat="40.067442" lon="-2.050827">
        <ele>1071.9</ele>
        <time>2019-12-29T12:19:42Z</time>
      </trkpt>
      <trkpt lat="40.067500" lon="-2.050735">
        <ele>1072.0</ele>
        <time>2019-12-29T12:19:45Z</time>
      </trkpt>
      <trkpt lat="40.067582" lon="-2.050664">
        <ele>1072.1</ele>
        <time>2019-12-29T12:19:49Z</time>
      </trkpt>
      <trkpt lat="40.067665" lon="-2.050732">
        <ele>1072.0</ele>
        <time>2019-12-29T12:19:53Z</time>
      </trkpt>
      <trkpt lat="40.067709" lon="-2.050865">
        <ele>1071.0</ele>
        <time>2019-12-29T12:19:56Z</time>
      </trkpt>
      <trkpt lat="40.067764" lon="-2.051011">
        <ele>1070.3</ele>
        <time>2019-12-29T12:19:59Z</time>
      </trkpt>
      <trkpt lat="40.067814" lon="-2.051161">
        <ele>1069.7</ele>
        <time>2019-12-29T12:20:02Z</time>
      </trkpt>
      <trkpt lat="40.067878" lon="-2.051291">
        <ele>1069.2</ele>
        <time>2019-12-29T12:20:05Z</time>
      </trkpt>
      <trkpt lat="40.067931" lon="-2.051386">
        <ele>1068.9</ele>
        <time>2019-12-29T12:20:07Z</time>
      </trkpt>
      <trkpt lat="40.068013" lon="-2.051536">
        <ele>1068.7</ele>
        <time>2019-12-29T12:20:10Z</time>
      </trkpt>
      <trkpt lat="40.068092" lon="-2.051613">
        <ele>1068.7</ele>
        <time>2019-12-29T12:20:12Z</time>
      </trkpt>
      <trkpt lat="40.068227" lon="-2.051633">
        <ele>1069.5</ele>
        <time>2019-12-29T12:20:16Z</time>
      </trkpt>
      <trkpt lat="40.068354" lon="-2.051654">
        <ele>1070.5</ele>
        <time>2019-12-29T12:20:19Z</time>
      </trkpt>
      <trkpt lat="40.068469" lon="-2.051686">
        <ele>1071.1</ele>
        <time>2019-12-29T12:20:22Z</time>
      </trkpt>
      <trkpt lat="40.068566" lon="-2.051804">
        <ele>1071.5</ele>
        <time>2019-12-29T12:20:25Z</time>
      </trkpt>
      <trkpt lat="40.068615" lon="-2.051924">
        <ele>1071.7</ele>
        <time>2019-12-29T12:20:27Z</time>
      </trkpt>
      <trkpt lat="40.068638" lon="-2.052077">
        <ele>1071.5</ele>
        <time>2019-12-29T12:20:30Z</time>
      </trkpt>
      <trkpt lat="40.068688" lon="-2.052220">
        <ele>1071.1</ele>
        <time>2019-12-29T12:20:33Z</time>
      </trkpt>
      <trkpt lat="40.068766" lon="-2.052328">
        <ele>1071.0</ele>
        <time>2019-12-29T12:20:35Z</time>
      </trkpt>
      <trkpt lat="40.068820" lon="-2.052441">
        <ele>1070.8</ele>
        <time>2019-12-29T12:20:37Z</time>
      </trkpt>
      <trkpt lat="40.068871" lon="-2.052548">
        <ele>1070.6</ele>
        <time>2019-12-29T12:20:39Z</time>
      </trkpt>
      <trkpt lat="40.068919" lon="-2.052659">
        <ele>1070.5</ele>
        <time>2019-12-29T12:20:41Z</time>
      </trkpt>
      <trkpt lat="40.068973" lon="-2.052761">
        <ele>1070.5</ele>
        <time>2019-12-29T12:20:43Z</time>
      </trkpt>
      <trkpt lat="40.069002" lon="-2.052876">
        <ele>1070.3</ele>
        <time>2019-12-29T12:20:45Z</time>
      </trkpt>
      <trkpt lat="40.069051" lon="-2.052988">
        <ele>1069.7</ele>
        <time>2019-12-29T12:20:47Z</time>
      </trkpt>
      <trkpt lat="40.069113" lon="-2.053120">
        <ele>1069.3</ele>
        <time>2019-12-29T12:20:49Z</time>
      </trkpt>
      <trkpt lat="40.069027" lon="-2.053565">
        <ele>1069.2</ele>
        <time>2019-12-29T12:20:56Z</time>
      </trkpt>
      <trkpt lat="40.068952" lon="-2.053634">
        <ele>1069.0</ele>
        <time>2019-12-29T12:20:58Z</time>
      </trkpt>
      <trkpt lat="40.068892" lon="-2.053745">
        <ele>1068.8</ele>
        <time>2019-12-29T12:21:01Z</time>
      </trkpt>
      <trkpt lat="40.068829" lon="-2.053844">
        <ele>1069.1</ele>
        <time>2019-12-29T12:21:04Z</time>
      </trkpt>
      <trkpt lat="40.068778" lon="-2.053941">
        <ele>1069.5</ele>
        <time>2019-12-29T12:21:07Z</time>
      </trkpt>
      <trkpt lat="40.068709" lon="-2.054042">
        <ele>1070.0</ele>
        <time>2019-12-29T12:21:10Z</time>
      </trkpt>
      <trkpt lat="40.068638" lon="-2.054143">
        <ele>1070.3</ele>
        <time>2019-12-29T12:21:13Z</time>
      </trkpt>
      <trkpt lat="40.068526" lon="-2.054304">
        <ele>1071.0</ele>
        <time>2019-12-29T12:21:18Z</time>
      </trkpt>
      <trkpt lat="40.068463" lon="-2.054410">
        <ele>1071.9</ele>
        <time>2019-12-29T12:21:22Z</time>
      </trkpt>
      <trkpt lat="40.068388" lon="-2.054519">
        <ele>1072.7</ele>
        <time>2019-12-29T12:21:26Z</time>
      </trkpt>
      <trkpt lat="40.068335" lon="-2.054630">
        <ele>1073.6</ele>
        <time>2019-12-29T12:21:30Z</time>
      </trkpt>
      <trkpt lat="40.068296" lon="-2.054741">
        <ele>1074.5</ele>
        <time>2019-12-29T12:21:34Z</time>
      </trkpt>
      <trkpt lat="40.068285" lon="-2.054861">
        <ele>1075.4</ele>
        <time>2019-12-29T12:21:38Z</time>
      </trkpt>
      <trkpt lat="40.068298" lon="-2.055002">
        <ele>1076.3</ele>
        <time>2019-12-29T12:21:42Z</time>
      </trkpt>
      <trkpt lat="40.068297" lon="-2.055125">
        <ele>1077.2</ele>
        <time>2019-12-29T12:21:46Z</time>
      </trkpt>
      <trkpt lat="40.068335" lon="-2.055258">
        <ele>1078.0</ele>
        <time>2019-12-29T12:21:51Z</time>
      </trkpt>
      <trkpt lat="40.068357" lon="-2.055401">
        <ele>1079.2</ele>
        <time>2019-12-29T12:21:56Z</time>
      </trkpt>
      <trkpt lat="40.068388" lon="-2.055531">
        <ele>1080.5</ele>
        <time>2019-12-29T12:22:01Z</time>
      </trkpt>
      <trkpt lat="40.068422" lon="-2.055661">
        <ele>1081.6</ele>
        <time>2019-12-29T12:22:06Z</time>
      </trkpt>
      <trkpt lat="40.068430" lon="-2.055781">
        <ele>1082.9</ele>
        <time>2019-12-29T12:22:10Z</time>
      </trkpt>
      <trkpt lat="40.068449" lon="-2.055899">
        <ele>1084.2</ele>
        <time>2019-12-29T12:22:15Z</time>
      </trkpt>
      <trkpt lat="40.068459" lon="-2.056021">
        <ele>1085.5</ele>
        <time>2019-12-29T12:22:20Z</time>
      </trkpt>
      <trkpt lat="40.068420" lon="-2.056144">
        <ele>1086.4</ele>
        <time>2019-12-29T12:22:24Z</time>
      </trkpt>
      <trkpt lat="40.068427" lon="-2.056280">
        <ele>1087.5</ele>
        <time>2019-12-29T12:22:30Z</time>
      </trkpt>
      <trkpt lat="40.068434" lon="-2.056400">
        <ele>1089.0</ele>
        <time>2019-12-29T12:22:35Z</time>
      </trkpt>
      <trkpt lat="40.068439" lon="-2.056531">
        <ele>1089.9</ele>
        <time>2019-12-29T12:22:42Z</time>
      </trkpt>
      <trkpt lat="40.068437" lon="-2.056655">
        <ele>1091.7</ele>
        <time>2019-12-29T12:22:47Z</time>
      </trkpt>
      <trkpt lat="40.068450" lon="-2.056781">
        <ele>1093.2</ele>
        <time>2019-12-29T12:22:53Z</time>
      </trkpt>
      <trkpt lat="40.068452" lon="-2.056905">
        <ele>1094.8</ele>
        <time>2019-12-29T12:22:59Z</time>
      </trkpt>
      <trkpt lat="40.068465" lon="-2.057027">
        <ele>1096.0</ele>
        <time>2019-12-29T12:23:05Z</time>
      </trkpt>
      <trkpt lat="40.068506" lon="-2.057147">
        <ele>1096.9</ele>
        <time>2019-12-29T12:23:11Z</time>
      </trkpt>
      <trkpt lat="40.068573" lon="-2.057253">
        <ele>1097.9</ele>
        <time>2019-12-29T12:23:16Z</time>
      </trkpt>
      <trkpt lat="40.068644" lon="-2.057366">
        <ele>1098.6</ele>
        <time>2019-12-29T12:23:21Z</time>
      </trkpt>
      <trkpt lat="40.068726" lon="-2.057452">
        <ele>1098.9</ele>
        <time>2019-12-29T12:23:25Z</time>
      </trkpt>
      <trkpt lat="40.068825" lon="-2.057515">
        <ele>1099.4</ele>
        <time>2019-12-29T12:23:29Z</time>
      </trkpt>
      <trkpt lat="40.068905" lon="-2.057577">
        <ele>1099.6</ele>
        <time>2019-12-29T12:23:34Z</time>
      </trkpt>
      <trkpt lat="40.068998" lon="-2.057558">
        <ele>1099.3</ele>
        <time>2019-12-29T12:23:38Z</time>
      </trkpt>
      <trkpt lat="40.069115" lon="-2.057605">
        <ele>1099.2</ele>
        <time>2019-12-29T12:23:41Z</time>
      </trkpt>
      <trkpt lat="40.069230" lon="-2.057655">
        <ele>1098.8</ele>
        <time>2019-12-29T12:23:44Z</time>
      </trkpt>
      <trkpt lat="40.069338" lon="-2.057717">
        <ele>1098.5</ele>
        <time>2019-12-29T12:23:47Z</time>
      </trkpt>
      <trkpt lat="40.069425" lon="-2.057819">
        <ele>1098.2</ele>
        <time>2019-12-29T12:23:50Z</time>
      </trkpt>
      <trkpt lat="40.069453" lon="-2.057970">
        <ele>1098.2</ele>
        <time>2019-12-29T12:23:54Z</time>
      </trkpt>
      <trkpt lat="40.069449" lon="-2.058095">
        <ele>1098.4</ele>
        <time>2019-12-29T12:23:57Z</time>
      </trkpt>
      <trkpt lat="40.069434" lon="-2.058242">
        <ele>1098.7</ele>
        <time>2019-12-29T12:24:01Z</time>
      </trkpt>
      <trkpt lat="40.069426" lon="-2.058365">
        <ele>1098.8</ele>
        <time>2019-12-29T12:24:04Z</time>
      </trkpt>
      <trkpt lat="40.069415" lon="-2.058503">
        <ele>1098.9</ele>
        <time>2019-12-29T12:24:08Z</time>
      </trkpt>
      <trkpt lat="40.069424" lon="-2.058653">
        <ele>1099.2</ele>
        <time>2019-12-29T12:24:12Z</time>
      </trkpt>
      <trkpt lat="40.069461" lon="-2.058803">
        <ele>1099.9</ele>
        <time>2019-12-29T12:24:16Z</time>
      </trkpt>
      <trkpt lat="40.069468" lon="-2.058949">
        <ele>1100.7</ele>
        <time>2019-12-29T12:24:20Z</time>
      </trkpt>
      <trkpt lat="40.069452" lon="-2.059089">
        <ele>1101.2</ele>
        <time>2019-12-29T12:24:24Z</time>
      </trkpt>
      <trkpt lat="40.069391" lon="-2.059193">
        <ele>1101.5</ele>
        <time>2019-12-29T12:24:27Z</time>
      </trkpt>
      <trkpt lat="40.069308" lon="-2.059258">
        <ele>1102.1</ele>
        <time>2019-12-29T12:24:31Z</time>
      </trkpt>
      <trkpt lat="40.069229" lon="-2.059317">
        <ele>1102.4</ele>
        <time>2019-12-29T12:24:34Z</time>
      </trkpt>
      <trkpt lat="40.069159" lon="-2.059434">
        <ele>1103.1</ele>
        <time>2019-12-29T12:24:38Z</time>
      </trkpt>
      <trkpt lat="40.069117" lon="-2.059540">
        <ele>1103.3</ele>
        <time>2019-12-29T12:24:41Z</time>
      </trkpt>
      <trkpt lat="40.069067" lon="-2.059658">
        <ele>1103.4</ele>
        <time>2019-12-29T12:24:44Z</time>
      </trkpt>
      <trkpt lat="40.069006" lon="-2.059755">
        <ele>1103.5</ele>
        <time>2019-12-29T12:24:47Z</time>
      </trkpt>
      <trkpt lat="40.068938" lon="-2.059851">
        <ele>1103.6</ele>
        <time>2019-12-29T12:24:50Z</time>
      </trkpt>
      <trkpt lat="40.068867" lon="-2.059942">
        <ele>1103.6</ele>
        <time>2019-12-29T12:24:53Z</time>
      </trkpt>
      <trkpt lat="40.068789" lon="-2.060023">
        <ele>1103.7</ele>
        <time>2019-12-29T12:24:56Z</time>
      </trkpt>
      <trkpt lat="40.068716" lon="-2.060112">
        <ele>1103.8</ele>
        <time>2019-12-29T12:24:59Z</time>
      </trkpt>
      <trkpt lat="40.068634" lon="-2.060202">
        <ele>1104.0</ele>
        <time>2019-12-29T12:25:02Z</time>
      </trkpt>
      <trkpt lat="40.068552" lon="-2.060283">
        <ele>1104.1</ele>
        <time>2019-12-29T12:25:05Z</time>
      </trkpt>
      <trkpt lat="40.068469" lon="-2.060366">
        <ele>1104.3</ele>
        <time>2019-12-29T12:25:08Z</time>
      </trkpt>
      <trkpt lat="40.068387" lon="-2.060444">
        <ele>1105.0</ele>
        <time>2019-12-29T12:25:11Z</time>
      </trkpt>
      <trkpt lat="40.068304" lon="-2.060509">
        <ele>1105.4</ele>
        <time>2019-12-29T12:25:14Z</time>
      </trkpt>
      <trkpt lat="40.068222" lon="-2.060566">
        <ele>1105.6</ele>
        <time>2019-12-29T12:25:17Z</time>
      </trkpt>
      <trkpt lat="40.068146" lon="-2.060634">
        <ele>1105.7</ele>
        <time>2019-12-29T12:25:20Z</time>
      </trkpt>
      <trkpt lat="40.068045" lon="-2.060703">
        <ele>1106.0</ele>
        <time>2019-12-29T12:25:24Z</time>
      </trkpt>
      <trkpt lat="40.067940" lon="-2.060766">
        <ele>1106.6</ele>
        <time>2019-12-29T12:25:28Z</time>
      </trkpt>
      <trkpt lat="40.067823" lon="-2.060804">
        <ele>1107.2</ele>
        <time>2019-12-29T12:25:32Z</time>
      </trkpt>
      <trkpt lat="40.067717" lon="-2.060819">
        <ele>1107.7</ele>
        <time>2019-12-29T12:25:36Z</time>
      </trkpt>
      <trkpt lat="40.067616" lon="-2.060819">
        <ele>1108.5</ele>
        <time>2019-12-29T12:25:41Z</time>
      </trkpt>
      <trkpt lat="40.067516" lon="-2.060793">
        <ele>1109.5</ele>
        <time>2019-12-29T12:25:46Z</time>
      </trkpt>
      <trkpt lat="40.067419" lon="-2.060766">
        <ele>1110.6</ele>
        <time>2019-12-29T12:25:51Z</time>
      </trkpt>
      <trkpt lat="40.067315" lon="-2.060755">
        <ele>1111.4</ele>
        <time>2019-12-29T12:25:56Z</time>
      </trkpt>
      <trkpt lat="40.067212" lon="-2.060759">
        <ele>1112.4</ele>
        <time>2019-12-29T12:26:01Z</time>
      </trkpt>
      <trkpt lat="40.067106" lon="-2.060740">
        <ele>1113.1</ele>
        <time>2019-12-29T12:26:06Z</time>
      </trkpt>
      <trkpt lat="40.067013" lon="-2.060712">
        <ele>1113.9</ele>
        <time>2019-12-29T12:26:11Z</time>
      </trkpt>
      <trkpt lat="40.066917" lon="-2.060704">
        <ele>1114.8</ele>
        <time>2019-12-29T12:26:16Z</time>
      </trkpt>
      <trkpt lat="40.066820" lon="-2.060709">
        <ele>1115.7</ele>
        <time>2019-12-29T12:26:21Z</time>
      </trkpt>
      <trkpt lat="40.066717" lon="-2.060699">
        <ele>1116.7</ele>
        <time>2019-12-29T12:26:27Z</time>
      </trkpt>
      <trkpt lat="40.066613" lon="-2.060697">
        <ele>1117.9</ele>
        <time>2019-12-29T12:26:33Z</time>
      </trkpt>
      <trkpt lat="40.066514" lon="-2.060685">
        <ele>1118.5</ele>
        <time>2019-12-29T12:26:38Z</time>
      </trkpt>
      <trkpt lat="40.066418" lon="-2.060674">
        <ele>1119.3</ele>
        <time>2019-12-29T12:26:43Z</time>
      </trkpt>
      <trkpt lat="40.066320" lon="-2.060673">
        <ele>1120.9</ele>
        <time>2019-12-29T12:26:48Z</time>
      </trkpt>
      <trkpt lat="40.066227" lon="-2.060683">
        <ele>1122.0</ele>
        <time>2019-12-29T12:26:53Z</time>
      </trkpt>
      <trkpt lat="40.066133" lon="-2.060680">
        <ele>1123.3</ele>
        <time>2019-12-29T12:26:58Z</time>
      </trkpt>
      <trkpt lat="40.066031" lon="-2.060668">
        <ele>1124.3</ele>
        <time>2019-12-29T12:27:03Z</time>
      </trkpt>
      <trkpt lat="40.065930" lon="-2.060690">
        <ele>1125.1</ele>
        <time>2019-12-29T12:27:08Z</time>
      </trkpt>
      <trkpt lat="40.065835" lon="-2.060704">
        <ele>1126.0</ele>
        <time>2019-12-29T12:27:13Z</time>
      </trkpt>
      <trkpt lat="40.065742" lon="-2.060696">
        <ele>1126.8</ele>
        <time>2019-12-29T12:27:18Z</time>
      </trkpt>
      <trkpt lat="40.065641" lon="-2.060689">
        <ele>1127.9</ele>
        <time>2019-12-29T12:27:24Z</time>
      </trkpt>
      <trkpt lat="40.065545" lon="-2.060700">
        <ele>1129.0</ele>
        <time>2019-12-29T12:27:30Z</time>
      </trkpt>
      <trkpt lat="40.065435" lon="-2.060697">
        <ele>1130.0</ele>
        <time>2019-12-29T12:27:36Z</time>
      </trkpt>
      <trkpt lat="40.065338" lon="-2.060709">
        <ele>1130.8</ele>
        <time>2019-12-29T12:27:41Z</time>
      </trkpt>
      <trkpt lat="40.065247" lon="-2.060757">
        <ele>1131.6</ele>
        <time>2019-12-29T12:27:46Z</time>
      </trkpt>
      <trkpt lat="40.065248" lon="-2.060890">
        <ele>1132.4</ele>
        <time>2019-12-29T12:27:51Z</time>
      </trkpt>
      <trkpt lat="40.065338" lon="-2.060964">
        <ele>1133.0</ele>
        <time>2019-12-29T12:27:56Z</time>
      </trkpt>
      <trkpt lat="40.065448" lon="-2.060995">
        <ele>1133.1</ele>
        <time>2019-12-29T12:28:00Z</time>
      </trkpt>
      <trkpt lat="40.065540" lon="-2.061026">
        <ele>1133.3</ele>
        <time>2019-12-29T12:28:03Z</time>
      </trkpt>
      <trkpt lat="40.065629" lon="-2.061058">
        <ele>1133.5</ele>
        <time>2019-12-29T12:28:06Z</time>
      </trkpt>
      <trkpt lat="40.065739" lon="-2.061106">
        <ele>1133.6</ele>
        <time>2019-12-29T12:28:10Z</time>
      </trkpt>
      <trkpt lat="40.065836" lon="-2.061134">
        <ele>1133.5</ele>
        <time>2019-12-29T12:28:13Z</time>
      </trkpt>
      <trkpt lat="40.065929" lon="-2.061168">
        <ele>1133.8</ele>
        <time>2019-12-29T12:28:16Z</time>
      </trkpt>
      <trkpt lat="40.066021" lon="-2.061203">
        <ele>1133.9</ele>
        <time>2019-12-29T12:28:19Z</time>
      </trkpt>
      <trkpt lat="40.066121" lon="-2.061240">
        <ele>1134.0</ele>
        <time>2019-12-29T12:28:22Z</time>
      </trkpt>
      <trkpt lat="40.066220" lon="-2.061281">
        <ele>1134.1</ele>
        <time>2019-12-29T12:28:25Z</time>
      </trkpt>
      <trkpt lat="40.066318" lon="-2.061332">
        <ele>1134.1</ele>
        <time>2019-12-29T12:28:28Z</time>
      </trkpt>
      <trkpt lat="40.066421" lon="-2.061388">
        <ele>1134.5</ele>
        <time>2019-12-29T12:28:31Z</time>
      </trkpt>
      <trkpt lat="40.066529" lon="-2.061452">
        <ele>1134.8</ele>
        <time>2019-12-29T12:28:34Z</time>
      </trkpt>
      <trkpt lat="40.066628" lon="-2.061519">
        <ele>1135.0</ele>
        <time>2019-12-29T12:28:37Z</time>
      </trkpt>
      <trkpt lat="40.066723" lon="-2.061570">
        <ele>1135.0</ele>
        <time>2019-12-29T12:28:40Z</time>
      </trkpt>
      <trkpt lat="40.066817" lon="-2.061632">
        <ele>1135.0</ele>
        <time>2019-12-29T12:28:43Z</time>
      </trkpt>
      <trkpt lat="40.066910" lon="-2.061692">
        <ele>1135.0</ele>
        <time>2019-12-29T12:28:46Z</time>
      </trkpt>
      <trkpt lat="40.066999" lon="-2.061746">
        <ele>1134.8</ele>
        <time>2019-12-29T12:28:49Z</time>
      </trkpt>
      <trkpt lat="40.067092" lon="-2.061792">
        <ele>1134.9</ele>
        <time>2019-12-29T12:28:52Z</time>
      </trkpt>
      <trkpt lat="40.067177" lon="-2.061839">
        <ele>1135.0</ele>
        <time>2019-12-29T12:28:55Z</time>
      </trkpt>
      <trkpt lat="40.067271" lon="-2.061885">
        <ele>1135.0</ele>
        <time>2019-12-29T12:28:58Z</time>
      </trkpt>
      <trkpt lat="40.067371" lon="-2.061923">
        <ele>1135.3</ele>
        <time>2019-12-29T12:29:01Z</time>
      </trkpt>
      <trkpt lat="40.067460" lon="-2.061971">
        <ele>1135.4</ele>
        <time>2019-12-29T12:29:04Z</time>
      </trkpt>
      <trkpt lat="40.067566" lon="-2.062025">
        <ele>1136.0</ele>
        <time>2019-12-29T12:29:08Z</time>
      </trkpt>
      <trkpt lat="40.067663" lon="-2.062097">
        <ele>1136.6</ele>
        <time>2019-12-29T12:29:12Z</time>
      </trkpt>
      <trkpt lat="40.067747" lon="-2.062182">
        <ele>1137.7</ele>
        <time>2019-12-29T12:29:16Z</time>
      </trkpt>
      <trkpt lat="40.067811" lon="-2.062287">
        <ele>1138.9</ele>
        <time>2019-12-29T12:29:20Z</time>
      </trkpt>
      <trkpt lat="40.067840" lon="-2.062404">
        <ele>1139.9</ele>
        <time>2019-12-29T12:29:24Z</time>
      </trkpt>
      <trkpt lat="40.067842" lon="-2.062522">
        <ele>1140.5</ele>
        <time>2019-12-29T12:29:28Z</time>
      </trkpt>
      <trkpt lat="40.067791" lon="-2.062634">
        <ele>1141.1</ele>
        <time>2019-12-29T12:29:32Z</time>
      </trkpt>
      <trkpt lat="40.067741" lon="-2.062743">
        <ele>1141.8</ele>
        <time>2019-12-29T12:29:36Z</time>
      </trkpt>
      <trkpt lat="40.067680" lon="-2.062854">
        <ele>1142.6</ele>
        <time>2019-12-29T12:29:40Z</time>
      </trkpt>
      <trkpt lat="40.067628" lon="-2.062957">
        <ele>1143.3</ele>
        <time>2019-12-29T12:29:44Z</time>
      </trkpt>
      <trkpt lat="40.067567" lon="-2.063067">
        <ele>1143.7</ele>
        <time>2019-12-29T12:29:48Z</time>
      </trkpt>
      <trkpt lat="40.067501" lon="-2.063189">
        <ele>1144.7</ele>
        <time>2019-12-29T12:29:52Z</time>
      </trkpt>
      <trkpt lat="40.067436" lon="-2.063305">
        <ele>1145.3</ele>
        <time>2019-12-29T12:29:56Z</time>
      </trkpt>
      <trkpt lat="40.067351" lon="-2.063405">
        <ele>1145.7</ele>
        <time>2019-12-29T12:30:00Z</time>
      </trkpt>
      <trkpt lat="40.067263" lon="-2.063491">
        <ele>1146.4</ele>
        <time>2019-12-29T12:30:04Z</time>
      </trkpt>
      <trkpt lat="40.067173" lon="-2.063571">
        <ele>1146.8</ele>
        <time>2019-12-29T12:30:08Z</time>
      </trkpt>
      <trkpt lat="40.067081" lon="-2.063634">
        <ele>1147.0</ele>
        <time>2019-12-29T12:30:12Z</time>
      </trkpt>
      <trkpt lat="40.066971" lon="-2.063690">
        <ele>1147.1</ele>
        <time>2019-12-29T12:30:16Z</time>
      </trkpt>
      <trkpt lat="40.066861" lon="-2.063732">
        <ele>1147.3</ele>
        <time>2019-12-29T12:30:20Z</time>
      </trkpt>
      <trkpt lat="40.066769" lon="-2.063771">
        <ele>1147.5</ele>
        <time>2019-12-29T12:30:23Z</time>
      </trkpt>
      <trkpt lat="40.066679" lon="-2.063803">
        <ele>1148.0</ele>
        <time>2019-12-29T12:30:26Z</time>
      </trkpt>
      <trkpt lat="40.066574" lon="-2.063841">
        <ele>1148.5</ele>
        <time>2019-12-29T12:30:30Z</time>
      </trkpt>
      <trkpt lat="40.066488" lon="-2.063885">
        <ele>1148.7</ele>
        <time>2019-12-29T12:30:33Z</time>
      </trkpt>
      <trkpt lat="40.066375" lon="-2.063930">
        <ele>1149.1</ele>
        <time>2019-12-29T12:30:37Z</time>
      </trkpt>
      <trkpt lat="40.066267" lon="-2.063980">
        <ele>1149.4</ele>
        <time>2019-12-29T12:30:41Z</time>
      </trkpt>
      <trkpt lat="40.066185" lon="-2.064030">
        <ele>1149.6</ele>
        <time>2019-12-29T12:30:44Z</time>
      </trkpt>
      <trkpt lat="40.066078" lon="-2.064084">
        <ele>1149.9</ele>
        <time>2019-12-29T12:30:48Z</time>
      </trkpt>
      <trkpt lat="40.065975" lon="-2.064143">
        <ele>1150.9</ele>
        <time>2019-12-29T12:30:52Z</time>
      </trkpt>
      <trkpt lat="40.065874" lon="-2.064198">
        <ele>1151.6</ele>
        <time>2019-12-29T12:30:56Z</time>
      </trkpt>
      <trkpt lat="40.065792" lon="-2.064283">
        <ele>1152.1</ele>
        <time>2019-12-29T12:31:00Z</time>
      </trkpt>
      <trkpt lat="40.065764" lon="-2.064420">
        <ele>1152.6</ele>
        <time>2019-12-29T12:31:04Z</time>
      </trkpt>
      <trkpt lat="40.065830" lon="-2.064532">
        <ele>1153.0</ele>
        <time>2019-12-29T12:31:08Z</time>
      </trkpt>
      <trkpt lat="40.065921" lon="-2.064579">
        <ele>1153.3</ele>
        <time>2019-12-29T12:31:11Z</time>
      </trkpt>
      <trkpt lat="40.066021" lon="-2.064634">
        <ele>1153.6</ele>
        <time>2019-12-29T12:31:14Z</time>
      </trkpt>
      <trkpt lat="40.066123" lon="-2.064668">
        <ele>1153.8</ele>
        <time>2019-12-29T12:31:17Z</time>
      </trkpt>
      <trkpt lat="40.066222" lon="-2.064705">
        <ele>1153.8</ele>
        <time>2019-12-29T12:31:20Z</time>
      </trkpt>
      <trkpt lat="40.066327" lon="-2.064740">
        <ele>1153.9</ele>
        <time>2019-12-29T12:31:23Z</time>
      </trkpt>
      <trkpt lat="40.066430" lon="-2.064780">
        <ele>1153.9</ele>
        <time>2019-12-29T12:31:26Z</time>
      </trkpt>
      <trkpt lat="40.066530" lon="-2.064817">
        <ele>1154.0</ele>
        <time>2019-12-29T12:31:29Z</time>
      </trkpt>
      <trkpt lat="40.066626" lon="-2.064863">
        <ele>1153.9</ele>
        <time>2019-12-29T12:31:32Z</time>
      </trkpt>
      <trkpt lat="40.066719" lon="-2.064902">
        <ele>1154.1</ele>
        <time>2019-12-29T12:31:35Z</time>
      </trkpt>
      <trkpt lat="40.066808" lon="-2.064949">
        <ele>1154.2</ele>
        <time>2019-12-29T12:31:38Z</time>
      </trkpt>
      <trkpt lat="40.066899" lon="-2.064998">
        <ele>1154.4</ele>
        <time>2019-12-29T12:31:41Z</time>
      </trkpt>
      <trkpt lat="40.066993" lon="-2.065048">
        <ele>1154.5</ele>
        <time>2019-12-29T12:31:44Z</time>
      </trkpt>
      <trkpt lat="40.067069" lon="-2.065114">
        <ele>1154.9</ele>
        <time>2019-12-29T12:31:47Z</time>
      </trkpt>
      <trkpt lat="40.067153" lon="-2.065224">
        <ele>1155.2</ele>
        <time>2019-12-29T12:31:51Z</time>
      </trkpt>
      <trkpt lat="40.067197" lon="-2.065329">
        <ele>1155.6</ele>
        <time>2019-12-29T12:31:54Z</time>
      </trkpt>
      <trkpt lat="40.067234" lon="-2.065465">
        <ele>1156.5</ele>
        <time>2019-12-29T12:31:58Z</time>
      </trkpt>
      <trkpt lat="40.067244" lon="-2.065608">
        <ele>1157.3</ele>
        <time>2019-12-29T12:32:02Z</time>
      </trkpt>
      <trkpt lat="40.067235" lon="-2.065735">
        <ele>1157.9</ele>
        <time>2019-12-29T12:32:06Z</time>
      </trkpt>
      <trkpt lat="40.067215" lon="-2.065862">
        <ele>1158.5</ele>
        <time>2019-12-29T12:32:10Z</time>
      </trkpt>
      <trkpt lat="40.067183" lon="-2.065978">
        <ele>1159.9</ele>
        <time>2019-12-29T12:32:14Z</time>
      </trkpt>
      <trkpt lat="40.067157" lon="-2.066116">
        <ele>1161.0</ele>
        <time>2019-12-29T12:32:19Z</time>
      </trkpt>
      <trkpt lat="40.067118" lon="-2.066255">
        <ele>1161.7</ele>
        <time>2019-12-29T12:32:23Z</time>
      </trkpt>
      <trkpt lat="40.067090" lon="-2.066379">
        <ele>1162.2</ele>
        <time>2019-12-29T12:32:27Z</time>
      </trkpt>
      <trkpt lat="40.067073" lon="-2.066515">
        <ele>1163.0</ele>
        <time>2019-12-29T12:32:32Z</time>
      </trkpt>
      <trkpt lat="40.067048" lon="-2.066631">
        <ele>1163.8</ele>
        <time>2019-12-29T12:32:36Z</time>
      </trkpt>
      <trkpt lat="40.067029" lon="-2.066752">
        <ele>1164.6</ele>
        <time>2019-12-29T12:32:40Z</time>
      </trkpt>
      <trkpt lat="40.067019" lon="-2.066874">
        <ele>1165.6</ele>
        <time>2019-12-29T12:32:44Z</time>
      </trkpt>
      <trkpt lat="40.067019" lon="-2.066996">
        <ele>1166.3</ele>
        <time>2019-12-29T12:32:48Z</time>
      </trkpt>
      <trkpt lat="40.067025" lon="-2.067127">
        <ele>1167.1</ele>
        <time>2019-12-29T12:32:53Z</time>
      </trkpt>
      <trkpt lat="40.067052" lon="-2.067252">
        <ele>1168.1</ele>
        <time>2019-12-29T12:32:58Z</time>
      </trkpt>
      <trkpt lat="40.067086" lon="-2.067368">
        <ele>1169.6</ele>
        <time>2019-12-29T12:33:03Z</time>
      </trkpt>
      <trkpt lat="40.067126" lon="-2.067498">
        <ele>1170.6</ele>
        <time>2019-12-29T12:33:09Z</time>
      </trkpt>
      <trkpt lat="40.067166" lon="-2.067629">
        <ele>1171.6</ele>
        <time>2019-12-29T12:33:15Z</time>
      </trkpt>
      <trkpt lat="40.067193" lon="-2.067750">
        <ele>1172.9</ele>
        <time>2019-12-29T12:33:21Z</time>
      </trkpt>
      <trkpt lat="40.067215" lon="-2.067886">
        <ele>1174.1</ele>
        <time>2019-12-29T12:33:27Z</time>
      </trkpt>
      <trkpt lat="40.067228" lon="-2.068014">
        <ele>1175.6</ele>
        <time>2019-12-29T12:33:33Z</time>
      </trkpt>
      <trkpt lat="40.067225" lon="-2.068132">
        <ele>1176.4</ele>
        <time>2019-12-29T12:33:38Z</time>
      </trkpt>
      <trkpt lat="40.067221" lon="-2.068259">
        <ele>1177.6</ele>
        <time>2019-12-29T12:33:44Z</time>
      </trkpt>
      <trkpt lat="40.067237" lon="-2.068392">
        <ele>1178.8</ele>
        <time>2019-12-29T12:33:51Z</time>
      </trkpt>
      <trkpt lat="40.067226" lon="-2.068524">
        <ele>1179.9</ele>
        <time>2019-12-29T12:33:58Z</time>
      </trkpt>
      <trkpt lat="40.067182" lon="-2.068631">
        <ele>1181.0</ele>
        <time>2019-12-29T12:34:04Z</time>
      </trkpt>
      <trkpt lat="40.067106" lon="-2.068725">
        <ele>1182.1</ele>
        <time>2019-12-29T12:34:10Z</time>
      </trkpt>
      <trkpt lat="40.067072" lon="-2.068841">
        <ele>1183.5</ele>
        <time>2019-12-29T12:34:17Z</time>
      </trkpt>
      <trkpt lat="40.067112" lon="-2.068958">
        <ele>1184.5</ele>
        <time>2019-12-29T12:34:23Z</time>
      </trkpt>
      <trkpt lat="40.067211" lon="-2.068929">
        <ele>1185.7</ele>
        <time>2019-12-29T12:34:29Z</time>
      </trkpt>
      <trkpt lat="40.067314" lon="-2.068858">
        <ele>1186.5</ele>
        <time>2019-12-29T12:34:33Z</time>
      </trkpt>
      <trkpt lat="40.067414" lon="-2.068795">
        <ele>1186.9</ele>
        <time>2019-12-29T12:34:37Z</time>
      </trkpt>
      <trkpt lat="40.067519" lon="-2.068720">
        <ele>1187.0</ele>
        <time>2019-12-29T12:34:41Z</time>
      </trkpt>
      <trkpt lat="40.067604" lon="-2.068670">
        <ele>1187.0</ele>
        <time>2019-12-29T12:34:44Z</time>
      </trkpt>
      <trkpt lat="40.067694" lon="-2.068585">
        <ele>1187.1</ele>
        <time>2019-12-29T12:34:48Z</time>
      </trkpt>
      <trkpt lat="40.067785" lon="-2.068493">
        <ele>1187.2</ele>
        <time>2019-12-29T12:34:52Z</time>
      </trkpt>
      <trkpt lat="40.067852" lon="-2.068409">
        <ele>1187.5</ele>
        <time>2019-12-29T12:34:55Z</time>
      </trkpt>
      <trkpt lat="40.067912" lon="-2.068306">
        <ele>1188.0</ele>
        <time>2019-12-29T12:34:59Z</time>
      </trkpt>
      <trkpt lat="40.067977" lon="-2.068192">
        <ele>1188.3</ele>
        <time>2019-12-29T12:35:03Z</time>
      </trkpt>
      <trkpt lat="40.068025" lon="-2.068056">
        <ele>1188.6</ele>
        <time>2019-12-29T12:35:07Z</time>
      </trkpt>
      <trkpt lat="40.068046" lon="-2.067919">
        <ele>1188.7</ele>
        <time>2019-12-29T12:35:11Z</time>
      </trkpt>
      <trkpt lat="40.068081" lon="-2.067783">
        <ele>1188.9</ele>
        <time>2019-12-29T12:35:15Z</time>
      </trkpt>
      <trkpt lat="40.068127" lon="-2.067647">
        <ele>1189.6</ele>
        <time>2019-12-29T12:35:19Z</time>
      </trkpt>
      <trkpt lat="40.068198" lon="-2.067519">
        <ele>1189.9</ele>
        <time>2019-12-29T12:35:23Z</time>
      </trkpt>
      <trkpt lat="40.068269" lon="-2.067436">
        <ele>1190.1</ele>
        <time>2019-12-29T12:35:26Z</time>
      </trkpt>
      <trkpt lat="40.068351" lon="-2.067368">
        <ele>1190.3</ele>
        <time>2019-12-29T12:35:29Z</time>
      </trkpt>
      <trkpt lat="40.068450" lon="-2.067275">
        <ele>1190.6</ele>
        <time>2019-12-29T12:35:33Z</time>
      </trkpt>
      <trkpt lat="40.068526" lon="-2.067183">
        <ele>1190.9</ele>
        <time>2019-12-29T12:35:36Z</time>
      </trkpt>
      <trkpt lat="40.068597" lon="-2.067089">
        <ele>1191.0</ele>
        <time>2019-12-29T12:35:39Z</time>
      </trkpt>
      <trkpt lat="40.068668" lon="-2.066993">
        <ele>1191.1</ele>
        <time>2019-12-29T12:35:42Z</time>
      </trkpt>
      <trkpt lat="40.068740" lon="-2.066898">
        <ele>1191.2</ele>
        <time>2019-12-29T12:35:45Z</time>
      </trkpt>
      <trkpt lat="40.068802" lon="-2.066797">
        <ele>1191.3</ele>
        <time>2019-12-29T12:35:48Z</time>
      </trkpt>
      <trkpt lat="40.068865" lon="-2.066701">
        <ele>1191.6</ele>
        <time>2019-12-29T12:35:51Z</time>
      </trkpt>
      <trkpt lat="40.068922" lon="-2.066610">
        <ele>1191.9</ele>
        <time>2019-12-29T12:35:54Z</time>
      </trkpt>
      <trkpt lat="40.068986" lon="-2.066521">
        <ele>1192.3</ele>
        <time>2019-12-29T12:35:57Z</time>
      </trkpt>
      <trkpt lat="40.069060" lon="-2.066407">
        <ele>1193.0</ele>
        <time>2019-12-29T12:36:01Z</time>
      </trkpt>
      <trkpt lat="40.069120" lon="-2.066316">
        <ele>1193.4</ele>
        <time>2019-12-29T12:36:04Z</time>
      </trkpt>
      <trkpt lat="40.069175" lon="-2.066218">
        <ele>1193.8</ele>
        <time>2019-12-29T12:36:07Z</time>
      </trkpt>
      <trkpt lat="40.069235" lon="-2.066117">
        <ele>1194.0</ele>
        <time>2019-12-29T12:36:10Z</time>
      </trkpt>
      <trkpt lat="40.069292" lon="-2.066009">
        <ele>1194.2</ele>
        <time>2019-12-29T12:36:13Z</time>
      </trkpt>
      <trkpt lat="40.069346" lon="-2.065909">
        <ele>1194.6</ele>
        <time>2019-12-29T12:36:16Z</time>
      </trkpt>
      <trkpt lat="40.069399" lon="-2.065810">
        <ele>1195.0</ele>
        <time>2019-12-29T12:36:19Z</time>
      </trkpt>
      <trkpt lat="40.069454" lon="-2.065716">
        <ele>1195.3</ele>
        <time>2019-12-29T12:36:22Z</time>
      </trkpt>
      <trkpt lat="40.069535" lon="-2.065604">
        <ele>1195.8</ele>
        <time>2019-12-29T12:36:26Z</time>
      </trkpt>
      <trkpt lat="40.069622" lon="-2.065540">
        <ele>1196.1</ele>
        <time>2019-12-29T12:36:29Z</time>
      </trkpt>
      <trkpt lat="40.069708" lon="-2.065486">
        <ele>1196.3</ele>
        <time>2019-12-29T12:36:32Z</time>
      </trkpt>
      <trkpt lat="40.069793" lon="-2.065447">
        <ele>1196.5</ele>
        <time>2019-12-29T12:36:35Z</time>
      </trkpt>
      <trkpt lat="40.069883" lon="-2.065414">
        <ele>1196.5</ele>
        <time>2019-12-29T12:36:38Z</time>
      </trkpt>
      <trkpt lat="40.069974" lon="-2.065388">
        <ele>1196.6</ele>
        <time>2019-12-29T12:36:41Z</time>
      </trkpt>
      <trkpt lat="40.070092" lon="-2.065359">
        <ele>1196.9</ele>
        <time>2019-12-29T12:36:45Z</time>
      </trkpt>
      <trkpt lat="40.070209" lon="-2.065356">
        <ele>1197.8</ele>
        <time>2019-12-29T12:36:49Z</time>
      </trkpt>
      <trkpt lat="40.070299" lon="-2.065382">
        <ele>1198.2</ele>
        <time>2019-12-29T12:36:52Z</time>
      </trkpt>
      <trkpt lat="40.070389" lon="-2.065438">
        <ele>1198.4</ele>
        <time>2019-12-29T12:36:55Z</time>
      </trkpt>
      <trkpt lat="40.070465" lon="-2.065513">
        <ele>1198.8</ele>
        <time>2019-12-29T12:36:58Z</time>
      </trkpt>
      <trkpt lat="40.070546" lon="-2.065621">
        <ele>1199.4</ele>
        <time>2019-12-29T12:37:02Z</time>
      </trkpt>
      <trkpt lat="40.070629" lon="-2.065688">
        <ele>1199.6</ele>
        <time>2019-12-29T12:37:05Z</time>
      </trkpt>
      <trkpt lat="40.070713" lon="-2.065742">
        <ele>1199.8</ele>
        <time>2019-12-29T12:37:08Z</time>
      </trkpt>
      <trkpt lat="40.070819" lon="-2.065811">
        <ele>1200.3</ele>
        <time>2019-12-29T12:37:12Z</time>
      </trkpt>
      <trkpt lat="40.070923" lon="-2.065874">
        <ele>1200.9</ele>
        <time>2019-12-29T12:37:16Z</time>
      </trkpt>
      <trkpt lat="40.071008" lon="-2.065921">
        <ele>1201.7</ele>
        <time>2019-12-29T12:37:19Z</time>
      </trkpt>
      <trkpt lat="40.071095" lon="-2.065981">
        <ele>1202.3</ele>
        <time>2019-12-29T12:37:22Z</time>
      </trkpt>
      <trkpt lat="40.071190" lon="-2.066069">
        <ele>1202.7</ele>
        <time>2019-12-29T12:37:26Z</time>
      </trkpt>
      <trkpt lat="40.071280" lon="-2.066167">
        <ele>1203.8</ele>
        <time>2019-12-29T12:37:30Z</time>
      </trkpt>
      <trkpt lat="40.071352" lon="-2.066259">
        <ele>1204.4</ele>
        <time>2019-12-29T12:37:33Z</time>
      </trkpt>
      <trkpt lat="40.071409" lon="-2.066360">
        <ele>1204.9</ele>
        <time>2019-12-29T12:37:36Z</time>
      </trkpt>
      <trkpt lat="40.071463" lon="-2.066466">
        <ele>1205.1</ele>
        <time>2019-12-29T12:37:39Z</time>
      </trkpt>
      <trkpt lat="40.071505" lon="-2.066574">
        <ele>1205.4</ele>
        <time>2019-12-29T12:37:42Z</time>
      </trkpt>
      <trkpt lat="40.071530" lon="-2.066688">
        <ele>1205.8</ele>
        <time>2019-12-29T12:37:45Z</time>
      </trkpt>
      <trkpt lat="40.071540" lon="-2.066805">
        <ele>1206.2</ele>
        <time>2019-12-29T12:37:48Z</time>
      </trkpt>
      <trkpt lat="40.071543" lon="-2.066957">
        <ele>1207.0</ele>
        <time>2019-12-29T12:37:52Z</time>
      </trkpt>
      <trkpt lat="40.071525" lon="-2.067097">
        <ele>1207.4</ele>
        <time>2019-12-29T12:37:56Z</time>
      </trkpt>
      <trkpt lat="40.071510" lon="-2.067239">
        <ele>1208.0</ele>
        <time>2019-12-29T12:38:00Z</time>
      </trkpt>
      <trkpt lat="40.071482" lon="-2.067374">
        <ele>1208.5</ele>
        <time>2019-12-29T12:38:04Z</time>
      </trkpt>
      <trkpt lat="40.071450" lon="-2.067508">
        <ele>1209.2</ele>
        <time>2019-12-29T12:38:08Z</time>
      </trkpt>
      <trkpt lat="40.071396" lon="-2.067629">
        <ele>1209.6</ele>
        <time>2019-12-29T12:38:12Z</time>
      </trkpt>
      <trkpt lat="40.071323" lon="-2.067718">
        <ele>1210.2</ele>
        <time>2019-12-29T12:38:16Z</time>
      </trkpt>
      <trkpt lat="40.071243" lon="-2.067809">
        <ele>1210.9</ele>
        <time>2019-12-29T12:38:20Z</time>
      </trkpt>
      <trkpt lat="40.071145" lon="-2.067890">
        <ele>1211.6</ele>
        <time>2019-12-29T12:38:24Z</time>
      </trkpt>
      <trkpt lat="40.071058" lon="-2.067968">
        <ele>1212.1</ele>
        <time>2019-12-29T12:38:28Z</time>
      </trkpt>
      <trkpt lat="40.070963" lon="-2.068048">
        <ele>1213.0</ele>
        <time>2019-12-29T12:38:32Z</time>
      </trkpt>
      <trkpt lat="40.070867" lon="-2.068125">
        <ele>1213.3</ele>
        <time>2019-12-29T12:38:36Z</time>
      </trkpt>
      <trkpt lat="40.070774" lon="-2.068204">
        <ele>1213.8</ele>
        <time>2019-12-29T12:38:40Z</time>
      </trkpt>
      <trkpt lat="40.070680" lon="-2.068282">
        <ele>1214.2</ele>
        <time>2019-12-29T12:38:44Z</time>
      </trkpt>
      <trkpt lat="40.070587" lon="-2.068357">
        <ele>1214.7</ele>
        <time>2019-12-29T12:38:48Z</time>
      </trkpt>
      <trkpt lat="40.070494" lon="-2.068429">
        <ele>1216.1</ele>
        <time>2019-12-29T12:38:52Z</time>
      </trkpt>
      <trkpt lat="40.070400" lon="-2.068505">
        <ele>1216.7</ele>
        <time>2019-12-29T12:38:56Z</time>
      </trkpt>
      <trkpt lat="40.070312" lon="-2.068582">
        <ele>1217.0</ele>
        <time>2019-12-29T12:39:00Z</time>
      </trkpt>
      <trkpt lat="40.070226" lon="-2.068639">
        <ele>1217.2</ele>
        <time>2019-12-29T12:39:04Z</time>
      </trkpt>
      <trkpt lat="40.070149" lon="-2.068707">
        <ele>1217.8</ele>
        <time>2019-12-29T12:39:08Z</time>
      </trkpt>
      <trkpt lat="40.070062" lon="-2.068767">
        <ele>1218.6</ele>
        <time>2019-12-29T12:39:12Z</time>
      </trkpt>
      <trkpt lat="40.069976" lon="-2.068841">
        <ele>1219.2</ele>
        <time>2019-12-29T12:39:16Z</time>
      </trkpt>
      <trkpt lat="40.069895" lon="-2.068917">
        <ele>1219.9</ele>
        <time>2019-12-29T12:39:20Z</time>
      </trkpt>
      <trkpt lat="40.069812" lon="-2.068986">
        <ele>1220.3</ele>
        <time>2019-12-29T12:39:24Z</time>
      </trkpt>
      <trkpt lat="40.069728" lon="-2.069056">
        <ele>1220.9</ele>
        <time>2019-12-29T12:39:28Z</time>
      </trkpt>
      <trkpt lat="40.069642" lon="-2.069129">
        <ele>1221.5</ele>
        <time>2019-12-29T12:39:32Z</time>
      </trkpt>
      <trkpt lat="40.069555" lon="-2.069193">
        <ele>1222.2</ele>
        <time>2019-12-29T12:39:36Z</time>
      </trkpt>
      <trkpt lat="40.069467" lon="-2.069260">
        <ele>1222.7</ele>
        <time>2019-12-29T12:39:40Z</time>
      </trkpt>
      <trkpt lat="40.069382" lon="-2.069324">
        <ele>1223.2</ele>
        <time>2019-12-29T12:39:44Z</time>
      </trkpt>
      <trkpt lat="40.069286" lon="-2.069392">
        <ele>1223.9</ele>
        <time>2019-12-29T12:39:48Z</time>
      </trkpt>
      <trkpt lat="40.069189" lon="-2.069456">
        <ele>1224.4</ele>
        <time>2019-12-29T12:39:52Z</time>
      </trkpt>
      <trkpt lat="40.069099" lon="-2.069530">
        <ele>1224.6</ele>
        <time>2019-12-29T12:39:56Z</time>
      </trkpt>
      <trkpt lat="40.069006" lon="-2.069590">
        <ele>1224.7</ele>
        <time>2019-12-29T12:40:00Z</time>
      </trkpt>
      <trkpt lat="40.068917" lon="-2.069644">
        <ele>1224.9</ele>
        <time>2019-12-29T12:40:03Z</time>
      </trkpt>
      <trkpt lat="40.068833" lon="-2.069701">
        <ele>1225.1</ele>
        <time>2019-12-29T12:40:06Z</time>
      </trkpt>
      <trkpt lat="40.068752" lon="-2.069762">
        <ele>1225.3</ele>
        <time>2019-12-29T12:40:09Z</time>
      </trkpt>
      <trkpt lat="40.068672" lon="-2.069823">
        <ele>1225.5</ele>
        <time>2019-12-29T12:40:12Z</time>
      </trkpt>
      <trkpt lat="40.068594" lon="-2.069888">
        <ele>1225.7</ele>
        <time>2019-12-29T12:40:15Z</time>
      </trkpt>
      <trkpt lat="40.068508" lon="-2.069942">
        <ele>1226.0</ele>
        <time>2019-12-29T12:40:18Z</time>
      </trkpt>
      <trkpt lat="40.068425" lon="-2.070008">
        <ele>1226.3</ele>
        <time>2019-12-29T12:40:21Z</time>
      </trkpt>
      <trkpt lat="40.068332" lon="-2.070067">
        <ele>1226.6</ele>
        <time>2019-12-29T12:40:24Z</time>
      </trkpt>
      <trkpt lat="40.068236" lon="-2.070127">
        <ele>1226.7</ele>
        <time>2019-12-29T12:40:27Z</time>
      </trkpt>
      <trkpt lat="40.068141" lon="-2.070192">
        <ele>1226.8</ele>
        <time>2019-12-29T12:40:30Z</time>
      </trkpt>
      <trkpt lat="40.068053" lon="-2.070251">
        <ele>1227.3</ele>
        <time>2019-12-29T12:40:33Z</time>
      </trkpt>
      <trkpt lat="40.067969" lon="-2.070314">
        <ele>1227.5</ele>
        <time>2019-12-29T12:40:36Z</time>
      </trkpt>
      <trkpt lat="40.067882" lon="-2.070380">
        <ele>1228.0</ele>
        <time>2019-12-29T12:40:39Z</time>
      </trkpt>
      <trkpt lat="40.067784" lon="-2.070437">
        <ele>1228.7</ele>
        <time>2019-12-29T12:40:42Z</time>
      </trkpt>
      <trkpt lat="40.067682" lon="-2.070493">
        <ele>1229.1</ele>
        <time>2019-12-29T12:40:45Z</time>
      </trkpt>
      <trkpt lat="40.067577" lon="-2.070553">
        <ele>1229.2</ele>
        <time>2019-12-29T12:40:48Z</time>
      </trkpt>
      <trkpt lat="40.067479" lon="-2.070642">
        <ele>1229.3</ele>
        <time>2019-12-29T12:40:51Z</time>
      </trkpt>
      <trkpt lat="40.067379" lon="-2.070712">
        <ele>1229.3</ele>
        <time>2019-12-29T12:40:54Z</time>
      </trkpt>
      <trkpt lat="40.067282" lon="-2.070779">
        <ele>1229.5</ele>
        <time>2019-12-29T12:40:57Z</time>
      </trkpt>
      <trkpt lat="40.067182" lon="-2.070841">
        <ele>1230.0</ele>
        <time>2019-12-29T12:41:00Z</time>
      </trkpt>
      <trkpt lat="40.067097" lon="-2.070916">
        <ele>1230.3</ele>
        <time>2019-12-29T12:41:03Z</time>
      </trkpt>
      <trkpt lat="40.067012" lon="-2.070971">
        <ele>1230.5</ele>
        <time>2019-12-29T12:41:06Z</time>
      </trkpt>
      <trkpt lat="40.066908" lon="-2.071036">
        <ele>1230.7</ele>
        <time>2019-12-29T12:41:10Z</time>
      </trkpt>
      <trkpt lat="40.066814" lon="-2.071100">
        <ele>1230.9</ele>
        <time>2019-12-29T12:41:14Z</time>
      </trkpt>
      <trkpt lat="40.066716" lon="-2.071161">
        <ele>1231.4</ele>
        <time>2019-12-29T12:41:18Z</time>
      </trkpt>
      <trkpt lat="40.066622" lon="-2.071220">
        <ele>1232.3</ele>
        <time>2019-12-29T12:41:22Z</time>
      </trkpt>
      <trkpt lat="40.066527" lon="-2.071283">
        <ele>1233.3</ele>
        <time>2019-12-29T12:41:26Z</time>
      </trkpt>
      <trkpt lat="40.066442" lon="-2.071339">
        <ele>1233.8</ele>
        <time>2019-12-29T12:41:30Z</time>
      </trkpt>
      <trkpt lat="40.066353" lon="-2.071395">
        <ele>1234.2</ele>
        <time>2019-12-29T12:41:34Z</time>
      </trkpt>
      <trkpt lat="40.066261" lon="-2.071417">
        <ele>1234.9</ele>
        <time>2019-12-29T12:41:38Z</time>
      </trkpt>
      <trkpt lat="40.066172" lon="-2.071441">
        <ele>1235.9</ele>
        <time>2019-12-29T12:41:42Z</time>
      </trkpt>
      <trkpt lat="40.066082" lon="-2.071454">
        <ele>1236.9</ele>
        <time>2019-12-29T12:41:46Z</time>
      </trkpt>
      <trkpt lat="40.065986" lon="-2.071458">
        <ele>1238.2</ele>
        <time>2019-12-29T12:41:51Z</time>
      </trkpt>
      <trkpt lat="40.065878" lon="-2.071453">
        <ele>1239.6</ele>
        <time>2019-12-29T12:41:57Z</time>
      </trkpt>
      <trkpt lat="40.065778" lon="-2.071427">
        <ele>1240.4</ele>
        <time>2019-12-29T12:42:02Z</time>
      </trkpt>
      <trkpt lat="40.065674" lon="-2.071414">
        <ele>1241.0</ele>
        <time>2019-12-29T12:42:07Z</time>
      </trkpt>
      <trkpt lat="40.065588" lon="-2.071367">
        <ele>1241.6</ele>
        <time>2019-12-29T12:42:12Z</time>
      </trkpt>
      <trkpt lat="40.065498" lon="-2.071318">
        <ele>1242.7</ele>
        <time>2019-12-29T12:42:17Z</time>
      </trkpt>
      <trkpt lat="40.065415" lon="-2.071270">
        <ele>1243.3</ele>
        <time>2019-12-29T12:42:21Z</time>
      </trkpt>
      <trkpt lat="40.065327" lon="-2.071207">
        <ele>1243.9</ele>
        <time>2019-12-29T12:42:26Z</time>
      </trkpt>
      <trkpt lat="40.065239" lon="-2.071145">
        <ele>1245.1</ele>
        <time>2019-12-29T12:42:31Z</time>
      </trkpt>
      <trkpt lat="40.065153" lon="-2.071087">
        <ele>1245.9</ele>
        <time>2019-12-29T12:42:36Z</time>
      </trkpt>
      <trkpt lat="40.065072" lon="-2.071016">
        <ele>1246.5</ele>
        <time>2019-12-29T12:42:41Z</time>
      </trkpt>
      <trkpt lat="40.064979" lon="-2.070952">
        <ele>1247.4</ele>
        <time>2019-12-29T12:42:46Z</time>
      </trkpt>
      <trkpt lat="40.064885" lon="-2.070886">
        <ele>1248.0</ele>
        <time>2019-12-29T12:42:51Z</time>
      </trkpt>
      <trkpt lat="40.064797" lon="-2.070818">
        <ele>1248.4</ele>
        <time>2019-12-29T12:42:56Z</time>
      </trkpt>
      <trkpt lat="40.064712" lon="-2.070742">
        <ele>1249.4</ele>
        <time>2019-12-29T12:43:01Z</time>
      </trkpt>
      <trkpt lat="40.064625" lon="-2.070676">
        <ele>1249.8</ele>
        <time>2019-12-29T12:43:06Z</time>
      </trkpt>
      <trkpt lat="40.064533" lon="-2.070602">
        <ele>1250.7</ele>
        <time>2019-12-29T12:43:11Z</time>
      </trkpt>
      <trkpt lat="40.064444" lon="-2.070531">
        <ele>1251.3</ele>
        <time>2019-12-29T12:43:16Z</time>
      </trkpt>
      <trkpt lat="40.064359" lon="-2.070458">
        <ele>1252.0</ele>
        <time>2019-12-29T12:43:21Z</time>
      </trkpt>
      <trkpt lat="40.064277" lon="-2.070381">
        <ele>1253.2</ele>
        <time>2019-12-29T12:43:26Z</time>
      </trkpt>
      <trkpt lat="40.064182" lon="-2.070318">
        <ele>1254.3</ele>
        <time>2019-12-29T12:43:31Z</time>
      </trkpt>
      <trkpt lat="40.064087" lon="-2.070263">
        <ele>1255.2</ele>
        <time>2019-12-29T12:43:36Z</time>
      </trkpt>
      <trkpt lat="40.064011" lon="-2.070195">
        <ele>1255.6</ele>
        <time>2019-12-29T12:43:40Z</time>
      </trkpt>
      <trkpt lat="40.063936" lon="-2.070126">
        <ele>1256.0</ele>
        <time>2019-12-29T12:43:44Z</time>
      </trkpt>
      <trkpt lat="40.063858" lon="-2.070060">
        <ele>1256.7</ele>
        <time>2019-12-29T12:43:48Z</time>
      </trkpt>
      <trkpt lat="40.063776" lon="-2.069995">
        <ele>1257.5</ele>
        <time>2019-12-29T12:43:52Z</time>
      </trkpt>
      <trkpt lat="40.063697" lon="-2.069929">
        <ele>1258.1</ele>
        <time>2019-12-29T12:43:56Z</time>
      </trkpt>
      <trkpt lat="40.063613" lon="-2.069862">
        <ele>1258.7</ele>
        <time>2019-12-29T12:44:00Z</time>
      </trkpt>
      <trkpt lat="40.063530" lon="-2.069796">
        <ele>1259.4</ele>
        <time>2019-12-29T12:44:04Z</time>
      </trkpt>
      <trkpt lat="40.063439" lon="-2.069745">
        <ele>1260.0</ele>
        <time>2019-12-29T12:44:08Z</time>
      </trkpt>
      <trkpt lat="40.063345" lon="-2.069728">
        <ele>1260.5</ele>
        <time>2019-12-29T12:44:12Z</time>
      </trkpt>
      <trkpt lat="40.063264" lon="-2.069809">
        <ele>1261.1</ele>
        <time>2019-12-29T12:44:19Z</time>
      </trkpt>
      <trkpt lat="40.063303" lon="-2.069938">
        <ele>1261.3</ele>
        <time>2019-12-29T12:44:24Z</time>
      </trkpt>
      <trkpt lat="40.063374" lon="-2.070059">
        <ele>1261.3</ele>
        <time>2019-12-29T12:44:28Z</time>
      </trkpt>
      <trkpt lat="40.063429" lon="-2.070171">
        <ele>1261.3</ele>
        <time>2019-12-29T12:44:31Z</time>
      </trkpt>
      <trkpt lat="40.063491" lon="-2.070277">
        <ele>1261.2</ele>
        <time>2019-12-29T12:44:34Z</time>
      </trkpt>
      <trkpt lat="40.063554" lon="-2.070378">
        <ele>1261.2</ele>
        <time>2019-12-29T12:44:37Z</time>
      </trkpt>
      <trkpt lat="40.063618" lon="-2.070487">
        <ele>1261.3</ele>
        <time>2019-12-29T12:44:40Z</time>
      </trkpt>
      <trkpt lat="40.063690" lon="-2.070604">
        <ele>1261.5</ele>
        <time>2019-12-29T12:44:43Z</time>
      </trkpt>
      <trkpt lat="40.063758" lon="-2.070726">
        <ele>1261.6</ele>
        <time>2019-12-29T12:44:46Z</time>
      </trkpt>
      <trkpt lat="40.063833" lon="-2.070846">
        <ele>1261.8</ele>
        <time>2019-12-29T12:44:49Z</time>
      </trkpt>
      <trkpt lat="40.063906" lon="-2.070966">
        <ele>1262.0</ele>
        <time>2019-12-29T12:44:52Z</time>
      </trkpt>
      <trkpt lat="40.063974" lon="-2.071085">
        <ele>1261.9</ele>
        <time>2019-12-29T12:44:55Z</time>
      </trkpt>
      <trkpt lat="40.064046" lon="-2.071208">
        <ele>1261.8</ele>
        <time>2019-12-29T12:44:58Z</time>
      </trkpt>
      <trkpt lat="40.064102" lon="-2.071302">
        <ele>1261.8</ele>
        <time>2019-12-29T12:45:00Z</time>
      </trkpt>
      <trkpt lat="40.064155" lon="-2.071404">
        <ele>1261.7</ele>
        <time>2019-12-29T12:45:02Z</time>
      </trkpt>
      <trkpt lat="40.064214" lon="-2.071494">
        <ele>1261.4</ele>
        <time>2019-12-29T12:45:04Z</time>
      </trkpt>
      <trkpt lat="40.064277" lon="-2.071586">
        <ele>1261.2</ele>
        <time>2019-12-29T12:45:06Z</time>
      </trkpt>
      <trkpt lat="40.064349" lon="-2.071733">
        <ele>1260.9</ele>
        <time>2019-12-29T12:45:09Z</time>
      </trkpt>
      <trkpt lat="40.064401" lon="-2.071882">
        <ele>1260.8</ele>
        <time>2019-12-29T12:45:12Z</time>
      </trkpt>
      <trkpt lat="40.064426" lon="-2.071995">
        <ele>1260.7</ele>
        <time>2019-12-29T12:45:14Z</time>
      </trkpt>
      <trkpt lat="40.064471" lon="-2.072157">
        <ele>1260.6</ele>
        <time>2019-12-29T12:45:17Z</time>
      </trkpt>
      <trkpt lat="40.064511" lon="-2.072322">
        <ele>1260.6</ele>
        <time>2019-12-29T12:45:20Z</time>
      </trkpt>
      <trkpt lat="40.064543" lon="-2.072439">
        <ele>1260.6</ele>
        <time>2019-12-29T12:45:22Z</time>
      </trkpt>
      <trkpt lat="40.064570" lon="-2.072560">
        <ele>1260.7</ele>
        <time>2019-12-29T12:45:24Z</time>
      </trkpt>
      <trkpt lat="40.064597" lon="-2.072675">
        <ele>1260.4</ele>
        <time>2019-12-29T12:45:26Z</time>
      </trkpt>
      <trkpt lat="40.064633" lon="-2.072845">
        <ele>1260.2</ele>
        <time>2019-12-29T12:45:29Z</time>
      </trkpt>
      <trkpt lat="40.064676" lon="-2.073010">
        <ele>1260.1</ele>
        <time>2019-12-29T12:45:32Z</time>
      </trkpt>
      <trkpt lat="40.064702" lon="-2.073124">
        <ele>1260.1</ele>
        <time>2019-12-29T12:45:34Z</time>
      </trkpt>
      <trkpt lat="40.064718" lon="-2.073247">
        <ele>1260.2</ele>
        <time>2019-12-29T12:45:36Z</time>
      </trkpt>
      <trkpt lat="40.064731" lon="-2.073370">
        <ele>1260.2</ele>
        <time>2019-12-29T12:45:38Z</time>
      </trkpt>
      <trkpt lat="40.064728" lon="-2.073522">
        <ele>1260.1</ele>
        <time>2019-12-29T12:45:41Z</time>
      </trkpt>
      <trkpt lat="40.064756" lon="-2.073647">
        <ele>1260.0</ele>
        <time>2019-12-29T12:45:44Z</time>
      </trkpt>
      <trkpt lat="40.064787" lon="-2.073784">
        <ele>1259.8</ele>
        <time>2019-12-29T12:45:47Z</time>
      </trkpt>
      <trkpt lat="40.064838" lon="-2.073916">
        <ele>1259.7</ele>
        <time>2019-12-29T12:45:50Z</time>
      </trkpt>
      <trkpt lat="40.064870" lon="-2.074060">
        <ele>1259.8</ele>
        <time>2019-12-29T12:45:53Z</time>
      </trkpt>
      <trkpt lat="40.064898" lon="-2.074215">
        <ele>1259.9</ele>
        <time>2019-12-29T12:45:56Z</time>
      </trkpt>
      <trkpt lat="40.064931" lon="-2.074381">
        <ele>1259.9</ele>
        <time>2019-12-29T12:45:59Z</time>
      </trkpt>
      <trkpt lat="40.064962" lon="-2.074548">
        <ele>1259.9</ele>
        <time>2019-12-29T12:46:02Z</time>
      </trkpt>
      <trkpt lat="40.065002" lon="-2.074706">
        <ele>1259.9</ele>
        <time>2019-12-29T12:46:05Z</time>
      </trkpt>
      <trkpt lat="40.065022" lon="-2.074823">
        <ele>1259.9</ele>
        <time>2019-12-29T12:46:07Z</time>
      </trkpt>
      <trkpt lat="40.065051" lon="-2.074939">
        <ele>1260.0</ele>
        <time>2019-12-29T12:46:09Z</time>
      </trkpt>
      <trkpt lat="40.065082" lon="-2.075055">
        <ele>1260.2</ele>
        <time>2019-12-29T12:46:11Z</time>
      </trkpt>
      <trkpt lat="40.065117" lon="-2.075169">
        <ele>1260.4</ele>
        <time>2019-12-29T12:46:13Z</time>
      </trkpt>
      <trkpt lat="40.065143" lon="-2.075283">
        <ele>1260.5</ele>
        <time>2019-12-29T12:46:15Z</time>
      </trkpt>
      <trkpt lat="40.065171" lon="-2.075398">
        <ele>1260.6</ele>
        <time>2019-12-29T12:46:17Z</time>
      </trkpt>
      <trkpt lat="40.065192" lon="-2.075517">
        <ele>1260.7</ele>
        <time>2019-12-29T12:46:19Z</time>
      </trkpt>
      <trkpt lat="40.065213" lon="-2.075637">
        <ele>1260.8</ele>
        <time>2019-12-29T12:46:21Z</time>
      </trkpt>
      <trkpt lat="40.065234" lon="-2.075754">
        <ele>1260.8</ele>
        <time>2019-12-29T12:46:23Z</time>
      </trkpt>
      <trkpt lat="40.065261" lon="-2.075871">
        <ele>1260.9</ele>
        <time>2019-12-29T12:46:25Z</time>
      </trkpt>
      <trkpt lat="40.065292" lon="-2.075987">
        <ele>1260.9</ele>
        <time>2019-12-29T12:46:27Z</time>
      </trkpt>
      <trkpt lat="40.065315" lon="-2.076108">
        <ele>1260.8</ele>
        <time>2019-12-29T12:46:29Z</time>
      </trkpt>
      <trkpt lat="40.065342" lon="-2.076228">
        <ele>1260.7</ele>
        <time>2019-12-29T12:46:31Z</time>
      </trkpt>
      <trkpt lat="40.065378" lon="-2.076342">
        <ele>1260.6</ele>
        <time>2019-12-29T12:46:33Z</time>
      </trkpt>
      <trkpt lat="40.065418" lon="-2.076461">
        <ele>1260.6</ele>
        <time>2019-12-29T12:46:35Z</time>
      </trkpt>
      <trkpt lat="40.065460" lon="-2.076581">
        <ele>1260.6</ele>
        <time>2019-12-29T12:46:37Z</time>
      </trkpt>
      <trkpt lat="40.065506" lon="-2.076696">
        <ele>1260.6</ele>
        <time>2019-12-29T12:46:39Z</time>
      </trkpt>
      <trkpt lat="40.065561" lon="-2.076806">
        <ele>1260.6</ele>
        <time>2019-12-29T12:46:41Z</time>
      </trkpt>
      <trkpt lat="40.065610" lon="-2.076913">
        <ele>1260.5</ele>
        <time>2019-12-29T12:46:43Z</time>
      </trkpt>
      <trkpt lat="40.065662" lon="-2.077020">
        <ele>1260.4</ele>
        <time>2019-12-29T12:46:45Z</time>
      </trkpt>
      <trkpt lat="40.065702" lon="-2.077133">
        <ele>1260.2</ele>
        <time>2019-12-29T12:46:47Z</time>
      </trkpt>
      <trkpt lat="40.065743" lon="-2.077246">
        <ele>1260.0</ele>
        <time>2019-12-29T12:46:49Z</time>
      </trkpt>
      <trkpt lat="40.065772" lon="-2.077367">
        <ele>1259.8</ele>
        <time>2019-12-29T12:46:51Z</time>
      </trkpt>
      <trkpt lat="40.065816" lon="-2.077473">
        <ele>1259.6</ele>
        <time>2019-12-29T12:46:53Z</time>
      </trkpt>
      <trkpt lat="40.065866" lon="-2.077578">
        <ele>1259.5</ele>
        <time>2019-12-29T12:46:55Z</time>
      </trkpt>
      <trkpt lat="40.065914" lon="-2.077682">
        <ele>1259.5</ele>
        <time>2019-12-29T12:46:57Z</time>
      </trkpt>
      <trkpt lat="40.065973" lon="-2.077776">
        <ele>1259.5</ele>
        <time>2019-12-29T12:46:59Z</time>
      </trkpt>
      <trkpt lat="40.066027" lon="-2.077876">
        <ele>1259.5</ele>
        <time>2019-12-29T12:47:01Z</time>
      </trkpt>
      <trkpt lat="40.066075" lon="-2.077979">
        <ele>1259.6</ele>
        <time>2019-12-29T12:47:03Z</time>
      </trkpt>
      <trkpt lat="40.066125" lon="-2.078089">
        <ele>1259.9</ele>
        <time>2019-12-29T12:47:05Z</time>
      </trkpt>
      <trkpt lat="40.066170" lon="-2.078212">
        <ele>1260.0</ele>
        <time>2019-12-29T12:47:07Z</time>
      </trkpt>
      <trkpt lat="40.066211" lon="-2.078347">
        <ele>1260.0</ele>
        <time>2019-12-29T12:47:09Z</time>
      </trkpt>
      <trkpt lat="40.066235" lon="-2.078484">
        <ele>1260.0</ele>
        <time>2019-12-29T12:47:11Z</time>
      </trkpt>
      <trkpt lat="40.066249" lon="-2.078622">
        <ele>1259.8</ele>
        <time>2019-12-29T12:47:13Z</time>
      </trkpt>
      <trkpt lat="40.066266" lon="-2.078762">
        <ele>1259.5</ele>
        <time>2019-12-29T12:47:15Z</time>
      </trkpt>
      <trkpt lat="40.066279" lon="-2.078908">
        <ele>1259.0</ele>
        <time>2019-12-29T12:47:17Z</time>
      </trkpt>
      <trkpt lat="40.066293" lon="-2.079055">
        <ele>1258.5</ele>
        <time>2019-12-29T12:47:19Z</time>
      </trkpt>
      <trkpt lat="40.066300" lon="-2.079202">
        <ele>1258.2</ele>
        <time>2019-12-29T12:47:21Z</time>
      </trkpt>
      <trkpt lat="40.066309" lon="-2.079353">
        <ele>1257.9</ele>
        <time>2019-12-29T12:47:23Z</time>
      </trkpt>
      <trkpt lat="40.066326" lon="-2.079511">
        <ele>1257.5</ele>
        <time>2019-12-29T12:47:25Z</time>
      </trkpt>
      <trkpt lat="40.066349" lon="-2.079677">
        <ele>1256.9</ele>
        <time>2019-12-29T12:47:27Z</time>
      </trkpt>
      <trkpt lat="40.066367" lon="-2.079851">
        <ele>1256.3</ele>
        <time>2019-12-29T12:47:29Z</time>
      </trkpt>
      <trkpt lat="40.066383" lon="-2.080031">
        <ele>1255.6</ele>
        <time>2019-12-29T12:47:31Z</time>
      </trkpt>
      <trkpt lat="40.066396" lon="-2.080217">
        <ele>1254.9</ele>
        <time>2019-12-29T12:47:33Z</time>
      </trkpt>
      <trkpt lat="40.066413" lon="-2.080404">
        <ele>1254.3</ele>
        <time>2019-12-29T12:47:35Z</time>
      </trkpt>
      <trkpt lat="40.066427" lon="-2.080588">
        <ele>1253.9</ele>
        <time>2019-12-29T12:47:37Z</time>
      </trkpt>
      <trkpt lat="40.066445" lon="-2.080767">
        <ele>1253.4</ele>
        <time>2019-12-29T12:47:39Z</time>
      </trkpt>
      <trkpt lat="40.066465" lon="-2.080936">
        <ele>1252.6</ele>
        <time>2019-12-29T12:47:41Z</time>
      </trkpt>
      <trkpt lat="40.066471" lon="-2.081103">
        <ele>1251.8</ele>
        <time>2019-12-29T12:47:43Z</time>
      </trkpt>
      <trkpt lat="40.066480" lon="-2.081270">
        <ele>1251.1</ele>
        <time>2019-12-29T12:47:45Z</time>
      </trkpt>
      <trkpt lat="40.066495" lon="-2.081435">
        <ele>1250.6</ele>
        <time>2019-12-29T12:47:47Z</time>
      </trkpt>
      <trkpt lat="40.066513" lon="-2.081597">
        <ele>1250.1</ele>
        <time>2019-12-29T12:47:49Z</time>
      </trkpt>
      <trkpt lat="40.066534" lon="-2.081755">
        <ele>1249.7</ele>
        <time>2019-12-29T12:47:51Z</time>
      </trkpt>
      <trkpt lat="40.066558" lon="-2.081915">
        <ele>1249.3</ele>
        <time>2019-12-29T12:47:53Z</time>
      </trkpt>
      <trkpt lat="40.066590" lon="-2.082062">
        <ele>1249.0</ele>
        <time>2019-12-29T12:47:55Z</time>
      </trkpt>
      <trkpt lat="40.066621" lon="-2.082203">
        <ele>1248.8</ele>
        <time>2019-12-29T12:47:57Z</time>
      </trkpt>
      <trkpt lat="40.066650" lon="-2.082338">
        <ele>1248.7</ele>
        <time>2019-12-29T12:47:59Z</time>
      </trkpt>
      <trkpt lat="40.066674" lon="-2.082471">
        <ele>1248.6</ele>
        <time>2019-12-29T12:48:01Z</time>
      </trkpt>
      <trkpt lat="40.066700" lon="-2.082605">
        <ele>1248.5</ele>
        <time>2019-12-29T12:48:03Z</time>
      </trkpt>
      <trkpt lat="40.066726" lon="-2.082735">
        <ele>1248.5</ele>
        <time>2019-12-29T12:48:05Z</time>
      </trkpt>
      <trkpt lat="40.066749" lon="-2.082868">
        <ele>1248.4</ele>
        <time>2019-12-29T12:48:07Z</time>
      </trkpt>
      <trkpt lat="40.066779" lon="-2.082999">
        <ele>1248.4</ele>
        <time>2019-12-29T12:48:09Z</time>
      </trkpt>
      <trkpt lat="40.066798" lon="-2.083132">
        <ele>1248.6</ele>
        <time>2019-12-29T12:48:11Z</time>
      </trkpt>
      <trkpt lat="40.066826" lon="-2.083263">
        <ele>1248.8</ele>
        <time>2019-12-29T12:48:13Z</time>
      </trkpt>
      <trkpt lat="40.066865" lon="-2.083382">
        <ele>1248.9</ele>
        <time>2019-12-29T12:48:15Z</time>
      </trkpt>
      <trkpt lat="40.066905" lon="-2.083501">
        <ele>1249.0</ele>
        <time>2019-12-29T12:48:17Z</time>
      </trkpt>
      <trkpt lat="40.066939" lon="-2.083617">
        <ele>1249.2</ele>
        <time>2019-12-29T12:48:19Z</time>
      </trkpt>
      <trkpt lat="40.066973" lon="-2.083730">
        <ele>1249.5</ele>
        <time>2019-12-29T12:48:21Z</time>
      </trkpt>
      <trkpt lat="40.067004" lon="-2.083843">
        <ele>1249.9</ele>
        <time>2019-12-29T12:48:23Z</time>
      </trkpt>
      <trkpt lat="40.067044" lon="-2.084003">
        <ele>1250.5</ele>
        <time>2019-12-29T12:48:26Z</time>
      </trkpt>
      <trkpt lat="40.067087" lon="-2.084157">
        <ele>1250.8</ele>
        <time>2019-12-29T12:48:29Z</time>
      </trkpt>
      <trkpt lat="40.067132" lon="-2.084308">
        <ele>1251.6</ele>
        <time>2019-12-29T12:48:32Z</time>
      </trkpt>
      <trkpt lat="40.067175" lon="-2.084451">
        <ele>1252.5</ele>
        <time>2019-12-29T12:48:35Z</time>
      </trkpt>
      <trkpt lat="40.067214" lon="-2.084587">
        <ele>1253.1</ele>
        <time>2019-12-29T12:48:38Z</time>
      </trkpt>
      <trkpt lat="40.067254" lon="-2.084719">
        <ele>1253.5</ele>
        <time>2019-12-29T12:48:41Z</time>
      </trkpt>
      <trkpt lat="40.067289" lon="-2.084856">
        <ele>1253.8</ele>
        <time>2019-12-29T12:48:44Z</time>
      </trkpt>
      <trkpt lat="40.067327" lon="-2.084992">
        <ele>1254.3</ele>
        <time>2019-12-29T12:48:47Z</time>
      </trkpt>
      <trkpt lat="40.067373" lon="-2.085132">
        <ele>1254.9</ele>
        <time>2019-12-29T12:48:50Z</time>
      </trkpt>
      <trkpt lat="40.067413" lon="-2.085276">
        <ele>1255.5</ele>
        <time>2019-12-29T12:48:53Z</time>
      </trkpt>
      <trkpt lat="40.067454" lon="-2.085421">
        <ele>1255.9</ele>
        <time>2019-12-29T12:48:56Z</time>
      </trkpt>
      <trkpt lat="40.067494" lon="-2.085568">
        <ele>1256.0</ele>
        <time>2019-12-29T12:48:59Z</time>
      </trkpt>
      <trkpt lat="40.067544" lon="-2.085711">
        <ele>1256.0</ele>
        <time>2019-12-29T12:49:02Z</time>
      </trkpt>
      <trkpt lat="40.067593" lon="-2.085866">
        <ele>1255.8</ele>
        <time>2019-12-29T12:49:05Z</time>
      </trkpt>
      <trkpt lat="40.067634" lon="-2.086019">
        <ele>1255.7</ele>
        <time>2019-12-29T12:49:08Z</time>
      </trkpt>
      <trkpt lat="40.067668" lon="-2.086181">
        <ele>1255.7</ele>
        <time>2019-12-29T12:49:11Z</time>
      </trkpt>
      <trkpt lat="40.067709" lon="-2.086351">
        <ele>1255.7</ele>
        <time>2019-12-29T12:49:14Z</time>
      </trkpt>
      <trkpt lat="40.067740" lon="-2.086468">
        <ele>1255.8</ele>
        <time>2019-12-29T12:49:16Z</time>
      </trkpt>
      <trkpt lat="40.067783" lon="-2.086582">
        <ele>1255.9</ele>
        <time>2019-12-29T12:49:18Z</time>
      </trkpt>
      <trkpt lat="40.067818" lon="-2.086704">
        <ele>1255.7</ele>
        <time>2019-12-29T12:49:20Z</time>
      </trkpt>
      <trkpt lat="40.067841" lon="-2.086831">
        <ele>1255.6</ele>
        <time>2019-12-29T12:49:22Z</time>
      </trkpt>
      <trkpt lat="40.067863" lon="-2.086963">
        <ele>1255.4</ele>
        <time>2019-12-29T12:49:24Z</time>
      </trkpt>
      <trkpt lat="40.067903" lon="-2.087093">
        <ele>1255.4</ele>
        <time>2019-12-29T12:49:26Z</time>
      </trkpt>
      <trkpt lat="40.067944" lon="-2.087226">
        <ele>1254.9</ele>
        <time>2019-12-29T12:49:28Z</time>
      </trkpt>
      <trkpt lat="40.067981" lon="-2.087372">
        <ele>1254.6</ele>
        <time>2019-12-29T12:49:30Z</time>
      </trkpt>
      <trkpt lat="40.068029" lon="-2.087519">
        <ele>1254.1</ele>
        <time>2019-12-29T12:49:32Z</time>
      </trkpt>
      <trkpt lat="40.068075" lon="-2.087669">
        <ele>1253.6</ele>
        <time>2019-12-29T12:49:34Z</time>
      </trkpt>
      <trkpt lat="40.068123" lon="-2.087822">
        <ele>1253.3</ele>
        <time>2019-12-29T12:49:36Z</time>
      </trkpt>
      <trkpt lat="40.068168" lon="-2.087976">
        <ele>1252.6</ele>
        <time>2019-12-29T12:49:38Z</time>
      </trkpt>
      <trkpt lat="40.068215" lon="-2.088124">
        <ele>1252.0</ele>
        <time>2019-12-29T12:49:40Z</time>
      </trkpt>
      <trkpt lat="40.068256" lon="-2.088272">
        <ele>1251.3</ele>
        <time>2019-12-29T12:49:42Z</time>
      </trkpt>
      <trkpt lat="40.068291" lon="-2.088435">
        <ele>1250.7</ele>
        <time>2019-12-29T12:49:44Z</time>
      </trkpt>
      <trkpt lat="40.068336" lon="-2.088615">
        <ele>1250.1</ele>
        <time>2019-12-29T12:49:46Z</time>
      </trkpt>
      <trkpt lat="40.068383" lon="-2.088802">
        <ele>1249.7</ele>
        <time>2019-12-29T12:49:48Z</time>
      </trkpt>
      <trkpt lat="40.068435" lon="-2.088998">
        <ele>1249.3</ele>
        <time>2019-12-29T12:49:50Z</time>
      </trkpt>
      <trkpt lat="40.068498" lon="-2.089195">
        <ele>1249.0</ele>
        <time>2019-12-29T12:49:52Z</time>
      </trkpt>
      <trkpt lat="40.068628" lon="-2.089669">
        <ele>1249.0</ele>
        <time>2019-12-29T12:49:57Z</time>
      </trkpt>
      <trkpt lat="40.068684" lon="-2.089866">
        <ele>1248.5</ele>
        <time>2019-12-29T12:49:59Z</time>
      </trkpt>
      <trkpt lat="40.068739" lon="-2.090068">
        <ele>1247.6</ele>
        <time>2019-12-29T12:50:01Z</time>
      </trkpt>
      <trkpt lat="40.068788" lon="-2.090265">
        <ele>1246.7</ele>
        <time>2019-12-29T12:50:03Z</time>
      </trkpt>
      <trkpt lat="40.068828" lon="-2.090457">
        <ele>1245.9</ele>
        <time>2019-12-29T12:50:05Z</time>
      </trkpt>
      <trkpt lat="40.068868" lon="-2.090648">
        <ele>1245.1</ele>
        <time>2019-12-29T12:50:07Z</time>
      </trkpt>
      <trkpt lat="40.068915" lon="-2.090826">
        <ele>1244.5</ele>
        <time>2019-12-29T12:50:09Z</time>
      </trkpt>
      <trkpt lat="40.068960" lon="-2.090996">
        <ele>1244.1</ele>
        <time>2019-12-29T12:50:11Z</time>
      </trkpt>
      <trkpt lat="40.069042" lon="-2.091142">
        <ele>1243.9</ele>
        <time>2019-12-29T12:50:13Z</time>
      </trkpt>
      <trkpt lat="40.069098" lon="-2.091300">
        <ele>1243.7</ele>
        <time>2019-12-29T12:50:15Z</time>
      </trkpt>
      <trkpt lat="40.069129" lon="-2.091465">
        <ele>1243.6</ele>
        <time>2019-12-29T12:50:17Z</time>
      </trkpt>
      <trkpt lat="40.069146" lon="-2.091628">
        <ele>1243.5</ele>
        <time>2019-12-29T12:50:19Z</time>
      </trkpt>
      <trkpt lat="40.069163" lon="-2.091783">
        <ele>1243.3</ele>
        <time>2019-12-29T12:50:21Z</time>
      </trkpt>
      <trkpt lat="40.069171" lon="-2.091937">
        <ele>1243.1</ele>
        <time>2019-12-29T12:50:23Z</time>
      </trkpt>
      <trkpt lat="40.069165" lon="-2.092091">
        <ele>1243.1</ele>
        <time>2019-12-29T12:50:25Z</time>
      </trkpt>
      <trkpt lat="40.069142" lon="-2.092245">
        <ele>1243.2</ele>
        <time>2019-12-29T12:50:27Z</time>
      </trkpt>
      <trkpt lat="40.069119" lon="-2.092396">
        <ele>1243.3</ele>
        <time>2019-12-29T12:50:29Z</time>
      </trkpt>
      <trkpt lat="40.069116" lon="-2.092548">
        <ele>1243.3</ele>
        <time>2019-12-29T12:50:31Z</time>
      </trkpt>
      <trkpt lat="40.069107" lon="-2.092700">
        <ele>1243.3</ele>
        <time>2019-12-29T12:50:33Z</time>
      </trkpt>
      <trkpt lat="40.069103" lon="-2.092839">
        <ele>1243.2</ele>
        <time>2019-12-29T12:50:35Z</time>
      </trkpt>
      <trkpt lat="40.069089" lon="-2.092972">
        <ele>1243.1</ele>
        <time>2019-12-29T12:50:37Z</time>
      </trkpt>
      <trkpt lat="40.069077" lon="-2.093099">
        <ele>1243.1</ele>
        <time>2019-12-29T12:50:39Z</time>
      </trkpt>
      <trkpt lat="40.069061" lon="-2.093234">
        <ele>1243.0</ele>
        <time>2019-12-29T12:50:41Z</time>
      </trkpt>
      <trkpt lat="40.069055" lon="-2.093385">
        <ele>1242.9</ele>
        <time>2019-12-29T12:50:43Z</time>
      </trkpt>
      <trkpt lat="40.069045" lon="-2.093542">
        <ele>1242.6</ele>
        <time>2019-12-29T12:50:45Z</time>
      </trkpt>
      <trkpt lat="40.069027" lon="-2.093701">
        <ele>1242.2</ele>
        <time>2019-12-29T12:50:47Z</time>
      </trkpt>
      <trkpt lat="40.069012" lon="-2.093863">
        <ele>1241.8</ele>
        <time>2019-12-29T12:50:49Z</time>
      </trkpt>
      <trkpt lat="40.069000" lon="-2.094031">
        <ele>1241.4</ele>
        <time>2019-12-29T12:50:51Z</time>
      </trkpt>
      <trkpt lat="40.068995" lon="-2.094203">
        <ele>1240.8</ele>
        <time>2019-12-29T12:50:53Z</time>
      </trkpt>
      <trkpt lat="40.068978" lon="-2.094385">
        <ele>1239.9</ele>
        <time>2019-12-29T12:50:55Z</time>
      </trkpt>
      <trkpt lat="40.068953" lon="-2.094577">
        <ele>1239.1</ele>
        <time>2019-12-29T12:50:57Z</time>
      </trkpt>
      <trkpt lat="40.068909" lon="-2.094773">
        <ele>1238.5</ele>
        <time>2019-12-29T12:50:59Z</time>
      </trkpt>
      <trkpt lat="40.068895" lon="-2.094975">
        <ele>1237.6</ele>
        <time>2019-12-29T12:51:01Z</time>
      </trkpt>
      <trkpt lat="40.068877" lon="-2.095181">
        <ele>1236.7</ele>
        <time>2019-12-29T12:51:03Z</time>
      </trkpt>
      <trkpt lat="40.068850" lon="-2.095384">
        <ele>1235.7</ele>
        <time>2019-12-29T12:51:05Z</time>
      </trkpt>
      <trkpt lat="40.068830" lon="-2.095590">
        <ele>1234.8</ele>
        <time>2019-12-29T12:51:07Z</time>
      </trkpt>
      <trkpt lat="40.068809" lon="-2.095798">
        <ele>1234.1</ele>
        <time>2019-12-29T12:51:09Z</time>
      </trkpt>
      <trkpt lat="40.068803" lon="-2.096002">
        <ele>1233.3</ele>
        <time>2019-12-29T12:51:11Z</time>
      </trkpt>
      <trkpt lat="40.068796" lon="-2.096200">
        <ele>1232.6</ele>
        <time>2019-12-29T12:51:13Z</time>
      </trkpt>
      <trkpt lat="40.068773" lon="-2.096391">
        <ele>1232.1</ele>
        <time>2019-12-29T12:51:15Z</time>
      </trkpt>
      <trkpt lat="40.068760" lon="-2.096579">
        <ele>1231.7</ele>
        <time>2019-12-29T12:51:17Z</time>
      </trkpt>
      <trkpt lat="40.068790" lon="-2.096754">
        <ele>1231.3</ele>
        <time>2019-12-29T12:51:19Z</time>
      </trkpt>
      <trkpt lat="40.068844" lon="-2.096909">
        <ele>1231.1</ele>
        <time>2019-12-29T12:51:21Z</time>
      </trkpt>
      <trkpt lat="40.068917" lon="-2.097058">
        <ele>1231.1</ele>
        <time>2019-12-29T12:51:23Z</time>
      </trkpt>
      <trkpt lat="40.068996" lon="-2.097212">
        <ele>1231.2</ele>
        <time>2019-12-29T12:51:25Z</time>
      </trkpt>
      <trkpt lat="40.069070" lon="-2.097366">
        <ele>1231.0</ele>
        <time>2019-12-29T12:51:27Z</time>
      </trkpt>
      <trkpt lat="40.069150" lon="-2.097516">
        <ele>1230.8</ele>
        <time>2019-12-29T12:51:29Z</time>
      </trkpt>
      <trkpt lat="40.069222" lon="-2.097674">
        <ele>1230.5</ele>
        <time>2019-12-29T12:51:31Z</time>
      </trkpt>
      <trkpt lat="40.069305" lon="-2.097834">
        <ele>1230.0</ele>
        <time>2019-12-29T12:51:33Z</time>
      </trkpt>
      <trkpt lat="40.069387" lon="-2.097993">
        <ele>1229.4</ele>
        <time>2019-12-29T12:51:35Z</time>
      </trkpt>
      <trkpt lat="40.069474" lon="-2.098144">
        <ele>1228.9</ele>
        <time>2019-12-29T12:51:37Z</time>
      </trkpt>
      <trkpt lat="40.069556" lon="-2.098304">
        <ele>1228.6</ele>
        <time>2019-12-29T12:51:39Z</time>
      </trkpt>
      <trkpt lat="40.069641" lon="-2.098469">
        <ele>1228.3</ele>
        <time>2019-12-29T12:51:41Z</time>
      </trkpt>
      <trkpt lat="40.069726" lon="-2.098645">
        <ele>1227.8</ele>
        <time>2019-12-29T12:51:43Z</time>
      </trkpt>
      <trkpt lat="40.069807" lon="-2.098827">
        <ele>1227.1</ele>
        <time>2019-12-29T12:51:45Z</time>
      </trkpt>
      <trkpt lat="40.069885" lon="-2.099016">
        <ele>1226.5</ele>
        <time>2019-12-29T12:51:47Z</time>
      </trkpt>
      <trkpt lat="40.069971" lon="-2.099192">
        <ele>1225.8</ele>
        <time>2019-12-29T12:51:49Z</time>
      </trkpt>
      <trkpt lat="40.070055" lon="-2.099364">
        <ele>1225.2</ele>
        <time>2019-12-29T12:51:51Z</time>
      </trkpt>
      <trkpt lat="40.070139" lon="-2.099545">
        <ele>1224.7</ele>
        <time>2019-12-29T12:51:53Z</time>
      </trkpt>
      <trkpt lat="40.070224" lon="-2.099726">
        <ele>1224.2</ele>
        <time>2019-12-29T12:51:55Z</time>
      </trkpt>
      <trkpt lat="40.070318" lon="-2.099910">
        <ele>1223.6</ele>
        <time>2019-12-29T12:51:57Z</time>
      </trkpt>
      <trkpt lat="40.070413" lon="-2.100102">
        <ele>1223.0</ele>
        <time>2019-12-29T12:51:59Z</time>
      </trkpt>
      <trkpt lat="40.070507" lon="-2.100293">
        <ele>1222.3</ele>
        <time>2019-12-29T12:52:01Z</time>
      </trkpt>
      <trkpt lat="40.070609" lon="-2.100448">
        <ele>1221.8</ele>
        <time>2019-12-29T12:52:03Z</time>
      </trkpt>
      <trkpt lat="40.070684" lon="-2.100594">
        <ele>1221.4</ele>
        <time>2019-12-29T12:52:05Z</time>
      </trkpt>
      <trkpt lat="40.070736" lon="-2.100732">
        <ele>1221.1</ele>
        <time>2019-12-29T12:52:07Z</time>
      </trkpt>
      <trkpt lat="40.070801" lon="-2.100859">
        <ele>1220.9</ele>
        <time>2019-12-29T12:52:09Z</time>
      </trkpt>
      <trkpt lat="40.070868" lon="-2.100985">
        <ele>1220.8</ele>
        <time>2019-12-29T12:52:11Z</time>
      </trkpt>
      <trkpt lat="40.070932" lon="-2.101108">
        <ele>1220.6</ele>
        <time>2019-12-29T12:52:13Z</time>
      </trkpt>
      <trkpt lat="40.070994" lon="-2.101227">
        <ele>1220.7</ele>
        <time>2019-12-29T12:52:15Z</time>
      </trkpt>
      <trkpt lat="40.071047" lon="-2.101343">
        <ele>1221.0</ele>
        <time>2019-12-29T12:52:17Z</time>
      </trkpt>
      <trkpt lat="40.071109" lon="-2.101450">
        <ele>1221.2</ele>
        <time>2019-12-29T12:52:19Z</time>
      </trkpt>
      <trkpt lat="40.071177" lon="-2.101561">
        <ele>1221.3</ele>
        <time>2019-12-29T12:52:21Z</time>
      </trkpt>
      <trkpt lat="40.071241" lon="-2.101680">
        <ele>1221.3</ele>
        <time>2019-12-29T12:52:23Z</time>
      </trkpt>
      <trkpt lat="40.071299" lon="-2.101802">
        <ele>1221.4</ele>
        <time>2019-12-29T12:52:25Z</time>
      </trkpt>
      <trkpt lat="40.071352" lon="-2.101929">
        <ele>1221.4</ele>
        <time>2019-12-29T12:52:27Z</time>
      </trkpt>
      <trkpt lat="40.071405" lon="-2.102057">
        <ele>1221.4</ele>
        <time>2019-12-29T12:52:29Z</time>
      </trkpt>
      <trkpt lat="40.071458" lon="-2.102188">
        <ele>1221.4</ele>
        <time>2019-12-29T12:52:31Z</time>
      </trkpt>
      <trkpt lat="40.071503" lon="-2.102328">
        <ele>1221.3</ele>
        <time>2019-12-29T12:52:33Z</time>
      </trkpt>
      <trkpt lat="40.071555" lon="-2.102468">
        <ele>1221.2</ele>
        <time>2019-12-29T12:52:35Z</time>
      </trkpt>
      <trkpt lat="40.071606" lon="-2.102611">
        <ele>1221.1</ele>
        <time>2019-12-29T12:52:37Z</time>
      </trkpt>
      <trkpt lat="40.071652" lon="-2.102753">
        <ele>1221.1</ele>
        <time>2019-12-29T12:52:39Z</time>
      </trkpt>
      <trkpt lat="40.071686" lon="-2.102895">
        <ele>1220.9</ele>
        <time>2019-12-29T12:52:41Z</time>
      </trkpt>
      <trkpt lat="40.071698" lon="-2.103049">
        <ele>1220.7</ele>
        <time>2019-12-29T12:52:43Z</time>
      </trkpt>
      <trkpt lat="40.071703" lon="-2.103214">
        <ele>1220.4</ele>
        <time>2019-12-29T12:52:45Z</time>
      </trkpt>
      <trkpt lat="40.071696" lon="-2.103385">
        <ele>1220.0</ele>
        <time>2019-12-29T12:52:47Z</time>
      </trkpt>
      <trkpt lat="40.071693" lon="-2.103563">
        <ele>1219.6</ele>
        <time>2019-12-29T12:52:49Z</time>
      </trkpt>
      <trkpt lat="40.071674" lon="-2.103742">
        <ele>1219.2</ele>
        <time>2019-12-29T12:52:51Z</time>
      </trkpt>
      <trkpt lat="40.071672" lon="-2.103926">
        <ele>1218.7</ele>
        <time>2019-12-29T12:52:53Z</time>
      </trkpt>
      <trkpt lat="40.071671" lon="-2.104109">
        <ele>1218.2</ele>
        <time>2019-12-29T12:52:55Z</time>
      </trkpt>
      <trkpt lat="40.071675" lon="-2.104295">
        <ele>1217.7</ele>
        <time>2019-12-29T12:52:57Z</time>
      </trkpt>
      <trkpt lat="40.071678" lon="-2.104484">
        <ele>1216.9</ele>
        <time>2019-12-29T12:52:59Z</time>
      </trkpt>
      <trkpt lat="40.071672" lon="-2.104679">
        <ele>1216.1</ele>
        <time>2019-12-29T12:53:01Z</time>
      </trkpt>
      <trkpt lat="40.071677" lon="-2.104879">
        <ele>1215.6</ele>
        <time>2019-12-29T12:53:03Z</time>
      </trkpt>
      <trkpt lat="40.071676" lon="-2.105087">
        <ele>1214.8</ele>
        <time>2019-12-29T12:53:05Z</time>
      </trkpt>
      <trkpt lat="40.071678" lon="-2.105288">
        <ele>1213.8</ele>
        <time>2019-12-29T12:53:07Z</time>
      </trkpt>
      <trkpt lat="40.071680" lon="-2.105481">
        <ele>1212.8</ele>
        <time>2019-12-29T12:53:09Z</time>
      </trkpt>
      <trkpt lat="40.071680" lon="-2.105675">
        <ele>1212.0</ele>
        <time>2019-12-29T12:53:11Z</time>
      </trkpt>
      <trkpt lat="40.071678" lon="-2.105864">
        <ele>1211.3</ele>
        <time>2019-12-29T12:53:13Z</time>
      </trkpt>
      <trkpt lat="40.071672" lon="-2.106050">
        <ele>1210.8</ele>
        <time>2019-12-29T12:53:15Z</time>
      </trkpt>
      <trkpt lat="40.071675" lon="-2.106232">
        <ele>1210.3</ele>
        <time>2019-12-29T12:53:17Z</time>
      </trkpt>
      <trkpt lat="40.071663" lon="-2.106412">
        <ele>1209.8</ele>
        <time>2019-12-29T12:53:19Z</time>
      </trkpt>
      <trkpt lat="40.071647" lon="-2.106595">
        <ele>1209.2</ele>
        <time>2019-12-29T12:53:21Z</time>
      </trkpt>
      <trkpt lat="40.071656" lon="-2.106789">
        <ele>1208.7</ele>
        <time>2019-12-29T12:53:23Z</time>
      </trkpt>
      <trkpt lat="40.071659" lon="-2.106995">
        <ele>1208.1</ele>
        <time>2019-12-29T12:53:25Z</time>
      </trkpt>
      <trkpt lat="40.071663" lon="-2.107199">
        <ele>1207.5</ele>
        <time>2019-12-29T12:53:27Z</time>
      </trkpt>
      <trkpt lat="40.071656" lon="-2.107394">
        <ele>1206.9</ele>
        <time>2019-12-29T12:53:29Z</time>
      </trkpt>
      <trkpt lat="40.071651" lon="-2.107594">
        <ele>1206.0</ele>
        <time>2019-12-29T12:53:31Z</time>
      </trkpt>
      <trkpt lat="40.071654" lon="-2.107793">
        <ele>1205.1</ele>
        <time>2019-12-29T12:53:33Z</time>
      </trkpt>
      <trkpt lat="40.071650" lon="-2.107982">
        <ele>1204.1</ele>
        <time>2019-12-29T12:53:35Z</time>
      </trkpt>
      <trkpt lat="40.071662" lon="-2.108175">
        <ele>1203.2</ele>
        <time>2019-12-29T12:53:37Z</time>
      </trkpt>
      <trkpt lat="40.071655" lon="-2.108373">
        <ele>1202.3</ele>
        <time>2019-12-29T12:53:39Z</time>
      </trkpt>
      <trkpt lat="40.071644" lon="-2.108575">
        <ele>1201.2</ele>
        <time>2019-12-29T12:53:41Z</time>
      </trkpt>
      <trkpt lat="40.071653" lon="-2.108781">
        <ele>1200.1</ele>
        <time>2019-12-29T12:53:43Z</time>
      </trkpt>
      <trkpt lat="40.071657" lon="-2.108981">
        <ele>1199.2</ele>
        <time>2019-12-29T12:53:45Z</time>
      </trkpt>
      <trkpt lat="40.071647" lon="-2.109182">
        <ele>1198.7</ele>
        <time>2019-12-29T12:53:47Z</time>
      </trkpt>
      <trkpt lat="40.071643" lon="-2.109381">
        <ele>1198.0</ele>
        <time>2019-12-29T12:53:49Z</time>
      </trkpt>
      <trkpt lat="40.071639" lon="-2.109577">
        <ele>1197.3</ele>
        <time>2019-12-29T12:53:51Z</time>
      </trkpt>
      <trkpt lat="40.071633" lon="-2.109774">
        <ele>1196.8</ele>
        <time>2019-12-29T12:53:53Z</time>
      </trkpt>
      <trkpt lat="40.071638" lon="-2.109961">
        <ele>1196.5</ele>
        <time>2019-12-29T12:53:55Z</time>
      </trkpt>
      <trkpt lat="40.071645" lon="-2.110148">
        <ele>1196.2</ele>
        <time>2019-12-29T12:53:57Z</time>
      </trkpt>
      <trkpt lat="40.071658" lon="-2.110338">
        <ele>1195.8</ele>
        <time>2019-12-29T12:53:59Z</time>
      </trkpt>
      <trkpt lat="40.071684" lon="-2.110525">
        <ele>1195.2</ele>
        <time>2019-12-29T12:54:01Z</time>
      </trkpt>
      <trkpt lat="40.071706" lon="-2.110702">
        <ele>1194.7</ele>
        <time>2019-12-29T12:54:03Z</time>
      </trkpt>
      <trkpt lat="40.071863" lon="-2.111082">
        <ele>1194.7</ele>
        <time>2019-12-29T12:54:08Z</time>
      </trkpt>
      <trkpt lat="40.071980" lon="-2.111160">
        <ele>1194.1</ele>
        <time>2019-12-29T12:54:10Z</time>
      </trkpt>
      <trkpt lat="40.072100" lon="-2.111161">
        <ele>1193.6</ele>
        <time>2019-12-29T12:54:12Z</time>
      </trkpt>
      <trkpt lat="40.072199" lon="-2.111084">
        <ele>1193.2</ele>
        <time>2019-12-29T12:54:14Z</time>
      </trkpt>
      <trkpt lat="40.072292" lon="-2.110978">
        <ele>1192.9</ele>
        <time>2019-12-29T12:54:16Z</time>
      </trkpt>
      <trkpt lat="40.072383" lon="-2.110847">
        <ele>1192.4</ele>
        <time>2019-12-29T12:54:18Z</time>
      </trkpt>
      <trkpt lat="40.072450" lon="-2.110688">
        <ele>1191.8</ele>
        <time>2019-12-29T12:54:20Z</time>
      </trkpt>
      <trkpt lat="40.072500" lon="-2.110503">
        <ele>1191.2</ele>
        <time>2019-12-29T12:54:22Z</time>
      </trkpt>
      <trkpt lat="40.072545" lon="-2.110300">
        <ele>1190.3</ele>
        <time>2019-12-29T12:54:24Z</time>
      </trkpt>
      <trkpt lat="40.072570" lon="-2.110088">
        <ele>1189.2</ele>
        <time>2019-12-29T12:54:26Z</time>
      </trkpt>
      <trkpt lat="40.072593" lon="-2.109884">
        <ele>1188.2</ele>
        <time>2019-12-29T12:54:28Z</time>
      </trkpt>
      <trkpt lat="40.072603" lon="-2.109686">
        <ele>1187.5</ele>
        <time>2019-12-29T12:54:30Z</time>
      </trkpt>
      <trkpt lat="40.072588" lon="-2.109492">
        <ele>1187.0</ele>
        <time>2019-12-29T12:54:32Z</time>
      </trkpt>
      <trkpt lat="40.072561" lon="-2.109307">
        <ele>1186.5</ele>
        <time>2019-12-29T12:54:34Z</time>
      </trkpt>
      <trkpt lat="40.072572" lon="-2.109135">
        <ele>1186.1</ele>
        <time>2019-12-29T12:54:36Z</time>
      </trkpt>
      <trkpt lat="40.072658" lon="-2.109031">
        <ele>1185.6</ele>
        <time>2019-12-29T12:54:38Z</time>
      </trkpt>
      <trkpt lat="40.072761" lon="-2.109071">
        <ele>1185.3</ele>
        <time>2019-12-29T12:54:40Z</time>
      </trkpt>
      <trkpt lat="40.072811" lon="-2.109183">
        <ele>1184.9</ele>
        <time>2019-12-29T12:54:42Z</time>
      </trkpt>
      <trkpt lat="40.072863" lon="-2.109349">
        <ele>1184.4</ele>
        <time>2019-12-29T12:54:44Z</time>
      </trkpt>
      <trkpt lat="40.072910" lon="-2.109549">
        <ele>1183.9</ele>
        <time>2019-12-29T12:54:46Z</time>
      </trkpt>
      <trkpt lat="40.072970" lon="-2.109766">
        <ele>1183.3</ele>
        <time>2019-12-29T12:54:48Z</time>
      </trkpt>
      <trkpt lat="40.073027" lon="-2.109988">
        <ele>1182.2</ele>
        <time>2019-12-29T12:54:50Z</time>
      </trkpt>
      <trkpt lat="40.073051" lon="-2.110103">
        <ele>1181.6</ele>
        <time>2019-12-29T12:54:51Z</time>
      </trkpt>
      <trkpt lat="40.073090" lon="-2.110330">
        <ele>1179.8</ele>
        <time>2019-12-29T12:54:53Z</time>
      </trkpt>
      <trkpt lat="40.073117" lon="-2.110450">
        <ele>1178.8</ele>
        <time>2019-12-29T12:54:54Z</time>
      </trkpt>
      <trkpt lat="40.073143" lon="-2.110571">
        <ele>1178.0</ele>
        <time>2019-12-29T12:54:55Z</time>
      </trkpt>
      <trkpt lat="40.073170" lon="-2.110686">
        <ele>1176.7</ele>
        <time>2019-12-29T12:54:56Z</time>
      </trkpt>
      <trkpt lat="40.073219" lon="-2.110895">
        <ele>1174.3</ele>
        <time>2019-12-29T12:54:58Z</time>
      </trkpt>
      <trkpt lat="40.073253" lon="-2.111114">
        <ele>1171.9</ele>
        <time>2019-12-29T12:55:00Z</time>
      </trkpt>
      <trkpt lat="40.073224" lon="-2.111304">
        <ele>1169.7</ele>
        <time>2019-12-29T12:55:02Z</time>
      </trkpt>
      <trkpt lat="40.073157" lon="-2.111463">
        <ele>1167.8</ele>
        <time>2019-12-29T12:55:04Z</time>
      </trkpt>
      <trkpt lat="40.073080" lon="-2.111645">
        <ele>1166.0</ele>
        <time>2019-12-29T12:55:06Z</time>
      </trkpt>
      <trkpt lat="40.072997" lon="-2.111815">
        <ele>1164.5</ele>
        <time>2019-12-29T12:55:08Z</time>
      </trkpt>
      <trkpt lat="40.072919" lon="-2.111942">
        <ele>1162.9</ele>
        <time>2019-12-29T12:55:10Z</time>
      </trkpt>
      <trkpt lat="40.072813" lon="-2.112038">
        <ele>1161.1</ele>
        <time>2019-12-29T12:55:12Z</time>
      </trkpt>
      <trkpt lat="40.072688" lon="-2.112102">
        <ele>1159.6</ele>
        <time>2019-12-29T12:55:14Z</time>
      </trkpt>
      <trkpt lat="40.072589" lon="-2.112202">
        <ele>1158.4</ele>
        <time>2019-12-29T12:55:16Z</time>
      </trkpt>
      <trkpt lat="40.072481" lon="-2.112316">
        <ele>1156.7</ele>
        <time>2019-12-29T12:55:20Z</time>
      </trkpt>
      <trkpt lat="40.072388" lon="-2.112401">
        <ele>1156.2</ele>
        <time>2019-12-29T12:55:22Z</time>
      </trkpt>
      <trkpt lat="40.072328" lon="-2.112547">
        <ele>1155.7</ele>
        <time>2019-12-29T12:55:25Z</time>
      </trkpt>
      <trkpt lat="40.072277" lon="-2.112646">
        <ele>1155.5</ele>
        <time>2019-12-29T12:55:27Z</time>
      </trkpt>
      <trkpt lat="40.072212" lon="-2.112755">
        <ele>1155.3</ele>
        <time>2019-12-29T12:55:29Z</time>
      </trkpt>
      <trkpt lat="40.072143" lon="-2.112873">
        <ele>1154.9</ele>
        <time>2019-12-29T12:55:31Z</time>
      </trkpt>
      <trkpt lat="40.072071" lon="-2.112992">
        <ele>1154.5</ele>
        <time>2019-12-29T12:55:33Z</time>
      </trkpt>
      <trkpt lat="40.071988" lon="-2.113123">
        <ele>1153.9</ele>
        <time>2019-12-29T12:55:35Z</time>
      </trkpt>
      <trkpt lat="40.071904" lon="-2.113248">
        <ele>1153.5</ele>
        <time>2019-12-29T12:55:37Z</time>
      </trkpt>
      <trkpt lat="40.071839" lon="-2.113349">
        <ele>1152.5</ele>
        <time>2019-12-29T12:55:39Z</time>
      </trkpt>
      <trkpt lat="40.071773" lon="-2.113463">
        <ele>1151.6</ele>
        <time>2019-12-29T12:55:42Z</time>
      </trkpt>
      <trkpt lat="40.071685" lon="-2.113522">
        <ele>1151.1</ele>
        <time>2019-12-29T12:55:46Z</time>
      </trkpt>
      <trkpt lat="40.071587" lon="-2.113518">
        <ele>1152.0</ele>
        <time>2019-12-29T12:55:51Z</time>
      </trkpt>
      <trkpt lat="40.071481" lon="-2.113481">
        <ele>1152.5</ele>
        <time>2019-12-29T12:55:55Z</time>
      </trkpt>
      <trkpt lat="40.071383" lon="-2.113444">
        <ele>1152.4</ele>
        <time>2019-12-29T12:55:59Z</time>
      </trkpt>
      <trkpt lat="40.071281" lon="-2.113391">
        <ele>1150.9</ele>
        <time>2019-12-29T12:56:04Z</time>
      </trkpt>
      <trkpt lat="40.071171" lon="-2.113392">
        <ele>1148.6</ele>
        <time>2019-12-29T12:56:10Z</time>
      </trkpt>
      <trkpt lat="40.071082" lon="-2.113368">
        <ele>1146.0</ele>
        <time>2019-12-29T12:56:15Z</time>
      </trkpt>
      <trkpt lat="40.070974" lon="-2.113290">
        <ele>1143.0</ele>
        <time>2019-12-29T12:56:20Z</time>
      </trkpt>
      <trkpt lat="40.070878" lon="-2.113170">
        <ele>1141.1</ele>
        <time>2019-12-29T12:56:23Z</time>
      </trkpt>
      <trkpt lat="40.070784" lon="-2.113127">
        <ele>1139.7</ele>
        <time>2019-12-29T12:56:25Z</time>
      </trkpt>
      <trkpt lat="40.070664" lon="-2.113156">
        <ele>1137.1</ele>
        <time>2019-12-29T12:56:29Z</time>
      </trkpt>
      <trkpt lat="40.070561" lon="-2.113136">
        <ele>1135.1</ele>
        <time>2019-12-29T12:56:32Z</time>
      </trkpt>
      <trkpt lat="40.070458" lon="-2.113127">
        <ele>1134.1</ele>
        <time>2019-12-29T12:56:35Z</time>
      </trkpt>
      <trkpt lat="40.070340" lon="-2.113095">
        <ele>1133.2</ele>
        <time>2019-12-29T12:56:38Z</time>
      </trkpt>
      <trkpt lat="40.070224" lon="-2.113056">
        <ele>1132.2</ele>
        <time>2019-12-29T12:56:41Z</time>
      </trkpt>
      <trkpt lat="40.070105" lon="-2.112993">
        <ele>1131.3</ele>
        <time>2019-12-29T12:56:44Z</time>
      </trkpt>
      <trkpt lat="40.069995" lon="-2.112939">
        <ele>1130.7</ele>
        <time>2019-12-29T12:56:47Z</time>
      </trkpt>
      <trkpt lat="40.069894" lon="-2.112950">
        <ele>1130.2</ele>
        <time>2019-12-29T12:56:50Z</time>
      </trkpt>
      <trkpt lat="40.069794" lon="-2.112907">
        <ele>1129.7</ele>
        <time>2019-12-29T12:56:55Z</time>
      </trkpt>
      <trkpt lat="40.069678" lon="-2.112889">
        <ele>1130.3</ele>
        <time>2019-12-29T12:56:59Z</time>
      </trkpt>
      <trkpt lat="40.069584" lon="-2.112872">
        <ele>1130.2</ele>
        <time>2019-12-29T12:57:03Z</time>
      </trkpt>
      <trkpt lat="40.069468" lon="-2.112859">
        <ele>1129.7</ele>
        <time>2019-12-29T12:57:08Z</time>
      </trkpt>
      <trkpt lat="40.069366" lon="-2.112868">
        <ele>1129.1</ele>
        <time>2019-12-29T12:57:11Z</time>
      </trkpt>
      <trkpt lat="40.069256" lon="-2.112842">
        <ele>1128.0</ele>
        <time>2019-12-29T12:57:15Z</time>
      </trkpt>
      <trkpt lat="40.069123" lon="-2.112839">
        <ele>1126.9</ele>
        <time>2019-12-29T12:57:18Z</time>
      </trkpt>
      <trkpt lat="40.068994" lon="-2.112872">
        <ele>1125.9</ele>
        <time>2019-12-29T12:57:21Z</time>
      </trkpt>
      <trkpt lat="40.068881" lon="-2.112884">
        <ele>1124.6</ele>
        <time>2019-12-29T12:57:24Z</time>
      </trkpt>
      <trkpt lat="40.068763" lon="-2.112885">
        <ele>1122.6</ele>
        <time>2019-12-29T12:57:28Z</time>
      </trkpt>
      <trkpt lat="40.068652" lon="-2.112843">
        <ele>1121.0</ele>
        <time>2019-12-29T12:57:31Z</time>
      </trkpt>
      <trkpt lat="40.068563" lon="-2.112809">
        <ele>1119.4</ele>
        <time>2019-12-29T12:57:34Z</time>
      </trkpt>
      <trkpt lat="40.068468" lon="-2.112824">
        <ele>1117.8</ele>
        <time>2019-12-29T12:57:37Z</time>
      </trkpt>
      <trkpt lat="40.068369" lon="-2.112793">
        <ele>1116.2</ele>
        <time>2019-12-29T12:57:40Z</time>
      </trkpt>
      <trkpt lat="40.068281" lon="-2.112749">
        <ele>1114.5</ele>
        <time>2019-12-29T12:57:43Z</time>
      </trkpt>
      <trkpt lat="40.068209" lon="-2.112678">
        <ele>1110.9</ele>
        <time>2019-12-29T12:57:49Z</time>
      </trkpt>
      <trkpt lat="40.068105" lon="-2.112718">
        <ele>1109.1</ele>
        <time>2019-12-29T12:57:53Z</time>
      </trkpt>
      <trkpt lat="40.068014" lon="-2.112762">
        <ele>1106.4</ele>
        <time>2019-12-29T12:57:57Z</time>
      </trkpt>
      <trkpt lat="40.067935" lon="-2.112840">
        <ele>1104.2</ele>
        <time>2019-12-29T12:58:01Z</time>
      </trkpt>
      <trkpt lat="40.067850" lon="-2.112926">
        <ele>1101.9</ele>
        <time>2019-12-29T12:58:04Z</time>
      </trkpt>
      <trkpt lat="40.067759" lon="-2.112984">
        <ele>1099.8</ele>
        <time>2019-12-29T12:58:07Z</time>
      </trkpt>
      <trkpt lat="40.067640" lon="-2.113029">
        <ele>1096.8</ele>
        <time>2019-12-29T12:58:10Z</time>
      </trkpt>
      <trkpt lat="40.067551" lon="-2.113091">
        <ele>1095.1</ele>
        <time>2019-12-29T12:58:12Z</time>
      </trkpt>
      <trkpt lat="40.067502" lon="-2.113225">
        <ele>1093.9</ele>
        <time>2019-12-29T12:58:14Z</time>
      </trkpt>
      <trkpt lat="40.067603" lon="-2.113551">
        <ele>1093.5</ele>
        <time>2019-12-29T12:58:20Z</time>
      </trkpt>
      <trkpt lat="40.067682" lon="-2.113656">
        <ele>1090.0</ele>
        <time>2019-12-29T12:58:23Z</time>
      </trkpt>
      <trkpt lat="40.067768" lon="-2.113714">
        <ele>1088.5</ele>
        <time>2019-12-29T12:58:25Z</time>
      </trkpt>
      <trkpt lat="40.067858" lon="-2.113772">
        <ele>1087.4</ele>
        <time>2019-12-29T12:58:27Z</time>
      </trkpt>
      <trkpt lat="40.067948" lon="-2.113810">
        <ele>1086.5</ele>
        <time>2019-12-29T12:58:29Z</time>
      </trkpt>
      <trkpt lat="40.068037" lon="-2.113869">
        <ele>1085.4</ele>
        <time>2019-12-29T12:58:32Z</time>
      </trkpt>
      <trkpt lat="40.068145" lon="-2.113944">
        <ele>1084.3</ele>
        <time>2019-12-29T12:58:36Z</time>
      </trkpt>
      <trkpt lat="40.068250" lon="-2.114019">
        <ele>1083.5</ele>
        <time>2019-12-29T12:58:38Z</time>
      </trkpt>
      <trkpt lat="40.068334" lon="-2.114129">
        <ele>1082.5</ele>
        <time>2019-12-29T12:58:40Z</time>
      </trkpt>
      <trkpt lat="40.068340" lon="-2.114262">
        <ele>1081.4</ele>
        <time>2019-12-29T12:58:43Z</time>
      </trkpt>
      <trkpt lat="40.068332" lon="-2.114385">
        <ele>1080.4</ele>
        <time>2019-12-29T12:58:46Z</time>
      </trkpt>
      <trkpt lat="40.068301" lon="-2.114495">
        <ele>1079.5</ele>
        <time>2019-12-29T12:58:49Z</time>
      </trkpt>
      <trkpt lat="40.068338" lon="-2.114632">
        <ele>1078.4</ele>
        <time>2019-12-29T12:58:53Z</time>
      </trkpt>
      <trkpt lat="40.068414" lon="-2.114717">
        <ele>1077.8</ele>
        <time>2019-12-29T12:58:57Z</time>
      </trkpt>
      <trkpt lat="40.068447" lon="-2.114836">
        <ele>1077.8</ele>
        <time>2019-12-29T12:59:01Z</time>
      </trkpt>
      <trkpt lat="40.068425" lon="-2.114959">
        <ele>1077.7</ele>
        <time>2019-12-29T12:59:04Z</time>
      </trkpt>
      <trkpt lat="40.068384" lon="-2.115108">
        <ele>1077.7</ele>
        <time>2019-12-29T12:59:07Z</time>
      </trkpt>
      <trkpt lat="40.068358" lon="-2.115252">
        <ele>1077.7</ele>
        <time>2019-12-29T12:59:10Z</time>
      </trkpt>
      <trkpt lat="40.068350" lon="-2.115377">
        <ele>1077.7</ele>
        <time>2019-12-29T12:59:13Z</time>
      </trkpt>
      <trkpt lat="40.068331" lon="-2.115515">
        <ele>1077.7</ele>
        <time>2019-12-29T12:59:16Z</time>
      </trkpt>
      <trkpt lat="40.068338" lon="-2.115654">
        <ele>1077.7</ele>
        <time>2019-12-29T12:59:19Z</time>
      </trkpt>
      <trkpt lat="40.068382" lon="-2.115768">
        <ele>1077.7</ele>
        <time>2019-12-29T12:59:22Z</time>
      </trkpt>
      <trkpt lat="40.068410" lon="-2.115885">
        <ele>1077.9</ele>
        <time>2019-12-29T12:59:25Z</time>
      </trkpt>
      <trkpt lat="40.068458" lon="-2.115995">
        <ele>1078.1</ele>
        <time>2019-12-29T12:59:28Z</time>
      </trkpt>
      <trkpt lat="40.068479" lon="-2.116122">
        <ele>1078.2</ele>
        <time>2019-12-29T12:59:31Z</time>
      </trkpt>
      <trkpt lat="40.068508" lon="-2.116245">
        <ele>1078.4</ele>
        <time>2019-12-29T12:59:34Z</time>
      </trkpt>
      <trkpt lat="40.068579" lon="-2.116367">
        <ele>1078.7</ele>
        <time>2019-12-29T12:59:38Z</time>
      </trkpt>
      <trkpt lat="40.068685" lon="-2.116430">
        <ele>1078.4</ele>
        <time>2019-12-29T12:59:40Z</time>
      </trkpt>
      <trkpt lat="40.068796" lon="-2.116469">
        <ele>1077.8</ele>
        <time>2019-12-29T12:59:42Z</time>
      </trkpt>
      <trkpt lat="40.068911" lon="-2.116534">
        <ele>1077.2</ele>
        <time>2019-12-29T12:59:44Z</time>
      </trkpt>
      <trkpt lat="40.069030" lon="-2.116648">
        <ele>1076.6</ele>
        <time>2019-12-29T12:59:46Z</time>
      </trkpt>
      <trkpt lat="40.069140" lon="-2.116794">
        <ele>1075.9</ele>
        <time>2019-12-29T12:59:48Z</time>
      </trkpt>
      <trkpt lat="40.069243" lon="-2.116942">
        <ele>1074.8</ele>
        <time>2019-12-29T12:59:50Z</time>
      </trkpt>
      <trkpt lat="40.069339" lon="-2.117091">
        <ele>1073.8</ele>
        <time>2019-12-29T12:59:52Z</time>
      </trkpt>
      <trkpt lat="40.069374" lon="-2.117268">
        <ele>1073.0</ele>
        <time>2019-12-29T12:59:54Z</time>
      </trkpt>
      <trkpt lat="40.069383" lon="-2.117466">
        <ele>1072.5</ele>
        <time>2019-12-29T12:59:56Z</time>
      </trkpt>
      <trkpt lat="40.069370" lon="-2.117633">
        <ele>1071.4</ele>
        <time>2019-12-29T12:59:58Z</time>
      </trkpt>
      <trkpt lat="40.069386" lon="-2.117763">
        <ele>1070.5</ele>
        <time>2019-12-29T13:00:00Z</time>
      </trkpt>
      <trkpt lat="40.069449" lon="-2.117903">
        <ele>1069.7</ele>
        <time>2019-12-29T13:00:03Z</time>
      </trkpt>
      <trkpt lat="40.069508" lon="-2.118006">
        <ele>1069.1</ele>
        <time>2019-12-29T13:00:06Z</time>
      </trkpt>
      <trkpt lat="40.069562" lon="-2.118108">
        <ele>1067.3</ele>
        <time>2019-12-29T13:00:16Z</time>
      </trkpt>
      <trkpt lat="40.069628" lon="-2.118192">
        <ele>1067.3</ele>
        <time>2019-12-29T13:00:29Z</time>
      </trkpt>
      <trkpt lat="40.069737" lon="-2.118276">
        <ele>1067.3</ele>
        <time>2019-12-29T13:00:36Z</time>
      </trkpt>
      <trkpt lat="40.069860" lon="-2.118346">
        <ele>1067.1</ele>
        <time>2019-12-29T13:00:39Z</time>
      </trkpt>
      <trkpt lat="40.069955" lon="-2.118412">
        <ele>1066.7</ele>
        <time>2019-12-29T13:00:42Z</time>
      </trkpt>
      <trkpt lat="40.070045" lon="-2.118487">
        <ele>1066.4</ele>
        <time>2019-12-29T13:00:45Z</time>
      </trkpt>
      <trkpt lat="40.070060" lon="-2.118604">
        <ele>1066.6</ele>
        <time>2019-12-29T13:00:49Z</time>
      </trkpt>
      <trkpt lat="40.070007" lon="-2.118732">
        <ele>1067.2</ele>
        <time>2019-12-29T13:00:53Z</time>
      </trkpt>
      <trkpt lat="40.069925" lon="-2.118816">
        <ele>1067.6</ele>
        <time>2019-12-29T13:00:56Z</time>
      </trkpt>
      <trkpt lat="40.069844" lon="-2.118877">
        <ele>1067.9</ele>
        <time>2019-12-29T13:00:59Z</time>
      </trkpt>
      <trkpt lat="40.069823" lon="-2.119026">
        <ele>1067.7</ele>
        <time>2019-12-29T13:01:02Z</time>
      </trkpt>
      <trkpt lat="40.069810" lon="-2.119177">
        <ele>1067.0</ele>
        <time>2019-12-29T13:01:05Z</time>
      </trkpt>
      <trkpt lat="40.069818" lon="-2.119298">
        <ele>1066.5</ele>
        <time>2019-12-29T13:01:08Z</time>
      </trkpt>
      <trkpt lat="40.069858" lon="-2.119433">
        <ele>1066.2</ele>
        <time>2019-12-29T13:01:11Z</time>
      </trkpt>
      <trkpt lat="40.069942" lon="-2.119573">
        <ele>1065.2</ele>
        <time>2019-12-29T13:01:14Z</time>
      </trkpt>
      <trkpt lat="40.070050" lon="-2.119684">
        <ele>1064.1</ele>
        <time>2019-12-29T13:01:16Z</time>
      </trkpt>
      <trkpt lat="40.070176" lon="-2.119815">
        <ele>1063.2</ele>
        <time>2019-12-29T13:01:18Z</time>
      </trkpt>
      <trkpt lat="40.070285" lon="-2.119987">
        <ele>1061.8</ele>
        <time>2019-12-29T13:01:20Z</time>
      </trkpt>
      <trkpt lat="40.070401" lon="-2.120137">
        <ele>1060.3</ele>
        <time>2019-12-29T13:01:22Z</time>
      </trkpt>
      <trkpt lat="40.070487" lon="-2.120266">
        <ele>1059.3</ele>
        <time>2019-12-29T13:01:24Z</time>
      </trkpt>
      <trkpt lat="40.070521" lon="-2.120384">
        <ele>1058.6</ele>
        <time>2019-12-29T13:01:26Z</time>
      </trkpt>
      <trkpt lat="40.070568" lon="-2.120536">
        <ele>1058.2</ele>
        <time>2019-12-29T13:01:29Z</time>
      </trkpt>
      <trkpt lat="40.070610" lon="-2.120646">
        <ele>1058.5</ele>
        <time>2019-12-29T13:01:32Z</time>
      </trkpt>
      <trkpt lat="40.070629" lon="-2.120785">
        <ele>1059.5</ele>
        <time>2019-12-29T13:01:36Z</time>
      </trkpt>
      <trkpt lat="40.070681" lon="-2.120905">
        <ele>1060.0</ele>
        <time>2019-12-29T13:01:39Z</time>
      </trkpt>
      <trkpt lat="40.070696" lon="-2.121039">
        <ele>1060.0</ele>
        <time>2019-12-29T13:01:41Z</time>
      </trkpt>
      <trkpt lat="40.070720" lon="-2.121181">
        <ele>1059.5</ele>
        <time>2019-12-29T13:01:43Z</time>
      </trkpt>
      <trkpt lat="40.070750" lon="-2.121352">
        <ele>1058.2</ele>
        <time>2019-12-29T13:01:45Z</time>
      </trkpt>
      <trkpt lat="40.070756" lon="-2.121559">
        <ele>1056.4</ele>
        <time>2019-12-29T13:01:47Z</time>
      </trkpt>
      <trkpt lat="40.070749" lon="-2.121747">
        <ele>1054.1</ele>
        <time>2019-12-29T13:01:49Z</time>
      </trkpt>
      <trkpt lat="40.070775" lon="-2.121909">
        <ele>1051.7</ele>
        <time>2019-12-29T13:01:51Z</time>
      </trkpt>
      <trkpt lat="40.070811" lon="-2.122079">
        <ele>1049.4</ele>
        <time>2019-12-29T13:01:53Z</time>
      </trkpt>
      <trkpt lat="40.070827" lon="-2.122236">
        <ele>1047.2</ele>
        <time>2019-12-29T13:01:55Z</time>
      </trkpt>
      <trkpt lat="40.070859" lon="-2.122377">
        <ele>1045.0</ele>
        <time>2019-12-29T13:01:57Z</time>
      </trkpt>
      <trkpt lat="40.070895" lon="-2.122520">
        <ele>1042.9</ele>
        <time>2019-12-29T13:01:59Z</time>
      </trkpt>
      <trkpt lat="40.070945" lon="-2.122652">
        <ele>1040.7</ele>
        <time>2019-12-29T13:02:01Z</time>
      </trkpt>
      <trkpt lat="40.070992" lon="-2.122802">
        <ele>1038.2</ele>
        <time>2019-12-29T13:02:03Z</time>
      </trkpt>
      <trkpt lat="40.071031" lon="-2.122929">
        <ele>1035.4</ele>
        <time>2019-12-29T13:02:05Z</time>
      </trkpt>
      <trkpt lat="40.071073" lon="-2.123034">
        <ele>1032.5</ele>
        <time>2019-12-29T13:02:07Z</time>
      </trkpt>
      <trkpt lat="40.071106" lon="-2.123200">
        <ele>1029.7</ele>
        <time>2019-12-29T13:02:09Z</time>
      </trkpt>
      <trkpt lat="40.071089" lon="-2.123418">
        <ele>1026.9</ele>
        <time>2019-12-29T13:02:11Z</time>
      </trkpt>
      <trkpt lat="40.071081" lon="-2.123545">
        <ele>1025.5</ele>
        <time>2019-12-29T13:02:12Z</time>
      </trkpt>
      <trkpt lat="40.071096" lon="-2.123668">
        <ele>1023.8</ele>
        <time>2019-12-29T13:02:13Z</time>
      </trkpt>
      <trkpt lat="40.071127" lon="-2.123886">
        <ele>1020.7</ele>
        <time>2019-12-29T13:02:15Z</time>
      </trkpt>
      <trkpt lat="40.071065" lon="-2.124054">
        <ele>1018.2</ele>
        <time>2019-12-29T13:02:17Z</time>
      </trkpt>
      <trkpt lat="40.070996" lon="-2.124174">
        <ele>1016.1</ele>
        <time>2019-12-29T13:02:19Z</time>
      </trkpt>
      <trkpt lat="40.070948" lon="-2.124336">
        <ele>1013.8</ele>
        <time>2019-12-29T13:02:22Z</time>
      </trkpt>
      <trkpt lat="40.070931" lon="-2.124489">
        <ele>1012.4</ele>
        <time>2019-12-29T13:02:25Z</time>
      </trkpt>
      <trkpt lat="40.070926" lon="-2.124641">
        <ele>1011.8</ele>
        <time>2019-12-29T13:02:28Z</time>
      </trkpt>
      <trkpt lat="40.070946" lon="-2.124795">
        <ele>1011.2</ele>
        <time>2019-12-29T13:02:31Z</time>
      </trkpt>
      <trkpt lat="40.071025" lon="-2.124944">
        <ele>1010.7</ele>
        <time>2019-12-29T13:02:34Z</time>
      </trkpt>
      <trkpt lat="40.071094" lon="-2.125029">
        <ele>1010.5</ele>
        <time>2019-12-29T13:02:36Z</time>
      </trkpt>
      <trkpt lat="40.071163" lon="-2.125127">
        <ele>1010.2</ele>
        <time>2019-12-29T13:02:38Z</time>
      </trkpt>
      <trkpt lat="40.071221" lon="-2.125239">
        <ele>1010.0</ele>
        <time>2019-12-29T13:02:40Z</time>
      </trkpt>
      <trkpt lat="40.071259" lon="-2.125384">
        <ele>1009.6</ele>
        <time>2019-12-29T13:02:42Z</time>
      </trkpt>
      <trkpt lat="40.071288" lon="-2.125522">
        <ele>1009.0</ele>
        <time>2019-12-29T13:02:44Z</time>
      </trkpt>
      <trkpt lat="40.071299" lon="-2.125671">
        <ele>1008.0</ele>
        <time>2019-12-29T13:02:46Z</time>
      </trkpt>
      <trkpt lat="40.071297" lon="-2.125823">
        <ele>1007.2</ele>
        <time>2019-12-29T13:02:48Z</time>
      </trkpt>
      <trkpt lat="40.071328" lon="-2.125956">
        <ele>1006.3</ele>
        <time>2019-12-29T13:02:50Z</time>
      </trkpt>
      <trkpt lat="40.071364" lon="-2.126091">
        <ele>1004.9</ele>
        <time>2019-12-29T13:02:52Z</time>
      </trkpt>
      <trkpt lat="40.071438" lon="-2.126244">
        <ele>1004.0</ele>
        <time>2019-12-29T13:02:54Z</time>
      </trkpt>
      <trkpt lat="40.071489" lon="-2.126400">
        <ele>1002.8</ele>
        <time>2019-12-29T13:02:56Z</time>
      </trkpt>
      <trkpt lat="40.071521" lon="-2.126563">
        <ele>1001.2</ele>
        <time>2019-12-29T13:02:59Z</time>
      </trkpt>
      <trkpt lat="40.071453" lon="-2.126721">
        <ele>1000.0</ele>
        <time>2019-12-29T13:03:02Z</time>
      </trkpt>
      <trkpt lat="40.071353" lon="-2.126776">
        <ele>998.8</ele>
        <time>2019-12-29T13:03:04Z</time>
      </trkpt>
      <trkpt lat="40.071263" lon="-2.126737">
        <ele>997.1</ele>
        <time>2019-12-29T13:03:06Z</time>
      </trkpt>
      <trkpt lat="40.071209" lon="-2.126634">
        <ele>995.4</ele>
        <time>2019-12-29T13:03:08Z</time>
      </trkpt>
      <trkpt lat="40.071122" lon="-2.126553">
        <ele>994.1</ele>
        <time>2019-12-29T13:03:10Z</time>
      </trkpt>
      <trkpt lat="40.071009" lon="-2.126614">
        <ele>993.1</ele>
        <time>2019-12-29T13:03:12Z</time>
      </trkpt>
      <trkpt lat="40.070937" lon="-2.126736">
        <ele>991.4</ele>
        <time>2019-12-29T13:03:14Z</time>
      </trkpt>
      <trkpt lat="40.070894" lon="-2.126857">
        <ele>989.3</ele>
        <time>2019-12-29T13:03:16Z</time>
      </trkpt>
      <trkpt lat="40.070846" lon="-2.126983">
        <ele>987.9</ele>
        <time>2019-12-29T13:03:18Z</time>
      </trkpt>
      <trkpt lat="40.070756" lon="-2.127077">
        <ele>986.2</ele>
        <time>2019-12-29T13:03:20Z</time>
      </trkpt>
      <trkpt lat="40.070647" lon="-2.127128">
        <ele>984.5</ele>
        <time>2019-12-29T13:03:23Z</time>
      </trkpt>
      <trkpt lat="40.070538" lon="-2.127132">
        <ele>983.7</ele>
        <time>2019-12-29T13:03:26Z</time>
      </trkpt>
      <trkpt lat="40.070446" lon="-2.127115">
        <ele>983.2</ele>
        <time>2019-12-29T13:03:29Z</time>
      </trkpt>
      <trkpt lat="40.070360" lon="-2.127058">
        <ele>983.2</ele>
        <time>2019-12-29T13:03:32Z</time>
      </trkpt>
      <trkpt lat="40.070286" lon="-2.126955">
        <ele>983.4</ele>
        <time>2019-12-29T13:03:35Z</time>
      </trkpt>
      <trkpt lat="40.070201" lon="-2.126867">
        <ele>984.2</ele>
        <time>2019-12-29T13:03:38Z</time>
      </trkpt>
      <trkpt lat="40.070115" lon="-2.126782">
        <ele>985.0</ele>
        <time>2019-12-29T13:03:41Z</time>
      </trkpt>
      <trkpt lat="40.070033" lon="-2.126705">
        <ele>985.6</ele>
        <time>2019-12-29T13:03:44Z</time>
      </trkpt>
      <trkpt lat="40.069946" lon="-2.126634">
        <ele>986.1</ele>
        <time>2019-12-29T13:03:47Z</time>
      </trkpt>
      <trkpt lat="40.069859" lon="-2.126569">
        <ele>986.3</ele>
        <time>2019-12-29T13:03:50Z</time>
      </trkpt>
      <trkpt lat="40.069769" lon="-2.126512">
        <ele>986.5</ele>
        <time>2019-12-29T13:03:53Z</time>
      </trkpt>
      <trkpt lat="40.069672" lon="-2.126449">
        <ele>986.8</ele>
        <time>2019-12-29T13:03:56Z</time>
      </trkpt>
      <trkpt lat="40.069580" lon="-2.126396">
        <ele>987.5</ele>
        <time>2019-12-29T13:03:59Z</time>
      </trkpt>
      <trkpt lat="40.069479" lon="-2.126337">
        <ele>988.2</ele>
        <time>2019-12-29T13:04:03Z</time>
      </trkpt>
      <trkpt lat="40.069393" lon="-2.126284">
        <ele>988.9</ele>
        <time>2019-12-29T13:04:07Z</time>
      </trkpt>
      <trkpt lat="40.069294" lon="-2.126237">
        <ele>989.6</ele>
        <time>2019-12-29T13:04:11Z</time>
      </trkpt>
      <trkpt lat="40.069190" lon="-2.126177">
        <ele>990.1</ele>
        <time>2019-12-29T13:04:15Z</time>
      </trkpt>
      <trkpt lat="40.069099" lon="-2.126094">
        <ele>990.4</ele>
        <time>2019-12-29T13:04:19Z</time>
      </trkpt>
      <trkpt lat="40.069034" lon="-2.126013">
        <ele>990.7</ele>
        <time>2019-12-29T13:04:22Z</time>
      </trkpt>
      <trkpt lat="40.068945" lon="-2.125917">
        <ele>991.2</ele>
        <time>2019-12-29T13:04:25Z</time>
      </trkpt>
      <trkpt lat="40.068877" lon="-2.125816">
        <ele>991.5</ele>
        <time>2019-12-29T13:04:28Z</time>
      </trkpt>
      <trkpt lat="40.068802" lon="-2.125714">
        <ele>991.5</ele>
        <time>2019-12-29T13:04:31Z</time>
      </trkpt>
      <trkpt lat="40.068739" lon="-2.125583">
        <ele>991.0</ele>
        <time>2019-12-29T13:04:34Z</time>
      </trkpt>
      <trkpt lat="40.068707" lon="-2.125473">
        <ele>990.6</ele>
        <time>2019-12-29T13:04:36Z</time>
      </trkpt>
      <trkpt lat="40.068675" lon="-2.125355">
        <ele>990.2</ele>
        <time>2019-12-29T13:04:38Z</time>
      </trkpt>
      <trkpt lat="40.068608" lon="-2.125222">
        <ele>989.8</ele>
        <time>2019-12-29T13:04:41Z</time>
      </trkpt>
      <trkpt lat="40.068437" lon="-2.125028">
        <ele>989.6</ele>
        <time>2019-12-29T13:04:50Z</time>
      </trkpt>
      <trkpt lat="40.068355" lon="-2.124967">
        <ele>990.9</ele>
        <time>2019-12-29T13:04:54Z</time>
      </trkpt>
      <trkpt lat="40.068245" lon="-2.124935">
        <ele>991.8</ele>
        <time>2019-12-29T13:04:58Z</time>
      </trkpt>
      <trkpt lat="40.068160" lon="-2.124862">
        <ele>992.2</ele>
        <time>2019-12-29T13:05:01Z</time>
      </trkpt>
      <trkpt lat="40.068063" lon="-2.124784">
        <ele>992.2</ele>
        <time>2019-12-29T13:05:04Z</time>
      </trkpt>
      <trkpt lat="40.067953" lon="-2.124735">
        <ele>991.6</ele>
        <time>2019-12-29T13:05:07Z</time>
      </trkpt>
      <trkpt lat="40.067878" lon="-2.124668">
        <ele>989.7</ele>
        <time>2019-12-29T13:05:12Z</time>
      </trkpt>
      <trkpt lat="40.067914" lon="-2.124798">
        <ele>986.6</ele>
        <time>2019-12-29T13:05:31Z</time>
      </trkpt>
      <trkpt lat="40.067981" lon="-2.124947">
        <ele>986.1</ele>
        <time>2019-12-29T13:05:34Z</time>
      </trkpt>
      <trkpt lat="40.067977" lon="-2.125080">
        <ele>984.9</ele>
        <time>2019-12-29T13:05:38Z</time>
      </trkpt>
      <trkpt lat="40.067908" lon="-2.125164">
        <ele>984.0</ele>
        <time>2019-12-29T13:05:40Z</time>
      </trkpt>
      <trkpt lat="40.067800" lon="-2.125225">
        <ele>981.5</ele>
        <time>2019-12-29T13:05:43Z</time>
      </trkpt>
      <trkpt lat="40.067701" lon="-2.125174">
        <ele>980.1</ele>
        <time>2019-12-29T13:05:46Z</time>
      </trkpt>
      <trkpt lat="40.067608" lon="-2.125136">
        <ele>979.4</ele>
        <time>2019-12-29T13:05:49Z</time>
      </trkpt>
      <trkpt lat="40.067520" lon="-2.125100">
        <ele>978.9</ele>
        <time>2019-12-29T13:05:52Z</time>
      </trkpt>
      <trkpt lat="40.067428" lon="-2.125038">
        <ele>978.6</ele>
        <time>2019-12-29T13:05:55Z</time>
      </trkpt>
      <trkpt lat="40.067329" lon="-2.124966">
        <ele>978.5</ele>
        <time>2019-12-29T13:05:59Z</time>
      </trkpt>
      <trkpt lat="40.067235" lon="-2.124901">
        <ele>977.3</ele>
        <time>2019-12-29T13:06:47Z</time>
      </trkpt>
      <trkpt lat="40.067150" lon="-2.124807">
        <ele>977.2</ele>
        <time>2019-12-29T13:06:51Z</time>
      </trkpt>
      <trkpt lat="40.067039" lon="-2.124724">
        <ele>977.1</ele>
        <time>2019-12-29T13:06:54Z</time>
      </trkpt>
      <trkpt lat="40.066948" lon="-2.124658">
        <ele>977.1</ele>
        <time>2019-12-29T13:06:56Z</time>
      </trkpt>
      <trkpt lat="40.066854" lon="-2.124583">
        <ele>977.0</ele>
        <time>2019-12-29T13:06:58Z</time>
      </trkpt>
      <trkpt lat="40.066757" lon="-2.124499">
        <ele>976.6</ele>
        <time>2019-12-29T13:07:00Z</time>
      </trkpt>
      <trkpt lat="40.066659" lon="-2.124419">
        <ele>976.2</ele>
        <time>2019-12-29T13:07:02Z</time>
      </trkpt>
      <trkpt lat="40.066563" lon="-2.124342">
        <ele>975.9</ele>
        <time>2019-12-29T13:07:04Z</time>
      </trkpt>
      <trkpt lat="40.066467" lon="-2.124277">
        <ele>975.8</ele>
        <time>2019-12-29T13:07:06Z</time>
      </trkpt>
      <trkpt lat="40.066377" lon="-2.124209">
        <ele>975.8</ele>
        <time>2019-12-29T13:07:08Z</time>
      </trkpt>
      <trkpt lat="40.066285" lon="-2.124147">
        <ele>975.8</ele>
        <time>2019-12-29T13:07:10Z</time>
      </trkpt>
      <trkpt lat="40.066196" lon="-2.124077">
        <ele>975.7</ele>
        <time>2019-12-29T13:07:12Z</time>
      </trkpt>
      <trkpt lat="40.066108" lon="-2.123997">
        <ele>975.7</ele>
        <time>2019-12-29T13:07:14Z</time>
      </trkpt>
      <trkpt lat="40.066017" lon="-2.123931">
        <ele>975.6</ele>
        <time>2019-12-29T13:07:16Z</time>
      </trkpt>
      <trkpt lat="40.065927" lon="-2.123862">
        <ele>975.5</ele>
        <time>2019-12-29T13:07:18Z</time>
      </trkpt>
      <trkpt lat="40.065849" lon="-2.123789">
        <ele>975.6</ele>
        <time>2019-12-29T13:07:20Z</time>
      </trkpt>
      <trkpt lat="40.065752" lon="-2.123692">
        <ele>975.7</ele>
        <time>2019-12-29T13:07:23Z</time>
      </trkpt>
      <trkpt lat="40.065646" lon="-2.123694">
        <ele>975.8</ele>
        <time>2019-12-29T13:07:26Z</time>
      </trkpt>
      <trkpt lat="40.065577" lon="-2.123801">
        <ele>975.8</ele>
        <time>2019-12-29T13:07:29Z</time>
      </trkpt>
      <trkpt lat="40.065532" lon="-2.123904">
        <ele>975.8</ele>
        <time>2019-12-29T13:07:31Z</time>
      </trkpt>
      <trkpt lat="40.065475" lon="-2.124017">
        <ele>975.6</ele>
        <time>2019-12-29T13:07:33Z</time>
      </trkpt>
      <trkpt lat="40.065416" lon="-2.124147">
        <ele>975.2</ele>
        <time>2019-12-29T13:07:35Z</time>
      </trkpt>
      <trkpt lat="40.065354" lon="-2.124274">
        <ele>974.8</ele>
        <time>2019-12-29T13:07:37Z</time>
      </trkpt>
      <trkpt lat="40.065275" lon="-2.124376">
        <ele>974.3</ele>
        <time>2019-12-29T13:07:39Z</time>
      </trkpt>
      <trkpt lat="40.065166" lon="-2.124424">
        <ele>973.5</ele>
        <time>2019-12-29T13:07:42Z</time>
      </trkpt>
      <trkpt lat="40.065077" lon="-2.124449">
        <ele>972.0</ele>
        <time>2019-12-29T13:07:49Z</time>
      </trkpt>
      <trkpt lat="40.065022" lon="-2.124574">
        <ele>971.4</ele>
        <time>2019-12-29T13:07:53Z</time>
      </trkpt>
      <trkpt lat="40.064945" lon="-2.124650">
        <ele>970.8</ele>
        <time>2019-12-29T13:07:56Z</time>
      </trkpt>
      <trkpt lat="40.064836" lon="-2.124588">
        <ele>970.6</ele>
        <time>2019-12-29T13:07:59Z</time>
      </trkpt>
      <trkpt lat="40.064731" lon="-2.124508">
        <ele>970.6</ele>
        <time>2019-12-29T13:08:02Z</time>
      </trkpt>
      <trkpt lat="40.064629" lon="-2.124436">
        <ele>970.8</ele>
        <time>2019-12-29T13:08:05Z</time>
      </trkpt>
      <trkpt lat="40.064536" lon="-2.124375">
        <ele>971.0</ele>
        <time>2019-12-29T13:08:08Z</time>
      </trkpt>
      <trkpt lat="40.064469" lon="-2.124481">
        <ele>971.5</ele>
        <time>2019-12-29T13:08:11Z</time>
      </trkpt>
      <trkpt lat="40.064414" lon="-2.124610">
        <ele>971.6</ele>
        <time>2019-12-29T13:08:14Z</time>
      </trkpt>
      <trkpt lat="40.064330" lon="-2.124735">
        <ele>971.2</ele>
        <time>2019-12-29T13:08:17Z</time>
      </trkpt>
      <trkpt lat="40.064209" lon="-2.124794">
        <ele>970.8</ele>
        <time>2019-12-29T13:08:20Z</time>
      </trkpt>
      <trkpt lat="40.064084" lon="-2.124841">
        <ele>970.6</ele>
        <time>2019-12-29T13:08:23Z</time>
      </trkpt>
      <trkpt lat="40.063969" lon="-2.124920">
        <ele>970.3</ele>
        <time>2019-12-29T13:08:26Z</time>
      </trkpt>
      <trkpt lat="40.063895" lon="-2.125040">
        <ele>970.1</ele>
        <time>2019-12-29T13:08:29Z</time>
      </trkpt>
      <trkpt lat="40.063862" lon="-2.125174">
        <ele>969.5</ele>
        <time>2019-12-29T13:08:33Z</time>
      </trkpt>
      <trkpt lat="40.063827" lon="-2.125312">
        <ele>968.8</ele>
        <time>2019-12-29T13:08:39Z</time>
      </trkpt>
      <trkpt lat="40.063745" lon="-2.125414">
        <ele>968.6</ele>
        <time>2019-12-29T13:08:43Z</time>
      </trkpt>
      <trkpt lat="40.063670" lon="-2.125489">
        <ele>968.4</ele>
        <time>2019-12-29T13:08:46Z</time>
      </trkpt>
      <trkpt lat="40.063580" lon="-2.125525">
        <ele>967.9</ele>
        <time>2019-12-29T13:08:49Z</time>
      </trkpt>
      <trkpt lat="40.063499" lon="-2.125600">
        <ele>967.6</ele>
        <time>2019-12-29T13:08:54Z</time>
      </trkpt>
      <trkpt lat="40.063442" lon="-2.125709">
        <ele>967.0</ele>
        <time>2019-12-29T13:08:59Z</time>
      </trkpt>
      <trkpt lat="40.063418" lon="-2.125826">
        <ele>966.7</ele>
        <time>2019-12-29T13:09:05Z</time>
      </trkpt>
      <trkpt lat="40.063392" lon="-2.125943">
        <ele>966.3</ele>
        <time>2019-12-29T13:09:09Z</time>
      </trkpt>
      <trkpt lat="40.063379" lon="-2.126064">
        <ele>966.1</ele>
        <time>2019-12-29T13:09:13Z</time>
      </trkpt>
      <trkpt lat="40.063334" lon="-2.126184">
        <ele>965.9</ele>
        <time>2019-12-29T13:09:18Z</time>
      </trkpt>
      <trkpt lat="40.063276" lon="-2.126297">
        <ele>965.2</ele>
        <time>2019-12-29T13:09:24Z</time>
      </trkpt>
      <trkpt lat="40.063192" lon="-2.126346">
        <ele>964.5</ele>
        <time>2019-12-29T13:09:35Z</time>
      </trkpt>
      <trkpt lat="40.063151" lon="-2.126237">
        <ele>964.7</ele>
        <time>2019-12-29T13:09:43Z</time>
      </trkpt>
      <trkpt lat="40.063077" lon="-2.126170">
        <ele>964.7</ele>
        <time>2019-12-29T13:09:57Z</time>
      </trkpt>
      <trkpt lat="40.062985" lon="-2.126135">
        <ele>964.8</ele>
        <time>2019-12-29T13:10:02Z</time>
      </trkpt>
      <trkpt lat="40.062952" lon="-2.126101">
        <ele>964.0</ele>
        <time>2019-12-29T13:10:06Z</time>
      </trkpt>
    </trkseg>
  </trk>
</gpx>
